<?xml version="1.0" encoding="UTF-8" standalone="no" ?>
<gpx xmlns="http://www.topografix.com/GPX/1/1" xmlns:xsi="http://www.w3.org/2001/XMLSchema-instance" xsi:schemaLocation="http://www.topografix.com/GPX/1/1 http://www.topografix.com/GPX/1/1/gpx.xsd" version="1.1" creator="VisuGPX - https://www.visugpx.com">
  <metadata>
    <name>Maison de la nature lamotte brebiere </name>
    <desc><![CDATA[Visite accueil All inclusive]]></desc>
  </metadata>
  <trk>
    <name><![CDATA[Maison de la nature lamotte brebiere _1]]></name>
    <trkseg>
      <trkpt lat="49.90971" lon="2.39218">
        <ele>65.7</ele>
        <time>2022-09-23T13:42:14Z</time>
      </trkpt>
      <trkpt lat="49.90967" lon="2.39222">
        <ele>65.7</ele>
        <time>2022-09-23T13:42:15Z</time>
      </trkpt>
      <trkpt lat="49.9097" lon="2.39219">
        <ele>65.7</ele>
        <time>2022-09-23T13:42:16Z</time>
      </trkpt>
      <trkpt lat="49.90971" lon="2.3922">
        <ele>65.7</ele>
        <time>2022-09-23T13:42:17Z</time>
      </trkpt>
      <trkpt lat="49.90971" lon="2.39221">
        <ele>65.7</ele>
        <time>2022-09-23T13:42:18Z</time>
      </trkpt>
      <trkpt lat="49.90971" lon="2.39222">
        <ele>65.7</ele>
        <time>2022-09-23T13:42:19Z</time>
      </trkpt>
      <trkpt lat="49.90971" lon="2.39223">
        <ele>65.7</ele>
        <time>2022-09-23T13:42:20Z</time>
      </trkpt>
      <trkpt lat="49.90971" lon="2.39224">
        <ele>65.7</ele>
        <time>2022-09-23T13:42:22Z</time>
      </trkpt>
      <trkpt lat="49.90971" lon="2.39225">
        <ele>65.7</ele>
        <time>2022-09-23T13:42:23Z</time>
      </trkpt>
      <trkpt lat="49.90972" lon="2.39226">
        <ele>65.7</ele>
        <time>2022-09-23T13:42:24Z</time>
      </trkpt>
      <trkpt lat="49.90972" lon="2.3923">
        <ele>65.7</ele>
        <time>2022-09-23T13:42:25Z</time>
      </trkpt>
      <trkpt lat="49.90972" lon="2.39232">
        <ele>65.7</ele>
        <time>2022-09-23T13:42:26Z</time>
      </trkpt>
      <trkpt lat="49.90972" lon="2.39234">
        <ele>65.7</ele>
        <time>2022-09-23T13:42:27Z</time>
      </trkpt>
      <trkpt lat="49.90973" lon="2.39236">
        <ele>65.7</ele>
        <time>2022-09-23T13:42:29Z</time>
      </trkpt>
      <trkpt lat="49.90973" lon="2.39238">
        <ele>65.7</ele>
        <time>2022-09-23T13:42:30Z</time>
      </trkpt>
      <trkpt lat="49.90974" lon="2.39241">
        <ele>65.7</ele>
        <time>2022-09-23T13:42:31Z</time>
      </trkpt>
      <trkpt lat="49.90974" lon="2.39242">
        <ele>65.7</ele>
        <time>2022-09-23T13:42:32Z</time>
      </trkpt>
      <trkpt lat="49.90974" lon="2.39244">
        <ele>65.7</ele>
        <time>2022-09-23T13:42:33Z</time>
      </trkpt>
      <trkpt lat="49.90974" lon="2.39246">
        <ele>65.7</ele>
        <time>2022-09-23T13:42:34Z</time>
      </trkpt>
      <trkpt lat="49.90974" lon="2.39249">
        <ele>65.7</ele>
        <time>2022-09-23T13:42:35Z</time>
      </trkpt>
      <trkpt lat="49.90974" lon="2.3925">
        <ele>65.7</ele>
        <time>2022-09-23T13:42:36Z</time>
      </trkpt>
      <trkpt lat="49.90974" lon="2.39251">
        <ele>65.8</ele>
        <time>2022-09-23T13:42:37Z</time>
      </trkpt>
      <trkpt lat="49.90974" lon="2.39253">
        <ele>65.8</ele>
        <time>2022-09-23T13:42:39Z</time>
      </trkpt>
      <trkpt lat="49.90974" lon="2.39254">
        <ele>65.8</ele>
        <time>2022-09-23T13:42:40Z</time>
      </trkpt>
      <trkpt lat="49.90975" lon="2.39255">
        <ele>65.8</ele>
        <time>2022-09-23T13:42:42Z</time>
      </trkpt>
      <trkpt lat="49.90975" lon="2.39257">
        <ele>65.8</ele>
        <time>2022-09-23T13:42:43Z</time>
      </trkpt>
      <trkpt lat="49.90975" lon="2.39258">
        <ele>65.8</ele>
        <time>2022-09-23T13:42:44Z</time>
      </trkpt>
      <trkpt lat="49.90976" lon="2.39258">
        <ele>65.8</ele>
        <time>2022-09-23T13:42:45Z</time>
      </trkpt>
      <trkpt lat="49.90976" lon="2.39259">
        <ele>65.8</ele>
        <time>2022-09-23T13:42:46Z</time>
      </trkpt>
      <trkpt lat="49.90977" lon="2.39261">
        <ele>65.8</ele>
        <time>2022-09-23T13:42:47Z</time>
      </trkpt>
      <trkpt lat="49.90977" lon="2.39263">
        <ele>65.9</ele>
        <time>2022-09-23T13:42:48Z</time>
      </trkpt>
      <trkpt lat="49.90978" lon="2.39265">
        <ele>65.9</ele>
        <time>2022-09-23T13:42:49Z</time>
      </trkpt>
      <trkpt lat="49.90979" lon="2.39267">
        <ele>65.9</ele>
        <time>2022-09-23T13:42:51Z</time>
      </trkpt>
      <trkpt lat="49.90981" lon="2.39271">
        <ele>65.9</ele>
        <time>2022-09-23T13:42:52Z</time>
      </trkpt>
      <trkpt lat="49.90982" lon="2.39272">
        <ele>66</ele>
        <time>2022-09-23T13:42:53Z</time>
      </trkpt>
      <trkpt lat="49.90983" lon="2.39274">
        <ele>66</ele>
        <time>2022-09-23T13:42:55Z</time>
      </trkpt>
      <trkpt lat="49.90983" lon="2.39277">
        <ele>66</ele>
        <time>2022-09-23T13:42:56Z</time>
      </trkpt>
      <trkpt lat="49.90984" lon="2.3928">
        <ele>66</ele>
        <time>2022-09-23T13:42:57Z</time>
      </trkpt>
      <trkpt lat="49.90984" lon="2.39281">
        <ele>66.1</ele>
        <time>2022-09-23T13:42:58Z</time>
      </trkpt>
      <trkpt lat="49.90985" lon="2.39283">
        <ele>66.1</ele>
        <time>2022-09-23T13:42:59Z</time>
      </trkpt>
      <trkpt lat="49.90985" lon="2.39285">
        <ele>66.1</ele>
        <time>2022-09-23T13:43:00Z</time>
      </trkpt>
      <trkpt lat="49.90986" lon="2.39287">
        <ele>66.1</ele>
        <time>2022-09-23T13:43:01Z</time>
      </trkpt>
      <trkpt lat="49.90987" lon="2.39289">
        <ele>66.1</ele>
        <time>2022-09-23T13:43:03Z</time>
      </trkpt>
      <trkpt lat="49.90988" lon="2.3929">
        <ele>66.2</ele>
        <time>2022-09-23T13:43:04Z</time>
      </trkpt>
      <trkpt lat="49.90989" lon="2.39292">
        <ele>66.2</ele>
        <time>2022-09-23T13:43:05Z</time>
      </trkpt>
      <trkpt lat="49.90989" lon="2.39293">
        <ele>66.2</ele>
        <time>2022-09-23T13:43:06Z</time>
      </trkpt>
      <trkpt lat="49.9099" lon="2.39297">
        <ele>66.2</ele>
        <time>2022-09-23T13:43:07Z</time>
      </trkpt>
      <trkpt lat="49.9099" lon="2.39298">
        <ele>66.2</ele>
        <time>2022-09-23T13:43:09Z</time>
      </trkpt>
      <trkpt lat="49.9099" lon="2.39299">
        <ele>66.2</ele>
        <time>2022-09-23T13:43:10Z</time>
      </trkpt>
      <trkpt lat="49.9099" lon="2.39301">
        <ele>66.3</ele>
        <time>2022-09-23T13:43:11Z</time>
      </trkpt>
      <trkpt lat="49.9099" lon="2.39303">
        <ele>66.3</ele>
        <time>2022-09-23T13:43:12Z</time>
      </trkpt>
      <trkpt lat="49.9099" lon="2.39304">
        <ele>66.3</ele>
        <time>2022-09-23T13:43:13Z</time>
      </trkpt>
      <trkpt lat="49.90991" lon="2.39306">
        <ele>66.3</ele>
        <time>2022-09-23T13:43:14Z</time>
      </trkpt>
      <trkpt lat="49.90991" lon="2.39307">
        <ele>66.3</ele>
        <time>2022-09-23T13:43:16Z</time>
      </trkpt>
      <trkpt lat="49.90993" lon="2.39308">
        <ele>66.3</ele>
        <time>2022-09-23T13:43:17Z</time>
      </trkpt>
      <trkpt lat="49.90993" lon="2.39308">
        <ele>66.3</ele>
        <time>2022-09-23T13:43:18Z</time>
      </trkpt>
      <trkpt lat="49.90994" lon="2.39309">
        <ele>66.3</ele>
        <time>2022-09-23T13:43:19Z</time>
      </trkpt>
      <trkpt lat="49.90995" lon="2.39309">
        <ele>66.3</ele>
        <time>2022-09-23T13:43:20Z</time>
      </trkpt>
      <trkpt lat="49.90996" lon="2.3931">
        <ele>66.4</ele>
        <time>2022-09-23T13:43:22Z</time>
      </trkpt>
      <trkpt lat="49.90996" lon="2.39311">
        <ele>66.4</ele>
        <time>2022-09-23T13:43:23Z</time>
      </trkpt>
      <trkpt lat="49.90997" lon="2.39312">
        <ele>66.4</ele>
        <time>2022-09-23T13:43:24Z</time>
      </trkpt>
      <trkpt lat="49.90997" lon="2.39313">
        <ele>66.4</ele>
        <time>2022-09-23T13:43:26Z</time>
      </trkpt>
      <trkpt lat="49.90997" lon="2.39315">
        <ele>66.4</ele>
        <time>2022-09-23T13:43:27Z</time>
      </trkpt>
      <trkpt lat="49.90997" lon="2.39316">
        <ele>66.4</ele>
        <time>2022-09-23T13:43:29Z</time>
      </trkpt>
      <trkpt lat="49.90997" lon="2.39318">
        <ele>66.4</ele>
        <time>2022-09-23T13:43:30Z</time>
      </trkpt>
      <trkpt lat="49.90997" lon="2.39319">
        <ele>66.4</ele>
        <time>2022-09-23T13:43:31Z</time>
      </trkpt>
      <trkpt lat="49.90998" lon="2.3932">
        <ele>66.4</ele>
        <time>2022-09-23T13:43:32Z</time>
      </trkpt>
      <trkpt lat="49.90998" lon="2.3932">
        <ele>66.5</ele>
        <time>2022-09-23T13:43:33Z</time>
      </trkpt>
      <trkpt lat="49.90997" lon="2.39321">
        <ele>66.5</ele>
        <time>2022-09-23T13:43:34Z</time>
      </trkpt>
      <trkpt lat="49.90997" lon="2.39321">
        <ele>66.5</ele>
        <time>2022-09-23T13:43:35Z</time>
      </trkpt>
      <trkpt lat="49.90997" lon="2.3932">
        <ele>66.5</ele>
        <time>2022-09-23T13:43:36Z</time>
      </trkpt>
      <trkpt lat="49.90996" lon="2.3932">
        <ele>66.5</ele>
        <time>2022-09-23T13:43:37Z</time>
      </trkpt>
      <trkpt lat="49.90996" lon="2.39319">
        <ele>66.5</ele>
        <time>2022-09-23T13:43:38Z</time>
      </trkpt>
      <trkpt lat="49.90996" lon="2.39319">
        <ele>66.5</ele>
        <time>2022-09-23T13:43:39Z</time>
      </trkpt>
      <trkpt lat="49.90996" lon="2.39319">
        <ele>66.5</ele>
        <time>2022-09-23T13:43:40Z</time>
      </trkpt>
      <trkpt lat="49.90996" lon="2.39318">
        <ele>66.5</ele>
        <time>2022-09-23T13:43:41Z</time>
      </trkpt>
      <trkpt lat="49.90996" lon="2.39318">
        <ele>66.5</ele>
        <time>2022-09-23T13:43:42Z</time>
      </trkpt>
      <trkpt lat="49.90996" lon="2.39318">
        <ele>66.5</ele>
        <time>2022-09-23T13:43:43Z</time>
      </trkpt>
      <trkpt lat="49.90996" lon="2.39318">
        <ele>66.5</ele>
        <time>2022-09-23T13:43:44Z</time>
      </trkpt>
      <trkpt lat="49.90996" lon="2.39318">
        <ele>66.5</ele>
        <time>2022-09-23T13:43:45Z</time>
      </trkpt>
      <trkpt lat="49.90996" lon="2.39318">
        <ele>66.5</ele>
        <time>2022-09-23T13:43:46Z</time>
      </trkpt>
      <trkpt lat="49.90996" lon="2.39318">
        <ele>66.5</ele>
        <time>2022-09-23T13:43:47Z</time>
      </trkpt>
      <trkpt lat="49.90996" lon="2.39318">
        <ele>66.5</ele>
        <time>2022-09-23T13:43:48Z</time>
      </trkpt>
      <trkpt lat="49.90996" lon="2.39318">
        <ele>66.5</ele>
        <time>2022-09-23T13:43:49Z</time>
      </trkpt>
      <trkpt lat="49.90996" lon="2.39318">
        <ele>66.5</ele>
        <time>2022-09-23T13:43:50Z</time>
      </trkpt>
      <trkpt lat="49.90996" lon="2.39319">
        <ele>66.5</ele>
        <time>2022-09-23T13:43:51Z</time>
      </trkpt>
      <trkpt lat="49.90996" lon="2.39318">
        <ele>66.5</ele>
        <time>2022-09-23T13:43:53Z</time>
      </trkpt>
      <trkpt lat="49.90996" lon="2.39318">
        <ele>66.5</ele>
        <time>2022-09-23T13:43:54Z</time>
      </trkpt>
      <trkpt lat="49.90996" lon="2.39318">
        <ele>66.5</ele>
        <time>2022-09-23T13:43:55Z</time>
      </trkpt>
      <trkpt lat="49.90996" lon="2.39318">
        <ele>66.5</ele>
        <time>2022-09-23T13:43:56Z</time>
      </trkpt>
      <trkpt lat="49.90996" lon="2.39319">
        <ele>66.5</ele>
        <time>2022-09-23T13:43:57Z</time>
      </trkpt>
      <trkpt lat="49.90996" lon="2.39319">
        <ele>66.5</ele>
        <time>2022-09-23T13:43:58Z</time>
      </trkpt>
      <trkpt lat="49.90996" lon="2.39319">
        <ele>66.5</ele>
        <time>2022-09-23T13:43:59Z</time>
      </trkpt>
      <trkpt lat="49.90995" lon="2.39318">
        <ele>66.5</ele>
        <time>2022-09-23T13:44:01Z</time>
      </trkpt>
      <trkpt lat="49.90995" lon="2.39318">
        <ele>66.5</ele>
        <time>2022-09-23T13:44:02Z</time>
      </trkpt>
      <trkpt lat="49.90995" lon="2.39319">
        <ele>66.5</ele>
        <time>2022-09-23T13:44:03Z</time>
      </trkpt>
      <trkpt lat="49.90995" lon="2.39319">
        <ele>66.5</ele>
        <time>2022-09-23T13:44:04Z</time>
      </trkpt>
      <trkpt lat="49.90995" lon="2.39319">
        <ele>66.6</ele>
        <time>2022-09-23T13:44:05Z</time>
      </trkpt>
      <trkpt lat="49.90995" lon="2.39319">
        <ele>66.6</ele>
        <time>2022-09-23T13:44:06Z</time>
      </trkpt>
      <trkpt lat="49.90995" lon="2.3932">
        <ele>66.6</ele>
        <time>2022-09-23T13:44:08Z</time>
      </trkpt>
      <trkpt lat="49.90995" lon="2.3932">
        <ele>66.6</ele>
        <time>2022-09-23T13:44:09Z</time>
      </trkpt>
      <trkpt lat="49.90995" lon="2.39321">
        <ele>66.6</ele>
        <time>2022-09-23T13:44:10Z</time>
      </trkpt>
      <trkpt lat="49.90995" lon="2.39321">
        <ele>66.6</ele>
        <time>2022-09-23T13:44:11Z</time>
      </trkpt>
      <trkpt lat="49.90995" lon="2.39322">
        <ele>66.6</ele>
        <time>2022-09-23T13:44:12Z</time>
      </trkpt>
      <trkpt lat="49.90995" lon="2.39322">
        <ele>66.6</ele>
        <time>2022-09-23T13:44:13Z</time>
      </trkpt>
      <trkpt lat="49.90995" lon="2.39322">
        <ele>66.6</ele>
        <time>2022-09-23T13:44:14Z</time>
      </trkpt>
      <trkpt lat="49.90995" lon="2.39322">
        <ele>66.6</ele>
        <time>2022-09-23T13:44:15Z</time>
      </trkpt>
      <trkpt lat="49.90995" lon="2.39322">
        <ele>66.6</ele>
        <time>2022-09-23T13:44:16Z</time>
      </trkpt>
      <trkpt lat="49.90995" lon="2.39322">
        <ele>66.6</ele>
        <time>2022-09-23T13:44:17Z</time>
      </trkpt>
      <trkpt lat="49.90995" lon="2.39322">
        <ele>66.6</ele>
        <time>2022-09-23T13:44:19Z</time>
      </trkpt>
      <trkpt lat="49.90995" lon="2.39323">
        <ele>66.6</ele>
        <time>2022-09-23T13:44:20Z</time>
      </trkpt>
      <trkpt lat="49.90994" lon="2.39325">
        <ele>66.6</ele>
        <time>2022-09-23T13:44:21Z</time>
      </trkpt>
      <trkpt lat="49.90994" lon="2.39327">
        <ele>66.6</ele>
        <time>2022-09-23T13:44:23Z</time>
      </trkpt>
      <trkpt lat="49.90994" lon="2.39329">
        <ele>66.7</ele>
        <time>2022-09-23T13:44:24Z</time>
      </trkpt>
      <trkpt lat="49.90994" lon="2.39331">
        <ele>66.7</ele>
        <time>2022-09-23T13:44:25Z</time>
      </trkpt>
      <trkpt lat="49.90995" lon="2.39332">
        <ele>66.7</ele>
        <time>2022-09-23T13:44:26Z</time>
      </trkpt>
      <trkpt lat="49.90996" lon="2.39334">
        <ele>66.7</ele>
        <time>2022-09-23T13:44:28Z</time>
      </trkpt>
      <trkpt lat="49.90997" lon="2.39335">
        <ele>66.7</ele>
        <time>2022-09-23T13:44:29Z</time>
      </trkpt>
      <trkpt lat="49.90998" lon="2.39336">
        <ele>66.7</ele>
        <time>2022-09-23T13:44:30Z</time>
      </trkpt>
      <trkpt lat="49.90999" lon="2.39337">
        <ele>66.7</ele>
        <time>2022-09-23T13:44:31Z</time>
      </trkpt>
      <trkpt lat="49.91" lon="2.39338">
        <ele>66.8</ele>
        <time>2022-09-23T13:44:32Z</time>
      </trkpt>
      <trkpt lat="49.91" lon="2.39339">
        <ele>66.8</ele>
        <time>2022-09-23T13:44:33Z</time>
      </trkpt>
      <trkpt lat="49.91001" lon="2.3934">
        <ele>66.8</ele>
        <time>2022-09-23T13:44:34Z</time>
      </trkpt>
      <trkpt lat="49.91002" lon="2.39342">
        <ele>66.8</ele>
        <time>2022-09-23T13:44:35Z</time>
      </trkpt>
      <trkpt lat="49.91003" lon="2.39344">
        <ele>66.8</ele>
        <time>2022-09-23T13:44:37Z</time>
      </trkpt>
      <trkpt lat="49.91003" lon="2.39346">
        <ele>66.9</ele>
        <time>2022-09-23T13:44:38Z</time>
      </trkpt>
      <trkpt lat="49.91004" lon="2.39349">
        <ele>66.9</ele>
        <time>2022-09-23T13:44:39Z</time>
      </trkpt>
      <trkpt lat="49.91005" lon="2.39351">
        <ele>66.9</ele>
        <time>2022-09-23T13:44:40Z</time>
      </trkpt>
      <trkpt lat="49.91005" lon="2.39352">
        <ele>66.9</ele>
        <time>2022-09-23T13:44:41Z</time>
      </trkpt>
      <trkpt lat="49.91006" lon="2.39356">
        <ele>67</ele>
        <time>2022-09-23T13:44:42Z</time>
      </trkpt>
      <trkpt lat="49.91006" lon="2.39358">
        <ele>67</ele>
        <time>2022-09-23T13:44:44Z</time>
      </trkpt>
      <trkpt lat="49.91007" lon="2.39359">
        <ele>67</ele>
        <time>2022-09-23T13:44:45Z</time>
      </trkpt>
      <trkpt lat="49.91007" lon="2.39361">
        <ele>67</ele>
        <time>2022-09-23T13:44:46Z</time>
      </trkpt>
      <trkpt lat="49.91007" lon="2.39362">
        <ele>67</ele>
        <time>2022-09-23T13:44:48Z</time>
      </trkpt>
      <trkpt lat="49.91008" lon="2.39364">
        <ele>67</ele>
        <time>2022-09-23T13:44:49Z</time>
      </trkpt>
      <trkpt lat="49.91008" lon="2.39365">
        <ele>67</ele>
        <time>2022-09-23T13:44:50Z</time>
      </trkpt>
      <trkpt lat="49.91008" lon="2.39367">
        <ele>67</ele>
        <time>2022-09-23T13:44:51Z</time>
      </trkpt>
      <trkpt lat="49.91008" lon="2.39369">
        <ele>67</ele>
        <time>2022-09-23T13:44:52Z</time>
      </trkpt>
      <trkpt lat="49.91009" lon="2.39371">
        <ele>67</ele>
        <time>2022-09-23T13:44:53Z</time>
      </trkpt>
      <trkpt lat="49.91009" lon="2.39375">
        <ele>67.1</ele>
        <time>2022-09-23T13:44:55Z</time>
      </trkpt>
      <trkpt lat="49.9101" lon="2.39377">
        <ele>67.1</ele>
        <time>2022-09-23T13:44:56Z</time>
      </trkpt>
      <trkpt lat="49.91011" lon="2.39381">
        <ele>67.1</ele>
        <time>2022-09-23T13:44:58Z</time>
      </trkpt>
      <trkpt lat="49.91012" lon="2.39382">
        <ele>67.1</ele>
        <time>2022-09-23T13:44:59Z</time>
      </trkpt>
      <trkpt lat="49.91012" lon="2.39383">
        <ele>67.1</ele>
        <time>2022-09-23T13:45:00Z</time>
      </trkpt>
      <trkpt lat="49.91012" lon="2.39384">
        <ele>67.1</ele>
        <time>2022-09-23T13:45:01Z</time>
      </trkpt>
      <trkpt lat="49.91013" lon="2.39385">
        <ele>67.1</ele>
        <time>2022-09-23T13:45:02Z</time>
      </trkpt>
      <trkpt lat="49.91013" lon="2.39385">
        <ele>67.1</ele>
        <time>2022-09-23T13:45:03Z</time>
      </trkpt>
      <trkpt lat="49.91013" lon="2.39387">
        <ele>67.1</ele>
        <time>2022-09-23T13:45:04Z</time>
      </trkpt>
      <trkpt lat="49.91013" lon="2.39387">
        <ele>67.1</ele>
        <time>2022-09-23T13:45:05Z</time>
      </trkpt>
      <trkpt lat="49.91013" lon="2.39388">
        <ele>67.1</ele>
        <time>2022-09-23T13:45:07Z</time>
      </trkpt>
      <trkpt lat="49.91014" lon="2.39389">
        <ele>67.1</ele>
        <time>2022-09-23T13:45:08Z</time>
      </trkpt>
      <trkpt lat="49.91015" lon="2.39389">
        <ele>67.1</ele>
        <time>2022-09-23T13:45:09Z</time>
      </trkpt>
      <trkpt lat="49.91015" lon="2.39389">
        <ele>67.1</ele>
        <time>2022-09-23T13:45:10Z</time>
      </trkpt>
      <trkpt lat="49.91016" lon="2.39389">
        <ele>67.1</ele>
        <time>2022-09-23T13:45:11Z</time>
      </trkpt>
      <trkpt lat="49.91017" lon="2.3939">
        <ele>67.1</ele>
        <time>2022-09-23T13:45:12Z</time>
      </trkpt>
      <trkpt lat="49.91018" lon="2.39391">
        <ele>67.1</ele>
        <time>2022-09-23T13:45:13Z</time>
      </trkpt>
      <trkpt lat="49.91018" lon="2.39393">
        <ele>67.1</ele>
        <time>2022-09-23T13:45:14Z</time>
      </trkpt>
      <trkpt lat="49.91018" lon="2.39395">
        <ele>67.1</ele>
        <time>2022-09-23T13:45:15Z</time>
      </trkpt>
      <trkpt lat="49.91018" lon="2.39397">
        <ele>67.1</ele>
        <time>2022-09-23T13:45:16Z</time>
      </trkpt>
      <trkpt lat="49.91018" lon="2.39399">
        <ele>67.1</ele>
        <time>2022-09-23T13:45:18Z</time>
      </trkpt>
      <trkpt lat="49.91019" lon="2.394">
        <ele>67.2</ele>
        <time>2022-09-23T13:45:19Z</time>
      </trkpt>
      <trkpt lat="49.91019" lon="2.39402">
        <ele>67.2</ele>
        <time>2022-09-23T13:45:20Z</time>
      </trkpt>
      <trkpt lat="49.91019" lon="2.39403">
        <ele>67.2</ele>
        <time>2022-09-23T13:45:21Z</time>
      </trkpt>
      <trkpt lat="49.91019" lon="2.39405">
        <ele>67.2</ele>
        <time>2022-09-23T13:45:22Z</time>
      </trkpt>
      <trkpt lat="49.91018" lon="2.39407">
        <ele>67.2</ele>
        <time>2022-09-23T13:45:23Z</time>
      </trkpt>
      <trkpt lat="49.91019" lon="2.39408">
        <ele>67.2</ele>
        <time>2022-09-23T13:45:24Z</time>
      </trkpt>
      <trkpt lat="49.91018" lon="2.39411">
        <ele>67.2</ele>
        <time>2022-09-23T13:45:25Z</time>
      </trkpt>
      <trkpt lat="49.91018" lon="2.39412">
        <ele>67.2</ele>
        <time>2022-09-23T13:45:27Z</time>
      </trkpt>
      <trkpt lat="49.91018" lon="2.39414">
        <ele>67.2</ele>
        <time>2022-09-23T13:45:28Z</time>
      </trkpt>
      <trkpt lat="49.91019" lon="2.39417">
        <ele>67.2</ele>
        <time>2022-09-23T13:45:29Z</time>
      </trkpt>
      <trkpt lat="49.91019" lon="2.39419">
        <ele>67.2</ele>
        <time>2022-09-23T13:45:30Z</time>
      </trkpt>
      <trkpt lat="49.91019" lon="2.3942">
        <ele>67.2</ele>
        <time>2022-09-23T13:45:31Z</time>
      </trkpt>
      <trkpt lat="49.91019" lon="2.39423">
        <ele>67.2</ele>
        <time>2022-09-23T13:45:32Z</time>
      </trkpt>
      <trkpt lat="49.91019" lon="2.39426">
        <ele>67.2</ele>
        <time>2022-09-23T13:45:33Z</time>
      </trkpt>
      <trkpt lat="49.91019" lon="2.39429">
        <ele>67.2</ele>
        <time>2022-09-23T13:45:34Z</time>
      </trkpt>
      <trkpt lat="49.91019" lon="2.39432">
        <ele>67.2</ele>
        <time>2022-09-23T13:45:36Z</time>
      </trkpt>
      <trkpt lat="49.91018" lon="2.39435">
        <ele>67.2</ele>
        <time>2022-09-23T13:45:37Z</time>
      </trkpt>
      <trkpt lat="49.91017" lon="2.39436">
        <ele>67.2</ele>
        <time>2022-09-23T13:45:38Z</time>
      </trkpt>
      <trkpt lat="49.91016" lon="2.39438">
        <ele>67.2</ele>
        <time>2022-09-23T13:45:39Z</time>
      </trkpt>
      <trkpt lat="49.91015" lon="2.39439">
        <ele>67.2</ele>
        <time>2022-09-23T13:45:41Z</time>
      </trkpt>
      <trkpt lat="49.91014" lon="2.3944">
        <ele>67.2</ele>
        <time>2022-09-23T13:45:42Z</time>
      </trkpt>
      <trkpt lat="49.91013" lon="2.39441">
        <ele>67.2</ele>
        <time>2022-09-23T13:45:43Z</time>
      </trkpt>
      <trkpt lat="49.91013" lon="2.39442">
        <ele>67.2</ele>
        <time>2022-09-23T13:45:44Z</time>
      </trkpt>
      <trkpt lat="49.91013" lon="2.39444">
        <ele>67.2</ele>
        <time>2022-09-23T13:45:45Z</time>
      </trkpt>
      <trkpt lat="49.91013" lon="2.39447">
        <ele>67.2</ele>
        <time>2022-09-23T13:45:46Z</time>
      </trkpt>
      <trkpt lat="49.91014" lon="2.39451">
        <ele>67.2</ele>
        <time>2022-09-23T13:45:47Z</time>
      </trkpt>
      <trkpt lat="49.91014" lon="2.39452">
        <ele>67.2</ele>
        <time>2022-09-23T13:45:48Z</time>
      </trkpt>
      <trkpt lat="49.91016" lon="2.39456">
        <ele>67.2</ele>
        <time>2022-09-23T13:45:49Z</time>
      </trkpt>
      <trkpt lat="49.91016" lon="2.39457">
        <ele>67.2</ele>
        <time>2022-09-23T13:45:50Z</time>
      </trkpt>
      <trkpt lat="49.91018" lon="2.39461">
        <ele>67.2</ele>
        <time>2022-09-23T13:45:51Z</time>
      </trkpt>
      <trkpt lat="49.91018" lon="2.39462">
        <ele>67.2</ele>
        <time>2022-09-23T13:45:52Z</time>
      </trkpt>
      <trkpt lat="49.91019" lon="2.39464">
        <ele>67.2</ele>
        <time>2022-09-23T13:45:54Z</time>
      </trkpt>
      <trkpt lat="49.9102" lon="2.39466">
        <ele>67.2</ele>
        <time>2022-09-23T13:45:55Z</time>
      </trkpt>
      <trkpt lat="49.91021" lon="2.39467">
        <ele>67.2</ele>
        <time>2022-09-23T13:45:56Z</time>
      </trkpt>
      <trkpt lat="49.91021" lon="2.3947">
        <ele>67.2</ele>
        <time>2022-09-23T13:45:57Z</time>
      </trkpt>
      <trkpt lat="49.91022" lon="2.39471">
        <ele>67.2</ele>
        <time>2022-09-23T13:45:58Z</time>
      </trkpt>
      <trkpt lat="49.91022" lon="2.39473">
        <ele>67.2</ele>
        <time>2022-09-23T13:45:59Z</time>
      </trkpt>
      <trkpt lat="49.91022" lon="2.39475">
        <ele>67.2</ele>
        <time>2022-09-23T13:46:00Z</time>
      </trkpt>
      <trkpt lat="49.91023" lon="2.39478">
        <ele>67.2</ele>
        <time>2022-09-23T13:46:02Z</time>
      </trkpt>
      <trkpt lat="49.91023" lon="2.39479">
        <ele>67.2</ele>
        <time>2022-09-23T13:46:03Z</time>
      </trkpt>
      <trkpt lat="49.91024" lon="2.39482">
        <ele>67.2</ele>
        <time>2022-09-23T13:46:04Z</time>
      </trkpt>
      <trkpt lat="49.91024" lon="2.39484">
        <ele>67.2</ele>
        <time>2022-09-23T13:46:05Z</time>
      </trkpt>
      <trkpt lat="49.91024" lon="2.39485">
        <ele>67.2</ele>
        <time>2022-09-23T13:46:06Z</time>
      </trkpt>
      <trkpt lat="49.91024" lon="2.39487">
        <ele>67.2</ele>
        <time>2022-09-23T13:46:07Z</time>
      </trkpt>
      <trkpt lat="49.91024" lon="2.39489">
        <ele>67.2</ele>
        <time>2022-09-23T13:46:08Z</time>
      </trkpt>
      <trkpt lat="49.91025" lon="2.3949">
        <ele>67.2</ele>
        <time>2022-09-23T13:46:09Z</time>
      </trkpt>
      <trkpt lat="49.91025" lon="2.39492">
        <ele>67.1</ele>
        <time>2022-09-23T13:46:10Z</time>
      </trkpt>
      <trkpt lat="49.91025" lon="2.39494">
        <ele>67.1</ele>
        <time>2022-09-23T13:46:11Z</time>
      </trkpt>
      <trkpt lat="49.91025" lon="2.39495">
        <ele>67.1</ele>
        <time>2022-09-23T13:46:12Z</time>
      </trkpt>
      <trkpt lat="49.91025" lon="2.39498">
        <ele>67.1</ele>
        <time>2022-09-23T13:46:14Z</time>
      </trkpt>
      <trkpt lat="49.91025" lon="2.39499">
        <ele>67.1</ele>
        <time>2022-09-23T13:46:15Z</time>
      </trkpt>
      <trkpt lat="49.91025" lon="2.39501">
        <ele>67.1</ele>
        <time>2022-09-23T13:46:16Z</time>
      </trkpt>
      <trkpt lat="49.91025" lon="2.39504">
        <ele>67.1</ele>
        <time>2022-09-23T13:46:17Z</time>
      </trkpt>
      <trkpt lat="49.91025" lon="2.39505">
        <ele>67.1</ele>
        <time>2022-09-23T13:46:18Z</time>
      </trkpt>
      <trkpt lat="49.91025" lon="2.39507">
        <ele>67.1</ele>
        <time>2022-09-23T13:46:19Z</time>
      </trkpt>
      <trkpt lat="49.91025" lon="2.39509">
        <ele>67.1</ele>
        <time>2022-09-23T13:46:20Z</time>
      </trkpt>
      <trkpt lat="49.91025" lon="2.39511">
        <ele>67.1</ele>
        <time>2022-09-23T13:46:21Z</time>
      </trkpt>
      <trkpt lat="49.91025" lon="2.39512">
        <ele>67.1</ele>
        <time>2022-09-23T13:46:22Z</time>
      </trkpt>
      <trkpt lat="49.91026" lon="2.39513">
        <ele>67.1</ele>
        <time>2022-09-23T13:46:23Z</time>
      </trkpt>
      <trkpt lat="49.91026" lon="2.39515">
        <ele>67.1</ele>
        <time>2022-09-23T13:46:24Z</time>
      </trkpt>
      <trkpt lat="49.91026" lon="2.39517">
        <ele>67.1</ele>
        <time>2022-09-23T13:46:25Z</time>
      </trkpt>
      <trkpt lat="49.91027" lon="2.3952">
        <ele>67.1</ele>
        <time>2022-09-23T13:46:27Z</time>
      </trkpt>
      <trkpt lat="49.91027" lon="2.39522">
        <ele>67.1</ele>
        <time>2022-09-23T13:46:28Z</time>
      </trkpt>
      <trkpt lat="49.91028" lon="2.39525">
        <ele>67.1</ele>
        <time>2022-09-23T13:46:29Z</time>
      </trkpt>
      <trkpt lat="49.91028" lon="2.39526">
        <ele>67.1</ele>
        <time>2022-09-23T13:46:30Z</time>
      </trkpt>
      <trkpt lat="49.91028" lon="2.39527">
        <ele>67.1</ele>
        <time>2022-09-23T13:46:31Z</time>
      </trkpt>
      <trkpt lat="49.91028" lon="2.39531">
        <ele>67.1</ele>
        <time>2022-09-23T13:46:32Z</time>
      </trkpt>
      <trkpt lat="49.91028" lon="2.39533">
        <ele>67.1</ele>
        <time>2022-09-23T13:46:34Z</time>
      </trkpt>
      <trkpt lat="49.91028" lon="2.39534">
        <ele>67.1</ele>
        <time>2022-09-23T13:46:35Z</time>
      </trkpt>
      <trkpt lat="49.91028" lon="2.39536">
        <ele>67.1</ele>
        <time>2022-09-23T13:46:36Z</time>
      </trkpt>
      <trkpt lat="49.91029" lon="2.39537">
        <ele>67.1</ele>
        <time>2022-09-23T13:46:37Z</time>
      </trkpt>
      <trkpt lat="49.91029" lon="2.3954">
        <ele>67.1</ele>
        <time>2022-09-23T13:46:38Z</time>
      </trkpt>
      <trkpt lat="49.91029" lon="2.39542">
        <ele>67.1</ele>
        <time>2022-09-23T13:46:39Z</time>
      </trkpt>
      <trkpt lat="49.91029" lon="2.39543">
        <ele>67.1</ele>
        <time>2022-09-23T13:46:40Z</time>
      </trkpt>
      <trkpt lat="49.91028" lon="2.39545">
        <ele>67.1</ele>
        <time>2022-09-23T13:46:41Z</time>
      </trkpt>
      <trkpt lat="49.91028" lon="2.39548">
        <ele>67.1</ele>
        <time>2022-09-23T13:46:42Z</time>
      </trkpt>
      <trkpt lat="49.91028" lon="2.3955">
        <ele>67.1</ele>
        <time>2022-09-23T13:46:43Z</time>
      </trkpt>
      <trkpt lat="49.91027" lon="2.39552">
        <ele>67</ele>
        <time>2022-09-23T13:46:44Z</time>
      </trkpt>
      <trkpt lat="49.91027" lon="2.39554">
        <ele>67</ele>
        <time>2022-09-23T13:46:45Z</time>
      </trkpt>
      <trkpt lat="49.91028" lon="2.39557">
        <ele>67</ele>
        <time>2022-09-23T13:46:47Z</time>
      </trkpt>
      <trkpt lat="49.91028" lon="2.39559">
        <ele>67</ele>
        <time>2022-09-23T13:46:48Z</time>
      </trkpt>
      <trkpt lat="49.91028" lon="2.3956">
        <ele>67</ele>
        <time>2022-09-23T13:46:49Z</time>
      </trkpt>
      <trkpt lat="49.91029" lon="2.39562">
        <ele>67</ele>
        <time>2022-09-23T13:46:50Z</time>
      </trkpt>
      <trkpt lat="49.91029" lon="2.39563">
        <ele>67</ele>
        <time>2022-09-23T13:46:51Z</time>
      </trkpt>
      <trkpt lat="49.91029" lon="2.39566">
        <ele>67</ele>
        <time>2022-09-23T13:46:52Z</time>
      </trkpt>
      <trkpt lat="49.91029" lon="2.39567">
        <ele>67</ele>
        <time>2022-09-23T13:46:53Z</time>
      </trkpt>
      <trkpt lat="49.91029" lon="2.39568">
        <ele>67</ele>
        <time>2022-09-23T13:46:54Z</time>
      </trkpt>
      <trkpt lat="49.91029" lon="2.3957">
        <ele>67</ele>
        <time>2022-09-23T13:46:55Z</time>
      </trkpt>
      <trkpt lat="49.91029" lon="2.39573">
        <ele>67</ele>
        <time>2022-09-23T13:46:57Z</time>
      </trkpt>
      <trkpt lat="49.91029" lon="2.39575">
        <ele>67</ele>
        <time>2022-09-23T13:46:58Z</time>
      </trkpt>
      <trkpt lat="49.91029" lon="2.39576">
        <ele>66.9</ele>
        <time>2022-09-23T13:46:59Z</time>
      </trkpt>
      <trkpt lat="49.91029" lon="2.39578">
        <ele>66.9</ele>
        <time>2022-09-23T13:47:00Z</time>
      </trkpt>
      <trkpt lat="49.91029" lon="2.3958">
        <ele>66.9</ele>
        <time>2022-09-23T13:47:01Z</time>
      </trkpt>
      <trkpt lat="49.91029" lon="2.39582">
        <ele>66.9</ele>
        <time>2022-09-23T13:47:02Z</time>
      </trkpt>
      <trkpt lat="49.91029" lon="2.39583">
        <ele>66.9</ele>
        <time>2022-09-23T13:47:03Z</time>
      </trkpt>
      <trkpt lat="49.91029" lon="2.39586">
        <ele>66.9</ele>
        <time>2022-09-23T13:47:04Z</time>
      </trkpt>
      <trkpt lat="49.9103" lon="2.39588">
        <ele>66.9</ele>
        <time>2022-09-23T13:47:05Z</time>
      </trkpt>
      <trkpt lat="49.9103" lon="2.39589">
        <ele>66.9</ele>
        <time>2022-09-23T13:47:06Z</time>
      </trkpt>
      <trkpt lat="49.9103" lon="2.3959">
        <ele>66.9</ele>
        <time>2022-09-23T13:47:08Z</time>
      </trkpt>
      <trkpt lat="49.9103" lon="2.39592">
        <ele>66.9</ele>
        <time>2022-09-23T13:47:09Z</time>
      </trkpt>
      <trkpt lat="49.9103" lon="2.39593">
        <ele>66.8</ele>
        <time>2022-09-23T13:47:10Z</time>
      </trkpt>
      <trkpt lat="49.9103" lon="2.39594">
        <ele>66.8</ele>
        <time>2022-09-23T13:47:11Z</time>
      </trkpt>
      <trkpt lat="49.9103" lon="2.39596">
        <ele>66.8</ele>
        <time>2022-09-23T13:47:12Z</time>
      </trkpt>
      <trkpt lat="49.91031" lon="2.39598">
        <ele>66.8</ele>
        <time>2022-09-23T13:47:13Z</time>
      </trkpt>
      <trkpt lat="49.91031" lon="2.39599">
        <ele>66.8</ele>
        <time>2022-09-23T13:47:14Z</time>
      </trkpt>
      <trkpt lat="49.91031" lon="2.39601">
        <ele>66.8</ele>
        <time>2022-09-23T13:47:15Z</time>
      </trkpt>
      <trkpt lat="49.91032" lon="2.39602">
        <ele>66.8</ele>
        <time>2022-09-23T13:47:16Z</time>
      </trkpt>
      <trkpt lat="49.91032" lon="2.39606">
        <ele>66.8</ele>
        <time>2022-09-23T13:47:18Z</time>
      </trkpt>
      <trkpt lat="49.91033" lon="2.39607">
        <ele>66.8</ele>
        <time>2022-09-23T13:47:19Z</time>
      </trkpt>
      <trkpt lat="49.91033" lon="2.39607">
        <ele>66.8</ele>
        <time>2022-09-23T13:47:20Z</time>
      </trkpt>
      <trkpt lat="49.91034" lon="2.3961">
        <ele>66.8</ele>
        <time>2022-09-23T13:47:21Z</time>
      </trkpt>
      <trkpt lat="49.91034" lon="2.39611">
        <ele>66.8</ele>
        <time>2022-09-23T13:47:22Z</time>
      </trkpt>
      <trkpt lat="49.91034" lon="2.39613">
        <ele>66.8</ele>
        <time>2022-09-23T13:47:23Z</time>
      </trkpt>
      <trkpt lat="49.91034" lon="2.39614">
        <ele>66.8</ele>
        <time>2022-09-23T13:47:24Z</time>
      </trkpt>
      <trkpt lat="49.91034" lon="2.39616">
        <ele>66.8</ele>
        <time>2022-09-23T13:47:25Z</time>
      </trkpt>
      <trkpt lat="49.91035" lon="2.39618">
        <ele>66.8</ele>
        <time>2022-09-23T13:47:27Z</time>
      </trkpt>
      <trkpt lat="49.91035" lon="2.3962">
        <ele>66.8</ele>
        <time>2022-09-23T13:47:28Z</time>
      </trkpt>
      <trkpt lat="49.91035" lon="2.39621">
        <ele>66.8</ele>
        <time>2022-09-23T13:47:29Z</time>
      </trkpt>
      <trkpt lat="49.91035" lon="2.39623">
        <ele>66.7</ele>
        <time>2022-09-23T13:47:30Z</time>
      </trkpt>
      <trkpt lat="49.91035" lon="2.39624">
        <ele>66.7</ele>
        <time>2022-09-23T13:47:31Z</time>
      </trkpt>
      <trkpt lat="49.91035" lon="2.39626">
        <ele>66.7</ele>
        <time>2022-09-23T13:47:32Z</time>
      </trkpt>
      <trkpt lat="49.91035" lon="2.39628">
        <ele>66.7</ele>
        <time>2022-09-23T13:47:33Z</time>
      </trkpt>
      <trkpt lat="49.91035" lon="2.39629">
        <ele>66.7</ele>
        <time>2022-09-23T13:47:34Z</time>
      </trkpt>
      <trkpt lat="49.91035" lon="2.39631">
        <ele>66.7</ele>
        <time>2022-09-23T13:47:36Z</time>
      </trkpt>
      <trkpt lat="49.91035" lon="2.39633">
        <ele>66.7</ele>
        <time>2022-09-23T13:47:37Z</time>
      </trkpt>
      <trkpt lat="49.91035" lon="2.39635">
        <ele>66.7</ele>
        <time>2022-09-23T13:47:38Z</time>
      </trkpt>
      <trkpt lat="49.91035" lon="2.39636">
        <ele>66.7</ele>
        <time>2022-09-23T13:47:39Z</time>
      </trkpt>
      <trkpt lat="49.91035" lon="2.39637">
        <ele>66.7</ele>
        <time>2022-09-23T13:47:40Z</time>
      </trkpt>
      <trkpt lat="49.91035" lon="2.39639">
        <ele>66.7</ele>
        <time>2022-09-23T13:47:41Z</time>
      </trkpt>
      <trkpt lat="49.91035" lon="2.39641">
        <ele>66.7</ele>
        <time>2022-09-23T13:47:42Z</time>
      </trkpt>
      <trkpt lat="49.91034" lon="2.39643">
        <ele>66.7</ele>
        <time>2022-09-23T13:47:43Z</time>
      </trkpt>
      <trkpt lat="49.91034" lon="2.39644">
        <ele>66.7</ele>
        <time>2022-09-23T13:47:44Z</time>
      </trkpt>
      <trkpt lat="49.91034" lon="2.39646">
        <ele>66.7</ele>
        <time>2022-09-23T13:47:46Z</time>
      </trkpt>
      <trkpt lat="49.91034" lon="2.39648">
        <ele>66.6</ele>
        <time>2022-09-23T13:47:47Z</time>
      </trkpt>
      <trkpt lat="49.91034" lon="2.3965">
        <ele>66.6</ele>
        <time>2022-09-23T13:47:48Z</time>
      </trkpt>
      <trkpt lat="49.91034" lon="2.39651">
        <ele>66.6</ele>
        <time>2022-09-23T13:47:49Z</time>
      </trkpt>
      <trkpt lat="49.91034" lon="2.39653">
        <ele>66.6</ele>
        <time>2022-09-23T13:47:50Z</time>
      </trkpt>
      <trkpt lat="49.91035" lon="2.39656">
        <ele>66.6</ele>
        <time>2022-09-23T13:47:51Z</time>
      </trkpt>
      <trkpt lat="49.91035" lon="2.39657">
        <ele>66.6</ele>
        <time>2022-09-23T13:47:52Z</time>
      </trkpt>
      <trkpt lat="49.91035" lon="2.39659">
        <ele>66.6</ele>
        <time>2022-09-23T13:47:53Z</time>
      </trkpt>
      <trkpt lat="49.91035" lon="2.3966">
        <ele>66.6</ele>
        <time>2022-09-23T13:47:54Z</time>
      </trkpt>
      <trkpt lat="49.91035" lon="2.39662">
        <ele>66.6</ele>
        <time>2022-09-23T13:47:55Z</time>
      </trkpt>
      <trkpt lat="49.91035" lon="2.39664">
        <ele>66.6</ele>
        <time>2022-09-23T13:47:57Z</time>
      </trkpt>
      <trkpt lat="49.91035" lon="2.39667">
        <ele>66.5</ele>
        <time>2022-09-23T13:47:58Z</time>
      </trkpt>
      <trkpt lat="49.91035" lon="2.39668">
        <ele>66.5</ele>
        <time>2022-09-23T13:47:59Z</time>
      </trkpt>
      <trkpt lat="49.91035" lon="2.3967">
        <ele>66.5</ele>
        <time>2022-09-23T13:48:00Z</time>
      </trkpt>
      <trkpt lat="49.91035" lon="2.39673">
        <ele>66.5</ele>
        <time>2022-09-23T13:48:01Z</time>
      </trkpt>
      <trkpt lat="49.91036" lon="2.39674">
        <ele>66.5</ele>
        <time>2022-09-23T13:48:02Z</time>
      </trkpt>
      <trkpt lat="49.91036" lon="2.39676">
        <ele>66.5</ele>
        <time>2022-09-23T13:48:03Z</time>
      </trkpt>
      <trkpt lat="49.91036" lon="2.39677">
        <ele>66.5</ele>
        <time>2022-09-23T13:48:04Z</time>
      </trkpt>
      <trkpt lat="49.91036" lon="2.39678">
        <ele>66.5</ele>
        <time>2022-09-23T13:48:05Z</time>
      </trkpt>
      <trkpt lat="49.91036" lon="2.39681">
        <ele>66.5</ele>
        <time>2022-09-23T13:48:06Z</time>
      </trkpt>
      <trkpt lat="49.91036" lon="2.39683">
        <ele>66.5</ele>
        <time>2022-09-23T13:48:08Z</time>
      </trkpt>
      <trkpt lat="49.91036" lon="2.39685">
        <ele>66.5</ele>
        <time>2022-09-23T13:48:09Z</time>
      </trkpt>
      <trkpt lat="49.91036" lon="2.39686">
        <ele>66.4</ele>
        <time>2022-09-23T13:48:10Z</time>
      </trkpt>
      <trkpt lat="49.91035" lon="2.39688">
        <ele>66.4</ele>
        <time>2022-09-23T13:48:11Z</time>
      </trkpt>
      <trkpt lat="49.91035" lon="2.39689">
        <ele>66.4</ele>
        <time>2022-09-23T13:48:12Z</time>
      </trkpt>
      <trkpt lat="49.91035" lon="2.39692">
        <ele>66.4</ele>
        <time>2022-09-23T13:48:13Z</time>
      </trkpt>
      <trkpt lat="49.91035" lon="2.39693">
        <ele>66.4</ele>
        <time>2022-09-23T13:48:14Z</time>
      </trkpt>
      <trkpt lat="49.91035" lon="2.39695">
        <ele>66.4</ele>
        <time>2022-09-23T13:48:15Z</time>
      </trkpt>
      <trkpt lat="49.91035" lon="2.39698">
        <ele>66.4</ele>
        <time>2022-09-23T13:48:16Z</time>
      </trkpt>
      <trkpt lat="49.91035" lon="2.39699">
        <ele>66.4</ele>
        <time>2022-09-23T13:48:18Z</time>
      </trkpt>
      <trkpt lat="49.91035" lon="2.39701">
        <ele>66.4</ele>
        <time>2022-09-23T13:48:19Z</time>
      </trkpt>
      <trkpt lat="49.91034" lon="2.39702">
        <ele>66.4</ele>
        <time>2022-09-23T13:48:20Z</time>
      </trkpt>
      <trkpt lat="49.91034" lon="2.39704">
        <ele>66.3</ele>
        <time>2022-09-23T13:48:21Z</time>
      </trkpt>
      <trkpt lat="49.91034" lon="2.39705">
        <ele>66.3</ele>
        <time>2022-09-23T13:48:22Z</time>
      </trkpt>
      <trkpt lat="49.91034" lon="2.39708">
        <ele>66.3</ele>
        <time>2022-09-23T13:48:23Z</time>
      </trkpt>
      <trkpt lat="49.91034" lon="2.3971">
        <ele>66.3</ele>
        <time>2022-09-23T13:48:24Z</time>
      </trkpt>
      <trkpt lat="49.91034" lon="2.39712">
        <ele>66.3</ele>
        <time>2022-09-23T13:48:25Z</time>
      </trkpt>
      <trkpt lat="49.91034" lon="2.39713">
        <ele>66.3</ele>
        <time>2022-09-23T13:48:26Z</time>
      </trkpt>
      <trkpt lat="49.91034" lon="2.39715">
        <ele>66.3</ele>
        <time>2022-09-23T13:48:28Z</time>
      </trkpt>
      <trkpt lat="49.91034" lon="2.39718">
        <ele>66.2</ele>
        <time>2022-09-23T13:48:29Z</time>
      </trkpt>
      <trkpt lat="49.91034" lon="2.39719">
        <ele>66.2</ele>
        <time>2022-09-23T13:48:30Z</time>
      </trkpt>
      <trkpt lat="49.91034" lon="2.3972">
        <ele>66.2</ele>
        <time>2022-09-23T13:48:31Z</time>
      </trkpt>
      <trkpt lat="49.91034" lon="2.39722">
        <ele>66.2</ele>
        <time>2022-09-23T13:48:32Z</time>
      </trkpt>
      <trkpt lat="49.91035" lon="2.39725">
        <ele>66.2</ele>
        <time>2022-09-23T13:48:33Z</time>
      </trkpt>
      <trkpt lat="49.91035" lon="2.39726">
        <ele>66.2</ele>
        <time>2022-09-23T13:48:34Z</time>
      </trkpt>
      <trkpt lat="49.91035" lon="2.39729">
        <ele>66.2</ele>
        <time>2022-09-23T13:48:35Z</time>
      </trkpt>
      <trkpt lat="49.91035" lon="2.3973">
        <ele>66.1</ele>
        <time>2022-09-23T13:48:37Z</time>
      </trkpt>
      <trkpt lat="49.91035" lon="2.39732">
        <ele>66.1</ele>
        <time>2022-09-23T13:48:38Z</time>
      </trkpt>
      <trkpt lat="49.91035" lon="2.39734">
        <ele>66.1</ele>
        <time>2022-09-23T13:48:39Z</time>
      </trkpt>
      <trkpt lat="49.91035" lon="2.39735">
        <ele>66.1</ele>
        <time>2022-09-23T13:48:40Z</time>
      </trkpt>
      <trkpt lat="49.91035" lon="2.39737">
        <ele>66.1</ele>
        <time>2022-09-23T13:48:41Z</time>
      </trkpt>
      <trkpt lat="49.91035" lon="2.39739">
        <ele>66.1</ele>
        <time>2022-09-23T13:48:42Z</time>
      </trkpt>
      <trkpt lat="49.91035" lon="2.39741">
        <ele>66.1</ele>
        <time>2022-09-23T13:48:43Z</time>
      </trkpt>
      <trkpt lat="49.91035" lon="2.39743">
        <ele>66</ele>
        <time>2022-09-23T13:48:44Z</time>
      </trkpt>
      <trkpt lat="49.91035" lon="2.39745">
        <ele>66</ele>
        <time>2022-09-23T13:48:45Z</time>
      </trkpt>
      <trkpt lat="49.91035" lon="2.39747">
        <ele>66</ele>
        <time>2022-09-23T13:48:47Z</time>
      </trkpt>
      <trkpt lat="49.91035" lon="2.39748">
        <ele>66</ele>
        <time>2022-09-23T13:48:48Z</time>
      </trkpt>
      <trkpt lat="49.91035" lon="2.3975">
        <ele>66</ele>
        <time>2022-09-23T13:48:49Z</time>
      </trkpt>
      <trkpt lat="49.91035" lon="2.39752">
        <ele>66</ele>
        <time>2022-09-23T13:48:50Z</time>
      </trkpt>
      <trkpt lat="49.91035" lon="2.39755">
        <ele>66</ele>
        <time>2022-09-23T13:48:51Z</time>
      </trkpt>
      <trkpt lat="49.91035" lon="2.39757">
        <ele>66</ele>
        <time>2022-09-23T13:48:52Z</time>
      </trkpt>
      <trkpt lat="49.91035" lon="2.39758">
        <ele>66</ele>
        <time>2022-09-23T13:48:53Z</time>
      </trkpt>
      <trkpt lat="49.91035" lon="2.3976">
        <ele>65.9</ele>
        <time>2022-09-23T13:48:54Z</time>
      </trkpt>
      <trkpt lat="49.91035" lon="2.39762">
        <ele>65.9</ele>
        <time>2022-09-23T13:48:56Z</time>
      </trkpt>
      <trkpt lat="49.91035" lon="2.39764">
        <ele>65.9</ele>
        <time>2022-09-23T13:48:57Z</time>
      </trkpt>
      <trkpt lat="49.91035" lon="2.39767">
        <ele>65.9</ele>
        <time>2022-09-23T13:48:58Z</time>
      </trkpt>
      <trkpt lat="49.91035" lon="2.39768">
        <ele>65.9</ele>
        <time>2022-09-23T13:48:59Z</time>
      </trkpt>
      <trkpt lat="49.91035" lon="2.39771">
        <ele>65.9</ele>
        <time>2022-09-23T13:49:01Z</time>
      </trkpt>
      <trkpt lat="49.91035" lon="2.39772">
        <ele>65.9</ele>
        <time>2022-09-23T13:49:02Z</time>
      </trkpt>
      <trkpt lat="49.91035" lon="2.39774">
        <ele>65.9</ele>
        <time>2022-09-23T13:49:03Z</time>
      </trkpt>
      <trkpt lat="49.91035" lon="2.39776">
        <ele>65.9</ele>
        <time>2022-09-23T13:49:04Z</time>
      </trkpt>
      <trkpt lat="49.91035" lon="2.39777">
        <ele>65.8</ele>
        <time>2022-09-23T13:49:05Z</time>
      </trkpt>
      <trkpt lat="49.91035" lon="2.39779">
        <ele>65.8</ele>
        <time>2022-09-23T13:49:06Z</time>
      </trkpt>
      <trkpt lat="49.91035" lon="2.3978">
        <ele>65.8</ele>
        <time>2022-09-23T13:49:07Z</time>
      </trkpt>
      <trkpt lat="49.91036" lon="2.39782">
        <ele>65.8</ele>
        <time>2022-09-23T13:49:08Z</time>
      </trkpt>
      <trkpt lat="49.91036" lon="2.39783">
        <ele>65.8</ele>
        <time>2022-09-23T13:49:09Z</time>
      </trkpt>
      <trkpt lat="49.91036" lon="2.39785">
        <ele>65.8</ele>
        <time>2022-09-23T13:49:11Z</time>
      </trkpt>
      <trkpt lat="49.91036" lon="2.39787">
        <ele>65.8</ele>
        <time>2022-09-23T13:49:12Z</time>
      </trkpt>
      <trkpt lat="49.91036" lon="2.39789">
        <ele>65.8</ele>
        <time>2022-09-23T13:49:13Z</time>
      </trkpt>
      <trkpt lat="49.91036" lon="2.39792">
        <ele>65.7</ele>
        <time>2022-09-23T13:49:14Z</time>
      </trkpt>
      <trkpt lat="49.91036" lon="2.39793">
        <ele>65.7</ele>
        <time>2022-09-23T13:49:15Z</time>
      </trkpt>
      <trkpt lat="49.91036" lon="2.39794">
        <ele>65.7</ele>
        <time>2022-09-23T13:49:16Z</time>
      </trkpt>
      <trkpt lat="49.91036" lon="2.39796">
        <ele>65.7</ele>
        <time>2022-09-23T13:49:17Z</time>
      </trkpt>
      <trkpt lat="49.91036" lon="2.39798">
        <ele>65.7</ele>
        <time>2022-09-23T13:49:18Z</time>
      </trkpt>
      <trkpt lat="49.91036" lon="2.39799">
        <ele>65.7</ele>
        <time>2022-09-23T13:49:20Z</time>
      </trkpt>
      <trkpt lat="49.91036" lon="2.39801">
        <ele>65.6</ele>
        <time>2022-09-23T13:49:21Z</time>
      </trkpt>
      <trkpt lat="49.91036" lon="2.39803">
        <ele>65.6</ele>
        <time>2022-09-23T13:49:22Z</time>
      </trkpt>
      <trkpt lat="49.91035" lon="2.39806">
        <ele>65.6</ele>
        <time>2022-09-23T13:49:24Z</time>
      </trkpt>
      <trkpt lat="49.91035" lon="2.39807">
        <ele>65.6</ele>
        <time>2022-09-23T13:49:25Z</time>
      </trkpt>
      <trkpt lat="49.91035" lon="2.39809">
        <ele>65.6</ele>
        <time>2022-09-23T13:49:26Z</time>
      </trkpt>
      <trkpt lat="49.91035" lon="2.39811">
        <ele>65.6</ele>
        <time>2022-09-23T13:49:27Z</time>
      </trkpt>
      <trkpt lat="49.91036" lon="2.39814">
        <ele>65.5</ele>
        <time>2022-09-23T13:49:28Z</time>
      </trkpt>
      <trkpt lat="49.91036" lon="2.39815">
        <ele>65.5</ele>
        <time>2022-09-23T13:49:29Z</time>
      </trkpt>
      <trkpt lat="49.91036" lon="2.39816">
        <ele>65.5</ele>
        <time>2022-09-23T13:49:30Z</time>
      </trkpt>
      <trkpt lat="49.91036" lon="2.3982">
        <ele>65.5</ele>
        <time>2022-09-23T13:49:31Z</time>
      </trkpt>
      <trkpt lat="49.91036" lon="2.39821">
        <ele>65.5</ele>
        <time>2022-09-23T13:49:32Z</time>
      </trkpt>
      <trkpt lat="49.91036" lon="2.39822">
        <ele>65.5</ele>
        <time>2022-09-23T13:49:33Z</time>
      </trkpt>
      <trkpt lat="49.91036" lon="2.39824">
        <ele>65.5</ele>
        <time>2022-09-23T13:49:35Z</time>
      </trkpt>
      <trkpt lat="49.91036" lon="2.39826">
        <ele>65.5</ele>
        <time>2022-09-23T13:49:36Z</time>
      </trkpt>
      <trkpt lat="49.91036" lon="2.39827">
        <ele>65.5</ele>
        <time>2022-09-23T13:49:37Z</time>
      </trkpt>
      <trkpt lat="49.91036" lon="2.39829">
        <ele>65.5</ele>
        <time>2022-09-23T13:49:38Z</time>
      </trkpt>
      <trkpt lat="49.91036" lon="2.3983">
        <ele>65.5</ele>
        <time>2022-09-23T13:49:39Z</time>
      </trkpt>
      <trkpt lat="49.91036" lon="2.39832">
        <ele>65.5</ele>
        <time>2022-09-23T13:49:40Z</time>
      </trkpt>
      <trkpt lat="49.91037" lon="2.39835">
        <ele>65.5</ele>
        <time>2022-09-23T13:49:41Z</time>
      </trkpt>
      <trkpt lat="49.91037" lon="2.39837">
        <ele>65.5</ele>
        <time>2022-09-23T13:49:42Z</time>
      </trkpt>
      <trkpt lat="49.91037" lon="2.39838">
        <ele>65.5</ele>
        <time>2022-09-23T13:49:43Z</time>
      </trkpt>
      <trkpt lat="49.91037" lon="2.3984">
        <ele>65.4</ele>
        <time>2022-09-23T13:49:45Z</time>
      </trkpt>
      <trkpt lat="49.91037" lon="2.39841">
        <ele>65.4</ele>
        <time>2022-09-23T13:49:46Z</time>
      </trkpt>
      <trkpt lat="49.91037" lon="2.39843">
        <ele>65.4</ele>
        <time>2022-09-23T13:49:47Z</time>
      </trkpt>
      <trkpt lat="49.91037" lon="2.39845">
        <ele>65.4</ele>
        <time>2022-09-23T13:49:48Z</time>
      </trkpt>
      <trkpt lat="49.91037" lon="2.39847">
        <ele>65.4</ele>
        <time>2022-09-23T13:49:49Z</time>
      </trkpt>
      <trkpt lat="49.91037" lon="2.39848">
        <ele>65.4</ele>
        <time>2022-09-23T13:49:50Z</time>
      </trkpt>
      <trkpt lat="49.91037" lon="2.39851">
        <ele>65.4</ele>
        <time>2022-09-23T13:49:51Z</time>
      </trkpt>
      <trkpt lat="49.91037" lon="2.39853">
        <ele>65.4</ele>
        <time>2022-09-23T13:49:52Z</time>
      </trkpt>
      <trkpt lat="49.91037" lon="2.39854">
        <ele>65.4</ele>
        <time>2022-09-23T13:49:53Z</time>
      </trkpt>
      <trkpt lat="49.91037" lon="2.39856">
        <ele>65.4</ele>
        <time>2022-09-23T13:49:54Z</time>
      </trkpt>
      <trkpt lat="49.91036" lon="2.39858">
        <ele>65.4</ele>
        <time>2022-09-23T13:49:55Z</time>
      </trkpt>
      <trkpt lat="49.91036" lon="2.3986">
        <ele>65.4</ele>
        <time>2022-09-23T13:49:57Z</time>
      </trkpt>
      <trkpt lat="49.91036" lon="2.39863">
        <ele>65.3</ele>
        <time>2022-09-23T13:49:58Z</time>
      </trkpt>
      <trkpt lat="49.91035" lon="2.39864">
        <ele>65.3</ele>
        <time>2022-09-23T13:49:59Z</time>
      </trkpt>
      <trkpt lat="49.91035" lon="2.39866">
        <ele>65.3</ele>
        <time>2022-09-23T13:50:00Z</time>
      </trkpt>
      <trkpt lat="49.91035" lon="2.39869">
        <ele>65.3</ele>
        <time>2022-09-23T13:50:01Z</time>
      </trkpt>
      <trkpt lat="49.91035" lon="2.3987">
        <ele>65.3</ele>
        <time>2022-09-23T13:50:02Z</time>
      </trkpt>
      <trkpt lat="49.91035" lon="2.39871">
        <ele>65.3</ele>
        <time>2022-09-23T13:50:03Z</time>
      </trkpt>
      <trkpt lat="49.91034" lon="2.39874">
        <ele>65.3</ele>
        <time>2022-09-23T13:50:04Z</time>
      </trkpt>
      <trkpt lat="49.91033" lon="2.39875">
        <ele>65.3</ele>
        <time>2022-09-23T13:50:06Z</time>
      </trkpt>
      <trkpt lat="49.91033" lon="2.39877">
        <ele>65.3</ele>
        <time>2022-09-23T13:50:07Z</time>
      </trkpt>
      <trkpt lat="49.91033" lon="2.39878">
        <ele>65.3</ele>
        <time>2022-09-23T13:50:08Z</time>
      </trkpt>
      <trkpt lat="49.91032" lon="2.3988">
        <ele>65.3</ele>
        <time>2022-09-23T13:50:09Z</time>
      </trkpt>
      <trkpt lat="49.91032" lon="2.39882">
        <ele>65.2</ele>
        <time>2022-09-23T13:50:10Z</time>
      </trkpt>
      <trkpt lat="49.91032" lon="2.39885">
        <ele>65.2</ele>
        <time>2022-09-23T13:50:11Z</time>
      </trkpt>
      <trkpt lat="49.91032" lon="2.39887">
        <ele>65.2</ele>
        <time>2022-09-23T13:50:12Z</time>
      </trkpt>
      <trkpt lat="49.91032" lon="2.39888">
        <ele>65.2</ele>
        <time>2022-09-23T13:50:13Z</time>
      </trkpt>
      <trkpt lat="49.91032" lon="2.39889">
        <ele>65.2</ele>
        <time>2022-09-23T13:50:14Z</time>
      </trkpt>
      <trkpt lat="49.91032" lon="2.39891">
        <ele>65.2</ele>
        <time>2022-09-23T13:50:16Z</time>
      </trkpt>
      <trkpt lat="49.91032" lon="2.39893">
        <ele>65.2</ele>
        <time>2022-09-23T13:50:17Z</time>
      </trkpt>
      <trkpt lat="49.91033" lon="2.39895">
        <ele>65.2</ele>
        <time>2022-09-23T13:50:18Z</time>
      </trkpt>
      <trkpt lat="49.91033" lon="2.39897">
        <ele>65.2</ele>
        <time>2022-09-23T13:50:19Z</time>
      </trkpt>
      <trkpt lat="49.91033" lon="2.39898">
        <ele>65.2</ele>
        <time>2022-09-23T13:50:20Z</time>
      </trkpt>
      <trkpt lat="49.91033" lon="2.399">
        <ele>65.1</ele>
        <time>2022-09-23T13:50:21Z</time>
      </trkpt>
      <trkpt lat="49.91033" lon="2.39902">
        <ele>65.1</ele>
        <time>2022-09-23T13:50:22Z</time>
      </trkpt>
      <trkpt lat="49.91033" lon="2.39904">
        <ele>65.1</ele>
        <time>2022-09-23T13:50:23Z</time>
      </trkpt>
      <trkpt lat="49.91033" lon="2.39908">
        <ele>65.1</ele>
        <time>2022-09-23T13:50:24Z</time>
      </trkpt>
      <trkpt lat="49.91033" lon="2.3991">
        <ele>65.1</ele>
        <time>2022-09-23T13:50:26Z</time>
      </trkpt>
      <trkpt lat="49.91033" lon="2.39912">
        <ele>65.1</ele>
        <time>2022-09-23T13:50:27Z</time>
      </trkpt>
      <trkpt lat="49.91033" lon="2.39913">
        <ele>65.1</ele>
        <time>2022-09-23T13:50:28Z</time>
      </trkpt>
      <trkpt lat="49.91033" lon="2.39915">
        <ele>65.1</ele>
        <time>2022-09-23T13:50:29Z</time>
      </trkpt>
      <trkpt lat="49.91032" lon="2.39917">
        <ele>65.1</ele>
        <time>2022-09-23T13:50:30Z</time>
      </trkpt>
      <trkpt lat="49.91032" lon="2.39918">
        <ele>65.1</ele>
        <time>2022-09-23T13:50:31Z</time>
      </trkpt>
      <trkpt lat="49.91032" lon="2.3992">
        <ele>65.1</ele>
        <time>2022-09-23T13:50:32Z</time>
      </trkpt>
      <trkpt lat="49.91032" lon="2.39922">
        <ele>65.1</ele>
        <time>2022-09-23T13:50:33Z</time>
      </trkpt>
      <trkpt lat="49.91031" lon="2.39924">
        <ele>65.1</ele>
        <time>2022-09-23T13:50:34Z</time>
      </trkpt>
      <trkpt lat="49.91031" lon="2.39926">
        <ele>65.1</ele>
        <time>2022-09-23T13:50:36Z</time>
      </trkpt>
      <trkpt lat="49.91031" lon="2.39928">
        <ele>65.1</ele>
        <time>2022-09-23T13:50:37Z</time>
      </trkpt>
      <trkpt lat="49.9103" lon="2.39929">
        <ele>65.1</ele>
        <time>2022-09-23T13:50:38Z</time>
      </trkpt>
      <trkpt lat="49.9103" lon="2.39931">
        <ele>65.1</ele>
        <time>2022-09-23T13:50:39Z</time>
      </trkpt>
      <trkpt lat="49.9103" lon="2.39933">
        <ele>65.1</ele>
        <time>2022-09-23T13:50:40Z</time>
      </trkpt>
      <trkpt lat="49.9103" lon="2.39934">
        <ele>65.1</ele>
        <time>2022-09-23T13:50:41Z</time>
      </trkpt>
      <trkpt lat="49.9103" lon="2.39936">
        <ele>65.1</ele>
        <time>2022-09-23T13:50:42Z</time>
      </trkpt>
      <trkpt lat="49.91031" lon="2.39938">
        <ele>65.1</ele>
        <time>2022-09-23T13:50:43Z</time>
      </trkpt>
      <trkpt lat="49.91031" lon="2.3994">
        <ele>65.1</ele>
        <time>2022-09-23T13:50:45Z</time>
      </trkpt>
      <trkpt lat="49.91031" lon="2.39941">
        <ele>65.1</ele>
        <time>2022-09-23T13:50:46Z</time>
      </trkpt>
      <trkpt lat="49.91031" lon="2.39943">
        <ele>65.1</ele>
        <time>2022-09-23T13:50:47Z</time>
      </trkpt>
      <trkpt lat="49.91031" lon="2.39945">
        <ele>65.1</ele>
        <time>2022-09-23T13:50:48Z</time>
      </trkpt>
      <trkpt lat="49.91031" lon="2.39947">
        <ele>65.1</ele>
        <time>2022-09-23T13:50:49Z</time>
      </trkpt>
      <trkpt lat="49.91031" lon="2.39948">
        <ele>65.1</ele>
        <time>2022-09-23T13:50:50Z</time>
      </trkpt>
      <trkpt lat="49.91031" lon="2.3995">
        <ele>65.1</ele>
        <time>2022-09-23T13:50:51Z</time>
      </trkpt>
      <trkpt lat="49.91031" lon="2.39951">
        <ele>65.1</ele>
        <time>2022-09-23T13:50:52Z</time>
      </trkpt>
      <trkpt lat="49.91032" lon="2.39954">
        <ele>65.2</ele>
        <time>2022-09-23T13:50:53Z</time>
      </trkpt>
      <trkpt lat="49.91032" lon="2.39955">
        <ele>65.2</ele>
        <time>2022-09-23T13:50:55Z</time>
      </trkpt>
      <trkpt lat="49.91033" lon="2.39957">
        <ele>65.2</ele>
        <time>2022-09-23T13:50:56Z</time>
      </trkpt>
      <trkpt lat="49.91033" lon="2.39958">
        <ele>65.2</ele>
        <time>2022-09-23T13:50:57Z</time>
      </trkpt>
      <trkpt lat="49.91033" lon="2.3996">
        <ele>65.2</ele>
        <time>2022-09-23T13:50:58Z</time>
      </trkpt>
      <trkpt lat="49.91033" lon="2.39962">
        <ele>65.2</ele>
        <time>2022-09-23T13:50:59Z</time>
      </trkpt>
      <trkpt lat="49.91034" lon="2.39963">
        <ele>65.2</ele>
        <time>2022-09-23T13:51:00Z</time>
      </trkpt>
      <trkpt lat="49.91034" lon="2.39965">
        <ele>65.2</ele>
        <time>2022-09-23T13:51:01Z</time>
      </trkpt>
      <trkpt lat="49.91034" lon="2.39968">
        <ele>65.2</ele>
        <time>2022-09-23T13:51:02Z</time>
      </trkpt>
      <trkpt lat="49.91034" lon="2.39969">
        <ele>65.2</ele>
        <time>2022-09-23T13:51:03Z</time>
      </trkpt>
      <trkpt lat="49.91034" lon="2.3997">
        <ele>65.2</ele>
        <time>2022-09-23T13:51:04Z</time>
      </trkpt>
      <trkpt lat="49.91034" lon="2.39972">
        <ele>65.2</ele>
        <time>2022-09-23T13:51:05Z</time>
      </trkpt>
      <trkpt lat="49.91034" lon="2.39974">
        <ele>65.2</ele>
        <time>2022-09-23T13:51:07Z</time>
      </trkpt>
      <trkpt lat="49.91034" lon="2.39975">
        <ele>65.2</ele>
        <time>2022-09-23T13:51:08Z</time>
      </trkpt>
      <trkpt lat="49.91034" lon="2.39979">
        <ele>65.3</ele>
        <time>2022-09-23T13:51:09Z</time>
      </trkpt>
      <trkpt lat="49.91034" lon="2.39979">
        <ele>65.3</ele>
        <time>2022-09-23T13:51:10Z</time>
      </trkpt>
      <trkpt lat="49.91034" lon="2.3998">
        <ele>65.3</ele>
        <time>2022-09-23T13:51:11Z</time>
      </trkpt>
      <trkpt lat="49.91034" lon="2.39981">
        <ele>65.3</ele>
        <time>2022-09-23T13:51:12Z</time>
      </trkpt>
      <trkpt lat="49.91035" lon="2.39983">
        <ele>65.3</ele>
        <time>2022-09-23T13:51:13Z</time>
      </trkpt>
      <trkpt lat="49.91035" lon="2.39985">
        <ele>65.3</ele>
        <time>2022-09-23T13:51:14Z</time>
      </trkpt>
      <trkpt lat="49.91035" lon="2.39987">
        <ele>65.3</ele>
        <time>2022-09-23T13:51:15Z</time>
      </trkpt>
      <trkpt lat="49.91035" lon="2.39989">
        <ele>65.3</ele>
        <time>2022-09-23T13:51:16Z</time>
      </trkpt>
      <trkpt lat="49.91034" lon="2.39991">
        <ele>65.3</ele>
        <time>2022-09-23T13:51:18Z</time>
      </trkpt>
      <trkpt lat="49.91033" lon="2.39994">
        <ele>65.3</ele>
        <time>2022-09-23T13:51:19Z</time>
      </trkpt>
      <trkpt lat="49.91032" lon="2.39996">
        <ele>65.3</ele>
        <time>2022-09-23T13:51:21Z</time>
      </trkpt>
      <trkpt lat="49.91032" lon="2.39997">
        <ele>65.3</ele>
        <time>2022-09-23T13:51:22Z</time>
      </trkpt>
      <trkpt lat="49.91033" lon="2.39998">
        <ele>65.3</ele>
        <time>2022-09-23T13:51:23Z</time>
      </trkpt>
      <trkpt lat="49.91033" lon="2.4">
        <ele>65.2</ele>
        <time>2022-09-23T13:51:24Z</time>
      </trkpt>
      <trkpt lat="49.91033" lon="2.40001">
        <ele>65.2</ele>
        <time>2022-09-23T13:51:25Z</time>
      </trkpt>
      <trkpt lat="49.91033" lon="2.40002">
        <ele>65.2</ele>
        <time>2022-09-23T13:51:26Z</time>
      </trkpt>
      <trkpt lat="49.91033" lon="2.40003">
        <ele>65.2</ele>
        <time>2022-09-23T13:51:27Z</time>
      </trkpt>
      <trkpt lat="49.91034" lon="2.40006">
        <ele>65.2</ele>
        <time>2022-09-23T13:51:29Z</time>
      </trkpt>
      <trkpt lat="49.91034" lon="2.40006">
        <ele>65.2</ele>
        <time>2022-09-23T13:51:30Z</time>
      </trkpt>
      <trkpt lat="49.91035" lon="2.40006">
        <ele>65.2</ele>
        <time>2022-09-23T13:51:31Z</time>
      </trkpt>
      <trkpt lat="49.91035" lon="2.40006">
        <ele>65.2</ele>
        <time>2022-09-23T13:51:32Z</time>
      </trkpt>
      <trkpt lat="49.91035" lon="2.40006">
        <ele>65.2</ele>
        <time>2022-09-23T13:51:33Z</time>
      </trkpt>
      <trkpt lat="49.91036" lon="2.40006">
        <ele>65.2</ele>
        <time>2022-09-23T13:51:34Z</time>
      </trkpt>
      <trkpt lat="49.91035" lon="2.40006">
        <ele>65.2</ele>
        <time>2022-09-23T13:51:35Z</time>
      </trkpt>
      <trkpt lat="49.91035" lon="2.40006">
        <ele>65.2</ele>
        <time>2022-09-23T13:51:36Z</time>
      </trkpt>
      <trkpt lat="49.91035" lon="2.40005">
        <ele>65.2</ele>
        <time>2022-09-23T13:51:37Z</time>
      </trkpt>
      <trkpt lat="49.91035" lon="2.40005">
        <ele>65.2</ele>
        <time>2022-09-23T13:51:38Z</time>
      </trkpt>
      <trkpt lat="49.91035" lon="2.40005">
        <ele>65.2</ele>
        <time>2022-09-23T13:51:39Z</time>
      </trkpt>
      <trkpt lat="49.91035" lon="2.40005">
        <ele>65.2</ele>
        <time>2022-09-23T13:51:40Z</time>
      </trkpt>
      <trkpt lat="49.91035" lon="2.40005">
        <ele>65.2</ele>
        <time>2022-09-23T13:51:41Z</time>
      </trkpt>
      <trkpt lat="49.91035" lon="2.40005">
        <ele>65.2</ele>
        <time>2022-09-23T13:51:42Z</time>
      </trkpt>
      <trkpt lat="49.91035" lon="2.40005">
        <ele>65.2</ele>
        <time>2022-09-23T13:51:43Z</time>
      </trkpt>
      <trkpt lat="49.91035" lon="2.40005">
        <ele>65.2</ele>
        <time>2022-09-23T13:51:44Z</time>
      </trkpt>
      <trkpt lat="49.91035" lon="2.40005">
        <ele>65.2</ele>
        <time>2022-09-23T13:51:45Z</time>
      </trkpt>
      <trkpt lat="49.91035" lon="2.40005">
        <ele>65.2</ele>
        <time>2022-09-23T13:51:46Z</time>
      </trkpt>
      <trkpt lat="49.91035" lon="2.40005">
        <ele>65.2</ele>
        <time>2022-09-23T13:51:47Z</time>
      </trkpt>
      <trkpt lat="49.91035" lon="2.40004">
        <ele>65.2</ele>
        <time>2022-09-23T13:51:48Z</time>
      </trkpt>
      <trkpt lat="49.91035" lon="2.40003">
        <ele>65.2</ele>
        <time>2022-09-23T13:51:49Z</time>
      </trkpt>
      <trkpt lat="49.91035" lon="2.40003">
        <ele>65.2</ele>
        <time>2022-09-23T13:51:50Z</time>
      </trkpt>
      <trkpt lat="49.91035" lon="2.40003">
        <ele>65.2</ele>
        <time>2022-09-23T13:51:51Z</time>
      </trkpt>
      <trkpt lat="49.91035" lon="2.40003">
        <ele>65.2</ele>
        <time>2022-09-23T13:51:52Z</time>
      </trkpt>
      <trkpt lat="49.91035" lon="2.40003">
        <ele>65.2</ele>
        <time>2022-09-23T13:51:53Z</time>
      </trkpt>
      <trkpt lat="49.91035" lon="2.40003">
        <ele>65.2</ele>
        <time>2022-09-23T13:51:54Z</time>
      </trkpt>
      <trkpt lat="49.91035" lon="2.40003">
        <ele>65.2</ele>
        <time>2022-09-23T13:51:55Z</time>
      </trkpt>
      <trkpt lat="49.91035" lon="2.40003">
        <ele>65.2</ele>
        <time>2022-09-23T13:51:56Z</time>
      </trkpt>
      <trkpt lat="49.91035" lon="2.40003">
        <ele>65.2</ele>
        <time>2022-09-23T13:51:57Z</time>
      </trkpt>
      <trkpt lat="49.91035" lon="2.40003">
        <ele>65.2</ele>
        <time>2022-09-23T13:51:58Z</time>
      </trkpt>
      <trkpt lat="49.91035" lon="2.40003">
        <ele>65.2</ele>
        <time>2022-09-23T13:51:59Z</time>
      </trkpt>
      <trkpt lat="49.91035" lon="2.40003">
        <ele>65.2</ele>
        <time>2022-09-23T13:52:00Z</time>
      </trkpt>
      <trkpt lat="49.91035" lon="2.40003">
        <ele>65.2</ele>
        <time>2022-09-23T13:52:01Z</time>
      </trkpt>
      <trkpt lat="49.91035" lon="2.40003">
        <ele>65.2</ele>
        <time>2022-09-23T13:52:02Z</time>
      </trkpt>
      <trkpt lat="49.91035" lon="2.40003">
        <ele>65.2</ele>
        <time>2022-09-23T13:52:03Z</time>
      </trkpt>
      <trkpt lat="49.91035" lon="2.40003">
        <ele>65.2</ele>
        <time>2022-09-23T13:52:04Z</time>
      </trkpt>
      <trkpt lat="49.91035" lon="2.40003">
        <ele>65.2</ele>
        <time>2022-09-23T13:52:05Z</time>
      </trkpt>
      <trkpt lat="49.91035" lon="2.40003">
        <ele>65.2</ele>
        <time>2022-09-23T13:52:06Z</time>
      </trkpt>
      <trkpt lat="49.91035" lon="2.40003">
        <ele>65.2</ele>
        <time>2022-09-23T13:52:07Z</time>
      </trkpt>
      <trkpt lat="49.91035" lon="2.40003">
        <ele>65.2</ele>
        <time>2022-09-23T13:52:08Z</time>
      </trkpt>
      <trkpt lat="49.91035" lon="2.40003">
        <ele>65.2</ele>
        <time>2022-09-23T13:52:09Z</time>
      </trkpt>
      <trkpt lat="49.91035" lon="2.40003">
        <ele>65.2</ele>
        <time>2022-09-23T13:52:10Z</time>
      </trkpt>
      <trkpt lat="49.91035" lon="2.40003">
        <ele>65.2</ele>
        <time>2022-09-23T13:52:11Z</time>
      </trkpt>
      <trkpt lat="49.91035" lon="2.40003">
        <ele>65.2</ele>
        <time>2022-09-23T13:52:12Z</time>
      </trkpt>
      <trkpt lat="49.91035" lon="2.40003">
        <ele>65.2</ele>
        <time>2022-09-23T13:52:13Z</time>
      </trkpt>
      <trkpt lat="49.91035" lon="2.40003">
        <ele>65.2</ele>
        <time>2022-09-23T13:52:14Z</time>
      </trkpt>
      <trkpt lat="49.91035" lon="2.40003">
        <ele>65.2</ele>
        <time>2022-09-23T13:52:15Z</time>
      </trkpt>
      <trkpt lat="49.91035" lon="2.40003">
        <ele>65.2</ele>
        <time>2022-09-23T13:52:16Z</time>
      </trkpt>
      <trkpt lat="49.91035" lon="2.40003">
        <ele>65.2</ele>
        <time>2022-09-23T13:52:17Z</time>
      </trkpt>
      <trkpt lat="49.91035" lon="2.40003">
        <ele>65.2</ele>
        <time>2022-09-23T13:52:18Z</time>
      </trkpt>
      <trkpt lat="49.91035" lon="2.40003">
        <ele>65.2</ele>
        <time>2022-09-23T13:52:19Z</time>
      </trkpt>
      <trkpt lat="49.91035" lon="2.40003">
        <ele>65.2</ele>
        <time>2022-09-23T13:52:20Z</time>
      </trkpt>
      <trkpt lat="49.91033" lon="2.4">
        <ele>65.2</ele>
        <time>2022-09-23T13:52:21Z</time>
      </trkpt>
      <trkpt lat="49.91033" lon="2.4">
        <ele>65.2</ele>
        <time>2022-09-23T13:52:22Z</time>
      </trkpt>
      <trkpt lat="49.91033" lon="2.39999">
        <ele>65.2</ele>
        <time>2022-09-23T13:52:23Z</time>
      </trkpt>
      <trkpt lat="49.91033" lon="2.39999">
        <ele>65.2</ele>
        <time>2022-09-23T13:52:24Z</time>
      </trkpt>
      <trkpt lat="49.91033" lon="2.39999">
        <ele>65.2</ele>
        <time>2022-09-23T13:52:25Z</time>
      </trkpt>
      <trkpt lat="49.91033" lon="2.39999">
        <ele>65.2</ele>
        <time>2022-09-23T13:52:26Z</time>
      </trkpt>
      <trkpt lat="49.91033" lon="2.39999">
        <ele>65.2</ele>
        <time>2022-09-23T13:52:27Z</time>
      </trkpt>
      <trkpt lat="49.91033" lon="2.39999">
        <ele>65.2</ele>
        <time>2022-09-23T13:52:28Z</time>
      </trkpt>
      <trkpt lat="49.91033" lon="2.39999">
        <ele>65.2</ele>
        <time>2022-09-23T13:52:29Z</time>
      </trkpt>
      <trkpt lat="49.91033" lon="2.39999">
        <ele>65.2</ele>
        <time>2022-09-23T13:52:30Z</time>
      </trkpt>
      <trkpt lat="49.91033" lon="2.39999">
        <ele>65.2</ele>
        <time>2022-09-23T13:52:31Z</time>
      </trkpt>
      <trkpt lat="49.91033" lon="2.39999">
        <ele>65.2</ele>
        <time>2022-09-23T13:52:32Z</time>
      </trkpt>
      <trkpt lat="49.91033" lon="2.39999">
        <ele>65.2</ele>
        <time>2022-09-23T13:52:33Z</time>
      </trkpt>
      <trkpt lat="49.91033" lon="2.39999">
        <ele>65.2</ele>
        <time>2022-09-23T13:52:34Z</time>
      </trkpt>
      <trkpt lat="49.91033" lon="2.39999">
        <ele>65.2</ele>
        <time>2022-09-23T13:52:35Z</time>
      </trkpt>
      <trkpt lat="49.91033" lon="2.39999">
        <ele>65.2</ele>
        <time>2022-09-23T13:52:36Z</time>
      </trkpt>
      <trkpt lat="49.91033" lon="2.39999">
        <ele>65.2</ele>
        <time>2022-09-23T13:52:37Z</time>
      </trkpt>
      <trkpt lat="49.91033" lon="2.39999">
        <ele>65.2</ele>
        <time>2022-09-23T13:52:38Z</time>
      </trkpt>
      <trkpt lat="49.91033" lon="2.39999">
        <ele>65.2</ele>
        <time>2022-09-23T13:52:39Z</time>
      </trkpt>
      <trkpt lat="49.91033" lon="2.39999">
        <ele>65.2</ele>
        <time>2022-09-23T13:52:40Z</time>
      </trkpt>
      <trkpt lat="49.91033" lon="2.39999">
        <ele>65.2</ele>
        <time>2022-09-23T13:52:41Z</time>
      </trkpt>
      <trkpt lat="49.91033" lon="2.39999">
        <ele>65.2</ele>
        <time>2022-09-23T13:52:42Z</time>
      </trkpt>
      <trkpt lat="49.91033" lon="2.39999">
        <ele>65.2</ele>
        <time>2022-09-23T13:52:43Z</time>
      </trkpt>
      <trkpt lat="49.91033" lon="2.4">
        <ele>65.2</ele>
        <time>2022-09-23T13:52:44Z</time>
      </trkpt>
      <trkpt lat="49.91033" lon="2.40001">
        <ele>65.2</ele>
        <time>2022-09-23T13:52:45Z</time>
      </trkpt>
      <trkpt lat="49.91032" lon="2.40002">
        <ele>65.2</ele>
        <time>2022-09-23T13:52:46Z</time>
      </trkpt>
      <trkpt lat="49.91032" lon="2.40003">
        <ele>65.2</ele>
        <time>2022-09-23T13:52:47Z</time>
      </trkpt>
      <trkpt lat="49.91032" lon="2.40005">
        <ele>65.1</ele>
        <time>2022-09-23T13:52:48Z</time>
      </trkpt>
      <trkpt lat="49.91032" lon="2.40007">
        <ele>65.1</ele>
        <time>2022-09-23T13:52:49Z</time>
      </trkpt>
      <trkpt lat="49.91031" lon="2.40008">
        <ele>65.1</ele>
        <time>2022-09-23T13:52:51Z</time>
      </trkpt>
      <trkpt lat="49.91032" lon="2.40009">
        <ele>65.1</ele>
        <time>2022-09-23T13:52:52Z</time>
      </trkpt>
      <trkpt lat="49.91032" lon="2.40012">
        <ele>65.1</ele>
        <time>2022-09-23T13:52:53Z</time>
      </trkpt>
      <trkpt lat="49.91032" lon="2.40014">
        <ele>65</ele>
        <time>2022-09-23T13:52:54Z</time>
      </trkpt>
      <trkpt lat="49.91032" lon="2.40016">
        <ele>65</ele>
        <time>2022-09-23T13:52:55Z</time>
      </trkpt>
      <trkpt lat="49.91032" lon="2.4002">
        <ele>65</ele>
        <time>2022-09-23T13:52:56Z</time>
      </trkpt>
      <trkpt lat="49.91031" lon="2.40021">
        <ele>65</ele>
        <time>2022-09-23T13:52:57Z</time>
      </trkpt>
      <trkpt lat="49.91031" lon="2.40023">
        <ele>64.9</ele>
        <time>2022-09-23T13:52:58Z</time>
      </trkpt>
      <trkpt lat="49.91031" lon="2.40025">
        <ele>64.9</ele>
        <time>2022-09-23T13:52:59Z</time>
      </trkpt>
      <trkpt lat="49.91032" lon="2.40028">
        <ele>64.9</ele>
        <time>2022-09-23T13:53:00Z</time>
      </trkpt>
      <trkpt lat="49.91032" lon="2.4003">
        <ele>64.8</ele>
        <time>2022-09-23T13:53:02Z</time>
      </trkpt>
      <trkpt lat="49.91032" lon="2.40032">
        <ele>64.8</ele>
        <time>2022-09-23T13:53:03Z</time>
      </trkpt>
      <trkpt lat="49.91033" lon="2.40035">
        <ele>64.8</ele>
        <time>2022-09-23T13:53:04Z</time>
      </trkpt>
      <trkpt lat="49.91033" lon="2.40038">
        <ele>64.8</ele>
        <time>2022-09-23T13:53:05Z</time>
      </trkpt>
      <trkpt lat="49.91033" lon="2.40039">
        <ele>64.7</ele>
        <time>2022-09-23T13:53:06Z</time>
      </trkpt>
      <trkpt lat="49.91034" lon="2.40041">
        <ele>64.7</ele>
        <time>2022-09-23T13:53:07Z</time>
      </trkpt>
      <trkpt lat="49.91034" lon="2.40043">
        <ele>64.7</ele>
        <time>2022-09-23T13:53:08Z</time>
      </trkpt>
      <trkpt lat="49.91035" lon="2.40045">
        <ele>64.7</ele>
        <time>2022-09-23T13:53:09Z</time>
      </trkpt>
      <trkpt lat="49.91035" lon="2.40047">
        <ele>64.7</ele>
        <time>2022-09-23T13:53:11Z</time>
      </trkpt>
      <trkpt lat="49.91035" lon="2.40049">
        <ele>64.6</ele>
        <time>2022-09-23T13:53:12Z</time>
      </trkpt>
      <trkpt lat="49.91035" lon="2.4005">
        <ele>64.6</ele>
        <time>2022-09-23T13:53:13Z</time>
      </trkpt>
      <trkpt lat="49.91035" lon="2.40052">
        <ele>64.6</ele>
        <time>2022-09-23T13:53:14Z</time>
      </trkpt>
      <trkpt lat="49.91036" lon="2.40055">
        <ele>64.6</ele>
        <time>2022-09-23T13:53:15Z</time>
      </trkpt>
      <trkpt lat="49.91036" lon="2.40056">
        <ele>64.6</ele>
        <time>2022-09-23T13:53:16Z</time>
      </trkpt>
      <trkpt lat="49.91036" lon="2.40057">
        <ele>64.6</ele>
        <time>2022-09-23T13:53:17Z</time>
      </trkpt>
      <trkpt lat="49.91036" lon="2.40059">
        <ele>64.6</ele>
        <time>2022-09-23T13:53:18Z</time>
      </trkpt>
      <trkpt lat="49.91036" lon="2.40062">
        <ele>64.6</ele>
        <time>2022-09-23T13:53:20Z</time>
      </trkpt>
      <trkpt lat="49.91035" lon="2.40063">
        <ele>64.6</ele>
        <time>2022-09-23T13:53:21Z</time>
      </trkpt>
      <trkpt lat="49.91035" lon="2.40064">
        <ele>64.6</ele>
        <time>2022-09-23T13:53:22Z</time>
      </trkpt>
      <trkpt lat="49.91035" lon="2.40066">
        <ele>64.6</ele>
        <time>2022-09-23T13:53:23Z</time>
      </trkpt>
      <trkpt lat="49.91036" lon="2.40067">
        <ele>64.6</ele>
        <time>2022-09-23T13:53:24Z</time>
      </trkpt>
      <trkpt lat="49.91036" lon="2.4007">
        <ele>64.5</ele>
        <time>2022-09-23T13:53:25Z</time>
      </trkpt>
      <trkpt lat="49.91036" lon="2.40071">
        <ele>64.5</ele>
        <time>2022-09-23T13:53:26Z</time>
      </trkpt>
      <trkpt lat="49.91036" lon="2.40074">
        <ele>64.5</ele>
        <time>2022-09-23T13:53:28Z</time>
      </trkpt>
      <trkpt lat="49.91036" lon="2.40076">
        <ele>64.5</ele>
        <time>2022-09-23T13:53:29Z</time>
      </trkpt>
      <trkpt lat="49.91036" lon="2.40077">
        <ele>64.5</ele>
        <time>2022-09-23T13:53:30Z</time>
      </trkpt>
      <trkpt lat="49.91035" lon="2.40078">
        <ele>64.5</ele>
        <time>2022-09-23T13:53:31Z</time>
      </trkpt>
      <trkpt lat="49.91035" lon="2.4008">
        <ele>64.5</ele>
        <time>2022-09-23T13:53:32Z</time>
      </trkpt>
      <trkpt lat="49.91035" lon="2.40082">
        <ele>64.5</ele>
        <time>2022-09-23T13:53:33Z</time>
      </trkpt>
      <trkpt lat="49.91035" lon="2.40084">
        <ele>64.5</ele>
        <time>2022-09-23T13:53:34Z</time>
      </trkpt>
      <trkpt lat="49.91035" lon="2.40086">
        <ele>64.5</ele>
        <time>2022-09-23T13:53:35Z</time>
      </trkpt>
      <trkpt lat="49.91035" lon="2.40089">
        <ele>64.5</ele>
        <time>2022-09-23T13:53:37Z</time>
      </trkpt>
      <trkpt lat="49.91035" lon="2.4009">
        <ele>64.5</ele>
        <time>2022-09-23T13:53:38Z</time>
      </trkpt>
      <trkpt lat="49.91035" lon="2.40092">
        <ele>64.5</ele>
        <time>2022-09-23T13:53:39Z</time>
      </trkpt>
      <trkpt lat="49.91035" lon="2.40095">
        <ele>64.5</ele>
        <time>2022-09-23T13:53:40Z</time>
      </trkpt>
      <trkpt lat="49.91035" lon="2.40096">
        <ele>64.5</ele>
        <time>2022-09-23T13:53:41Z</time>
      </trkpt>
      <trkpt lat="49.91035" lon="2.40097">
        <ele>64.5</ele>
        <time>2022-09-23T13:53:42Z</time>
      </trkpt>
      <trkpt lat="49.91035" lon="2.40101">
        <ele>64.5</ele>
        <time>2022-09-23T13:53:43Z</time>
      </trkpt>
      <trkpt lat="49.91035" lon="2.40102">
        <ele>64.5</ele>
        <time>2022-09-23T13:53:45Z</time>
      </trkpt>
      <trkpt lat="49.91035" lon="2.40103">
        <ele>64.5</ele>
        <time>2022-09-23T13:53:46Z</time>
      </trkpt>
      <trkpt lat="49.91034" lon="2.40105">
        <ele>64.5</ele>
        <time>2022-09-23T13:53:47Z</time>
      </trkpt>
      <trkpt lat="49.91034" lon="2.40107">
        <ele>64.5</ele>
        <time>2022-09-23T13:53:48Z</time>
      </trkpt>
      <trkpt lat="49.91034" lon="2.40108">
        <ele>64.5</ele>
        <time>2022-09-23T13:53:49Z</time>
      </trkpt>
      <trkpt lat="49.91034" lon="2.40111">
        <ele>64.4</ele>
        <time>2022-09-23T13:53:50Z</time>
      </trkpt>
      <trkpt lat="49.91034" lon="2.40113">
        <ele>64.4</ele>
        <time>2022-09-23T13:53:51Z</time>
      </trkpt>
      <trkpt lat="49.91034" lon="2.40116">
        <ele>64.4</ele>
        <time>2022-09-23T13:53:52Z</time>
      </trkpt>
      <trkpt lat="49.91034" lon="2.40117">
        <ele>64.4</ele>
        <time>2022-09-23T13:53:54Z</time>
      </trkpt>
      <trkpt lat="49.91034" lon="2.40118">
        <ele>64.4</ele>
        <time>2022-09-23T13:53:55Z</time>
      </trkpt>
      <trkpt lat="49.91034" lon="2.40121">
        <ele>64.4</ele>
        <time>2022-09-23T13:53:56Z</time>
      </trkpt>
      <trkpt lat="49.91034" lon="2.40122">
        <ele>64.4</ele>
        <time>2022-09-23T13:53:57Z</time>
      </trkpt>
      <trkpt lat="49.91033" lon="2.40124">
        <ele>64.4</ele>
        <time>2022-09-23T13:53:58Z</time>
      </trkpt>
      <trkpt lat="49.91033" lon="2.40126">
        <ele>64.3</ele>
        <time>2022-09-23T13:53:59Z</time>
      </trkpt>
      <trkpt lat="49.91033" lon="2.40129">
        <ele>64.3</ele>
        <time>2022-09-23T13:54:00Z</time>
      </trkpt>
      <trkpt lat="49.91033" lon="2.4013">
        <ele>64.3</ele>
        <time>2022-09-23T13:54:01Z</time>
      </trkpt>
      <trkpt lat="49.91033" lon="2.40131">
        <ele>64.3</ele>
        <time>2022-09-23T13:54:03Z</time>
      </trkpt>
      <trkpt lat="49.91034" lon="2.40133">
        <ele>64.3</ele>
        <time>2022-09-23T13:54:04Z</time>
      </trkpt>
      <trkpt lat="49.91035" lon="2.40137">
        <ele>64.3</ele>
        <time>2022-09-23T13:54:05Z</time>
      </trkpt>
      <trkpt lat="49.91035" lon="2.40138">
        <ele>64.2</ele>
        <time>2022-09-23T13:54:07Z</time>
      </trkpt>
      <trkpt lat="49.91035" lon="2.4014">
        <ele>64.2</ele>
        <time>2022-09-23T13:54:08Z</time>
      </trkpt>
      <trkpt lat="49.91034" lon="2.40142">
        <ele>64.2</ele>
        <time>2022-09-23T13:54:09Z</time>
      </trkpt>
      <trkpt lat="49.91034" lon="2.40144">
        <ele>64.2</ele>
        <time>2022-09-23T13:54:10Z</time>
      </trkpt>
      <trkpt lat="49.91034" lon="2.40145">
        <ele>64.2</ele>
        <time>2022-09-23T13:54:11Z</time>
      </trkpt>
      <trkpt lat="49.91034" lon="2.40147">
        <ele>64.2</ele>
        <time>2022-09-23T13:54:12Z</time>
      </trkpt>
      <trkpt lat="49.91034" lon="2.40148">
        <ele>64.2</ele>
        <time>2022-09-23T13:54:14Z</time>
      </trkpt>
      <trkpt lat="49.91034" lon="2.4015">
        <ele>64.2</ele>
        <time>2022-09-23T13:54:15Z</time>
      </trkpt>
      <trkpt lat="49.91034" lon="2.40152">
        <ele>64.1</ele>
        <time>2022-09-23T13:54:16Z</time>
      </trkpt>
      <trkpt lat="49.91034" lon="2.40153">
        <ele>64.1</ele>
        <time>2022-09-23T13:54:17Z</time>
      </trkpt>
      <trkpt lat="49.91034" lon="2.40156">
        <ele>64.1</ele>
        <time>2022-09-23T13:54:18Z</time>
      </trkpt>
      <trkpt lat="49.91034" lon="2.40157">
        <ele>64.1</ele>
        <time>2022-09-23T13:54:19Z</time>
      </trkpt>
      <trkpt lat="49.91034" lon="2.40159">
        <ele>64.1</ele>
        <time>2022-09-23T13:54:20Z</time>
      </trkpt>
      <trkpt lat="49.91034" lon="2.4016">
        <ele>64.1</ele>
        <time>2022-09-23T13:54:22Z</time>
      </trkpt>
      <trkpt lat="49.91034" lon="2.40162">
        <ele>64.1</ele>
        <time>2022-09-23T13:54:23Z</time>
      </trkpt>
      <trkpt lat="49.91035" lon="2.40163">
        <ele>64.1</ele>
        <time>2022-09-23T13:54:24Z</time>
      </trkpt>
      <trkpt lat="49.91035" lon="2.40164">
        <ele>64</ele>
        <time>2022-09-23T13:54:25Z</time>
      </trkpt>
      <trkpt lat="49.91035" lon="2.40166">
        <ele>64</ele>
        <time>2022-09-23T13:54:26Z</time>
      </trkpt>
      <trkpt lat="49.91035" lon="2.40168">
        <ele>64</ele>
        <time>2022-09-23T13:54:27Z</time>
      </trkpt>
      <trkpt lat="49.91035" lon="2.40171">
        <ele>64</ele>
        <time>2022-09-23T13:54:28Z</time>
      </trkpt>
      <trkpt lat="49.91036" lon="2.40172">
        <ele>64</ele>
        <time>2022-09-23T13:54:29Z</time>
      </trkpt>
      <trkpt lat="49.91036" lon="2.40174">
        <ele>64</ele>
        <time>2022-09-23T13:54:30Z</time>
      </trkpt>
      <trkpt lat="49.91036" lon="2.40175">
        <ele>64</ele>
        <time>2022-09-23T13:54:32Z</time>
      </trkpt>
      <trkpt lat="49.91036" lon="2.40177">
        <ele>64</ele>
        <time>2022-09-23T13:54:33Z</time>
      </trkpt>
      <trkpt lat="49.91036" lon="2.40178">
        <ele>64</ele>
        <time>2022-09-23T13:54:34Z</time>
      </trkpt>
      <trkpt lat="49.91036" lon="2.4018">
        <ele>64</ele>
        <time>2022-09-23T13:54:35Z</time>
      </trkpt>
      <trkpt lat="49.91035" lon="2.40182">
        <ele>64</ele>
        <time>2022-09-23T13:54:36Z</time>
      </trkpt>
      <trkpt lat="49.91035" lon="2.40183">
        <ele>63.9</ele>
        <time>2022-09-23T13:54:37Z</time>
      </trkpt>
      <trkpt lat="49.91035" lon="2.40186">
        <ele>63.9</ele>
        <time>2022-09-23T13:54:38Z</time>
      </trkpt>
      <trkpt lat="49.91035" lon="2.40188">
        <ele>63.9</ele>
        <time>2022-09-23T13:54:39Z</time>
      </trkpt>
      <trkpt lat="49.91035" lon="2.40189">
        <ele>63.9</ele>
        <time>2022-09-23T13:54:40Z</time>
      </trkpt>
      <trkpt lat="49.91035" lon="2.40191">
        <ele>63.9</ele>
        <time>2022-09-23T13:54:41Z</time>
      </trkpt>
      <trkpt lat="49.91036" lon="2.40193">
        <ele>63.9</ele>
        <time>2022-09-23T13:54:43Z</time>
      </trkpt>
      <trkpt lat="49.91036" lon="2.40195">
        <ele>63.9</ele>
        <time>2022-09-23T13:54:44Z</time>
      </trkpt>
      <trkpt lat="49.91036" lon="2.40197">
        <ele>63.9</ele>
        <time>2022-09-23T13:54:45Z</time>
      </trkpt>
      <trkpt lat="49.91036" lon="2.40199">
        <ele>63.9</ele>
        <time>2022-09-23T13:54:46Z</time>
      </trkpt>
      <trkpt lat="49.91036" lon="2.402">
        <ele>63.9</ele>
        <time>2022-09-23T13:54:47Z</time>
      </trkpt>
      <trkpt lat="49.91036" lon="2.40203">
        <ele>63.9</ele>
        <time>2022-09-23T13:54:48Z</time>
      </trkpt>
      <trkpt lat="49.91036" lon="2.40205">
        <ele>63.9</ele>
        <time>2022-09-23T13:54:49Z</time>
      </trkpt>
      <trkpt lat="49.91036" lon="2.40206">
        <ele>63.9</ele>
        <time>2022-09-23T13:54:50Z</time>
      </trkpt>
      <trkpt lat="49.91036" lon="2.40207">
        <ele>63.9</ele>
        <time>2022-09-23T13:54:51Z</time>
      </trkpt>
      <trkpt lat="49.91036" lon="2.40209">
        <ele>63.9</ele>
        <time>2022-09-23T13:54:53Z</time>
      </trkpt>
      <trkpt lat="49.91036" lon="2.40211">
        <ele>63.9</ele>
        <time>2022-09-23T13:54:54Z</time>
      </trkpt>
      <trkpt lat="49.91036" lon="2.40213">
        <ele>63.8</ele>
        <time>2022-09-23T13:54:55Z</time>
      </trkpt>
      <trkpt lat="49.91036" lon="2.40215">
        <ele>63.8</ele>
        <time>2022-09-23T13:54:56Z</time>
      </trkpt>
      <trkpt lat="49.91036" lon="2.40216">
        <ele>63.8</ele>
        <time>2022-09-23T13:54:57Z</time>
      </trkpt>
      <trkpt lat="49.91036" lon="2.40218">
        <ele>63.8</ele>
        <time>2022-09-23T13:54:58Z</time>
      </trkpt>
      <trkpt lat="49.91036" lon="2.4022">
        <ele>63.8</ele>
        <time>2022-09-23T13:54:59Z</time>
      </trkpt>
      <trkpt lat="49.91036" lon="2.40223">
        <ele>63.8</ele>
        <time>2022-09-23T13:55:01Z</time>
      </trkpt>
      <trkpt lat="49.91035" lon="2.40224">
        <ele>63.8</ele>
        <time>2022-09-23T13:55:02Z</time>
      </trkpt>
      <trkpt lat="49.91035" lon="2.40225">
        <ele>63.8</ele>
        <time>2022-09-23T13:55:03Z</time>
      </trkpt>
      <trkpt lat="49.91035" lon="2.40227">
        <ele>63.8</ele>
        <time>2022-09-23T13:55:04Z</time>
      </trkpt>
      <trkpt lat="49.91035" lon="2.4023">
        <ele>63.8</ele>
        <time>2022-09-23T13:55:05Z</time>
      </trkpt>
      <trkpt lat="49.91035" lon="2.40231">
        <ele>63.8</ele>
        <time>2022-09-23T13:55:06Z</time>
      </trkpt>
      <trkpt lat="49.91035" lon="2.40233">
        <ele>63.8</ele>
        <time>2022-09-23T13:55:07Z</time>
      </trkpt>
      <trkpt lat="49.91035" lon="2.40234">
        <ele>63.8</ele>
        <time>2022-09-23T13:55:08Z</time>
      </trkpt>
      <trkpt lat="49.91035" lon="2.40236">
        <ele>63.8</ele>
        <time>2022-09-23T13:55:10Z</time>
      </trkpt>
      <trkpt lat="49.91035" lon="2.40238">
        <ele>63.8</ele>
        <time>2022-09-23T13:55:11Z</time>
      </trkpt>
      <trkpt lat="49.91035" lon="2.40239">
        <ele>63.8</ele>
        <time>2022-09-23T13:55:12Z</time>
      </trkpt>
      <trkpt lat="49.91035" lon="2.40241">
        <ele>63.8</ele>
        <time>2022-09-23T13:55:13Z</time>
      </trkpt>
      <trkpt lat="49.91035" lon="2.40242">
        <ele>63.8</ele>
        <time>2022-09-23T13:55:14Z</time>
      </trkpt>
      <trkpt lat="49.91035" lon="2.40244">
        <ele>63.8</ele>
        <time>2022-09-23T13:55:15Z</time>
      </trkpt>
      <trkpt lat="49.91035" lon="2.40246">
        <ele>63.8</ele>
        <time>2022-09-23T13:55:16Z</time>
      </trkpt>
      <trkpt lat="49.91035" lon="2.40248">
        <ele>63.8</ele>
        <time>2022-09-23T13:55:18Z</time>
      </trkpt>
      <trkpt lat="49.91035" lon="2.40249">
        <ele>63.8</ele>
        <time>2022-09-23T13:55:19Z</time>
      </trkpt>
      <trkpt lat="49.91036" lon="2.40251">
        <ele>63.8</ele>
        <time>2022-09-23T13:55:20Z</time>
      </trkpt>
      <trkpt lat="49.91036" lon="2.40253">
        <ele>63.8</ele>
        <time>2022-09-23T13:55:21Z</time>
      </trkpt>
      <trkpt lat="49.91036" lon="2.40254">
        <ele>63.8</ele>
        <time>2022-09-23T13:55:22Z</time>
      </trkpt>
      <trkpt lat="49.91036" lon="2.40256">
        <ele>63.8</ele>
        <time>2022-09-23T13:55:23Z</time>
      </trkpt>
      <trkpt lat="49.91036" lon="2.40258">
        <ele>63.7</ele>
        <time>2022-09-23T13:55:24Z</time>
      </trkpt>
      <trkpt lat="49.91037" lon="2.40259">
        <ele>63.7</ele>
        <time>2022-09-23T13:55:26Z</time>
      </trkpt>
      <trkpt lat="49.91037" lon="2.40262">
        <ele>63.7</ele>
        <time>2022-09-23T13:55:27Z</time>
      </trkpt>
      <trkpt lat="49.91037" lon="2.40263">
        <ele>63.7</ele>
        <time>2022-09-23T13:55:28Z</time>
      </trkpt>
      <trkpt lat="49.91037" lon="2.40264">
        <ele>63.7</ele>
        <time>2022-09-23T13:55:29Z</time>
      </trkpt>
      <trkpt lat="49.91038" lon="2.40266">
        <ele>63.7</ele>
        <time>2022-09-23T13:55:30Z</time>
      </trkpt>
      <trkpt lat="49.91038" lon="2.40268">
        <ele>63.7</ele>
        <time>2022-09-23T13:55:31Z</time>
      </trkpt>
      <trkpt lat="49.91038" lon="2.4027">
        <ele>63.7</ele>
        <time>2022-09-23T13:55:32Z</time>
      </trkpt>
      <trkpt lat="49.91038" lon="2.40271">
        <ele>63.7</ele>
        <time>2022-09-23T13:55:33Z</time>
      </trkpt>
      <trkpt lat="49.91038" lon="2.40273">
        <ele>63.7</ele>
        <time>2022-09-23T13:55:34Z</time>
      </trkpt>
      <trkpt lat="49.91038" lon="2.40275">
        <ele>63.7</ele>
        <time>2022-09-23T13:55:36Z</time>
      </trkpt>
      <trkpt lat="49.91038" lon="2.40277">
        <ele>63.7</ele>
        <time>2022-09-23T13:55:37Z</time>
      </trkpt>
      <trkpt lat="49.91038" lon="2.40279">
        <ele>63.7</ele>
        <time>2022-09-23T13:55:38Z</time>
      </trkpt>
      <trkpt lat="49.91038" lon="2.4028">
        <ele>63.7</ele>
        <time>2022-09-23T13:55:39Z</time>
      </trkpt>
      <trkpt lat="49.91038" lon="2.40282">
        <ele>63.7</ele>
        <time>2022-09-23T13:55:40Z</time>
      </trkpt>
      <trkpt lat="49.91039" lon="2.40285">
        <ele>63.7</ele>
        <time>2022-09-23T13:55:41Z</time>
      </trkpt>
      <trkpt lat="49.91039" lon="2.40286">
        <ele>63.7</ele>
        <time>2022-09-23T13:55:42Z</time>
      </trkpt>
      <trkpt lat="49.91039" lon="2.40287">
        <ele>63.7</ele>
        <time>2022-09-23T13:55:43Z</time>
      </trkpt>
      <trkpt lat="49.91039" lon="2.40291">
        <ele>63.7</ele>
        <time>2022-09-23T13:55:45Z</time>
      </trkpt>
      <trkpt lat="49.9104" lon="2.40292">
        <ele>63.7</ele>
        <time>2022-09-23T13:55:46Z</time>
      </trkpt>
      <trkpt lat="49.9104" lon="2.40294">
        <ele>63.7</ele>
        <time>2022-09-23T13:55:47Z</time>
      </trkpt>
      <trkpt lat="49.9104" lon="2.40295">
        <ele>63.7</ele>
        <time>2022-09-23T13:55:48Z</time>
      </trkpt>
      <trkpt lat="49.9104" lon="2.40297">
        <ele>63.7</ele>
        <time>2022-09-23T13:55:49Z</time>
      </trkpt>
      <trkpt lat="49.9104" lon="2.40299">
        <ele>63.7</ele>
        <time>2022-09-23T13:55:50Z</time>
      </trkpt>
      <trkpt lat="49.9104" lon="2.40302">
        <ele>63.6</ele>
        <time>2022-09-23T13:55:51Z</time>
      </trkpt>
      <trkpt lat="49.9104" lon="2.40303">
        <ele>63.6</ele>
        <time>2022-09-23T13:55:52Z</time>
      </trkpt>
      <trkpt lat="49.9104" lon="2.40306">
        <ele>63.6</ele>
        <time>2022-09-23T13:55:54Z</time>
      </trkpt>
      <trkpt lat="49.9104" lon="2.40308">
        <ele>63.6</ele>
        <time>2022-09-23T13:55:55Z</time>
      </trkpt>
      <trkpt lat="49.9104" lon="2.4031">
        <ele>63.6</ele>
        <time>2022-09-23T13:55:56Z</time>
      </trkpt>
      <trkpt lat="49.9104" lon="2.40311">
        <ele>63.6</ele>
        <time>2022-09-23T13:55:58Z</time>
      </trkpt>
      <trkpt lat="49.91039" lon="2.40313">
        <ele>63.6</ele>
        <time>2022-09-23T13:55:59Z</time>
      </trkpt>
      <trkpt lat="49.91039" lon="2.40315">
        <ele>63.6</ele>
        <time>2022-09-23T13:56:00Z</time>
      </trkpt>
      <trkpt lat="49.91039" lon="2.40318">
        <ele>63.6</ele>
        <time>2022-09-23T13:56:01Z</time>
      </trkpt>
      <trkpt lat="49.91039" lon="2.4032">
        <ele>63.6</ele>
        <time>2022-09-23T13:56:03Z</time>
      </trkpt>
      <trkpt lat="49.91039" lon="2.40322">
        <ele>63.6</ele>
        <time>2022-09-23T13:56:04Z</time>
      </trkpt>
      <trkpt lat="49.91039" lon="2.40324">
        <ele>63.6</ele>
        <time>2022-09-23T13:56:05Z</time>
      </trkpt>
      <trkpt lat="49.91038" lon="2.40327">
        <ele>63.6</ele>
        <time>2022-09-23T13:56:07Z</time>
      </trkpt>
      <trkpt lat="49.91038" lon="2.4033">
        <ele>63.6</ele>
        <time>2022-09-23T13:56:08Z</time>
      </trkpt>
      <trkpt lat="49.91038" lon="2.40331">
        <ele>63.6</ele>
        <time>2022-09-23T13:56:09Z</time>
      </trkpt>
      <trkpt lat="49.91038" lon="2.40332">
        <ele>63.6</ele>
        <time>2022-09-23T13:56:10Z</time>
      </trkpt>
      <trkpt lat="49.91038" lon="2.40335">
        <ele>63.6</ele>
        <time>2022-09-23T13:56:12Z</time>
      </trkpt>
      <trkpt lat="49.91038" lon="2.40337">
        <ele>63.6</ele>
        <time>2022-09-23T13:56:13Z</time>
      </trkpt>
      <trkpt lat="49.91038" lon="2.40339">
        <ele>63.6</ele>
        <time>2022-09-23T13:56:14Z</time>
      </trkpt>
      <trkpt lat="49.91038" lon="2.40341">
        <ele>63.6</ele>
        <time>2022-09-23T13:56:15Z</time>
      </trkpt>
      <trkpt lat="49.91038" lon="2.40343">
        <ele>63.6</ele>
        <time>2022-09-23T13:56:16Z</time>
      </trkpt>
      <trkpt lat="49.91038" lon="2.40346">
        <ele>63.6</ele>
        <time>2022-09-23T13:56:17Z</time>
      </trkpt>
      <trkpt lat="49.91038" lon="2.40347">
        <ele>63.6</ele>
        <time>2022-09-23T13:56:18Z</time>
      </trkpt>
      <trkpt lat="49.91038" lon="2.40348">
        <ele>63.6</ele>
        <time>2022-09-23T13:56:19Z</time>
      </trkpt>
      <trkpt lat="49.91038" lon="2.4035">
        <ele>63.6</ele>
        <time>2022-09-23T13:56:20Z</time>
      </trkpt>
      <trkpt lat="49.91038" lon="2.40353">
        <ele>63.6</ele>
        <time>2022-09-23T13:56:22Z</time>
      </trkpt>
      <trkpt lat="49.91038" lon="2.40355">
        <ele>63.6</ele>
        <time>2022-09-23T13:56:23Z</time>
      </trkpt>
      <trkpt lat="49.91038" lon="2.40357">
        <ele>63.6</ele>
        <time>2022-09-23T13:56:24Z</time>
      </trkpt>
      <trkpt lat="49.91038" lon="2.40359">
        <ele>63.6</ele>
        <time>2022-09-23T13:56:25Z</time>
      </trkpt>
      <trkpt lat="49.91037" lon="2.4036">
        <ele>63.6</ele>
        <time>2022-09-23T13:56:26Z</time>
      </trkpt>
      <trkpt lat="49.91037" lon="2.40363">
        <ele>63.6</ele>
        <time>2022-09-23T13:56:27Z</time>
      </trkpt>
      <trkpt lat="49.91037" lon="2.40364">
        <ele>63.6</ele>
        <time>2022-09-23T13:56:28Z</time>
      </trkpt>
      <trkpt lat="49.91037" lon="2.40366">
        <ele>63.6</ele>
        <time>2022-09-23T13:56:29Z</time>
      </trkpt>
      <trkpt lat="49.91037" lon="2.40368">
        <ele>63.6</ele>
        <time>2022-09-23T13:56:30Z</time>
      </trkpt>
      <trkpt lat="49.91037" lon="2.40371">
        <ele>63.7</ele>
        <time>2022-09-23T13:56:32Z</time>
      </trkpt>
      <trkpt lat="49.91037" lon="2.40373">
        <ele>63.7</ele>
        <time>2022-09-23T13:56:33Z</time>
      </trkpt>
      <trkpt lat="49.91037" lon="2.40374">
        <ele>63.7</ele>
        <time>2022-09-23T13:56:34Z</time>
      </trkpt>
      <trkpt lat="49.91037" lon="2.40376">
        <ele>63.7</ele>
        <time>2022-09-23T13:56:35Z</time>
      </trkpt>
      <trkpt lat="49.91036" lon="2.40377">
        <ele>63.7</ele>
        <time>2022-09-23T13:56:36Z</time>
      </trkpt>
      <trkpt lat="49.91036" lon="2.40379">
        <ele>63.7</ele>
        <time>2022-09-23T13:56:37Z</time>
      </trkpt>
      <trkpt lat="49.91036" lon="2.40381">
        <ele>63.7</ele>
        <time>2022-09-23T13:56:38Z</time>
      </trkpt>
      <trkpt lat="49.91036" lon="2.40383">
        <ele>63.7</ele>
        <time>2022-09-23T13:56:39Z</time>
      </trkpt>
      <trkpt lat="49.91036" lon="2.40385">
        <ele>63.7</ele>
        <time>2022-09-23T13:56:41Z</time>
      </trkpt>
      <trkpt lat="49.91036" lon="2.40387">
        <ele>63.7</ele>
        <time>2022-09-23T13:56:42Z</time>
      </trkpt>
      <trkpt lat="49.91036" lon="2.40389">
        <ele>63.7</ele>
        <time>2022-09-23T13:56:43Z</time>
      </trkpt>
      <trkpt lat="49.91036" lon="2.4039">
        <ele>63.7</ele>
        <time>2022-09-23T13:56:44Z</time>
      </trkpt>
      <trkpt lat="49.91036" lon="2.40392">
        <ele>63.7</ele>
        <time>2022-09-23T13:56:45Z</time>
      </trkpt>
      <trkpt lat="49.91035" lon="2.40393">
        <ele>63.7</ele>
        <time>2022-09-23T13:56:46Z</time>
      </trkpt>
      <trkpt lat="49.91035" lon="2.40395">
        <ele>63.7</ele>
        <time>2022-09-23T13:56:47Z</time>
      </trkpt>
      <trkpt lat="49.91036" lon="2.40397">
        <ele>63.7</ele>
        <time>2022-09-23T13:56:48Z</time>
      </trkpt>
      <trkpt lat="49.91036" lon="2.404">
        <ele>63.7</ele>
        <time>2022-09-23T13:56:49Z</time>
      </trkpt>
      <trkpt lat="49.91036" lon="2.40401">
        <ele>63.7</ele>
        <time>2022-09-23T13:56:51Z</time>
      </trkpt>
      <trkpt lat="49.91036" lon="2.40403">
        <ele>63.7</ele>
        <time>2022-09-23T13:56:52Z</time>
      </trkpt>
      <trkpt lat="49.91036" lon="2.40404">
        <ele>63.7</ele>
        <time>2022-09-23T13:56:53Z</time>
      </trkpt>
      <trkpt lat="49.91037" lon="2.40405">
        <ele>63.7</ele>
        <time>2022-09-23T13:56:54Z</time>
      </trkpt>
      <trkpt lat="49.91037" lon="2.40407">
        <ele>63.7</ele>
        <time>2022-09-23T13:56:55Z</time>
      </trkpt>
      <trkpt lat="49.91038" lon="2.40409">
        <ele>63.7</ele>
        <time>2022-09-23T13:56:56Z</time>
      </trkpt>
      <trkpt lat="49.91038" lon="2.40411">
        <ele>63.7</ele>
        <time>2022-09-23T13:56:57Z</time>
      </trkpt>
      <trkpt lat="49.91038" lon="2.40412">
        <ele>63.7</ele>
        <time>2022-09-23T13:56:58Z</time>
      </trkpt>
      <trkpt lat="49.91039" lon="2.40415">
        <ele>63.7</ele>
        <time>2022-09-23T13:56:59Z</time>
      </trkpt>
      <trkpt lat="49.91039" lon="2.40416">
        <ele>63.7</ele>
        <time>2022-09-23T13:57:01Z</time>
      </trkpt>
      <trkpt lat="49.91039" lon="2.40418">
        <ele>63.7</ele>
        <time>2022-09-23T13:57:02Z</time>
      </trkpt>
      <trkpt lat="49.9104" lon="2.40419">
        <ele>63.7</ele>
        <time>2022-09-23T13:57:03Z</time>
      </trkpt>
      <trkpt lat="49.9104" lon="2.4042">
        <ele>63.7</ele>
        <time>2022-09-23T13:57:04Z</time>
      </trkpt>
      <trkpt lat="49.9104" lon="2.40421">
        <ele>63.7</ele>
        <time>2022-09-23T13:57:05Z</time>
      </trkpt>
      <trkpt lat="49.91041" lon="2.40423">
        <ele>63.7</ele>
        <time>2022-09-23T13:57:06Z</time>
      </trkpt>
      <trkpt lat="49.91041" lon="2.40425">
        <ele>63.7</ele>
        <time>2022-09-23T13:57:07Z</time>
      </trkpt>
      <trkpt lat="49.91041" lon="2.40426">
        <ele>63.7</ele>
        <time>2022-09-23T13:57:08Z</time>
      </trkpt>
      <trkpt lat="49.91041" lon="2.40428">
        <ele>63.7</ele>
        <time>2022-09-23T13:57:10Z</time>
      </trkpt>
      <trkpt lat="49.91041" lon="2.4043">
        <ele>63.7</ele>
        <time>2022-09-23T13:57:11Z</time>
      </trkpt>
      <trkpt lat="49.91041" lon="2.40433">
        <ele>63.7</ele>
        <time>2022-09-23T13:57:12Z</time>
      </trkpt>
      <trkpt lat="49.91041" lon="2.40434">
        <ele>63.7</ele>
        <time>2022-09-23T13:57:13Z</time>
      </trkpt>
      <trkpt lat="49.91041" lon="2.40435">
        <ele>63.7</ele>
        <time>2022-09-23T13:57:14Z</time>
      </trkpt>
      <trkpt lat="49.91041" lon="2.40437">
        <ele>63.7</ele>
        <time>2022-09-23T13:57:15Z</time>
      </trkpt>
      <trkpt lat="49.91041" lon="2.40439">
        <ele>63.7</ele>
        <time>2022-09-23T13:57:16Z</time>
      </trkpt>
      <trkpt lat="49.91041" lon="2.40441">
        <ele>63.7</ele>
        <time>2022-09-23T13:57:17Z</time>
      </trkpt>
      <trkpt lat="49.91041" lon="2.40443">
        <ele>63.7</ele>
        <time>2022-09-23T13:57:18Z</time>
      </trkpt>
      <trkpt lat="49.91041" lon="2.40444">
        <ele>63.7</ele>
        <time>2022-09-23T13:57:20Z</time>
      </trkpt>
      <trkpt lat="49.91041" lon="2.40446">
        <ele>63.7</ele>
        <time>2022-09-23T13:57:21Z</time>
      </trkpt>
      <trkpt lat="49.91041" lon="2.40449">
        <ele>63.7</ele>
        <time>2022-09-23T13:57:22Z</time>
      </trkpt>
      <trkpt lat="49.91041" lon="2.4045">
        <ele>63.7</ele>
        <time>2022-09-23T13:57:23Z</time>
      </trkpt>
      <trkpt lat="49.91041" lon="2.40452">
        <ele>63.6</ele>
        <time>2022-09-23T13:57:24Z</time>
      </trkpt>
      <trkpt lat="49.91041" lon="2.40455">
        <ele>63.6</ele>
        <time>2022-09-23T13:57:25Z</time>
      </trkpt>
      <trkpt lat="49.91041" lon="2.40457">
        <ele>63.6</ele>
        <time>2022-09-23T13:57:26Z</time>
      </trkpt>
      <trkpt lat="49.91041" lon="2.40459">
        <ele>63.6</ele>
        <time>2022-09-23T13:57:27Z</time>
      </trkpt>
      <trkpt lat="49.91041" lon="2.4046">
        <ele>63.6</ele>
        <time>2022-09-23T13:57:28Z</time>
      </trkpt>
      <trkpt lat="49.9104" lon="2.40462">
        <ele>63.6</ele>
        <time>2022-09-23T13:57:29Z</time>
      </trkpt>
      <trkpt lat="49.9104" lon="2.40464">
        <ele>63.6</ele>
        <time>2022-09-23T13:57:31Z</time>
      </trkpt>
      <trkpt lat="49.9104" lon="2.40467">
        <ele>63.6</ele>
        <time>2022-09-23T13:57:32Z</time>
      </trkpt>
      <trkpt lat="49.9104" lon="2.40469">
        <ele>63.6</ele>
        <time>2022-09-23T13:57:33Z</time>
      </trkpt>
      <trkpt lat="49.9104" lon="2.4047">
        <ele>63.6</ele>
        <time>2022-09-23T13:57:34Z</time>
      </trkpt>
      <trkpt lat="49.9104" lon="2.40472">
        <ele>63.6</ele>
        <time>2022-09-23T13:57:35Z</time>
      </trkpt>
      <trkpt lat="49.9104" lon="2.40474">
        <ele>63.6</ele>
        <time>2022-09-23T13:57:36Z</time>
      </trkpt>
      <trkpt lat="49.91039" lon="2.40478">
        <ele>63.5</ele>
        <time>2022-09-23T13:57:37Z</time>
      </trkpt>
      <trkpt lat="49.91039" lon="2.40479">
        <ele>63.5</ele>
        <time>2022-09-23T13:57:38Z</time>
      </trkpt>
      <trkpt lat="49.91039" lon="2.4048">
        <ele>63.5</ele>
        <time>2022-09-23T13:57:39Z</time>
      </trkpt>
      <trkpt lat="49.91039" lon="2.40481">
        <ele>63.5</ele>
        <time>2022-09-23T13:57:40Z</time>
      </trkpt>
      <trkpt lat="49.91039" lon="2.40483">
        <ele>63.5</ele>
        <time>2022-09-23T13:57:41Z</time>
      </trkpt>
      <trkpt lat="49.91039" lon="2.40486">
        <ele>63.5</ele>
        <time>2022-09-23T13:57:43Z</time>
      </trkpt>
      <trkpt lat="49.91039" lon="2.40487">
        <ele>63.5</ele>
        <time>2022-09-23T13:57:44Z</time>
      </trkpt>
      <trkpt lat="49.91039" lon="2.40489">
        <ele>63.5</ele>
        <time>2022-09-23T13:57:45Z</time>
      </trkpt>
      <trkpt lat="49.91039" lon="2.40491">
        <ele>63.5</ele>
        <time>2022-09-23T13:57:46Z</time>
      </trkpt>
      <trkpt lat="49.91038" lon="2.40493">
        <ele>63.5</ele>
        <time>2022-09-23T13:57:47Z</time>
      </trkpt>
      <trkpt lat="49.91038" lon="2.40494">
        <ele>63.5</ele>
        <time>2022-09-23T13:57:48Z</time>
      </trkpt>
      <trkpt lat="49.91038" lon="2.40496">
        <ele>63.4</ele>
        <time>2022-09-23T13:57:49Z</time>
      </trkpt>
      <trkpt lat="49.91038" lon="2.40499">
        <ele>63.4</ele>
        <time>2022-09-23T13:57:50Z</time>
      </trkpt>
      <trkpt lat="49.91038" lon="2.405">
        <ele>63.4</ele>
        <time>2022-09-23T13:57:51Z</time>
      </trkpt>
      <trkpt lat="49.91038" lon="2.40502">
        <ele>63.4</ele>
        <time>2022-09-23T13:57:52Z</time>
      </trkpt>
      <trkpt lat="49.91038" lon="2.40503">
        <ele>63.4</ele>
        <time>2022-09-23T13:57:54Z</time>
      </trkpt>
      <trkpt lat="49.91038" lon="2.40505">
        <ele>63.4</ele>
        <time>2022-09-23T13:57:55Z</time>
      </trkpt>
      <trkpt lat="49.91038" lon="2.40507">
        <ele>63.4</ele>
        <time>2022-09-23T13:57:56Z</time>
      </trkpt>
      <trkpt lat="49.91038" lon="2.40509">
        <ele>63.4</ele>
        <time>2022-09-23T13:57:57Z</time>
      </trkpt>
      <trkpt lat="49.91038" lon="2.4051">
        <ele>63.4</ele>
        <time>2022-09-23T13:57:58Z</time>
      </trkpt>
      <trkpt lat="49.91038" lon="2.40512">
        <ele>63.3</ele>
        <time>2022-09-23T13:57:59Z</time>
      </trkpt>
      <trkpt lat="49.91038" lon="2.40514">
        <ele>63.3</ele>
        <time>2022-09-23T13:58:00Z</time>
      </trkpt>
      <trkpt lat="49.91038" lon="2.40515">
        <ele>63.3</ele>
        <time>2022-09-23T13:58:01Z</time>
      </trkpt>
      <trkpt lat="49.91038" lon="2.40517">
        <ele>63.3</ele>
        <time>2022-09-23T13:58:02Z</time>
      </trkpt>
      <trkpt lat="49.91038" lon="2.40519">
        <ele>63.3</ele>
        <time>2022-09-23T13:58:03Z</time>
      </trkpt>
      <trkpt lat="49.91038" lon="2.40521">
        <ele>63.3</ele>
        <time>2022-09-23T13:58:04Z</time>
      </trkpt>
      <trkpt lat="49.91038" lon="2.40523">
        <ele>63.3</ele>
        <time>2022-09-23T13:58:06Z</time>
      </trkpt>
      <trkpt lat="49.91038" lon="2.40526">
        <ele>63.2</ele>
        <time>2022-09-23T13:58:07Z</time>
      </trkpt>
      <trkpt lat="49.91038" lon="2.40527">
        <ele>63.2</ele>
        <time>2022-09-23T13:58:08Z</time>
      </trkpt>
      <trkpt lat="49.91039" lon="2.40531">
        <ele>63.2</ele>
        <time>2022-09-23T13:58:09Z</time>
      </trkpt>
      <trkpt lat="49.91039" lon="2.40532">
        <ele>63.2</ele>
        <time>2022-09-23T13:58:10Z</time>
      </trkpt>
      <trkpt lat="49.91039" lon="2.40534">
        <ele>63.2</ele>
        <time>2022-09-23T13:58:12Z</time>
      </trkpt>
      <trkpt lat="49.91039" lon="2.40535">
        <ele>63.2</ele>
        <time>2022-09-23T13:58:13Z</time>
      </trkpt>
      <trkpt lat="49.91039" lon="2.40537">
        <ele>63.2</ele>
        <time>2022-09-23T13:58:14Z</time>
      </trkpt>
      <trkpt lat="49.9104" lon="2.40538">
        <ele>63.1</ele>
        <time>2022-09-23T13:58:15Z</time>
      </trkpt>
      <trkpt lat="49.9104" lon="2.4054">
        <ele>63.1</ele>
        <time>2022-09-23T13:58:16Z</time>
      </trkpt>
      <trkpt lat="49.9104" lon="2.40543">
        <ele>63.1</ele>
        <time>2022-09-23T13:58:17Z</time>
      </trkpt>
      <trkpt lat="49.9104" lon="2.40545">
        <ele>63.1</ele>
        <time>2022-09-23T13:58:18Z</time>
      </trkpt>
      <trkpt lat="49.9104" lon="2.40546">
        <ele>63.1</ele>
        <time>2022-09-23T13:58:19Z</time>
      </trkpt>
      <trkpt lat="49.91041" lon="2.40548">
        <ele>63.1</ele>
        <time>2022-09-23T13:58:20Z</time>
      </trkpt>
      <trkpt lat="49.91041" lon="2.40549">
        <ele>63.1</ele>
        <time>2022-09-23T13:58:21Z</time>
      </trkpt>
      <trkpt lat="49.91041" lon="2.40551">
        <ele>63</ele>
        <time>2022-09-23T13:58:23Z</time>
      </trkpt>
      <trkpt lat="49.91041" lon="2.40553">
        <ele>63</ele>
        <time>2022-09-23T13:58:24Z</time>
      </trkpt>
      <trkpt lat="49.91041" lon="2.40555">
        <ele>63</ele>
        <time>2022-09-23T13:58:25Z</time>
      </trkpt>
      <trkpt lat="49.91041" lon="2.40557">
        <ele>63</ele>
        <time>2022-09-23T13:58:26Z</time>
      </trkpt>
      <trkpt lat="49.91041" lon="2.4056">
        <ele>63</ele>
        <time>2022-09-23T13:58:27Z</time>
      </trkpt>
      <trkpt lat="49.91041" lon="2.40562">
        <ele>63</ele>
        <time>2022-09-23T13:58:28Z</time>
      </trkpt>
      <trkpt lat="49.91041" lon="2.40564">
        <ele>63</ele>
        <time>2022-09-23T13:58:29Z</time>
      </trkpt>
      <trkpt lat="49.91041" lon="2.40566">
        <ele>63</ele>
        <time>2022-09-23T13:58:30Z</time>
      </trkpt>
      <trkpt lat="49.91041" lon="2.40567">
        <ele>63</ele>
        <time>2022-09-23T13:58:31Z</time>
      </trkpt>
      <trkpt lat="49.9104" lon="2.4057">
        <ele>63</ele>
        <time>2022-09-23T13:58:33Z</time>
      </trkpt>
      <trkpt lat="49.9104" lon="2.40572">
        <ele>63</ele>
        <time>2022-09-23T13:58:34Z</time>
      </trkpt>
      <trkpt lat="49.9104" lon="2.40575">
        <ele>63</ele>
        <time>2022-09-23T13:58:35Z</time>
      </trkpt>
      <trkpt lat="49.9104" lon="2.40577">
        <ele>63</ele>
        <time>2022-09-23T13:58:36Z</time>
      </trkpt>
      <trkpt lat="49.9104" lon="2.40578">
        <ele>63</ele>
        <time>2022-09-23T13:58:37Z</time>
      </trkpt>
      <trkpt lat="49.91039" lon="2.4058">
        <ele>63</ele>
        <time>2022-09-23T13:58:38Z</time>
      </trkpt>
      <trkpt lat="49.91039" lon="2.40582">
        <ele>63</ele>
        <time>2022-09-23T13:58:40Z</time>
      </trkpt>
      <trkpt lat="49.91039" lon="2.40584">
        <ele>63</ele>
        <time>2022-09-23T13:58:41Z</time>
      </trkpt>
      <trkpt lat="49.91039" lon="2.40587">
        <ele>63</ele>
        <time>2022-09-23T13:58:42Z</time>
      </trkpt>
      <trkpt lat="49.91039" lon="2.40588">
        <ele>63</ele>
        <time>2022-09-23T13:58:43Z</time>
      </trkpt>
      <trkpt lat="49.91039" lon="2.4059">
        <ele>63</ele>
        <time>2022-09-23T13:58:45Z</time>
      </trkpt>
      <trkpt lat="49.9104" lon="2.40593">
        <ele>63</ele>
        <time>2022-09-23T13:58:46Z</time>
      </trkpt>
      <trkpt lat="49.9104" lon="2.40595">
        <ele>63</ele>
        <time>2022-09-23T13:58:47Z</time>
      </trkpt>
      <trkpt lat="49.9104" lon="2.40596">
        <ele>63</ele>
        <time>2022-09-23T13:58:48Z</time>
      </trkpt>
      <trkpt lat="49.9104" lon="2.40598">
        <ele>63</ele>
        <time>2022-09-23T13:58:49Z</time>
      </trkpt>
      <trkpt lat="49.9104" lon="2.40599">
        <ele>62.9</ele>
        <time>2022-09-23T13:58:50Z</time>
      </trkpt>
      <trkpt lat="49.9104" lon="2.40601">
        <ele>62.9</ele>
        <time>2022-09-23T13:58:51Z</time>
      </trkpt>
      <trkpt lat="49.9104" lon="2.40603">
        <ele>62.9</ele>
        <time>2022-09-23T13:58:52Z</time>
      </trkpt>
      <trkpt lat="49.9104" lon="2.40604">
        <ele>62.9</ele>
        <time>2022-09-23T13:58:54Z</time>
      </trkpt>
      <trkpt lat="49.9104" lon="2.40606">
        <ele>62.9</ele>
        <time>2022-09-23T13:58:55Z</time>
      </trkpt>
      <trkpt lat="49.9104" lon="2.40609">
        <ele>62.9</ele>
        <time>2022-09-23T13:58:56Z</time>
      </trkpt>
      <trkpt lat="49.91039" lon="2.40611">
        <ele>62.9</ele>
        <time>2022-09-23T13:58:57Z</time>
      </trkpt>
      <trkpt lat="49.91039" lon="2.40612">
        <ele>62.9</ele>
        <time>2022-09-23T13:58:58Z</time>
      </trkpt>
      <trkpt lat="49.91039" lon="2.40614">
        <ele>62.9</ele>
        <time>2022-09-23T13:58:59Z</time>
      </trkpt>
      <trkpt lat="49.91039" lon="2.40616">
        <ele>62.9</ele>
        <time>2022-09-23T13:59:00Z</time>
      </trkpt>
      <trkpt lat="49.91039" lon="2.40618">
        <ele>62.9</ele>
        <time>2022-09-23T13:59:01Z</time>
      </trkpt>
      <trkpt lat="49.91039" lon="2.40621">
        <ele>62.9</ele>
        <time>2022-09-23T13:59:02Z</time>
      </trkpt>
      <trkpt lat="49.91039" lon="2.40622">
        <ele>62.9</ele>
        <time>2022-09-23T13:59:03Z</time>
      </trkpt>
      <trkpt lat="49.91039" lon="2.40624">
        <ele>62.9</ele>
        <time>2022-09-23T13:59:05Z</time>
      </trkpt>
      <trkpt lat="49.91039" lon="2.40625">
        <ele>62.9</ele>
        <time>2022-09-23T13:59:06Z</time>
      </trkpt>
      <trkpt lat="49.91039" lon="2.40627">
        <ele>62.9</ele>
        <time>2022-09-23T13:59:07Z</time>
      </trkpt>
      <trkpt lat="49.91039" lon="2.40628">
        <ele>62.9</ele>
        <time>2022-09-23T13:59:08Z</time>
      </trkpt>
      <trkpt lat="49.91039" lon="2.4063">
        <ele>62.9</ele>
        <time>2022-09-23T13:59:09Z</time>
      </trkpt>
      <trkpt lat="49.91039" lon="2.40632">
        <ele>62.9</ele>
        <time>2022-09-23T13:59:10Z</time>
      </trkpt>
      <trkpt lat="49.91039" lon="2.40634">
        <ele>62.9</ele>
        <time>2022-09-23T13:59:11Z</time>
      </trkpt>
      <trkpt lat="49.91039" lon="2.40636">
        <ele>62.9</ele>
        <time>2022-09-23T13:59:12Z</time>
      </trkpt>
      <trkpt lat="49.9104" lon="2.40637">
        <ele>62.9</ele>
        <time>2022-09-23T13:59:13Z</time>
      </trkpt>
      <trkpt lat="49.9104" lon="2.40639">
        <ele>62.9</ele>
        <time>2022-09-23T13:59:14Z</time>
      </trkpt>
      <trkpt lat="49.9104" lon="2.40642">
        <ele>62.9</ele>
        <time>2022-09-23T13:59:16Z</time>
      </trkpt>
      <trkpt lat="49.9104" lon="2.40643">
        <ele>62.9</ele>
        <time>2022-09-23T13:59:17Z</time>
      </trkpt>
      <trkpt lat="49.9104" lon="2.40644">
        <ele>62.9</ele>
        <time>2022-09-23T13:59:18Z</time>
      </trkpt>
      <trkpt lat="49.91041" lon="2.40646">
        <ele>62.9</ele>
        <time>2022-09-23T13:59:19Z</time>
      </trkpt>
      <trkpt lat="49.91041" lon="2.40648">
        <ele>62.9</ele>
        <time>2022-09-23T13:59:20Z</time>
      </trkpt>
      <trkpt lat="49.91041" lon="2.4065">
        <ele>62.9</ele>
        <time>2022-09-23T13:59:21Z</time>
      </trkpt>
      <trkpt lat="49.91041" lon="2.40652">
        <ele>62.9</ele>
        <time>2022-09-23T13:59:22Z</time>
      </trkpt>
      <trkpt lat="49.91041" lon="2.40654">
        <ele>62.9</ele>
        <time>2022-09-23T13:59:23Z</time>
      </trkpt>
      <trkpt lat="49.9104" lon="2.40656">
        <ele>62.9</ele>
        <time>2022-09-23T13:59:24Z</time>
      </trkpt>
      <trkpt lat="49.9104" lon="2.40657">
        <ele>62.9</ele>
        <time>2022-09-23T13:59:25Z</time>
      </trkpt>
      <trkpt lat="49.9104" lon="2.40659">
        <ele>62.9</ele>
        <time>2022-09-23T13:59:27Z</time>
      </trkpt>
      <trkpt lat="49.9104" lon="2.40662">
        <ele>62.9</ele>
        <time>2022-09-23T13:59:28Z</time>
      </trkpt>
      <trkpt lat="49.9104" lon="2.40664">
        <ele>62.9</ele>
        <time>2022-09-23T13:59:29Z</time>
      </trkpt>
      <trkpt lat="49.9104" lon="2.40666">
        <ele>62.9</ele>
        <time>2022-09-23T13:59:30Z</time>
      </trkpt>
      <trkpt lat="49.91041" lon="2.40667">
        <ele>62.9</ele>
        <time>2022-09-23T13:59:31Z</time>
      </trkpt>
      <trkpt lat="49.91041" lon="2.4067">
        <ele>62.9</ele>
        <time>2022-09-23T13:59:33Z</time>
      </trkpt>
      <trkpt lat="49.91041" lon="2.40672">
        <ele>62.9</ele>
        <time>2022-09-23T13:59:34Z</time>
      </trkpt>
      <trkpt lat="49.91041" lon="2.40673">
        <ele>62.9</ele>
        <time>2022-09-23T13:59:35Z</time>
      </trkpt>
      <trkpt lat="49.91041" lon="2.40675">
        <ele>62.9</ele>
        <time>2022-09-23T13:59:36Z</time>
      </trkpt>
      <trkpt lat="49.9104" lon="2.40678">
        <ele>62.9</ele>
        <time>2022-09-23T13:59:37Z</time>
      </trkpt>
      <trkpt lat="49.9104" lon="2.40679">
        <ele>62.9</ele>
        <time>2022-09-23T13:59:38Z</time>
      </trkpt>
      <trkpt lat="49.9104" lon="2.4068">
        <ele>62.9</ele>
        <time>2022-09-23T13:59:39Z</time>
      </trkpt>
      <trkpt lat="49.9104" lon="2.40684">
        <ele>62.9</ele>
        <time>2022-09-23T13:59:40Z</time>
      </trkpt>
      <trkpt lat="49.91039" lon="2.40685">
        <ele>62.9</ele>
        <time>2022-09-23T13:59:42Z</time>
      </trkpt>
      <trkpt lat="49.91039" lon="2.40687">
        <ele>62.9</ele>
        <time>2022-09-23T13:59:43Z</time>
      </trkpt>
      <trkpt lat="49.91039" lon="2.40688">
        <ele>62.9</ele>
        <time>2022-09-23T13:59:44Z</time>
      </trkpt>
      <trkpt lat="49.91039" lon="2.40689">
        <ele>62.9</ele>
        <time>2022-09-23T13:59:45Z</time>
      </trkpt>
      <trkpt lat="49.91039" lon="2.40691">
        <ele>62.9</ele>
        <time>2022-09-23T13:59:46Z</time>
      </trkpt>
      <trkpt lat="49.91039" lon="2.40693">
        <ele>62.9</ele>
        <time>2022-09-23T13:59:47Z</time>
      </trkpt>
      <trkpt lat="49.91039" lon="2.40695">
        <ele>62.9</ele>
        <time>2022-09-23T13:59:48Z</time>
      </trkpt>
      <trkpt lat="49.91038" lon="2.40696">
        <ele>62.9</ele>
        <time>2022-09-23T13:59:49Z</time>
      </trkpt>
      <trkpt lat="49.91038" lon="2.40698">
        <ele>62.9</ele>
        <time>2022-09-23T13:59:50Z</time>
      </trkpt>
      <trkpt lat="49.91039" lon="2.407">
        <ele>62.9</ele>
        <time>2022-09-23T13:59:52Z</time>
      </trkpt>
      <trkpt lat="49.91039" lon="2.40703">
        <ele>62.9</ele>
        <time>2022-09-23T13:59:53Z</time>
      </trkpt>
      <trkpt lat="49.91039" lon="2.40704">
        <ele>62.8</ele>
        <time>2022-09-23T13:59:54Z</time>
      </trkpt>
      <trkpt lat="49.91039" lon="2.40706">
        <ele>62.8</ele>
        <time>2022-09-23T13:59:55Z</time>
      </trkpt>
      <trkpt lat="49.91039" lon="2.40707">
        <ele>62.8</ele>
        <time>2022-09-23T13:59:56Z</time>
      </trkpt>
      <trkpt lat="49.91039" lon="2.40709">
        <ele>62.8</ele>
        <time>2022-09-23T13:59:57Z</time>
      </trkpt>
      <trkpt lat="49.91039" lon="2.40711">
        <ele>62.8</ele>
        <time>2022-09-23T13:59:58Z</time>
      </trkpt>
      <trkpt lat="49.91039" lon="2.40713">
        <ele>62.8</ele>
        <time>2022-09-23T14:00:00Z</time>
      </trkpt>
      <trkpt lat="49.91039" lon="2.40715">
        <ele>62.8</ele>
        <time>2022-09-23T14:00:01Z</time>
      </trkpt>
      <trkpt lat="49.91039" lon="2.40716">
        <ele>62.8</ele>
        <time>2022-09-23T14:00:02Z</time>
      </trkpt>
      <trkpt lat="49.9104" lon="2.40718">
        <ele>62.8</ele>
        <time>2022-09-23T14:00:03Z</time>
      </trkpt>
      <trkpt lat="49.9104" lon="2.40719">
        <ele>62.8</ele>
        <time>2022-09-23T14:00:04Z</time>
      </trkpt>
      <trkpt lat="49.9104" lon="2.4072">
        <ele>62.8</ele>
        <time>2022-09-23T14:00:05Z</time>
      </trkpt>
      <trkpt lat="49.91041" lon="2.40721">
        <ele>62.8</ele>
        <time>2022-09-23T14:00:06Z</time>
      </trkpt>
      <trkpt lat="49.91042" lon="2.40721">
        <ele>62.8</ele>
        <time>2022-09-23T14:00:07Z</time>
      </trkpt>
      <trkpt lat="49.91043" lon="2.40721">
        <ele>62.9</ele>
        <time>2022-09-23T14:00:08Z</time>
      </trkpt>
      <trkpt lat="49.91043" lon="2.40721">
        <ele>62.9</ele>
        <time>2022-09-23T14:00:09Z</time>
      </trkpt>
      <trkpt lat="49.91043" lon="2.40721">
        <ele>62.9</ele>
        <time>2022-09-23T14:00:10Z</time>
      </trkpt>
      <trkpt lat="49.91043" lon="2.40721">
        <ele>62.9</ele>
        <time>2022-09-23T14:00:11Z</time>
      </trkpt>
      <trkpt lat="49.91043" lon="2.40721">
        <ele>62.9</ele>
        <time>2022-09-23T14:00:12Z</time>
      </trkpt>
      <trkpt lat="49.91043" lon="2.40721">
        <ele>62.9</ele>
        <time>2022-09-23T14:00:13Z</time>
      </trkpt>
      <trkpt lat="49.91043" lon="2.40721">
        <ele>62.9</ele>
        <time>2022-09-23T14:00:14Z</time>
      </trkpt>
      <trkpt lat="49.91043" lon="2.40721">
        <ele>62.9</ele>
        <time>2022-09-23T14:00:15Z</time>
      </trkpt>
      <trkpt lat="49.91043" lon="2.40721">
        <ele>62.9</ele>
        <time>2022-09-23T14:00:16Z</time>
      </trkpt>
      <trkpt lat="49.91043" lon="2.40721">
        <ele>62.9</ele>
        <time>2022-09-23T14:00:17Z</time>
      </trkpt>
      <trkpt lat="49.91043" lon="2.40721">
        <ele>62.9</ele>
        <time>2022-09-23T14:00:18Z</time>
      </trkpt>
      <trkpt lat="49.91043" lon="2.40721">
        <ele>62.9</ele>
        <time>2022-09-23T14:00:19Z</time>
      </trkpt>
      <trkpt lat="49.91043" lon="2.40721">
        <ele>62.9</ele>
        <time>2022-09-23T14:00:20Z</time>
      </trkpt>
      <trkpt lat="49.91043" lon="2.40721">
        <ele>62.9</ele>
        <time>2022-09-23T14:00:21Z</time>
      </trkpt>
      <trkpt lat="49.91043" lon="2.40721">
        <ele>62.9</ele>
        <time>2022-09-23T14:00:22Z</time>
      </trkpt>
      <trkpt lat="49.91043" lon="2.40721">
        <ele>62.9</ele>
        <time>2022-09-23T14:00:23Z</time>
      </trkpt>
      <trkpt lat="49.91043" lon="2.4072">
        <ele>62.9</ele>
        <time>2022-09-23T14:00:25Z</time>
      </trkpt>
      <trkpt lat="49.91043" lon="2.4072">
        <ele>62.9</ele>
        <time>2022-09-23T14:00:26Z</time>
      </trkpt>
      <trkpt lat="49.91042" lon="2.40721">
        <ele>62.9</ele>
        <time>2022-09-23T14:00:27Z</time>
      </trkpt>
      <trkpt lat="49.91042" lon="2.40721">
        <ele>62.9</ele>
        <time>2022-09-23T14:00:28Z</time>
      </trkpt>
      <trkpt lat="49.91042" lon="2.40722">
        <ele>62.9</ele>
        <time>2022-09-23T14:00:29Z</time>
      </trkpt>
      <trkpt lat="49.91042" lon="2.40723">
        <ele>62.9</ele>
        <time>2022-09-23T14:00:30Z</time>
      </trkpt>
      <trkpt lat="49.91042" lon="2.40724">
        <ele>62.9</ele>
        <time>2022-09-23T14:00:31Z</time>
      </trkpt>
      <trkpt lat="49.91042" lon="2.40726">
        <ele>62.9</ele>
        <time>2022-09-23T14:00:32Z</time>
      </trkpt>
      <trkpt lat="49.91042" lon="2.40728">
        <ele>62.9</ele>
        <time>2022-09-23T14:00:33Z</time>
      </trkpt>
      <trkpt lat="49.91042" lon="2.40729">
        <ele>62.9</ele>
        <time>2022-09-23T14:00:34Z</time>
      </trkpt>
      <trkpt lat="49.91043" lon="2.4073">
        <ele>62.9</ele>
        <time>2022-09-23T14:00:35Z</time>
      </trkpt>
      <trkpt lat="49.91043" lon="2.40731">
        <ele>62.9</ele>
        <time>2022-09-23T14:00:36Z</time>
      </trkpt>
      <trkpt lat="49.91043" lon="2.40731">
        <ele>62.9</ele>
        <time>2022-09-23T14:00:37Z</time>
      </trkpt>
      <trkpt lat="49.91043" lon="2.40731">
        <ele>62.9</ele>
        <time>2022-09-23T14:00:38Z</time>
      </trkpt>
      <trkpt lat="49.91043" lon="2.4073">
        <ele>62.9</ele>
        <time>2022-09-23T14:00:39Z</time>
      </trkpt>
      <trkpt lat="49.91043" lon="2.4073">
        <ele>62.9</ele>
        <time>2022-09-23T14:00:40Z</time>
      </trkpt>
      <trkpt lat="49.91043" lon="2.4073">
        <ele>62.9</ele>
        <time>2022-09-23T14:00:41Z</time>
      </trkpt>
      <trkpt lat="49.91043" lon="2.4073">
        <ele>62.9</ele>
        <time>2022-09-23T14:00:42Z</time>
      </trkpt>
      <trkpt lat="49.91043" lon="2.4073">
        <ele>62.9</ele>
        <time>2022-09-23T14:00:43Z</time>
      </trkpt>
      <trkpt lat="49.91042" lon="2.4073">
        <ele>62.9</ele>
        <time>2022-09-23T14:00:44Z</time>
      </trkpt>
      <trkpt lat="49.91042" lon="2.4073">
        <ele>62.9</ele>
        <time>2022-09-23T14:00:45Z</time>
      </trkpt>
      <trkpt lat="49.91042" lon="2.4073">
        <ele>62.9</ele>
        <time>2022-09-23T14:00:46Z</time>
      </trkpt>
      <trkpt lat="49.91042" lon="2.40729">
        <ele>62.9</ele>
        <time>2022-09-23T14:00:47Z</time>
      </trkpt>
      <trkpt lat="49.91042" lon="2.40729">
        <ele>62.9</ele>
        <time>2022-09-23T14:00:48Z</time>
      </trkpt>
      <trkpt lat="49.91042" lon="2.40729">
        <ele>62.9</ele>
        <time>2022-09-23T14:00:49Z</time>
      </trkpt>
      <trkpt lat="49.91042" lon="2.40729">
        <ele>62.9</ele>
        <time>2022-09-23T14:00:50Z</time>
      </trkpt>
      <trkpt lat="49.91042" lon="2.40729">
        <ele>62.9</ele>
        <time>2022-09-23T14:00:51Z</time>
      </trkpt>
      <trkpt lat="49.91042" lon="2.40729">
        <ele>62.9</ele>
        <time>2022-09-23T14:00:52Z</time>
      </trkpt>
      <trkpt lat="49.91042" lon="2.40729">
        <ele>62.9</ele>
        <time>2022-09-23T14:00:53Z</time>
      </trkpt>
      <trkpt lat="49.91042" lon="2.40729">
        <ele>62.9</ele>
        <time>2022-09-23T14:00:54Z</time>
      </trkpt>
      <trkpt lat="49.91042" lon="2.40728">
        <ele>62.9</ele>
        <time>2022-09-23T14:00:55Z</time>
      </trkpt>
      <trkpt lat="49.91042" lon="2.40728">
        <ele>62.9</ele>
        <time>2022-09-23T14:00:56Z</time>
      </trkpt>
      <trkpt lat="49.91042" lon="2.40728">
        <ele>62.9</ele>
        <time>2022-09-23T14:00:57Z</time>
      </trkpt>
      <trkpt lat="49.91042" lon="2.40728">
        <ele>62.9</ele>
        <time>2022-09-23T14:00:58Z</time>
      </trkpt>
      <trkpt lat="49.91042" lon="2.40728">
        <ele>62.9</ele>
        <time>2022-09-23T14:00:59Z</time>
      </trkpt>
      <trkpt lat="49.91042" lon="2.40728">
        <ele>62.9</ele>
        <time>2022-09-23T14:01:00Z</time>
      </trkpt>
      <trkpt lat="49.91042" lon="2.40728">
        <ele>62.9</ele>
        <time>2022-09-23T14:01:01Z</time>
      </trkpt>
      <trkpt lat="49.91042" lon="2.40728">
        <ele>62.9</ele>
        <time>2022-09-23T14:01:02Z</time>
      </trkpt>
      <trkpt lat="49.91042" lon="2.40727">
        <ele>62.9</ele>
        <time>2022-09-23T14:01:03Z</time>
      </trkpt>
      <trkpt lat="49.91042" lon="2.40727">
        <ele>62.9</ele>
        <time>2022-09-23T14:01:04Z</time>
      </trkpt>
      <trkpt lat="49.91041" lon="2.40727">
        <ele>62.9</ele>
        <time>2022-09-23T14:01:05Z</time>
      </trkpt>
      <trkpt lat="49.91041" lon="2.40727">
        <ele>62.9</ele>
        <time>2022-09-23T14:01:06Z</time>
      </trkpt>
      <trkpt lat="49.91041" lon="2.40727">
        <ele>62.9</ele>
        <time>2022-09-23T14:01:07Z</time>
      </trkpt>
      <trkpt lat="49.91041" lon="2.40727">
        <ele>63</ele>
        <time>2022-09-23T14:01:08Z</time>
      </trkpt>
      <trkpt lat="49.91041" lon="2.40727">
        <ele>63</ele>
        <time>2022-09-23T14:01:09Z</time>
      </trkpt>
      <trkpt lat="49.91041" lon="2.40727">
        <ele>63</ele>
        <time>2022-09-23T14:01:10Z</time>
      </trkpt>
      <trkpt lat="49.91041" lon="2.40726">
        <ele>63</ele>
        <time>2022-09-23T14:01:11Z</time>
      </trkpt>
      <trkpt lat="49.91041" lon="2.40726">
        <ele>63</ele>
        <time>2022-09-23T14:01:12Z</time>
      </trkpt>
      <trkpt lat="49.91041" lon="2.40726">
        <ele>63</ele>
        <time>2022-09-23T14:01:13Z</time>
      </trkpt>
      <trkpt lat="49.91041" lon="2.40726">
        <ele>63</ele>
        <time>2022-09-23T14:01:14Z</time>
      </trkpt>
      <trkpt lat="49.91041" lon="2.40726">
        <ele>63</ele>
        <time>2022-09-23T14:01:15Z</time>
      </trkpt>
      <trkpt lat="49.91041" lon="2.40726">
        <ele>63</ele>
        <time>2022-09-23T14:01:16Z</time>
      </trkpt>
      <trkpt lat="49.91041" lon="2.40726">
        <ele>63</ele>
        <time>2022-09-23T14:01:17Z</time>
      </trkpt>
      <trkpt lat="49.91041" lon="2.40726">
        <ele>63</ele>
        <time>2022-09-23T14:01:18Z</time>
      </trkpt>
      <trkpt lat="49.91041" lon="2.40725">
        <ele>63</ele>
        <time>2022-09-23T14:01:19Z</time>
      </trkpt>
      <trkpt lat="49.91041" lon="2.40725">
        <ele>63</ele>
        <time>2022-09-23T14:01:20Z</time>
      </trkpt>
      <trkpt lat="49.91041" lon="2.40725">
        <ele>63</ele>
        <time>2022-09-23T14:01:21Z</time>
      </trkpt>
      <trkpt lat="49.91041" lon="2.40725">
        <ele>63</ele>
        <time>2022-09-23T14:01:22Z</time>
      </trkpt>
      <trkpt lat="49.91041" lon="2.40725">
        <ele>63</ele>
        <time>2022-09-23T14:01:23Z</time>
      </trkpt>
      <trkpt lat="49.91041" lon="2.40725">
        <ele>63</ele>
        <time>2022-09-23T14:01:24Z</time>
      </trkpt>
      <trkpt lat="49.91038" lon="2.40721">
        <ele>63</ele>
        <time>2022-09-23T14:01:25Z</time>
      </trkpt>
      <trkpt lat="49.91036" lon="2.4072">
        <ele>63</ele>
        <time>2022-09-23T14:01:26Z</time>
      </trkpt>
      <trkpt lat="49.91035" lon="2.4072">
        <ele>63</ele>
        <time>2022-09-23T14:01:27Z</time>
      </trkpt>
      <trkpt lat="49.91034" lon="2.4072">
        <ele>63</ele>
        <time>2022-09-23T14:01:28Z</time>
      </trkpt>
      <trkpt lat="49.91033" lon="2.4072">
        <ele>63</ele>
        <time>2022-09-23T14:01:29Z</time>
      </trkpt>
      <trkpt lat="49.91033" lon="2.4072">
        <ele>63</ele>
        <time>2022-09-23T14:01:30Z</time>
      </trkpt>
      <trkpt lat="49.91032" lon="2.40721">
        <ele>63</ele>
        <time>2022-09-23T14:01:31Z</time>
      </trkpt>
      <trkpt lat="49.91031" lon="2.40722">
        <ele>63</ele>
        <time>2022-09-23T14:01:33Z</time>
      </trkpt>
      <trkpt lat="49.91029" lon="2.40722">
        <ele>63</ele>
        <time>2022-09-23T14:01:34Z</time>
      </trkpt>
      <trkpt lat="49.91028" lon="2.40721">
        <ele>63</ele>
        <time>2022-09-23T14:01:35Z</time>
      </trkpt>
      <trkpt lat="49.91029" lon="2.40719">
        <ele>63</ele>
        <time>2022-09-23T14:01:36Z</time>
      </trkpt>
      <trkpt lat="49.9103" lon="2.40719">
        <ele>63.1</ele>
        <time>2022-09-23T14:01:37Z</time>
      </trkpt>
      <trkpt lat="49.91031" lon="2.40719">
        <ele>63.1</ele>
        <time>2022-09-23T14:01:38Z</time>
      </trkpt>
      <trkpt lat="49.91031" lon="2.40719">
        <ele>63.1</ele>
        <time>2022-09-23T14:01:39Z</time>
      </trkpt>
      <trkpt lat="49.91031" lon="2.40719">
        <ele>63.1</ele>
        <time>2022-09-23T14:01:40Z</time>
      </trkpt>
      <trkpt lat="49.91031" lon="2.40719">
        <ele>63.1</ele>
        <time>2022-09-23T14:01:41Z</time>
      </trkpt>
      <trkpt lat="49.91031" lon="2.40719">
        <ele>63.1</ele>
        <time>2022-09-23T14:01:42Z</time>
      </trkpt>
      <trkpt lat="49.91031" lon="2.40719">
        <ele>63.1</ele>
        <time>2022-09-23T14:01:44Z</time>
      </trkpt>
      <trkpt lat="49.91031" lon="2.40719">
        <ele>63.1</ele>
        <time>2022-09-23T14:01:45Z</time>
      </trkpt>
      <trkpt lat="49.9103" lon="2.40719">
        <ele>63.1</ele>
        <time>2022-09-23T14:01:46Z</time>
      </trkpt>
      <trkpt lat="49.9103" lon="2.40719">
        <ele>63.1</ele>
        <time>2022-09-23T14:01:47Z</time>
      </trkpt>
      <trkpt lat="49.9103" lon="2.40719">
        <ele>63.1</ele>
        <time>2022-09-23T14:01:48Z</time>
      </trkpt>
      <trkpt lat="49.9103" lon="2.40719">
        <ele>63.1</ele>
        <time>2022-09-23T14:01:49Z</time>
      </trkpt>
      <trkpt lat="49.9103" lon="2.40719">
        <ele>63.1</ele>
        <time>2022-09-23T14:01:50Z</time>
      </trkpt>
      <trkpt lat="49.9103" lon="2.40719">
        <ele>63.1</ele>
        <time>2022-09-23T14:01:51Z</time>
      </trkpt>
      <trkpt lat="49.9103" lon="2.4072">
        <ele>63.1</ele>
        <time>2022-09-23T14:01:52Z</time>
      </trkpt>
      <trkpt lat="49.91029" lon="2.4072">
        <ele>63.1</ele>
        <time>2022-09-23T14:01:54Z</time>
      </trkpt>
      <trkpt lat="49.91029" lon="2.4072">
        <ele>63.1</ele>
        <time>2022-09-23T14:01:55Z</time>
      </trkpt>
      <trkpt lat="49.91029" lon="2.4072">
        <ele>63.1</ele>
        <time>2022-09-23T14:01:56Z</time>
      </trkpt>
      <trkpt lat="49.91029" lon="2.4072">
        <ele>63.1</ele>
        <time>2022-09-23T14:01:57Z</time>
      </trkpt>
      <trkpt lat="49.91029" lon="2.4072">
        <ele>63.1</ele>
        <time>2022-09-23T14:01:58Z</time>
      </trkpt>
      <trkpt lat="49.91029" lon="2.4072">
        <ele>63.1</ele>
        <time>2022-09-23T14:01:59Z</time>
      </trkpt>
      <trkpt lat="49.91029" lon="2.4072">
        <ele>63.1</ele>
        <time>2022-09-23T14:02:00Z</time>
      </trkpt>
      <trkpt lat="49.91029" lon="2.4072">
        <ele>63.1</ele>
        <time>2022-09-23T14:02:01Z</time>
      </trkpt>
      <trkpt lat="49.91028" lon="2.4072">
        <ele>63.1</ele>
        <time>2022-09-23T14:02:02Z</time>
      </trkpt>
      <trkpt lat="49.91028" lon="2.4072">
        <ele>63.1</ele>
        <time>2022-09-23T14:02:03Z</time>
      </trkpt>
      <trkpt lat="49.91028" lon="2.4072">
        <ele>63.1</ele>
        <time>2022-09-23T14:02:04Z</time>
      </trkpt>
      <trkpt lat="49.91028" lon="2.4072">
        <ele>63.1</ele>
        <time>2022-09-23T14:02:05Z</time>
      </trkpt>
      <trkpt lat="49.91028" lon="2.4072">
        <ele>63.1</ele>
        <time>2022-09-23T14:02:06Z</time>
      </trkpt>
      <trkpt lat="49.91028" lon="2.40721">
        <ele>63.1</ele>
        <time>2022-09-23T14:02:07Z</time>
      </trkpt>
      <trkpt lat="49.91028" lon="2.40721">
        <ele>63.1</ele>
        <time>2022-09-23T14:02:08Z</time>
      </trkpt>
      <trkpt lat="49.91028" lon="2.40721">
        <ele>63.1</ele>
        <time>2022-09-23T14:02:09Z</time>
      </trkpt>
      <trkpt lat="49.91027" lon="2.40721">
        <ele>63.1</ele>
        <time>2022-09-23T14:02:10Z</time>
      </trkpt>
      <trkpt lat="49.91027" lon="2.40721">
        <ele>63.1</ele>
        <time>2022-09-23T14:02:12Z</time>
      </trkpt>
      <trkpt lat="49.91027" lon="2.40721">
        <ele>63.1</ele>
        <time>2022-09-23T14:02:13Z</time>
      </trkpt>
      <trkpt lat="49.91027" lon="2.40721">
        <ele>63.1</ele>
        <time>2022-09-23T14:02:14Z</time>
      </trkpt>
      <trkpt lat="49.91026" lon="2.40722">
        <ele>63.1</ele>
        <time>2022-09-23T14:02:15Z</time>
      </trkpt>
      <trkpt lat="49.91024" lon="2.40722">
        <ele>63.1</ele>
        <time>2022-09-23T14:02:16Z</time>
      </trkpt>
      <trkpt lat="49.91023" lon="2.40723">
        <ele>63.1</ele>
        <time>2022-09-23T14:02:17Z</time>
      </trkpt>
      <trkpt lat="49.91021" lon="2.40724">
        <ele>63.1</ele>
        <time>2022-09-23T14:02:18Z</time>
      </trkpt>
      <trkpt lat="49.91018" lon="2.40723">
        <ele>63.1</ele>
        <time>2022-09-23T14:02:19Z</time>
      </trkpt>
      <trkpt lat="49.91017" lon="2.40723">
        <ele>63.1</ele>
        <time>2022-09-23T14:02:20Z</time>
      </trkpt>
      <trkpt lat="49.91016" lon="2.40723">
        <ele>63.1</ele>
        <time>2022-09-23T14:02:21Z</time>
      </trkpt>
      <trkpt lat="49.91014" lon="2.40723">
        <ele>63.1</ele>
        <time>2022-09-23T14:02:23Z</time>
      </trkpt>
      <trkpt lat="49.91012" lon="2.40723">
        <ele>63.1</ele>
        <time>2022-09-23T14:02:24Z</time>
      </trkpt>
      <trkpt lat="49.91011" lon="2.40723">
        <ele>63.1</ele>
        <time>2022-09-23T14:02:25Z</time>
      </trkpt>
      <trkpt lat="49.91009" lon="2.40724">
        <ele>63.1</ele>
        <time>2022-09-23T14:02:26Z</time>
      </trkpt>
      <trkpt lat="49.91008" lon="2.40724">
        <ele>63.1</ele>
        <time>2022-09-23T14:02:27Z</time>
      </trkpt>
      <trkpt lat="49.91008" lon="2.40724">
        <ele>63.1</ele>
        <time>2022-09-23T14:02:28Z</time>
      </trkpt>
      <trkpt lat="49.91006" lon="2.40725">
        <ele>63.1</ele>
        <time>2022-09-23T14:02:29Z</time>
      </trkpt>
      <trkpt lat="49.91005" lon="2.40726">
        <ele>63.1</ele>
        <time>2022-09-23T14:02:30Z</time>
      </trkpt>
      <trkpt lat="49.91004" lon="2.40726">
        <ele>63.1</ele>
        <time>2022-09-23T14:02:31Z</time>
      </trkpt>
      <trkpt lat="49.91002" lon="2.40727">
        <ele>63.1</ele>
        <time>2022-09-23T14:02:32Z</time>
      </trkpt>
      <trkpt lat="49.91" lon="2.40727">
        <ele>63.1</ele>
        <time>2022-09-23T14:02:34Z</time>
      </trkpt>
      <trkpt lat="49.90999" lon="2.40726">
        <ele>63.1</ele>
        <time>2022-09-23T14:02:35Z</time>
      </trkpt>
      <trkpt lat="49.90998" lon="2.40727">
        <ele>63.1</ele>
        <time>2022-09-23T14:02:36Z</time>
      </trkpt>
      <trkpt lat="49.90996" lon="2.40727">
        <ele>63.1</ele>
        <time>2022-09-23T14:02:37Z</time>
      </trkpt>
      <trkpt lat="49.90995" lon="2.40724">
        <ele>63.1</ele>
        <time>2022-09-23T14:02:38Z</time>
      </trkpt>
      <trkpt lat="49.90995" lon="2.40723">
        <ele>63.1</ele>
        <time>2022-09-23T14:02:40Z</time>
      </trkpt>
      <trkpt lat="49.90995" lon="2.40721">
        <ele>63.1</ele>
        <time>2022-09-23T14:02:41Z</time>
      </trkpt>
      <trkpt lat="49.90993" lon="2.40721">
        <ele>63.1</ele>
        <time>2022-09-23T14:02:42Z</time>
      </trkpt>
      <trkpt lat="49.90992" lon="2.40722">
        <ele>63.1</ele>
        <time>2022-09-23T14:02:43Z</time>
      </trkpt>
      <trkpt lat="49.90991" lon="2.40722">
        <ele>63.1</ele>
        <time>2022-09-23T14:02:44Z</time>
      </trkpt>
      <trkpt lat="49.9099" lon="2.40722">
        <ele>63.1</ele>
        <time>2022-09-23T14:02:45Z</time>
      </trkpt>
      <trkpt lat="49.90989" lon="2.40723">
        <ele>63.1</ele>
        <time>2022-09-23T14:02:46Z</time>
      </trkpt>
      <trkpt lat="49.90988" lon="2.40723">
        <ele>63.1</ele>
        <time>2022-09-23T14:02:47Z</time>
      </trkpt>
      <trkpt lat="49.90987" lon="2.40723">
        <ele>63.1</ele>
        <time>2022-09-23T14:02:48Z</time>
      </trkpt>
      <trkpt lat="49.90985" lon="2.40723">
        <ele>63.1</ele>
        <time>2022-09-23T14:02:49Z</time>
      </trkpt>
      <trkpt lat="49.90984" lon="2.40724">
        <ele>63.1</ele>
        <time>2022-09-23T14:02:51Z</time>
      </trkpt>
      <trkpt lat="49.90982" lon="2.40724">
        <ele>63.1</ele>
        <time>2022-09-23T14:02:52Z</time>
      </trkpt>
      <trkpt lat="49.90981" lon="2.40724">
        <ele>63.1</ele>
        <time>2022-09-23T14:02:53Z</time>
      </trkpt>
      <trkpt lat="49.90979" lon="2.40724">
        <ele>63.1</ele>
        <time>2022-09-23T14:02:54Z</time>
      </trkpt>
      <trkpt lat="49.90978" lon="2.40723">
        <ele>63.1</ele>
        <time>2022-09-23T14:02:56Z</time>
      </trkpt>
      <trkpt lat="49.90977" lon="2.40723">
        <ele>63.1</ele>
        <time>2022-09-23T14:02:57Z</time>
      </trkpt>
      <trkpt lat="49.90975" lon="2.40723">
        <ele>63.2</ele>
        <time>2022-09-23T14:02:58Z</time>
      </trkpt>
      <trkpt lat="49.90974" lon="2.40723">
        <ele>63.2</ele>
        <time>2022-09-23T14:02:59Z</time>
      </trkpt>
      <trkpt lat="49.90973" lon="2.40722">
        <ele>63.2</ele>
        <time>2022-09-23T14:03:00Z</time>
      </trkpt>
      <trkpt lat="49.90971" lon="2.40722">
        <ele>63.2</ele>
        <time>2022-09-23T14:03:01Z</time>
      </trkpt>
      <trkpt lat="49.9097" lon="2.40722">
        <ele>63.2</ele>
        <time>2022-09-23T14:03:03Z</time>
      </trkpt>
      <trkpt lat="49.90969" lon="2.40722">
        <ele>63.2</ele>
        <time>2022-09-23T14:03:04Z</time>
      </trkpt>
      <trkpt lat="49.90967" lon="2.40722">
        <ele>63.2</ele>
        <time>2022-09-23T14:03:05Z</time>
      </trkpt>
      <trkpt lat="49.90966" lon="2.40722">
        <ele>63.1</ele>
        <time>2022-09-23T14:03:06Z</time>
      </trkpt>
      <trkpt lat="49.90964" lon="2.40722">
        <ele>63.1</ele>
        <time>2022-09-23T14:03:07Z</time>
      </trkpt>
      <trkpt lat="49.90962" lon="2.40722">
        <ele>63.1</ele>
        <time>2022-09-23T14:03:08Z</time>
      </trkpt>
      <trkpt lat="49.90961" lon="2.40722">
        <ele>63.1</ele>
        <time>2022-09-23T14:03:09Z</time>
      </trkpt>
      <trkpt lat="49.90961" lon="2.40722">
        <ele>63.1</ele>
        <time>2022-09-23T14:03:10Z</time>
      </trkpt>
      <trkpt lat="49.9096" lon="2.40722">
        <ele>63.1</ele>
        <time>2022-09-23T14:03:11Z</time>
      </trkpt>
      <trkpt lat="49.90958" lon="2.40722">
        <ele>63.1</ele>
        <time>2022-09-23T14:03:12Z</time>
      </trkpt>
      <trkpt lat="49.90956" lon="2.40722">
        <ele>63.1</ele>
        <time>2022-09-23T14:03:13Z</time>
      </trkpt>
      <trkpt lat="49.90955" lon="2.40722">
        <ele>63.1</ele>
        <time>2022-09-23T14:03:14Z</time>
      </trkpt>
      <trkpt lat="49.90954" lon="2.40722">
        <ele>63.1</ele>
        <time>2022-09-23T14:03:16Z</time>
      </trkpt>
      <trkpt lat="49.90953" lon="2.40722">
        <ele>63.1</ele>
        <time>2022-09-23T14:03:17Z</time>
      </trkpt>
      <trkpt lat="49.90952" lon="2.40722">
        <ele>63.1</ele>
        <time>2022-09-23T14:03:18Z</time>
      </trkpt>
      <trkpt lat="49.90951" lon="2.40722">
        <ele>63.1</ele>
        <time>2022-09-23T14:03:19Z</time>
      </trkpt>
      <trkpt lat="49.9095" lon="2.40722">
        <ele>63.1</ele>
        <time>2022-09-23T14:03:20Z</time>
      </trkpt>
      <trkpt lat="49.90949" lon="2.40722">
        <ele>63.1</ele>
        <time>2022-09-23T14:03:22Z</time>
      </trkpt>
      <trkpt lat="49.90948" lon="2.40722">
        <ele>63.1</ele>
        <time>2022-09-23T14:03:23Z</time>
      </trkpt>
      <trkpt lat="49.90947" lon="2.40722">
        <ele>63.1</ele>
        <time>2022-09-23T14:03:24Z</time>
      </trkpt>
      <trkpt lat="49.90946" lon="2.40722">
        <ele>63.1</ele>
        <time>2022-09-23T14:03:25Z</time>
      </trkpt>
      <trkpt lat="49.90945" lon="2.40723">
        <ele>63.1</ele>
        <time>2022-09-23T14:03:26Z</time>
      </trkpt>
      <trkpt lat="49.90943" lon="2.40723">
        <ele>63.1</ele>
        <time>2022-09-23T14:03:27Z</time>
      </trkpt>
      <trkpt lat="49.90942" lon="2.40723">
        <ele>63.1</ele>
        <time>2022-09-23T14:03:28Z</time>
      </trkpt>
      <trkpt lat="49.90941" lon="2.40723">
        <ele>63.1</ele>
        <time>2022-09-23T14:03:29Z</time>
      </trkpt>
      <trkpt lat="49.9094" lon="2.40723">
        <ele>63.1</ele>
        <time>2022-09-23T14:03:30Z</time>
      </trkpt>
      <trkpt lat="49.90939" lon="2.40722">
        <ele>63.1</ele>
        <time>2022-09-23T14:03:31Z</time>
      </trkpt>
      <trkpt lat="49.90938" lon="2.40721">
        <ele>63.1</ele>
        <time>2022-09-23T14:03:32Z</time>
      </trkpt>
      <trkpt lat="49.90937" lon="2.4072">
        <ele>63.1</ele>
        <time>2022-09-23T14:03:34Z</time>
      </trkpt>
      <trkpt lat="49.90936" lon="2.40719">
        <ele>63.2</ele>
        <time>2022-09-23T14:03:35Z</time>
      </trkpt>
      <trkpt lat="49.90935" lon="2.40719">
        <ele>63.2</ele>
        <time>2022-09-23T14:03:36Z</time>
      </trkpt>
      <trkpt lat="49.90934" lon="2.40719">
        <ele>63.2</ele>
        <time>2022-09-23T14:03:37Z</time>
      </trkpt>
      <trkpt lat="49.90933" lon="2.40719">
        <ele>63.2</ele>
        <time>2022-09-23T14:03:38Z</time>
      </trkpt>
      <trkpt lat="49.90931" lon="2.40719">
        <ele>63.2</ele>
        <time>2022-09-23T14:03:39Z</time>
      </trkpt>
      <trkpt lat="49.9093" lon="2.40718">
        <ele>63.2</ele>
        <time>2022-09-23T14:03:40Z</time>
      </trkpt>
      <trkpt lat="49.90929" lon="2.40718">
        <ele>63.2</ele>
        <time>2022-09-23T14:03:41Z</time>
      </trkpt>
      <trkpt lat="49.90928" lon="2.40718">
        <ele>63.2</ele>
        <time>2022-09-23T14:03:42Z</time>
      </trkpt>
      <trkpt lat="49.90927" lon="2.40717">
        <ele>63.2</ele>
        <time>2022-09-23T14:03:44Z</time>
      </trkpt>
      <trkpt lat="49.90925" lon="2.40716">
        <ele>63.2</ele>
        <time>2022-09-23T14:03:45Z</time>
      </trkpt>
      <trkpt lat="49.90924" lon="2.40716">
        <ele>63.3</ele>
        <time>2022-09-23T14:03:46Z</time>
      </trkpt>
      <trkpt lat="49.90923" lon="2.40715">
        <ele>63.3</ele>
        <time>2022-09-23T14:03:47Z</time>
      </trkpt>
      <trkpt lat="49.90922" lon="2.40715">
        <ele>63.3</ele>
        <time>2022-09-23T14:03:48Z</time>
      </trkpt>
      <trkpt lat="49.90921" lon="2.40715">
        <ele>63.3</ele>
        <time>2022-09-23T14:03:49Z</time>
      </trkpt>
      <trkpt lat="49.90919" lon="2.40714">
        <ele>63.3</ele>
        <time>2022-09-23T14:03:50Z</time>
      </trkpt>
      <trkpt lat="49.90917" lon="2.40715">
        <ele>63.3</ele>
        <time>2022-09-23T14:03:51Z</time>
      </trkpt>
      <trkpt lat="49.90916" lon="2.40715">
        <ele>63.3</ele>
        <time>2022-09-23T14:03:52Z</time>
      </trkpt>
      <trkpt lat="49.90916" lon="2.40716">
        <ele>63.3</ele>
        <time>2022-09-23T14:03:53Z</time>
      </trkpt>
      <trkpt lat="49.90913" lon="2.40716">
        <ele>63.3</ele>
        <time>2022-09-23T14:03:55Z</time>
      </trkpt>
      <trkpt lat="49.90913" lon="2.40716">
        <ele>63.3</ele>
        <time>2022-09-23T14:03:56Z</time>
      </trkpt>
      <trkpt lat="49.90912" lon="2.40716">
        <ele>63.3</ele>
        <time>2022-09-23T14:03:57Z</time>
      </trkpt>
      <trkpt lat="49.9091" lon="2.40716">
        <ele>63.4</ele>
        <time>2022-09-23T14:03:58Z</time>
      </trkpt>
      <trkpt lat="49.90909" lon="2.40716">
        <ele>63.4</ele>
        <time>2022-09-23T14:03:59Z</time>
      </trkpt>
      <trkpt lat="49.90908" lon="2.40716">
        <ele>63.4</ele>
        <time>2022-09-23T14:04:00Z</time>
      </trkpt>
      <trkpt lat="49.90906" lon="2.40716">
        <ele>63.4</ele>
        <time>2022-09-23T14:04:01Z</time>
      </trkpt>
      <trkpt lat="49.90905" lon="2.40716">
        <ele>63.4</ele>
        <time>2022-09-23T14:04:02Z</time>
      </trkpt>
      <trkpt lat="49.90904" lon="2.40716">
        <ele>63.4</ele>
        <time>2022-09-23T14:04:03Z</time>
      </trkpt>
      <trkpt lat="49.90902" lon="2.40715">
        <ele>63.4</ele>
        <time>2022-09-23T14:04:05Z</time>
      </trkpt>
      <trkpt lat="49.90901" lon="2.40715">
        <ele>63.4</ele>
        <time>2022-09-23T14:04:06Z</time>
      </trkpt>
      <trkpt lat="49.90899" lon="2.40715">
        <ele>63.4</ele>
        <time>2022-09-23T14:04:07Z</time>
      </trkpt>
      <trkpt lat="49.90898" lon="2.40715">
        <ele>63.4</ele>
        <time>2022-09-23T14:04:08Z</time>
      </trkpt>
      <trkpt lat="49.90896" lon="2.40715">
        <ele>63.4</ele>
        <time>2022-09-23T14:04:10Z</time>
      </trkpt>
      <trkpt lat="49.90895" lon="2.40715">
        <ele>63.4</ele>
        <time>2022-09-23T14:04:11Z</time>
      </trkpt>
      <trkpt lat="49.90894" lon="2.40715">
        <ele>63.4</ele>
        <time>2022-09-23T14:04:12Z</time>
      </trkpt>
      <trkpt lat="49.90893" lon="2.40715">
        <ele>63.4</ele>
        <time>2022-09-23T14:04:13Z</time>
      </trkpt>
      <trkpt lat="49.90892" lon="2.40714">
        <ele>63.4</ele>
        <time>2022-09-23T14:04:14Z</time>
      </trkpt>
      <trkpt lat="49.9089" lon="2.40714">
        <ele>63.4</ele>
        <time>2022-09-23T14:04:15Z</time>
      </trkpt>
      <trkpt lat="49.90888" lon="2.40713">
        <ele>63.3</ele>
        <time>2022-09-23T14:04:17Z</time>
      </trkpt>
      <trkpt lat="49.90887" lon="2.40713">
        <ele>63.3</ele>
        <time>2022-09-23T14:04:18Z</time>
      </trkpt>
      <trkpt lat="49.90886" lon="2.40713">
        <ele>63.3</ele>
        <time>2022-09-23T14:04:19Z</time>
      </trkpt>
      <trkpt lat="49.90884" lon="2.40712">
        <ele>63.3</ele>
        <time>2022-09-23T14:04:20Z</time>
      </trkpt>
      <trkpt lat="49.90883" lon="2.40712">
        <ele>63.3</ele>
        <time>2022-09-23T14:04:21Z</time>
      </trkpt>
      <trkpt lat="49.90882" lon="2.40712">
        <ele>63.3</ele>
        <time>2022-09-23T14:04:22Z</time>
      </trkpt>
      <trkpt lat="49.90881" lon="2.40711">
        <ele>63.2</ele>
        <time>2022-09-23T14:04:23Z</time>
      </trkpt>
      <trkpt lat="49.9088" lon="2.40711">
        <ele>63.2</ele>
        <time>2022-09-23T14:04:24Z</time>
      </trkpt>
      <trkpt lat="49.90878" lon="2.40711">
        <ele>63.2</ele>
        <time>2022-09-23T14:04:25Z</time>
      </trkpt>
      <trkpt lat="49.90877" lon="2.4071">
        <ele>63.2</ele>
        <time>2022-09-23T14:04:26Z</time>
      </trkpt>
      <trkpt lat="49.90875" lon="2.4071">
        <ele>63.2</ele>
        <time>2022-09-23T14:04:28Z</time>
      </trkpt>
      <trkpt lat="49.90874" lon="2.4071">
        <ele>63.2</ele>
        <time>2022-09-23T14:04:29Z</time>
      </trkpt>
      <trkpt lat="49.90872" lon="2.40709">
        <ele>63.1</ele>
        <time>2022-09-23T14:04:30Z</time>
      </trkpt>
      <trkpt lat="49.90871" lon="2.40709">
        <ele>63.1</ele>
        <time>2022-09-23T14:04:31Z</time>
      </trkpt>
      <trkpt lat="49.9087" lon="2.40709">
        <ele>63.1</ele>
        <time>2022-09-23T14:04:32Z</time>
      </trkpt>
      <trkpt lat="49.90869" lon="2.40709">
        <ele>63.1</ele>
        <time>2022-09-23T14:04:34Z</time>
      </trkpt>
      <trkpt lat="49.90867" lon="2.40708">
        <ele>63.1</ele>
        <time>2022-09-23T14:04:35Z</time>
      </trkpt>
      <trkpt lat="49.90865" lon="2.40708">
        <ele>63.1</ele>
        <time>2022-09-23T14:04:36Z</time>
      </trkpt>
      <trkpt lat="49.90864" lon="2.40708">
        <ele>63.1</ele>
        <time>2022-09-23T14:04:37Z</time>
      </trkpt>
      <trkpt lat="49.90863" lon="2.40708">
        <ele>63.1</ele>
        <time>2022-09-23T14:04:38Z</time>
      </trkpt>
      <trkpt lat="49.90861" lon="2.40707">
        <ele>63.1</ele>
        <time>2022-09-23T14:04:40Z</time>
      </trkpt>
      <trkpt lat="49.9086" lon="2.40707">
        <ele>63.1</ele>
        <time>2022-09-23T14:04:41Z</time>
      </trkpt>
      <trkpt lat="49.90859" lon="2.40706">
        <ele>63.1</ele>
        <time>2022-09-23T14:04:42Z</time>
      </trkpt>
      <trkpt lat="49.90858" lon="2.40706">
        <ele>63.1</ele>
        <time>2022-09-23T14:04:43Z</time>
      </trkpt>
      <trkpt lat="49.90857" lon="2.40706">
        <ele>63.1</ele>
        <time>2022-09-23T14:04:44Z</time>
      </trkpt>
      <trkpt lat="49.90855" lon="2.40706">
        <ele>63.1</ele>
        <time>2022-09-23T14:04:45Z</time>
      </trkpt>
      <trkpt lat="49.90854" lon="2.40705">
        <ele>63.1</ele>
        <time>2022-09-23T14:04:46Z</time>
      </trkpt>
      <trkpt lat="49.90852" lon="2.40705">
        <ele>63.1</ele>
        <time>2022-09-23T14:04:47Z</time>
      </trkpt>
      <trkpt lat="49.90851" lon="2.40705">
        <ele>63.1</ele>
        <time>2022-09-23T14:04:48Z</time>
      </trkpt>
      <trkpt lat="49.9085" lon="2.40705">
        <ele>63.1</ele>
        <time>2022-09-23T14:04:49Z</time>
      </trkpt>
      <trkpt lat="49.90848" lon="2.40705">
        <ele>63.1</ele>
        <time>2022-09-23T14:04:51Z</time>
      </trkpt>
      <trkpt lat="49.90847" lon="2.40705">
        <ele>63.1</ele>
        <time>2022-09-23T14:04:52Z</time>
      </trkpt>
      <trkpt lat="49.90847" lon="2.40705">
        <ele>63.1</ele>
        <time>2022-09-23T14:04:53Z</time>
      </trkpt>
      <trkpt lat="49.90846" lon="2.40705">
        <ele>63.1</ele>
        <time>2022-09-23T14:04:54Z</time>
      </trkpt>
      <trkpt lat="49.90844" lon="2.40706">
        <ele>63.1</ele>
        <time>2022-09-23T14:04:55Z</time>
      </trkpt>
      <trkpt lat="49.90843" lon="2.40706">
        <ele>63.1</ele>
        <time>2022-09-23T14:04:56Z</time>
      </trkpt>
      <trkpt lat="49.90842" lon="2.40706">
        <ele>63.1</ele>
        <time>2022-09-23T14:04:57Z</time>
      </trkpt>
      <trkpt lat="49.90842" lon="2.40707">
        <ele>63.1</ele>
        <time>2022-09-23T14:04:58Z</time>
      </trkpt>
      <trkpt lat="49.9084" lon="2.40707">
        <ele>63.1</ele>
        <time>2022-09-23T14:04:59Z</time>
      </trkpt>
      <trkpt lat="49.90839" lon="2.40707">
        <ele>63.1</ele>
        <time>2022-09-23T14:05:00Z</time>
      </trkpt>
      <trkpt lat="49.90838" lon="2.40707">
        <ele>63.1</ele>
        <time>2022-09-23T14:05:01Z</time>
      </trkpt>
      <trkpt lat="49.90835" lon="2.40707">
        <ele>63.1</ele>
        <time>2022-09-23T14:05:03Z</time>
      </trkpt>
      <trkpt lat="49.90834" lon="2.40707">
        <ele>63.1</ele>
        <time>2022-09-23T14:05:04Z</time>
      </trkpt>
      <trkpt lat="49.90833" lon="2.40706">
        <ele>63.1</ele>
        <time>2022-09-23T14:05:05Z</time>
      </trkpt>
      <trkpt lat="49.90833" lon="2.40706">
        <ele>63.1</ele>
        <time>2022-09-23T14:05:06Z</time>
      </trkpt>
      <trkpt lat="49.90832" lon="2.40706">
        <ele>63.1</ele>
        <time>2022-09-23T14:05:07Z</time>
      </trkpt>
      <trkpt lat="49.90831" lon="2.40706">
        <ele>63.1</ele>
        <time>2022-09-23T14:05:08Z</time>
      </trkpt>
      <trkpt lat="49.90829" lon="2.40706">
        <ele>63.1</ele>
        <time>2022-09-23T14:05:09Z</time>
      </trkpt>
      <trkpt lat="49.90827" lon="2.40705">
        <ele>63</ele>
        <time>2022-09-23T14:05:10Z</time>
      </trkpt>
      <trkpt lat="49.90827" lon="2.40705">
        <ele>63</ele>
        <time>2022-09-23T14:05:11Z</time>
      </trkpt>
      <trkpt lat="49.90826" lon="2.40705">
        <ele>63</ele>
        <time>2022-09-23T14:05:12Z</time>
      </trkpt>
      <trkpt lat="49.90824" lon="2.40705">
        <ele>63</ele>
        <time>2022-09-23T14:05:13Z</time>
      </trkpt>
      <trkpt lat="49.90823" lon="2.40705">
        <ele>63</ele>
        <time>2022-09-23T14:05:15Z</time>
      </trkpt>
      <trkpt lat="49.90821" lon="2.40704">
        <ele>63</ele>
        <time>2022-09-23T14:05:16Z</time>
      </trkpt>
      <trkpt lat="49.9082" lon="2.40704">
        <ele>63</ele>
        <time>2022-09-23T14:05:17Z</time>
      </trkpt>
      <trkpt lat="49.9082" lon="2.40704">
        <ele>63</ele>
        <time>2022-09-23T14:05:18Z</time>
      </trkpt>
      <trkpt lat="49.90818" lon="2.40704">
        <ele>63</ele>
        <time>2022-09-23T14:05:19Z</time>
      </trkpt>
      <trkpt lat="49.90816" lon="2.40704">
        <ele>63</ele>
        <time>2022-09-23T14:05:20Z</time>
      </trkpt>
      <trkpt lat="49.90815" lon="2.40704">
        <ele>63</ele>
        <time>2022-09-23T14:05:21Z</time>
      </trkpt>
      <trkpt lat="49.90815" lon="2.40704">
        <ele>63</ele>
        <time>2022-09-23T14:05:22Z</time>
      </trkpt>
      <trkpt lat="49.90813" lon="2.40704">
        <ele>62.9</ele>
        <time>2022-09-23T14:05:23Z</time>
      </trkpt>
      <trkpt lat="49.90812" lon="2.40705">
        <ele>62.9</ele>
        <time>2022-09-23T14:05:24Z</time>
      </trkpt>
      <trkpt lat="49.90811" lon="2.40705">
        <ele>62.9</ele>
        <time>2022-09-23T14:05:25Z</time>
      </trkpt>
      <trkpt lat="49.90809" lon="2.40705">
        <ele>62.9</ele>
        <time>2022-09-23T14:05:27Z</time>
      </trkpt>
      <trkpt lat="49.90808" lon="2.40705">
        <ele>62.9</ele>
        <time>2022-09-23T14:05:28Z</time>
      </trkpt>
      <trkpt lat="49.90807" lon="2.40705">
        <ele>62.9</ele>
        <time>2022-09-23T14:05:29Z</time>
      </trkpt>
      <trkpt lat="49.90805" lon="2.40705">
        <ele>62.8</ele>
        <time>2022-09-23T14:05:30Z</time>
      </trkpt>
      <trkpt lat="49.90805" lon="2.40705">
        <ele>62.8</ele>
        <time>2022-09-23T14:05:31Z</time>
      </trkpt>
      <trkpt lat="49.90803" lon="2.40705">
        <ele>62.8</ele>
        <time>2022-09-23T14:05:32Z</time>
      </trkpt>
      <trkpt lat="49.90802" lon="2.40705">
        <ele>62.8</ele>
        <time>2022-09-23T14:05:33Z</time>
      </trkpt>
      <trkpt lat="49.90801" lon="2.40706">
        <ele>62.8</ele>
        <time>2022-09-23T14:05:34Z</time>
      </trkpt>
      <trkpt lat="49.90799" lon="2.40706">
        <ele>62.7</ele>
        <time>2022-09-23T14:05:35Z</time>
      </trkpt>
      <trkpt lat="49.90798" lon="2.40706">
        <ele>62.7</ele>
        <time>2022-09-23T14:05:36Z</time>
      </trkpt>
      <trkpt lat="49.90797" lon="2.40706">
        <ele>62.7</ele>
        <time>2022-09-23T14:05:37Z</time>
      </trkpt>
      <trkpt lat="49.90795" lon="2.40707">
        <ele>62.7</ele>
        <time>2022-09-23T14:05:39Z</time>
      </trkpt>
      <trkpt lat="49.90793" lon="2.40707">
        <ele>62.7</ele>
        <time>2022-09-23T14:05:41Z</time>
      </trkpt>
      <trkpt lat="49.90792" lon="2.40707">
        <ele>62.6</ele>
        <time>2022-09-23T14:05:42Z</time>
      </trkpt>
      <trkpt lat="49.9079" lon="2.40707">
        <ele>62.6</ele>
        <time>2022-09-23T14:05:43Z</time>
      </trkpt>
      <trkpt lat="49.90789" lon="2.40708">
        <ele>62.6</ele>
        <time>2022-09-23T14:05:44Z</time>
      </trkpt>
      <trkpt lat="49.90788" lon="2.40708">
        <ele>62.6</ele>
        <time>2022-09-23T14:05:45Z</time>
      </trkpt>
      <trkpt lat="49.90786" lon="2.40708">
        <ele>62.6</ele>
        <time>2022-09-23T14:05:46Z</time>
      </trkpt>
      <trkpt lat="49.90785" lon="2.40708">
        <ele>62.6</ele>
        <time>2022-09-23T14:05:47Z</time>
      </trkpt>
      <trkpt lat="49.90784" lon="2.40707">
        <ele>62.6</ele>
        <time>2022-09-23T14:05:48Z</time>
      </trkpt>
      <trkpt lat="49.90783" lon="2.40707">
        <ele>62.6</ele>
        <time>2022-09-23T14:05:49Z</time>
      </trkpt>
      <trkpt lat="49.90781" lon="2.40707">
        <ele>62.5</ele>
        <time>2022-09-23T14:05:50Z</time>
      </trkpt>
      <trkpt lat="49.9078" lon="2.40707">
        <ele>62.5</ele>
        <time>2022-09-23T14:05:51Z</time>
      </trkpt>
      <trkpt lat="49.90779" lon="2.40707">
        <ele>62.5</ele>
        <time>2022-09-23T14:05:53Z</time>
      </trkpt>
      <trkpt lat="49.90777" lon="2.40707">
        <ele>62.5</ele>
        <time>2022-09-23T14:05:54Z</time>
      </trkpt>
      <trkpt lat="49.90775" lon="2.40707">
        <ele>62.5</ele>
        <time>2022-09-23T14:05:55Z</time>
      </trkpt>
      <trkpt lat="49.90775" lon="2.40707">
        <ele>62.5</ele>
        <time>2022-09-23T14:05:56Z</time>
      </trkpt>
      <trkpt lat="49.90774" lon="2.40708">
        <ele>62.5</ele>
        <time>2022-09-23T14:05:57Z</time>
      </trkpt>
      <trkpt lat="49.90773" lon="2.40708">
        <ele>62.5</ele>
        <time>2022-09-23T14:05:58Z</time>
      </trkpt>
      <trkpt lat="49.90771" lon="2.40707">
        <ele>62.5</ele>
        <time>2022-09-23T14:05:59Z</time>
      </trkpt>
      <trkpt lat="49.9077" lon="2.40707">
        <ele>62.4</ele>
        <time>2022-09-23T14:06:00Z</time>
      </trkpt>
      <trkpt lat="49.90769" lon="2.40707">
        <ele>62.4</ele>
        <time>2022-09-23T14:06:02Z</time>
      </trkpt>
      <trkpt lat="49.90767" lon="2.40707">
        <ele>62.4</ele>
        <time>2022-09-23T14:06:03Z</time>
      </trkpt>
      <trkpt lat="49.90766" lon="2.40706">
        <ele>62.4</ele>
        <time>2022-09-23T14:06:04Z</time>
      </trkpt>
      <trkpt lat="49.90764" lon="2.40706">
        <ele>62.4</ele>
        <time>2022-09-23T14:06:05Z</time>
      </trkpt>
      <trkpt lat="49.90763" lon="2.40705">
        <ele>62.3</ele>
        <time>2022-09-23T14:06:06Z</time>
      </trkpt>
      <trkpt lat="49.90761" lon="2.40705">
        <ele>62.3</ele>
        <time>2022-09-23T14:06:07Z</time>
      </trkpt>
      <trkpt lat="49.9076" lon="2.40705">
        <ele>62.3</ele>
        <time>2022-09-23T14:06:08Z</time>
      </trkpt>
      <trkpt lat="49.90759" lon="2.40705">
        <ele>62.3</ele>
        <time>2022-09-23T14:06:09Z</time>
      </trkpt>
      <trkpt lat="49.90758" lon="2.40704">
        <ele>62.3</ele>
        <time>2022-09-23T14:06:10Z</time>
      </trkpt>
      <trkpt lat="49.90757" lon="2.40704">
        <ele>62.2</ele>
        <time>2022-09-23T14:06:11Z</time>
      </trkpt>
      <trkpt lat="49.90756" lon="2.40704">
        <ele>62.2</ele>
        <time>2022-09-23T14:06:13Z</time>
      </trkpt>
      <trkpt lat="49.90754" lon="2.40704">
        <ele>62.2</ele>
        <time>2022-09-23T14:06:14Z</time>
      </trkpt>
      <trkpt lat="49.90753" lon="2.40704">
        <ele>62.2</ele>
        <time>2022-09-23T14:06:15Z</time>
      </trkpt>
      <trkpt lat="49.90752" lon="2.40704">
        <ele>62.2</ele>
        <time>2022-09-23T14:06:16Z</time>
      </trkpt>
      <trkpt lat="49.90751" lon="2.40704">
        <ele>62.1</ele>
        <time>2022-09-23T14:06:17Z</time>
      </trkpt>
      <trkpt lat="49.9075" lon="2.40704">
        <ele>62.1</ele>
        <time>2022-09-23T14:06:18Z</time>
      </trkpt>
      <trkpt lat="49.90749" lon="2.40704">
        <ele>62.1</ele>
        <time>2022-09-23T14:06:19Z</time>
      </trkpt>
      <trkpt lat="49.90747" lon="2.40703">
        <ele>62.1</ele>
        <time>2022-09-23T14:06:21Z</time>
      </trkpt>
      <trkpt lat="49.90746" lon="2.40702">
        <ele>62.1</ele>
        <time>2022-09-23T14:06:22Z</time>
      </trkpt>
      <trkpt lat="49.90744" lon="2.40701">
        <ele>62</ele>
        <time>2022-09-23T14:06:23Z</time>
      </trkpt>
      <trkpt lat="49.90743" lon="2.40701">
        <ele>62</ele>
        <time>2022-09-23T14:06:24Z</time>
      </trkpt>
      <trkpt lat="49.90742" lon="2.40701">
        <ele>62</ele>
        <time>2022-09-23T14:06:25Z</time>
      </trkpt>
      <trkpt lat="49.9074" lon="2.407">
        <ele>62</ele>
        <time>2022-09-23T14:06:26Z</time>
      </trkpt>
      <trkpt lat="49.90739" lon="2.407">
        <ele>62</ele>
        <time>2022-09-23T14:06:27Z</time>
      </trkpt>
      <trkpt lat="49.90738" lon="2.40699">
        <ele>62</ele>
        <time>2022-09-23T14:06:28Z</time>
      </trkpt>
      <trkpt lat="49.90737" lon="2.40699">
        <ele>62</ele>
        <time>2022-09-23T14:06:29Z</time>
      </trkpt>
      <trkpt lat="49.90735" lon="2.40699">
        <ele>61.9</ele>
        <time>2022-09-23T14:06:30Z</time>
      </trkpt>
      <trkpt lat="49.90735" lon="2.40698">
        <ele>61.9</ele>
        <time>2022-09-23T14:06:31Z</time>
      </trkpt>
      <trkpt lat="49.90733" lon="2.40698">
        <ele>61.9</ele>
        <time>2022-09-23T14:06:32Z</time>
      </trkpt>
      <trkpt lat="49.90732" lon="2.40698">
        <ele>61.9</ele>
        <time>2022-09-23T14:06:34Z</time>
      </trkpt>
      <trkpt lat="49.90731" lon="2.40697">
        <ele>61.9</ele>
        <time>2022-09-23T14:06:35Z</time>
      </trkpt>
      <trkpt lat="49.90729" lon="2.40697">
        <ele>61.9</ele>
        <time>2022-09-23T14:06:36Z</time>
      </trkpt>
      <trkpt lat="49.90729" lon="2.40697">
        <ele>61.9</ele>
        <time>2022-09-23T14:06:37Z</time>
      </trkpt>
      <trkpt lat="49.90727" lon="2.40697">
        <ele>61.8</ele>
        <time>2022-09-23T14:06:38Z</time>
      </trkpt>
      <trkpt lat="49.90726" lon="2.40697">
        <ele>61.8</ele>
        <time>2022-09-23T14:06:39Z</time>
      </trkpt>
      <trkpt lat="49.90724" lon="2.40697">
        <ele>61.8</ele>
        <time>2022-09-23T14:06:41Z</time>
      </trkpt>
      <trkpt lat="49.90723" lon="2.40697">
        <ele>61.8</ele>
        <time>2022-09-23T14:06:42Z</time>
      </trkpt>
      <trkpt lat="49.90722" lon="2.40697">
        <ele>61.8</ele>
        <time>2022-09-23T14:06:43Z</time>
      </trkpt>
      <trkpt lat="49.9072" lon="2.40696">
        <ele>61.7</ele>
        <time>2022-09-23T14:06:44Z</time>
      </trkpt>
      <trkpt lat="49.90719" lon="2.40696">
        <ele>61.7</ele>
        <time>2022-09-23T14:06:45Z</time>
      </trkpt>
      <trkpt lat="49.90718" lon="2.40696">
        <ele>61.7</ele>
        <time>2022-09-23T14:06:46Z</time>
      </trkpt>
      <trkpt lat="49.90717" lon="2.40696">
        <ele>61.7</ele>
        <time>2022-09-23T14:06:47Z</time>
      </trkpt>
      <trkpt lat="49.90716" lon="2.40696">
        <ele>61.7</ele>
        <time>2022-09-23T14:06:49Z</time>
      </trkpt>
      <trkpt lat="49.90714" lon="2.40696">
        <ele>61.6</ele>
        <time>2022-09-23T14:06:50Z</time>
      </trkpt>
      <trkpt lat="49.90712" lon="2.40695">
        <ele>61.6</ele>
        <time>2022-09-23T14:06:51Z</time>
      </trkpt>
      <trkpt lat="49.90712" lon="2.40695">
        <ele>61.6</ele>
        <time>2022-09-23T14:06:52Z</time>
      </trkpt>
      <trkpt lat="49.90711" lon="2.40695">
        <ele>61.6</ele>
        <time>2022-09-23T14:06:53Z</time>
      </trkpt>
      <trkpt lat="49.9071" lon="2.40695">
        <ele>61.6</ele>
        <time>2022-09-23T14:06:54Z</time>
      </trkpt>
      <trkpt lat="49.90708" lon="2.40695">
        <ele>61.6</ele>
        <time>2022-09-23T14:06:55Z</time>
      </trkpt>
      <trkpt lat="49.90707" lon="2.40695">
        <ele>61.6</ele>
        <time>2022-09-23T14:06:56Z</time>
      </trkpt>
      <trkpt lat="49.90706" lon="2.40695">
        <ele>61.6</ele>
        <time>2022-09-23T14:06:57Z</time>
      </trkpt>
      <trkpt lat="49.90705" lon="2.40696">
        <ele>61.6</ele>
        <time>2022-09-23T14:06:58Z</time>
      </trkpt>
      <trkpt lat="49.90704" lon="2.40696">
        <ele>61.5</ele>
        <time>2022-09-23T14:06:59Z</time>
      </trkpt>
      <trkpt lat="49.90701" lon="2.40696">
        <ele>61.5</ele>
        <time>2022-09-23T14:07:00Z</time>
      </trkpt>
      <trkpt lat="49.90701" lon="2.40696">
        <ele>61.5</ele>
        <time>2022-09-23T14:07:02Z</time>
      </trkpt>
      <trkpt lat="49.907" lon="2.40696">
        <ele>61.5</ele>
        <time>2022-09-23T14:07:03Z</time>
      </trkpt>
      <trkpt lat="49.90698" lon="2.40696">
        <ele>61.5</ele>
        <time>2022-09-23T14:07:04Z</time>
      </trkpt>
      <trkpt lat="49.90697" lon="2.40696">
        <ele>61.5</ele>
        <time>2022-09-23T14:07:05Z</time>
      </trkpt>
      <trkpt lat="49.90696" lon="2.40696">
        <ele>61.5</ele>
        <time>2022-09-23T14:07:06Z</time>
      </trkpt>
      <trkpt lat="49.90696" lon="2.40696">
        <ele>61.5</ele>
        <time>2022-09-23T14:07:07Z</time>
      </trkpt>
      <trkpt lat="49.90695" lon="2.40696">
        <ele>61.5</ele>
        <time>2022-09-23T14:07:08Z</time>
      </trkpt>
      <trkpt lat="49.90693" lon="2.40696">
        <ele>61.4</ele>
        <time>2022-09-23T14:07:09Z</time>
      </trkpt>
      <trkpt lat="49.90692" lon="2.40696">
        <ele>61.4</ele>
        <time>2022-09-23T14:07:10Z</time>
      </trkpt>
      <trkpt lat="49.90691" lon="2.40695">
        <ele>61.4</ele>
        <time>2022-09-23T14:07:11Z</time>
      </trkpt>
      <trkpt lat="49.9069" lon="2.40695">
        <ele>61.4</ele>
        <time>2022-09-23T14:07:12Z</time>
      </trkpt>
      <trkpt lat="49.90688" lon="2.40695">
        <ele>61.4</ele>
        <time>2022-09-23T14:07:14Z</time>
      </trkpt>
      <trkpt lat="49.90687" lon="2.40695">
        <ele>61.4</ele>
        <time>2022-09-23T14:07:15Z</time>
      </trkpt>
      <trkpt lat="49.90686" lon="2.40695">
        <ele>61.3</ele>
        <time>2022-09-23T14:07:16Z</time>
      </trkpt>
      <trkpt lat="49.90685" lon="2.40695">
        <ele>61.3</ele>
        <time>2022-09-23T14:07:17Z</time>
      </trkpt>
      <trkpt lat="49.90684" lon="2.40695">
        <ele>61.3</ele>
        <time>2022-09-23T14:07:18Z</time>
      </trkpt>
      <trkpt lat="49.90682" lon="2.40694">
        <ele>61.3</ele>
        <time>2022-09-23T14:07:19Z</time>
      </trkpt>
      <trkpt lat="49.90681" lon="2.40694">
        <ele>61.2</ele>
        <time>2022-09-23T14:07:20Z</time>
      </trkpt>
      <trkpt lat="49.9068" lon="2.40694">
        <ele>61.2</ele>
        <time>2022-09-23T14:07:21Z</time>
      </trkpt>
      <trkpt lat="49.90679" lon="2.40694">
        <ele>61.2</ele>
        <time>2022-09-23T14:07:22Z</time>
      </trkpt>
      <trkpt lat="49.90678" lon="2.40694">
        <ele>61.2</ele>
        <time>2022-09-23T14:07:23Z</time>
      </trkpt>
      <trkpt lat="49.90677" lon="2.40693">
        <ele>61.2</ele>
        <time>2022-09-23T14:07:24Z</time>
      </trkpt>
      <trkpt lat="49.90675" lon="2.40693">
        <ele>61.1</ele>
        <time>2022-09-23T14:07:26Z</time>
      </trkpt>
      <trkpt lat="49.90674" lon="2.40693">
        <ele>61.1</ele>
        <time>2022-09-23T14:07:27Z</time>
      </trkpt>
      <trkpt lat="49.90672" lon="2.40693">
        <ele>61.1</ele>
        <time>2022-09-23T14:07:28Z</time>
      </trkpt>
      <trkpt lat="49.90671" lon="2.40693">
        <ele>61.1</ele>
        <time>2022-09-23T14:07:29Z</time>
      </trkpt>
      <trkpt lat="49.9067" lon="2.40693">
        <ele>61</ele>
        <time>2022-09-23T14:07:30Z</time>
      </trkpt>
      <trkpt lat="49.90668" lon="2.40693">
        <ele>61</ele>
        <time>2022-09-23T14:07:31Z</time>
      </trkpt>
      <trkpt lat="49.90667" lon="2.40693">
        <ele>61</ele>
        <time>2022-09-23T14:07:32Z</time>
      </trkpt>
      <trkpt lat="49.90666" lon="2.40693">
        <ele>61</ele>
        <time>2022-09-23T14:07:33Z</time>
      </trkpt>
      <trkpt lat="49.90664" lon="2.40692">
        <ele>60.9</ele>
        <time>2022-09-23T14:07:34Z</time>
      </trkpt>
      <trkpt lat="49.90664" lon="2.40692">
        <ele>60.9</ele>
        <time>2022-09-23T14:07:35Z</time>
      </trkpt>
      <trkpt lat="49.90663" lon="2.40692">
        <ele>60.9</ele>
        <time>2022-09-23T14:07:36Z</time>
      </trkpt>
      <trkpt lat="49.90662" lon="2.40691">
        <ele>60.9</ele>
        <time>2022-09-23T14:07:37Z</time>
      </trkpt>
      <trkpt lat="49.9066" lon="2.40691">
        <ele>60.9</ele>
        <time>2022-09-23T14:07:39Z</time>
      </trkpt>
      <trkpt lat="49.90659" lon="2.40691">
        <ele>60.8</ele>
        <time>2022-09-23T14:07:40Z</time>
      </trkpt>
      <trkpt lat="49.90658" lon="2.40691">
        <ele>60.8</ele>
        <time>2022-09-23T14:07:41Z</time>
      </trkpt>
      <trkpt lat="49.90657" lon="2.40691">
        <ele>60.8</ele>
        <time>2022-09-23T14:07:42Z</time>
      </trkpt>
      <trkpt lat="49.90656" lon="2.40691">
        <ele>60.8</ele>
        <time>2022-09-23T14:07:43Z</time>
      </trkpt>
      <trkpt lat="49.90654" lon="2.40692">
        <ele>60.7</ele>
        <time>2022-09-23T14:07:44Z</time>
      </trkpt>
      <trkpt lat="49.90653" lon="2.40692">
        <ele>60.7</ele>
        <time>2022-09-23T14:07:45Z</time>
      </trkpt>
      <trkpt lat="49.90652" lon="2.40692">
        <ele>60.7</ele>
        <time>2022-09-23T14:07:46Z</time>
      </trkpt>
      <trkpt lat="49.90651" lon="2.40691">
        <ele>60.6</ele>
        <time>2022-09-23T14:07:47Z</time>
      </trkpt>
      <trkpt lat="49.90651" lon="2.40691">
        <ele>60.6</ele>
        <time>2022-09-23T14:07:48Z</time>
      </trkpt>
      <trkpt lat="49.90649" lon="2.40691">
        <ele>60.6</ele>
        <time>2022-09-23T14:07:49Z</time>
      </trkpt>
      <trkpt lat="49.90648" lon="2.40691">
        <ele>60.6</ele>
        <time>2022-09-23T14:07:50Z</time>
      </trkpt>
      <trkpt lat="49.90646" lon="2.40692">
        <ele>60.5</ele>
        <time>2022-09-23T14:07:52Z</time>
      </trkpt>
      <trkpt lat="49.90645" lon="2.40692">
        <ele>60.5</ele>
        <time>2022-09-23T14:07:53Z</time>
      </trkpt>
      <trkpt lat="49.90644" lon="2.40692">
        <ele>60.5</ele>
        <time>2022-09-23T14:07:54Z</time>
      </trkpt>
      <trkpt lat="49.90643" lon="2.40692">
        <ele>60.4</ele>
        <time>2022-09-23T14:07:55Z</time>
      </trkpt>
      <trkpt lat="49.90641" lon="2.40692">
        <ele>60.4</ele>
        <time>2022-09-23T14:07:56Z</time>
      </trkpt>
      <trkpt lat="49.9064" lon="2.40692">
        <ele>60.4</ele>
        <time>2022-09-23T14:07:58Z</time>
      </trkpt>
      <trkpt lat="49.90639" lon="2.40692">
        <ele>60.3</ele>
        <time>2022-09-23T14:07:59Z</time>
      </trkpt>
      <trkpt lat="49.90637" lon="2.40692">
        <ele>60.3</ele>
        <time>2022-09-23T14:08:00Z</time>
      </trkpt>
      <trkpt lat="49.90635" lon="2.40692">
        <ele>60.3</ele>
        <time>2022-09-23T14:08:01Z</time>
      </trkpt>
      <trkpt lat="49.90634" lon="2.40692">
        <ele>60.2</ele>
        <time>2022-09-23T14:08:02Z</time>
      </trkpt>
      <trkpt lat="49.90633" lon="2.40691">
        <ele>60.2</ele>
        <time>2022-09-23T14:08:03Z</time>
      </trkpt>
      <trkpt lat="49.90632" lon="2.40691">
        <ele>60.2</ele>
        <time>2022-09-23T14:08:04Z</time>
      </trkpt>
      <trkpt lat="49.90631" lon="2.40691">
        <ele>60.2</ele>
        <time>2022-09-23T14:08:05Z</time>
      </trkpt>
      <trkpt lat="49.9063" lon="2.4069">
        <ele>60.1</ele>
        <time>2022-09-23T14:08:06Z</time>
      </trkpt>
      <trkpt lat="49.90629" lon="2.4069">
        <ele>60.1</ele>
        <time>2022-09-23T14:08:07Z</time>
      </trkpt>
      <trkpt lat="49.90627" lon="2.4069">
        <ele>60.1</ele>
        <time>2022-09-23T14:08:09Z</time>
      </trkpt>
      <trkpt lat="49.90625" lon="2.4069">
        <ele>60.1</ele>
        <time>2022-09-23T14:08:10Z</time>
      </trkpt>
      <trkpt lat="49.90624" lon="2.40689">
        <ele>60</ele>
        <time>2022-09-23T14:08:11Z</time>
      </trkpt>
      <trkpt lat="49.90623" lon="2.40689">
        <ele>60</ele>
        <time>2022-09-23T14:08:12Z</time>
      </trkpt>
      <trkpt lat="49.90622" lon="2.40689">
        <ele>60</ele>
        <time>2022-09-23T14:08:13Z</time>
      </trkpt>
      <trkpt lat="49.90621" lon="2.40689">
        <ele>60</ele>
        <time>2022-09-23T14:08:14Z</time>
      </trkpt>
      <trkpt lat="49.9062" lon="2.40688">
        <ele>59.9</ele>
        <time>2022-09-23T14:08:15Z</time>
      </trkpt>
      <trkpt lat="49.90619" lon="2.40687">
        <ele>59.9</ele>
        <time>2022-09-23T14:08:16Z</time>
      </trkpt>
      <trkpt lat="49.90618" lon="2.40687">
        <ele>59.9</ele>
        <time>2022-09-23T14:08:17Z</time>
      </trkpt>
      <trkpt lat="49.90617" lon="2.40687">
        <ele>59.9</ele>
        <time>2022-09-23T14:08:18Z</time>
      </trkpt>
      <trkpt lat="49.90615" lon="2.40686">
        <ele>59.8</ele>
        <time>2022-09-23T14:08:20Z</time>
      </trkpt>
      <trkpt lat="49.90614" lon="2.40686">
        <ele>59.8</ele>
        <time>2022-09-23T14:08:21Z</time>
      </trkpt>
      <trkpt lat="49.90613" lon="2.40686">
        <ele>59.8</ele>
        <time>2022-09-23T14:08:22Z</time>
      </trkpt>
      <trkpt lat="49.90611" lon="2.40686">
        <ele>59.7</ele>
        <time>2022-09-23T14:08:23Z</time>
      </trkpt>
      <trkpt lat="49.9061" lon="2.40685">
        <ele>59.7</ele>
        <time>2022-09-23T14:08:24Z</time>
      </trkpt>
      <trkpt lat="49.90609" lon="2.40685">
        <ele>59.7</ele>
        <time>2022-09-23T14:08:25Z</time>
      </trkpt>
      <trkpt lat="49.90608" lon="2.40685">
        <ele>59.6</ele>
        <time>2022-09-23T14:08:26Z</time>
      </trkpt>
      <trkpt lat="49.90607" lon="2.40684">
        <ele>59.6</ele>
        <time>2022-09-23T14:08:27Z</time>
      </trkpt>
      <trkpt lat="49.90605" lon="2.40684">
        <ele>59.6</ele>
        <time>2022-09-23T14:08:28Z</time>
      </trkpt>
      <trkpt lat="49.90605" lon="2.40684">
        <ele>59.6</ele>
        <time>2022-09-23T14:08:29Z</time>
      </trkpt>
      <trkpt lat="49.90604" lon="2.40684">
        <ele>59.5</ele>
        <time>2022-09-23T14:08:30Z</time>
      </trkpt>
      <trkpt lat="49.90601" lon="2.40683">
        <ele>59.5</ele>
        <time>2022-09-23T14:08:32Z</time>
      </trkpt>
      <trkpt lat="49.90601" lon="2.40683">
        <ele>59.4</ele>
        <time>2022-09-23T14:08:33Z</time>
      </trkpt>
      <trkpt lat="49.906" lon="2.40683">
        <ele>59.4</ele>
        <time>2022-09-23T14:08:34Z</time>
      </trkpt>
      <trkpt lat="49.90598" lon="2.40683">
        <ele>59.4</ele>
        <time>2022-09-23T14:08:35Z</time>
      </trkpt>
      <trkpt lat="49.90597" lon="2.40683">
        <ele>59.3</ele>
        <time>2022-09-23T14:08:36Z</time>
      </trkpt>
      <trkpt lat="49.90595" lon="2.40683">
        <ele>59.3</ele>
        <time>2022-09-23T14:08:37Z</time>
      </trkpt>
      <trkpt lat="49.90594" lon="2.40683">
        <ele>59.3</ele>
        <time>2022-09-23T14:08:38Z</time>
      </trkpt>
      <trkpt lat="49.90592" lon="2.40683">
        <ele>59.2</ele>
        <time>2022-09-23T14:08:39Z</time>
      </trkpt>
      <trkpt lat="49.90591" lon="2.40683">
        <ele>59.2</ele>
        <time>2022-09-23T14:08:40Z</time>
      </trkpt>
      <trkpt lat="49.9059" lon="2.40683">
        <ele>59.2</ele>
        <time>2022-09-23T14:08:41Z</time>
      </trkpt>
      <trkpt lat="49.9059" lon="2.40683">
        <ele>59.1</ele>
        <time>2022-09-23T14:08:42Z</time>
      </trkpt>
      <trkpt lat="49.90589" lon="2.40684">
        <ele>59.1</ele>
        <time>2022-09-23T14:08:44Z</time>
      </trkpt>
      <trkpt lat="49.90588" lon="2.40684">
        <ele>59.1</ele>
        <time>2022-09-23T14:08:45Z</time>
      </trkpt>
      <trkpt lat="49.90586" lon="2.40685">
        <ele>59</ele>
        <time>2022-09-23T14:08:46Z</time>
      </trkpt>
      <trkpt lat="49.90585" lon="2.40686">
        <ele>59</ele>
        <time>2022-09-23T14:08:47Z</time>
      </trkpt>
      <trkpt lat="49.90584" lon="2.40687">
        <ele>59</ele>
        <time>2022-09-23T14:08:48Z</time>
      </trkpt>
      <trkpt lat="49.90583" lon="2.40687">
        <ele>58.9</ele>
        <time>2022-09-23T14:08:49Z</time>
      </trkpt>
      <trkpt lat="49.90582" lon="2.40688">
        <ele>58.9</ele>
        <time>2022-09-23T14:08:50Z</time>
      </trkpt>
      <trkpt lat="49.90581" lon="2.40688">
        <ele>58.9</ele>
        <time>2022-09-23T14:08:51Z</time>
      </trkpt>
      <trkpt lat="49.9058" lon="2.40688">
        <ele>58.8</ele>
        <time>2022-09-23T14:08:53Z</time>
      </trkpt>
      <trkpt lat="49.90578" lon="2.40688">
        <ele>58.8</ele>
        <time>2022-09-23T14:08:54Z</time>
      </trkpt>
      <trkpt lat="49.90576" lon="2.40687">
        <ele>58.7</ele>
        <time>2022-09-23T14:08:55Z</time>
      </trkpt>
      <trkpt lat="49.90575" lon="2.40687">
        <ele>58.7</ele>
        <time>2022-09-23T14:08:56Z</time>
      </trkpt>
      <trkpt lat="49.90575" lon="2.40687">
        <ele>58.7</ele>
        <time>2022-09-23T14:08:57Z</time>
      </trkpt>
      <trkpt lat="49.90574" lon="2.40686">
        <ele>58.6</ele>
        <time>2022-09-23T14:08:58Z</time>
      </trkpt>
      <trkpt lat="49.90573" lon="2.40686">
        <ele>58.6</ele>
        <time>2022-09-23T14:09:00Z</time>
      </trkpt>
      <trkpt lat="49.90572" lon="2.40685">
        <ele>58.6</ele>
        <time>2022-09-23T14:09:01Z</time>
      </trkpt>
      <trkpt lat="49.90569" lon="2.40685">
        <ele>58.5</ele>
        <time>2022-09-23T14:09:02Z</time>
      </trkpt>
      <trkpt lat="49.90569" lon="2.40685">
        <ele>58.5</ele>
        <time>2022-09-23T14:09:03Z</time>
      </trkpt>
      <trkpt lat="49.90568" lon="2.40685">
        <ele>58.4</ele>
        <time>2022-09-23T14:09:04Z</time>
      </trkpt>
      <trkpt lat="49.90567" lon="2.40685">
        <ele>58.4</ele>
        <time>2022-09-23T14:09:05Z</time>
      </trkpt>
      <trkpt lat="49.90566" lon="2.40685">
        <ele>58.4</ele>
        <time>2022-09-23T14:09:06Z</time>
      </trkpt>
      <trkpt lat="49.90565" lon="2.40685">
        <ele>58.3</ele>
        <time>2022-09-23T14:09:08Z</time>
      </trkpt>
      <trkpt lat="49.90564" lon="2.40685">
        <ele>58.2</ele>
        <time>2022-09-23T14:09:09Z</time>
      </trkpt>
      <trkpt lat="49.90562" lon="2.40684">
        <ele>58.2</ele>
        <time>2022-09-23T14:09:10Z</time>
      </trkpt>
      <trkpt lat="49.90561" lon="2.40683">
        <ele>58.1</ele>
        <time>2022-09-23T14:09:11Z</time>
      </trkpt>
      <trkpt lat="49.9056" lon="2.40683">
        <ele>58.1</ele>
        <time>2022-09-23T14:09:12Z</time>
      </trkpt>
      <trkpt lat="49.90559" lon="2.40682">
        <ele>58</ele>
        <time>2022-09-23T14:09:13Z</time>
      </trkpt>
      <trkpt lat="49.90558" lon="2.40682">
        <ele>58</ele>
        <time>2022-09-23T14:09:14Z</time>
      </trkpt>
      <trkpt lat="49.90558" lon="2.40682">
        <ele>57.9</ele>
        <time>2022-09-23T14:09:15Z</time>
      </trkpt>
      <trkpt lat="49.90556" lon="2.40681">
        <ele>57.9</ele>
        <time>2022-09-23T14:09:17Z</time>
      </trkpt>
      <trkpt lat="49.90555" lon="2.4068">
        <ele>57.9</ele>
        <time>2022-09-23T14:09:18Z</time>
      </trkpt>
      <trkpt lat="49.90554" lon="2.4068">
        <ele>57.9</ele>
        <time>2022-09-23T14:09:19Z</time>
      </trkpt>
      <trkpt lat="49.90554" lon="2.40678">
        <ele>58</ele>
        <time>2022-09-23T14:09:20Z</time>
      </trkpt>
      <trkpt lat="49.90554" lon="2.40678">
        <ele>58</ele>
        <time>2022-09-23T14:09:21Z</time>
      </trkpt>
      <trkpt lat="49.90555" lon="2.40677">
        <ele>58</ele>
        <time>2022-09-23T14:09:22Z</time>
      </trkpt>
      <trkpt lat="49.90555" lon="2.40677">
        <ele>58</ele>
        <time>2022-09-23T14:09:23Z</time>
      </trkpt>
      <trkpt lat="49.90556" lon="2.40677">
        <ele>58</ele>
        <time>2022-09-23T14:09:24Z</time>
      </trkpt>
      <trkpt lat="49.90557" lon="2.40677">
        <ele>58</ele>
        <time>2022-09-23T14:09:25Z</time>
      </trkpt>
      <trkpt lat="49.90557" lon="2.40678">
        <ele>58</ele>
        <time>2022-09-23T14:09:26Z</time>
      </trkpt>
      <trkpt lat="49.90557" lon="2.40678">
        <ele>58.1</ele>
        <time>2022-09-23T14:09:27Z</time>
      </trkpt>
      <trkpt lat="49.90557" lon="2.40678">
        <ele>58.1</ele>
        <time>2022-09-23T14:09:28Z</time>
      </trkpt>
      <trkpt lat="49.90558" lon="2.40678">
        <ele>58.1</ele>
        <time>2022-09-23T14:09:29Z</time>
      </trkpt>
      <trkpt lat="49.90558" lon="2.40678">
        <ele>58.1</ele>
        <time>2022-09-23T14:09:30Z</time>
      </trkpt>
      <trkpt lat="49.90558" lon="2.40678">
        <ele>58.1</ele>
        <time>2022-09-23T14:09:31Z</time>
      </trkpt>
      <trkpt lat="49.90558" lon="2.40678">
        <ele>58.1</ele>
        <time>2022-09-23T14:09:32Z</time>
      </trkpt>
      <trkpt lat="49.90558" lon="2.40678">
        <ele>58.1</ele>
        <time>2022-09-23T14:09:33Z</time>
      </trkpt>
      <trkpt lat="49.90558" lon="2.40678">
        <ele>58.1</ele>
        <time>2022-09-23T14:09:34Z</time>
      </trkpt>
      <trkpt lat="49.90558" lon="2.40678">
        <ele>58.1</ele>
        <time>2022-09-23T14:09:35Z</time>
      </trkpt>
      <trkpt lat="49.90558" lon="2.40678">
        <ele>58.1</ele>
        <time>2022-09-23T14:09:36Z</time>
      </trkpt>
      <trkpt lat="49.90558" lon="2.40678">
        <ele>58.1</ele>
        <time>2022-09-23T14:09:37Z</time>
      </trkpt>
      <trkpt lat="49.90558" lon="2.40678">
        <ele>58.1</ele>
        <time>2022-09-23T14:09:38Z</time>
      </trkpt>
      <trkpt lat="49.90558" lon="2.40678">
        <ele>58.1</ele>
        <time>2022-09-23T14:09:39Z</time>
      </trkpt>
      <trkpt lat="49.90558" lon="2.40678">
        <ele>58.1</ele>
        <time>2022-09-23T14:09:40Z</time>
      </trkpt>
      <trkpt lat="49.90558" lon="2.40678">
        <ele>58.1</ele>
        <time>2022-09-23T14:09:41Z</time>
      </trkpt>
      <trkpt lat="49.90558" lon="2.40678">
        <ele>58.1</ele>
        <time>2022-09-23T14:09:42Z</time>
      </trkpt>
      <trkpt lat="49.90558" lon="2.40678">
        <ele>58.1</ele>
        <time>2022-09-23T14:09:43Z</time>
      </trkpt>
      <trkpt lat="49.90558" lon="2.40678">
        <ele>58.1</ele>
        <time>2022-09-23T14:09:44Z</time>
      </trkpt>
      <trkpt lat="49.90558" lon="2.40678">
        <ele>58.1</ele>
        <time>2022-09-23T14:09:45Z</time>
      </trkpt>
      <trkpt lat="49.90558" lon="2.40678">
        <ele>58.1</ele>
        <time>2022-09-23T14:09:46Z</time>
      </trkpt>
      <trkpt lat="49.90559" lon="2.40678">
        <ele>58.1</ele>
        <time>2022-09-23T14:09:47Z</time>
      </trkpt>
      <trkpt lat="49.90559" lon="2.40677">
        <ele>58.1</ele>
        <time>2022-09-23T14:09:48Z</time>
      </trkpt>
      <trkpt lat="49.90559" lon="2.40677">
        <ele>58.1</ele>
        <time>2022-09-23T14:09:49Z</time>
      </trkpt>
      <trkpt lat="49.9056" lon="2.40675">
        <ele>58.2</ele>
        <time>2022-09-23T14:09:51Z</time>
      </trkpt>
      <trkpt lat="49.90561" lon="2.40673">
        <ele>58.2</ele>
        <time>2022-09-23T14:09:52Z</time>
      </trkpt>
      <trkpt lat="49.90561" lon="2.40671">
        <ele>58.2</ele>
        <time>2022-09-23T14:09:53Z</time>
      </trkpt>
      <trkpt lat="49.90562" lon="2.40669">
        <ele>58.3</ele>
        <time>2022-09-23T14:09:54Z</time>
      </trkpt>
      <trkpt lat="49.90563" lon="2.40667">
        <ele>58.3</ele>
        <time>2022-09-23T14:09:55Z</time>
      </trkpt>
      <trkpt lat="49.90563" lon="2.40665">
        <ele>58.3</ele>
        <time>2022-09-23T14:09:56Z</time>
      </trkpt>
      <trkpt lat="49.90563" lon="2.40662">
        <ele>58.3</ele>
        <time>2022-09-23T14:09:57Z</time>
      </trkpt>
      <trkpt lat="49.90563" lon="2.4066">
        <ele>58.4</ele>
        <time>2022-09-23T14:09:58Z</time>
      </trkpt>
      <trkpt lat="49.90563" lon="2.40657">
        <ele>58.4</ele>
        <time>2022-09-23T14:10:00Z</time>
      </trkpt>
      <trkpt lat="49.90563" lon="2.40655">
        <ele>58.4</ele>
        <time>2022-09-23T14:10:01Z</time>
      </trkpt>
      <trkpt lat="49.90563" lon="2.40652">
        <ele>58.5</ele>
        <time>2022-09-23T14:10:02Z</time>
      </trkpt>
      <trkpt lat="49.90563" lon="2.4065">
        <ele>58.5</ele>
        <time>2022-09-23T14:10:03Z</time>
      </trkpt>
      <trkpt lat="49.90563" lon="2.40649">
        <ele>58.5</ele>
        <time>2022-09-23T14:10:04Z</time>
      </trkpt>
      <trkpt lat="49.90563" lon="2.40647">
        <ele>58.5</ele>
        <time>2022-09-23T14:10:05Z</time>
      </trkpt>
      <trkpt lat="49.90563" lon="2.40645">
        <ele>58.5</ele>
        <time>2022-09-23T14:10:06Z</time>
      </trkpt>
      <trkpt lat="49.90563" lon="2.40642">
        <ele>58.6</ele>
        <time>2022-09-23T14:10:07Z</time>
      </trkpt>
      <trkpt lat="49.90563" lon="2.40639">
        <ele>58.6</ele>
        <time>2022-09-23T14:10:08Z</time>
      </trkpt>
      <trkpt lat="49.90563" lon="2.40637">
        <ele>58.6</ele>
        <time>2022-09-23T14:10:10Z</time>
      </trkpt>
      <trkpt lat="49.90563" lon="2.40635">
        <ele>58.7</ele>
        <time>2022-09-23T14:10:11Z</time>
      </trkpt>
      <trkpt lat="49.90563" lon="2.40633">
        <ele>58.7</ele>
        <time>2022-09-23T14:10:12Z</time>
      </trkpt>
      <trkpt lat="49.90563" lon="2.4063">
        <ele>58.7</ele>
        <time>2022-09-23T14:10:13Z</time>
      </trkpt>
      <trkpt lat="49.90563" lon="2.40629">
        <ele>58.8</ele>
        <time>2022-09-23T14:10:14Z</time>
      </trkpt>
      <trkpt lat="49.90564" lon="2.40627">
        <ele>58.8</ele>
        <time>2022-09-23T14:10:15Z</time>
      </trkpt>
      <trkpt lat="49.90564" lon="2.40625">
        <ele>58.8</ele>
        <time>2022-09-23T14:10:16Z</time>
      </trkpt>
      <trkpt lat="49.90564" lon="2.40623">
        <ele>58.9</ele>
        <time>2022-09-23T14:10:18Z</time>
      </trkpt>
      <trkpt lat="49.90564" lon="2.40621">
        <ele>58.9</ele>
        <time>2022-09-23T14:10:19Z</time>
      </trkpt>
      <trkpt lat="49.90565" lon="2.40619">
        <ele>58.9</ele>
        <time>2022-09-23T14:10:20Z</time>
      </trkpt>
      <trkpt lat="49.90565" lon="2.40617">
        <ele>59</ele>
        <time>2022-09-23T14:10:21Z</time>
      </trkpt>
      <trkpt lat="49.90565" lon="2.40613">
        <ele>59</ele>
        <time>2022-09-23T14:10:22Z</time>
      </trkpt>
      <trkpt lat="49.90565" lon="2.40612">
        <ele>59.1</ele>
        <time>2022-09-23T14:10:23Z</time>
      </trkpt>
      <trkpt lat="49.90565" lon="2.40611">
        <ele>59.1</ele>
        <time>2022-09-23T14:10:24Z</time>
      </trkpt>
      <trkpt lat="49.90565" lon="2.40608">
        <ele>59.2</ele>
        <time>2022-09-23T14:10:25Z</time>
      </trkpt>
      <trkpt lat="49.90565" lon="2.40606">
        <ele>59.2</ele>
        <time>2022-09-23T14:10:27Z</time>
      </trkpt>
      <trkpt lat="49.90565" lon="2.40605">
        <ele>59.2</ele>
        <time>2022-09-23T14:10:28Z</time>
      </trkpt>
      <trkpt lat="49.90565" lon="2.40603">
        <ele>59.3</ele>
        <time>2022-09-23T14:10:29Z</time>
      </trkpt>
      <trkpt lat="49.90565" lon="2.40601">
        <ele>59.3</ele>
        <time>2022-09-23T14:10:30Z</time>
      </trkpt>
      <trkpt lat="49.90565" lon="2.40599">
        <ele>59.3</ele>
        <time>2022-09-23T14:10:31Z</time>
      </trkpt>
      <trkpt lat="49.90565" lon="2.40596">
        <ele>59.4</ele>
        <time>2022-09-23T14:10:32Z</time>
      </trkpt>
      <trkpt lat="49.90565" lon="2.40596">
        <ele>59.4</ele>
        <time>2022-09-23T14:10:33Z</time>
      </trkpt>
      <trkpt lat="49.90564" lon="2.40594">
        <ele>59.4</ele>
        <time>2022-09-23T14:10:34Z</time>
      </trkpt>
      <trkpt lat="49.90564" lon="2.40593">
        <ele>59.4</ele>
        <time>2022-09-23T14:10:36Z</time>
      </trkpt>
      <trkpt lat="49.90564" lon="2.40591">
        <ele>59.5</ele>
        <time>2022-09-23T14:10:37Z</time>
      </trkpt>
      <trkpt lat="49.90564" lon="2.40589">
        <ele>59.5</ele>
        <time>2022-09-23T14:10:38Z</time>
      </trkpt>
      <trkpt lat="49.90564" lon="2.40587">
        <ele>59.5</ele>
        <time>2022-09-23T14:10:39Z</time>
      </trkpt>
      <trkpt lat="49.90565" lon="2.40586">
        <ele>59.6</ele>
        <time>2022-09-23T14:10:40Z</time>
      </trkpt>
      <trkpt lat="49.90565" lon="2.40585">
        <ele>59.6</ele>
        <time>2022-09-23T14:10:41Z</time>
      </trkpt>
      <trkpt lat="49.90565" lon="2.40583">
        <ele>59.6</ele>
        <time>2022-09-23T14:10:42Z</time>
      </trkpt>
      <trkpt lat="49.90565" lon="2.40581">
        <ele>59.6</ele>
        <time>2022-09-23T14:10:44Z</time>
      </trkpt>
      <trkpt lat="49.90565" lon="2.4058">
        <ele>59.6</ele>
        <time>2022-09-23T14:10:45Z</time>
      </trkpt>
      <trkpt lat="49.90565" lon="2.40576">
        <ele>59.7</ele>
        <time>2022-09-23T14:10:46Z</time>
      </trkpt>
      <trkpt lat="49.90565" lon="2.40574">
        <ele>59.7</ele>
        <time>2022-09-23T14:10:48Z</time>
      </trkpt>
      <trkpt lat="49.90565" lon="2.40573">
        <ele>59.7</ele>
        <time>2022-09-23T14:10:49Z</time>
      </trkpt>
      <trkpt lat="49.90565" lon="2.40571">
        <ele>59.7</ele>
        <time>2022-09-23T14:10:50Z</time>
      </trkpt>
      <trkpt lat="49.90566" lon="2.40569">
        <ele>59.7</ele>
        <time>2022-09-23T14:10:51Z</time>
      </trkpt>
      <trkpt lat="49.90566" lon="2.40567">
        <ele>59.7</ele>
        <time>2022-09-23T14:10:52Z</time>
      </trkpt>
      <trkpt lat="49.90566" lon="2.40566">
        <ele>59.8</ele>
        <time>2022-09-23T14:10:53Z</time>
      </trkpt>
      <trkpt lat="49.90566" lon="2.40564">
        <ele>59.8</ele>
        <time>2022-09-23T14:10:54Z</time>
      </trkpt>
      <trkpt lat="49.90566" lon="2.40562">
        <ele>59.8</ele>
        <time>2022-09-23T14:10:55Z</time>
      </trkpt>
      <trkpt lat="49.90566" lon="2.4056">
        <ele>59.8</ele>
        <time>2022-09-23T14:10:56Z</time>
      </trkpt>
      <trkpt lat="49.90567" lon="2.40558">
        <ele>59.8</ele>
        <time>2022-09-23T14:10:58Z</time>
      </trkpt>
      <trkpt lat="49.90567" lon="2.40556">
        <ele>59.8</ele>
        <time>2022-09-23T14:10:59Z</time>
      </trkpt>
      <trkpt lat="49.90567" lon="2.40554">
        <ele>59.8</ele>
        <time>2022-09-23T14:11:00Z</time>
      </trkpt>
      <trkpt lat="49.90567" lon="2.40553">
        <ele>59.8</ele>
        <time>2022-09-23T14:11:01Z</time>
      </trkpt>
      <trkpt lat="49.90567" lon="2.4055">
        <ele>59.7</ele>
        <time>2022-09-23T14:11:02Z</time>
      </trkpt>
      <trkpt lat="49.90567" lon="2.40549">
        <ele>59.7</ele>
        <time>2022-09-23T14:11:03Z</time>
      </trkpt>
      <trkpt lat="49.90567" lon="2.40547">
        <ele>59.7</ele>
        <time>2022-09-23T14:11:04Z</time>
      </trkpt>
      <trkpt lat="49.90567" lon="2.40544">
        <ele>59.7</ele>
        <time>2022-09-23T14:11:05Z</time>
      </trkpt>
      <trkpt lat="49.90568" lon="2.40543">
        <ele>59.7</ele>
        <time>2022-09-23T14:11:07Z</time>
      </trkpt>
      <trkpt lat="49.90568" lon="2.40541">
        <ele>59.7</ele>
        <time>2022-09-23T14:11:08Z</time>
      </trkpt>
      <trkpt lat="49.90568" lon="2.4054">
        <ele>59.7</ele>
        <time>2022-09-23T14:11:09Z</time>
      </trkpt>
      <trkpt lat="49.90568" lon="2.40538">
        <ele>59.6</ele>
        <time>2022-09-23T14:11:10Z</time>
      </trkpt>
      <trkpt lat="49.90568" lon="2.40536">
        <ele>59.6</ele>
        <time>2022-09-23T14:11:11Z</time>
      </trkpt>
      <trkpt lat="49.90568" lon="2.40534">
        <ele>59.6</ele>
        <time>2022-09-23T14:11:12Z</time>
      </trkpt>
      <trkpt lat="49.90568" lon="2.40532">
        <ele>59.6</ele>
        <time>2022-09-23T14:11:13Z</time>
      </trkpt>
      <trkpt lat="49.90568" lon="2.40531">
        <ele>59.6</ele>
        <time>2022-09-23T14:11:15Z</time>
      </trkpt>
      <trkpt lat="49.90568" lon="2.40529">
        <ele>59.6</ele>
        <time>2022-09-23T14:11:16Z</time>
      </trkpt>
      <trkpt lat="49.90568" lon="2.40527">
        <ele>59.6</ele>
        <time>2022-09-23T14:11:17Z</time>
      </trkpt>
      <trkpt lat="49.90569" lon="2.40526">
        <ele>59.6</ele>
        <time>2022-09-23T14:11:18Z</time>
      </trkpt>
      <trkpt lat="49.90569" lon="2.40524">
        <ele>59.6</ele>
        <time>2022-09-23T14:11:19Z</time>
      </trkpt>
      <trkpt lat="49.90569" lon="2.40522">
        <ele>59.6</ele>
        <time>2022-09-23T14:11:20Z</time>
      </trkpt>
      <trkpt lat="49.90569" lon="2.40521">
        <ele>59.6</ele>
        <time>2022-09-23T14:11:21Z</time>
      </trkpt>
      <trkpt lat="49.90569" lon="2.40518">
        <ele>59.6</ele>
        <time>2022-09-23T14:11:23Z</time>
      </trkpt>
      <trkpt lat="49.90569" lon="2.40516">
        <ele>59.6</ele>
        <time>2022-09-23T14:11:24Z</time>
      </trkpt>
      <trkpt lat="49.90569" lon="2.40515">
        <ele>59.6</ele>
        <time>2022-09-23T14:11:25Z</time>
      </trkpt>
      <trkpt lat="49.90569" lon="2.40513">
        <ele>59.6</ele>
        <time>2022-09-23T14:11:26Z</time>
      </trkpt>
      <trkpt lat="49.90569" lon="2.40512">
        <ele>59.6</ele>
        <time>2022-09-23T14:11:27Z</time>
      </trkpt>
      <trkpt lat="49.90569" lon="2.4051">
        <ele>59.6</ele>
        <time>2022-09-23T14:11:28Z</time>
      </trkpt>
      <trkpt lat="49.90569" lon="2.40508">
        <ele>59.6</ele>
        <time>2022-09-23T14:11:29Z</time>
      </trkpt>
      <trkpt lat="49.90569" lon="2.40507">
        <ele>59.6</ele>
        <time>2022-09-23T14:11:30Z</time>
      </trkpt>
      <trkpt lat="49.9057" lon="2.40505">
        <ele>59.7</ele>
        <time>2022-09-23T14:11:32Z</time>
      </trkpt>
      <trkpt lat="49.9057" lon="2.40503">
        <ele>59.7</ele>
        <time>2022-09-23T14:11:33Z</time>
      </trkpt>
      <trkpt lat="49.9057" lon="2.40501">
        <ele>59.7</ele>
        <time>2022-09-23T14:11:34Z</time>
      </trkpt>
      <trkpt lat="49.9057" lon="2.405">
        <ele>59.7</ele>
        <time>2022-09-23T14:11:35Z</time>
      </trkpt>
      <trkpt lat="49.90571" lon="2.40498">
        <ele>59.7</ele>
        <time>2022-09-23T14:11:36Z</time>
      </trkpt>
      <trkpt lat="49.9057" lon="2.40496">
        <ele>59.7</ele>
        <time>2022-09-23T14:11:37Z</time>
      </trkpt>
      <trkpt lat="49.9057" lon="2.40495">
        <ele>59.8</ele>
        <time>2022-09-23T14:11:39Z</time>
      </trkpt>
      <trkpt lat="49.9057" lon="2.40493">
        <ele>59.8</ele>
        <time>2022-09-23T14:11:40Z</time>
      </trkpt>
      <trkpt lat="49.9057" lon="2.40491">
        <ele>59.8</ele>
        <time>2022-09-23T14:11:41Z</time>
      </trkpt>
      <trkpt lat="49.9057" lon="2.40489">
        <ele>59.8</ele>
        <time>2022-09-23T14:11:42Z</time>
      </trkpt>
      <trkpt lat="49.9057" lon="2.40488">
        <ele>59.8</ele>
        <time>2022-09-23T14:11:43Z</time>
      </trkpt>
      <trkpt lat="49.9057" lon="2.40486">
        <ele>59.9</ele>
        <time>2022-09-23T14:11:44Z</time>
      </trkpt>
      <trkpt lat="49.9057" lon="2.40484">
        <ele>59.9</ele>
        <time>2022-09-23T14:11:45Z</time>
      </trkpt>
      <trkpt lat="49.9057" lon="2.40483">
        <ele>59.9</ele>
        <time>2022-09-23T14:11:46Z</time>
      </trkpt>
      <trkpt lat="49.9057" lon="2.4048">
        <ele>59.9</ele>
        <time>2022-09-23T14:11:48Z</time>
      </trkpt>
      <trkpt lat="49.9057" lon="2.40478">
        <ele>59.9</ele>
        <time>2022-09-23T14:11:49Z</time>
      </trkpt>
      <trkpt lat="49.9057" lon="2.40477">
        <ele>60</ele>
        <time>2022-09-23T14:11:50Z</time>
      </trkpt>
      <trkpt lat="49.9057" lon="2.40475">
        <ele>60</ele>
        <time>2022-09-23T14:11:51Z</time>
      </trkpt>
      <trkpt lat="49.9057" lon="2.40472">
        <ele>60</ele>
        <time>2022-09-23T14:11:52Z</time>
      </trkpt>
      <trkpt lat="49.9057" lon="2.40471">
        <ele>60</ele>
        <time>2022-09-23T14:11:53Z</time>
      </trkpt>
      <trkpt lat="49.9057" lon="2.40469">
        <ele>60</ele>
        <time>2022-09-23T14:11:54Z</time>
      </trkpt>
      <trkpt lat="49.9057" lon="2.40466">
        <ele>60</ele>
        <time>2022-09-23T14:11:55Z</time>
      </trkpt>
      <trkpt lat="49.9057" lon="2.40464">
        <ele>60</ele>
        <time>2022-09-23T14:11:57Z</time>
      </trkpt>
      <trkpt lat="49.9057" lon="2.40463">
        <ele>60.1</ele>
        <time>2022-09-23T14:11:58Z</time>
      </trkpt>
      <trkpt lat="49.9057" lon="2.40461">
        <ele>60.1</ele>
        <time>2022-09-23T14:11:59Z</time>
      </trkpt>
      <trkpt lat="49.90571" lon="2.4046">
        <ele>60.1</ele>
        <time>2022-09-23T14:12:00Z</time>
      </trkpt>
      <trkpt lat="49.90571" lon="2.40459">
        <ele>60.1</ele>
        <time>2022-09-23T14:12:01Z</time>
      </trkpt>
      <trkpt lat="49.90572" lon="2.40457">
        <ele>60</ele>
        <time>2022-09-23T14:12:02Z</time>
      </trkpt>
      <trkpt lat="49.90572" lon="2.40455">
        <ele>60</ele>
        <time>2022-09-23T14:12:03Z</time>
      </trkpt>
      <trkpt lat="49.90572" lon="2.40453">
        <ele>60</ele>
        <time>2022-09-23T14:12:04Z</time>
      </trkpt>
      <trkpt lat="49.90573" lon="2.40452">
        <ele>60</ele>
        <time>2022-09-23T14:12:06Z</time>
      </trkpt>
      <trkpt lat="49.90573" lon="2.4045">
        <ele>60</ele>
        <time>2022-09-23T14:12:07Z</time>
      </trkpt>
      <trkpt lat="49.90573" lon="2.40447">
        <ele>60</ele>
        <time>2022-09-23T14:12:08Z</time>
      </trkpt>
      <trkpt lat="49.90573" lon="2.40446">
        <ele>60</ele>
        <time>2022-09-23T14:12:09Z</time>
      </trkpt>
      <trkpt lat="49.90573" lon="2.40444">
        <ele>60</ele>
        <time>2022-09-23T14:12:10Z</time>
      </trkpt>
      <trkpt lat="49.90573" lon="2.40441">
        <ele>59.9</ele>
        <time>2022-09-23T14:12:11Z</time>
      </trkpt>
      <trkpt lat="49.90573" lon="2.4044">
        <ele>59.9</ele>
        <time>2022-09-23T14:12:12Z</time>
      </trkpt>
      <trkpt lat="49.90574" lon="2.40439">
        <ele>59.9</ele>
        <time>2022-09-23T14:12:13Z</time>
      </trkpt>
      <trkpt lat="49.90574" lon="2.40437">
        <ele>59.9</ele>
        <time>2022-09-23T14:12:14Z</time>
      </trkpt>
      <trkpt lat="49.90574" lon="2.40435">
        <ele>59.9</ele>
        <time>2022-09-23T14:12:15Z</time>
      </trkpt>
      <trkpt lat="49.90574" lon="2.40433">
        <ele>59.9</ele>
        <time>2022-09-23T14:12:17Z</time>
      </trkpt>
      <trkpt lat="49.90573" lon="2.40431">
        <ele>59.8</ele>
        <time>2022-09-23T14:12:18Z</time>
      </trkpt>
      <trkpt lat="49.90573" lon="2.4043">
        <ele>59.8</ele>
        <time>2022-09-23T14:12:19Z</time>
      </trkpt>
      <trkpt lat="49.90573" lon="2.40428">
        <ele>59.8</ele>
        <time>2022-09-23T14:12:20Z</time>
      </trkpt>
      <trkpt lat="49.90572" lon="2.40425">
        <ele>59.8</ele>
        <time>2022-09-23T14:12:21Z</time>
      </trkpt>
      <trkpt lat="49.90572" lon="2.40423">
        <ele>59.8</ele>
        <time>2022-09-23T14:12:22Z</time>
      </trkpt>
      <trkpt lat="49.90572" lon="2.40422">
        <ele>59.8</ele>
        <time>2022-09-23T14:12:23Z</time>
      </trkpt>
      <trkpt lat="49.90572" lon="2.4042">
        <ele>59.8</ele>
        <time>2022-09-23T14:12:24Z</time>
      </trkpt>
      <trkpt lat="49.90572" lon="2.40418">
        <ele>59.8</ele>
        <time>2022-09-23T14:12:25Z</time>
      </trkpt>
      <trkpt lat="49.90572" lon="2.40416">
        <ele>59.8</ele>
        <time>2022-09-23T14:12:27Z</time>
      </trkpt>
      <trkpt lat="49.90572" lon="2.40413">
        <ele>59.8</ele>
        <time>2022-09-23T14:12:28Z</time>
      </trkpt>
      <trkpt lat="49.90572" lon="2.40412">
        <ele>59.8</ele>
        <time>2022-09-23T14:12:29Z</time>
      </trkpt>
      <trkpt lat="49.90573" lon="2.4041">
        <ele>59.8</ele>
        <time>2022-09-23T14:12:30Z</time>
      </trkpt>
      <trkpt lat="49.90573" lon="2.40409">
        <ele>59.8</ele>
        <time>2022-09-23T14:12:31Z</time>
      </trkpt>
      <trkpt lat="49.90573" lon="2.40407">
        <ele>59.8</ele>
        <time>2022-09-23T14:12:32Z</time>
      </trkpt>
      <trkpt lat="49.90572" lon="2.40405">
        <ele>59.8</ele>
        <time>2022-09-23T14:12:33Z</time>
      </trkpt>
      <trkpt lat="49.90572" lon="2.40404">
        <ele>59.8</ele>
        <time>2022-09-23T14:12:34Z</time>
      </trkpt>
      <trkpt lat="49.90573" lon="2.40402">
        <ele>59.8</ele>
        <time>2022-09-23T14:12:35Z</time>
      </trkpt>
      <trkpt lat="49.90574" lon="2.404">
        <ele>59.8</ele>
        <time>2022-09-23T14:12:37Z</time>
      </trkpt>
      <trkpt lat="49.90574" lon="2.40397">
        <ele>59.8</ele>
        <time>2022-09-23T14:12:38Z</time>
      </trkpt>
      <trkpt lat="49.90575" lon="2.40395">
        <ele>59.8</ele>
        <time>2022-09-23T14:12:39Z</time>
      </trkpt>
      <trkpt lat="49.90575" lon="2.40394">
        <ele>59.8</ele>
        <time>2022-09-23T14:12:40Z</time>
      </trkpt>
      <trkpt lat="49.90575" lon="2.40392">
        <ele>59.8</ele>
        <time>2022-09-23T14:12:41Z</time>
      </trkpt>
      <trkpt lat="49.90575" lon="2.4039">
        <ele>59.8</ele>
        <time>2022-09-23T14:12:43Z</time>
      </trkpt>
      <trkpt lat="49.90576" lon="2.40387">
        <ele>59.8</ele>
        <time>2022-09-23T14:12:44Z</time>
      </trkpt>
      <trkpt lat="49.90576" lon="2.40384">
        <ele>59.8</ele>
        <time>2022-09-23T14:12:45Z</time>
      </trkpt>
      <trkpt lat="49.90576" lon="2.40383">
        <ele>59.8</ele>
        <time>2022-09-23T14:12:46Z</time>
      </trkpt>
      <trkpt lat="49.90576" lon="2.40382">
        <ele>59.8</ele>
        <time>2022-09-23T14:12:47Z</time>
      </trkpt>
      <trkpt lat="49.90576" lon="2.40378">
        <ele>59.8</ele>
        <time>2022-09-23T14:12:48Z</time>
      </trkpt>
      <trkpt lat="49.90576" lon="2.40377">
        <ele>59.8</ele>
        <time>2022-09-23T14:12:49Z</time>
      </trkpt>
      <trkpt lat="49.90576" lon="2.40375">
        <ele>59.8</ele>
        <time>2022-09-23T14:12:50Z</time>
      </trkpt>
      <trkpt lat="49.90576" lon="2.40374">
        <ele>59.8</ele>
        <time>2022-09-23T14:12:51Z</time>
      </trkpt>
      <trkpt lat="49.90576" lon="2.40372">
        <ele>59.8</ele>
        <time>2022-09-23T14:12:52Z</time>
      </trkpt>
      <trkpt lat="49.90576" lon="2.40371">
        <ele>59.8</ele>
        <time>2022-09-23T14:12:53Z</time>
      </trkpt>
      <trkpt lat="49.90576" lon="2.40369">
        <ele>59.8</ele>
        <time>2022-09-23T14:12:54Z</time>
      </trkpt>
      <trkpt lat="49.90577" lon="2.40367">
        <ele>59.8</ele>
        <time>2022-09-23T14:12:56Z</time>
      </trkpt>
      <trkpt lat="49.90577" lon="2.40365">
        <ele>59.8</ele>
        <time>2022-09-23T14:12:57Z</time>
      </trkpt>
      <trkpt lat="49.90577" lon="2.40362">
        <ele>59.9</ele>
        <time>2022-09-23T14:12:58Z</time>
      </trkpt>
      <trkpt lat="49.90577" lon="2.40361">
        <ele>59.9</ele>
        <time>2022-09-23T14:12:59Z</time>
      </trkpt>
      <trkpt lat="49.90577" lon="2.4036">
        <ele>59.9</ele>
        <time>2022-09-23T14:13:00Z</time>
      </trkpt>
      <trkpt lat="49.90577" lon="2.40357">
        <ele>59.9</ele>
        <time>2022-09-23T14:13:01Z</time>
      </trkpt>
      <trkpt lat="49.90577" lon="2.40355">
        <ele>59.9</ele>
        <time>2022-09-23T14:13:02Z</time>
      </trkpt>
      <trkpt lat="49.90577" lon="2.40354">
        <ele>59.9</ele>
        <time>2022-09-23T14:13:03Z</time>
      </trkpt>
      <trkpt lat="49.90577" lon="2.40353">
        <ele>59.9</ele>
        <time>2022-09-23T14:13:04Z</time>
      </trkpt>
      <trkpt lat="49.90577" lon="2.40352">
        <ele>59.9</ele>
        <time>2022-09-23T14:13:05Z</time>
      </trkpt>
      <trkpt lat="49.90577" lon="2.4035">
        <ele>59.9</ele>
        <time>2022-09-23T14:13:07Z</time>
      </trkpt>
      <trkpt lat="49.90577" lon="2.40349">
        <ele>59.9</ele>
        <time>2022-09-23T14:13:08Z</time>
      </trkpt>
      <trkpt lat="49.90577" lon="2.40345">
        <ele>59.9</ele>
        <time>2022-09-23T14:13:09Z</time>
      </trkpt>
      <trkpt lat="49.90577" lon="2.40344">
        <ele>59.9</ele>
        <time>2022-09-23T14:13:10Z</time>
      </trkpt>
      <trkpt lat="49.90577" lon="2.40343">
        <ele>59.9</ele>
        <time>2022-09-23T14:13:11Z</time>
      </trkpt>
      <trkpt lat="49.90577" lon="2.40341">
        <ele>59.9</ele>
        <time>2022-09-23T14:13:12Z</time>
      </trkpt>
      <trkpt lat="49.90577" lon="2.40338">
        <ele>59.9</ele>
        <time>2022-09-23T14:13:13Z</time>
      </trkpt>
      <trkpt lat="49.90577" lon="2.40337">
        <ele>59.9</ele>
        <time>2022-09-23T14:13:14Z</time>
      </trkpt>
      <trkpt lat="49.90578" lon="2.40335">
        <ele>59.9</ele>
        <time>2022-09-23T14:13:15Z</time>
      </trkpt>
      <trkpt lat="49.90578" lon="2.40334">
        <ele>59.9</ele>
        <time>2022-09-23T14:13:16Z</time>
      </trkpt>
      <trkpt lat="49.90578" lon="2.40331">
        <ele>59.9</ele>
        <time>2022-09-23T14:13:17Z</time>
      </trkpt>
      <trkpt lat="49.90578" lon="2.40329">
        <ele>59.9</ele>
        <time>2022-09-23T14:13:19Z</time>
      </trkpt>
      <trkpt lat="49.90578" lon="2.40328">
        <ele>59.9</ele>
        <time>2022-09-23T14:13:20Z</time>
      </trkpt>
      <trkpt lat="49.90579" lon="2.40325">
        <ele>59.9</ele>
        <time>2022-09-23T14:13:21Z</time>
      </trkpt>
      <trkpt lat="49.90579" lon="2.40324">
        <ele>59.9</ele>
        <time>2022-09-23T14:13:22Z</time>
      </trkpt>
      <trkpt lat="49.90579" lon="2.40322">
        <ele>59.9</ele>
        <time>2022-09-23T14:13:23Z</time>
      </trkpt>
      <trkpt lat="49.90579" lon="2.40321">
        <ele>59.9</ele>
        <time>2022-09-23T14:13:24Z</time>
      </trkpt>
      <trkpt lat="49.90579" lon="2.40319">
        <ele>59.9</ele>
        <time>2022-09-23T14:13:25Z</time>
      </trkpt>
      <trkpt lat="49.90579" lon="2.40317">
        <ele>59.9</ele>
        <time>2022-09-23T14:13:26Z</time>
      </trkpt>
      <trkpt lat="49.90579" lon="2.40316">
        <ele>59.9</ele>
        <time>2022-09-23T14:13:27Z</time>
      </trkpt>
      <trkpt lat="49.90579" lon="2.40314">
        <ele>59.9</ele>
        <time>2022-09-23T14:13:28Z</time>
      </trkpt>
      <trkpt lat="49.90579" lon="2.40313">
        <ele>59.9</ele>
        <time>2022-09-23T14:13:30Z</time>
      </trkpt>
      <trkpt lat="49.90579" lon="2.40311">
        <ele>59.9</ele>
        <time>2022-09-23T14:13:31Z</time>
      </trkpt>
      <trkpt lat="49.90579" lon="2.40309">
        <ele>59.9</ele>
        <time>2022-09-23T14:13:32Z</time>
      </trkpt>
      <trkpt lat="49.90579" lon="2.40307">
        <ele>59.9</ele>
        <time>2022-09-23T14:13:33Z</time>
      </trkpt>
      <trkpt lat="49.90579" lon="2.40305">
        <ele>59.9</ele>
        <time>2022-09-23T14:13:34Z</time>
      </trkpt>
      <trkpt lat="49.90579" lon="2.40303">
        <ele>60</ele>
        <time>2022-09-23T14:13:35Z</time>
      </trkpt>
      <trkpt lat="49.90579" lon="2.40301">
        <ele>60</ele>
        <time>2022-09-23T14:13:37Z</time>
      </trkpt>
      <trkpt lat="49.90579" lon="2.40299">
        <ele>60</ele>
        <time>2022-09-23T14:13:38Z</time>
      </trkpt>
      <trkpt lat="49.90579" lon="2.40297">
        <ele>60</ele>
        <time>2022-09-23T14:13:39Z</time>
      </trkpt>
      <trkpt lat="49.9058" lon="2.40295">
        <ele>60</ele>
        <time>2022-09-23T14:13:40Z</time>
      </trkpt>
      <trkpt lat="49.9058" lon="2.40293">
        <ele>60.1</ele>
        <time>2022-09-23T14:13:41Z</time>
      </trkpt>
      <trkpt lat="49.9058" lon="2.40291">
        <ele>60.1</ele>
        <time>2022-09-23T14:13:42Z</time>
      </trkpt>
      <trkpt lat="49.9058" lon="2.40289">
        <ele>60.1</ele>
        <time>2022-09-23T14:13:43Z</time>
      </trkpt>
      <trkpt lat="49.9058" lon="2.40287">
        <ele>60.2</ele>
        <time>2022-09-23T14:13:44Z</time>
      </trkpt>
      <trkpt lat="49.9058" lon="2.40286">
        <ele>60.2</ele>
        <time>2022-09-23T14:13:45Z</time>
      </trkpt>
      <trkpt lat="49.9058" lon="2.40284">
        <ele>60.2</ele>
        <time>2022-09-23T14:13:46Z</time>
      </trkpt>
      <trkpt lat="49.90579" lon="2.40282">
        <ele>60.2</ele>
        <time>2022-09-23T14:13:48Z</time>
      </trkpt>
      <trkpt lat="49.90579" lon="2.40279">
        <ele>60.3</ele>
        <time>2022-09-23T14:13:49Z</time>
      </trkpt>
      <trkpt lat="49.9058" lon="2.40278">
        <ele>60.3</ele>
        <time>2022-09-23T14:13:50Z</time>
      </trkpt>
      <trkpt lat="49.9058" lon="2.40276">
        <ele>60.3</ele>
        <time>2022-09-23T14:13:51Z</time>
      </trkpt>
      <trkpt lat="49.9058" lon="2.40275">
        <ele>60.3</ele>
        <time>2022-09-23T14:13:52Z</time>
      </trkpt>
      <trkpt lat="49.9058" lon="2.40272">
        <ele>60.3</ele>
        <time>2022-09-23T14:13:54Z</time>
      </trkpt>
      <trkpt lat="49.9058" lon="2.4027">
        <ele>60.4</ele>
        <time>2022-09-23T14:13:55Z</time>
      </trkpt>
      <trkpt lat="49.90581" lon="2.40268">
        <ele>60.4</ele>
        <time>2022-09-23T14:13:56Z</time>
      </trkpt>
      <trkpt lat="49.90581" lon="2.40266">
        <ele>60.4</ele>
        <time>2022-09-23T14:13:57Z</time>
      </trkpt>
      <trkpt lat="49.90581" lon="2.40265">
        <ele>60.4</ele>
        <time>2022-09-23T14:13:58Z</time>
      </trkpt>
      <trkpt lat="49.90581" lon="2.40261">
        <ele>60.4</ele>
        <time>2022-09-23T14:13:59Z</time>
      </trkpt>
      <trkpt lat="49.90581" lon="2.4026">
        <ele>60.4</ele>
        <time>2022-09-23T14:14:00Z</time>
      </trkpt>
      <trkpt lat="49.90581" lon="2.40259">
        <ele>60.5</ele>
        <time>2022-09-23T14:14:01Z</time>
      </trkpt>
      <trkpt lat="49.90582" lon="2.40256">
        <ele>60.5</ele>
        <time>2022-09-23T14:14:02Z</time>
      </trkpt>
      <trkpt lat="49.90582" lon="2.40254">
        <ele>60.5</ele>
        <time>2022-09-23T14:14:03Z</time>
      </trkpt>
      <trkpt lat="49.90582" lon="2.40253">
        <ele>60.5</ele>
        <time>2022-09-23T14:14:05Z</time>
      </trkpt>
      <trkpt lat="49.90582" lon="2.40251">
        <ele>60.5</ele>
        <time>2022-09-23T14:14:06Z</time>
      </trkpt>
      <trkpt lat="49.90582" lon="2.4025">
        <ele>60.5</ele>
        <time>2022-09-23T14:14:07Z</time>
      </trkpt>
      <trkpt lat="49.90582" lon="2.40248">
        <ele>60.5</ele>
        <time>2022-09-23T14:14:08Z</time>
      </trkpt>
      <trkpt lat="49.90583" lon="2.40246">
        <ele>60.5</ele>
        <time>2022-09-23T14:14:09Z</time>
      </trkpt>
      <trkpt lat="49.90583" lon="2.40244">
        <ele>60.5</ele>
        <time>2022-09-23T14:14:10Z</time>
      </trkpt>
      <trkpt lat="49.90583" lon="2.4024">
        <ele>60.5</ele>
        <time>2022-09-23T14:14:11Z</time>
      </trkpt>
      <trkpt lat="49.90583" lon="2.40239">
        <ele>60.6</ele>
        <time>2022-09-23T14:14:12Z</time>
      </trkpt>
      <trkpt lat="49.90583" lon="2.40237">
        <ele>60.6</ele>
        <time>2022-09-23T14:14:13Z</time>
      </trkpt>
      <trkpt lat="49.90583" lon="2.40235">
        <ele>60.6</ele>
        <time>2022-09-23T14:14:15Z</time>
      </trkpt>
      <trkpt lat="49.90583" lon="2.40233">
        <ele>60.6</ele>
        <time>2022-09-23T14:14:16Z</time>
      </trkpt>
      <trkpt lat="49.90583" lon="2.40231">
        <ele>60.6</ele>
        <time>2022-09-23T14:14:17Z</time>
      </trkpt>
      <trkpt lat="49.90583" lon="2.4023">
        <ele>60.6</ele>
        <time>2022-09-23T14:14:18Z</time>
      </trkpt>
      <trkpt lat="49.90584" lon="2.40228">
        <ele>60.6</ele>
        <time>2022-09-23T14:14:19Z</time>
      </trkpt>
      <trkpt lat="49.90584" lon="2.40227">
        <ele>60.6</ele>
        <time>2022-09-23T14:14:20Z</time>
      </trkpt>
      <trkpt lat="49.90584" lon="2.40224">
        <ele>60.6</ele>
        <time>2022-09-23T14:14:21Z</time>
      </trkpt>
      <trkpt lat="49.90584" lon="2.40222">
        <ele>60.6</ele>
        <time>2022-09-23T14:14:22Z</time>
      </trkpt>
      <trkpt lat="49.90584" lon="2.40221">
        <ele>60.7</ele>
        <time>2022-09-23T14:14:23Z</time>
      </trkpt>
      <trkpt lat="49.90585" lon="2.40218">
        <ele>60.7</ele>
        <time>2022-09-23T14:14:24Z</time>
      </trkpt>
      <trkpt lat="49.90585" lon="2.40217">
        <ele>60.7</ele>
        <time>2022-09-23T14:14:25Z</time>
      </trkpt>
      <trkpt lat="49.90585" lon="2.40216">
        <ele>60.7</ele>
        <time>2022-09-23T14:14:26Z</time>
      </trkpt>
      <trkpt lat="49.90586" lon="2.40214">
        <ele>60.7</ele>
        <time>2022-09-23T14:14:27Z</time>
      </trkpt>
      <trkpt lat="49.90586" lon="2.40211">
        <ele>60.7</ele>
        <time>2022-09-23T14:14:29Z</time>
      </trkpt>
      <trkpt lat="49.90585" lon="2.40209">
        <ele>60.7</ele>
        <time>2022-09-23T14:14:30Z</time>
      </trkpt>
      <trkpt lat="49.90585" lon="2.40208">
        <ele>60.7</ele>
        <time>2022-09-23T14:14:31Z</time>
      </trkpt>
      <trkpt lat="49.90585" lon="2.40206">
        <ele>60.7</ele>
        <time>2022-09-23T14:14:32Z</time>
      </trkpt>
      <trkpt lat="49.90585" lon="2.40205">
        <ele>60.7</ele>
        <time>2022-09-23T14:14:33Z</time>
      </trkpt>
      <trkpt lat="49.90585" lon="2.40203">
        <ele>60.7</ele>
        <time>2022-09-23T14:14:34Z</time>
      </trkpt>
      <trkpt lat="49.90586" lon="2.40201">
        <ele>60.7</ele>
        <time>2022-09-23T14:14:35Z</time>
      </trkpt>
      <trkpt lat="49.90586" lon="2.40198">
        <ele>60.7</ele>
        <time>2022-09-23T14:14:36Z</time>
      </trkpt>
      <trkpt lat="49.90586" lon="2.40197">
        <ele>60.7</ele>
        <time>2022-09-23T14:14:37Z</time>
      </trkpt>
      <trkpt lat="49.90586" lon="2.40195">
        <ele>60.7</ele>
        <time>2022-09-23T14:14:38Z</time>
      </trkpt>
      <trkpt lat="49.90586" lon="2.40192">
        <ele>60.6</ele>
        <time>2022-09-23T14:14:39Z</time>
      </trkpt>
      <trkpt lat="49.90586" lon="2.40191">
        <ele>60.6</ele>
        <time>2022-09-23T14:14:40Z</time>
      </trkpt>
      <trkpt lat="49.90586" lon="2.4019">
        <ele>60.6</ele>
        <time>2022-09-23T14:14:41Z</time>
      </trkpt>
      <trkpt lat="49.90586" lon="2.40188">
        <ele>60.6</ele>
        <time>2022-09-23T14:14:43Z</time>
      </trkpt>
      <trkpt lat="49.90585" lon="2.40185">
        <ele>60.6</ele>
        <time>2022-09-23T14:14:44Z</time>
      </trkpt>
      <trkpt lat="49.90585" lon="2.40184">
        <ele>60.5</ele>
        <time>2022-09-23T14:14:45Z</time>
      </trkpt>
      <trkpt lat="49.90585" lon="2.40183">
        <ele>60.5</ele>
        <time>2022-09-23T14:14:46Z</time>
      </trkpt>
      <trkpt lat="49.90585" lon="2.40182">
        <ele>60.5</ele>
        <time>2022-09-23T14:14:47Z</time>
      </trkpt>
      <trkpt lat="49.90584" lon="2.4018">
        <ele>60.5</ele>
        <time>2022-09-23T14:14:48Z</time>
      </trkpt>
      <trkpt lat="49.90584" lon="2.40178">
        <ele>60.5</ele>
        <time>2022-09-23T14:14:49Z</time>
      </trkpt>
      <trkpt lat="49.90584" lon="2.40177">
        <ele>60.4</ele>
        <time>2022-09-23T14:14:50Z</time>
      </trkpt>
      <trkpt lat="49.90584" lon="2.40175">
        <ele>60.4</ele>
        <time>2022-09-23T14:14:51Z</time>
      </trkpt>
      <trkpt lat="49.90585" lon="2.40173">
        <ele>60.4</ele>
        <time>2022-09-23T14:14:52Z</time>
      </trkpt>
      <trkpt lat="49.90585" lon="2.40171">
        <ele>60.4</ele>
        <time>2022-09-23T14:14:53Z</time>
      </trkpt>
      <trkpt lat="49.90585" lon="2.40168">
        <ele>60.3</ele>
        <time>2022-09-23T14:14:55Z</time>
      </trkpt>
      <trkpt lat="49.90585" lon="2.40165">
        <ele>60.3</ele>
        <time>2022-09-23T14:14:56Z</time>
      </trkpt>
      <trkpt lat="49.90585" lon="2.40164">
        <ele>60.3</ele>
        <time>2022-09-23T14:14:57Z</time>
      </trkpt>
      <trkpt lat="49.90586" lon="2.40162">
        <ele>60.2</ele>
        <time>2022-09-23T14:14:58Z</time>
      </trkpt>
      <trkpt lat="49.90586" lon="2.40159">
        <ele>60.2</ele>
        <time>2022-09-23T14:14:59Z</time>
      </trkpt>
      <trkpt lat="49.90587" lon="2.40158">
        <ele>60.2</ele>
        <time>2022-09-23T14:15:00Z</time>
      </trkpt>
      <trkpt lat="49.90587" lon="2.40157">
        <ele>60.2</ele>
        <time>2022-09-23T14:15:01Z</time>
      </trkpt>
      <trkpt lat="49.90587" lon="2.40153">
        <ele>60.1</ele>
        <time>2022-09-23T14:15:02Z</time>
      </trkpt>
      <trkpt lat="49.90587" lon="2.40152">
        <ele>60.1</ele>
        <time>2022-09-23T14:15:03Z</time>
      </trkpt>
      <trkpt lat="49.90587" lon="2.40151">
        <ele>60.1</ele>
        <time>2022-09-23T14:15:04Z</time>
      </trkpt>
      <trkpt lat="49.90588" lon="2.40148">
        <ele>60.1</ele>
        <time>2022-09-23T14:15:06Z</time>
      </trkpt>
      <trkpt lat="49.90588" lon="2.40146">
        <ele>60</ele>
        <time>2022-09-23T14:15:07Z</time>
      </trkpt>
      <trkpt lat="49.90588" lon="2.40144">
        <ele>60</ele>
        <time>2022-09-23T14:15:08Z</time>
      </trkpt>
      <trkpt lat="49.90588" lon="2.40142">
        <ele>60</ele>
        <time>2022-09-23T14:15:09Z</time>
      </trkpt>
      <trkpt lat="49.90588" lon="2.4014">
        <ele>60</ele>
        <time>2022-09-23T14:15:10Z</time>
      </trkpt>
      <trkpt lat="49.90588" lon="2.4014">
        <ele>60</ele>
        <time>2022-09-23T14:15:11Z</time>
      </trkpt>
      <trkpt lat="49.90588" lon="2.40138">
        <ele>60</ele>
        <time>2022-09-23T14:15:12Z</time>
      </trkpt>
      <trkpt lat="49.90589" lon="2.40137">
        <ele>60</ele>
        <time>2022-09-23T14:15:13Z</time>
      </trkpt>
      <trkpt lat="49.90589" lon="2.40134">
        <ele>60</ele>
        <time>2022-09-23T14:15:15Z</time>
      </trkpt>
      <trkpt lat="49.90589" lon="2.40133">
        <ele>60</ele>
        <time>2022-09-23T14:15:16Z</time>
      </trkpt>
      <trkpt lat="49.90589" lon="2.40131">
        <ele>60</ele>
        <time>2022-09-23T14:15:17Z</time>
      </trkpt>
      <trkpt lat="49.90589" lon="2.40129">
        <ele>60</ele>
        <time>2022-09-23T14:15:18Z</time>
      </trkpt>
      <trkpt lat="49.90589" lon="2.40126">
        <ele>60</ele>
        <time>2022-09-23T14:15:19Z</time>
      </trkpt>
      <trkpt lat="49.90589" lon="2.40125">
        <ele>60</ele>
        <time>2022-09-23T14:15:20Z</time>
      </trkpt>
      <trkpt lat="49.90589" lon="2.40124">
        <ele>60</ele>
        <time>2022-09-23T14:15:21Z</time>
      </trkpt>
      <trkpt lat="49.90589" lon="2.4012">
        <ele>60</ele>
        <time>2022-09-23T14:15:22Z</time>
      </trkpt>
      <trkpt lat="49.90589" lon="2.40119">
        <ele>60</ele>
        <time>2022-09-23T14:15:23Z</time>
      </trkpt>
      <trkpt lat="49.90589" lon="2.40117">
        <ele>60</ele>
        <time>2022-09-23T14:15:24Z</time>
      </trkpt>
      <trkpt lat="49.90589" lon="2.40116">
        <ele>60</ele>
        <time>2022-09-23T14:15:25Z</time>
      </trkpt>
      <trkpt lat="49.90589" lon="2.40115">
        <ele>60</ele>
        <time>2022-09-23T14:15:26Z</time>
      </trkpt>
      <trkpt lat="49.90589" lon="2.40113">
        <ele>60</ele>
        <time>2022-09-23T14:15:27Z</time>
      </trkpt>
      <trkpt lat="49.90589" lon="2.4011">
        <ele>60</ele>
        <time>2022-09-23T14:15:29Z</time>
      </trkpt>
      <trkpt lat="49.9059" lon="2.40109">
        <ele>60</ele>
        <time>2022-09-23T14:15:30Z</time>
      </trkpt>
      <trkpt lat="49.9059" lon="2.40107">
        <ele>60.1</ele>
        <time>2022-09-23T14:15:31Z</time>
      </trkpt>
      <trkpt lat="49.9059" lon="2.40105">
        <ele>60.1</ele>
        <time>2022-09-23T14:15:32Z</time>
      </trkpt>
      <trkpt lat="49.90591" lon="2.40103">
        <ele>60.1</ele>
        <time>2022-09-23T14:15:33Z</time>
      </trkpt>
      <trkpt lat="49.90591" lon="2.40102">
        <ele>60.1</ele>
        <time>2022-09-23T14:15:34Z</time>
      </trkpt>
      <trkpt lat="49.90591" lon="2.401">
        <ele>60.1</ele>
        <time>2022-09-23T14:15:36Z</time>
      </trkpt>
      <trkpt lat="49.90591" lon="2.40099">
        <ele>60.1</ele>
        <time>2022-09-23T14:15:37Z</time>
      </trkpt>
      <trkpt lat="49.90592" lon="2.40097">
        <ele>60.1</ele>
        <time>2022-09-23T14:15:38Z</time>
      </trkpt>
      <trkpt lat="49.90592" lon="2.40093">
        <ele>60</ele>
        <time>2022-09-23T14:15:39Z</time>
      </trkpt>
      <trkpt lat="49.90593" lon="2.40092">
        <ele>60</ele>
        <time>2022-09-23T14:15:40Z</time>
      </trkpt>
      <trkpt lat="49.90593" lon="2.40091">
        <ele>60</ele>
        <time>2022-09-23T14:15:41Z</time>
      </trkpt>
      <trkpt lat="49.90593" lon="2.4009">
        <ele>60</ele>
        <time>2022-09-23T14:15:42Z</time>
      </trkpt>
      <trkpt lat="49.90593" lon="2.40088">
        <ele>60</ele>
        <time>2022-09-23T14:15:43Z</time>
      </trkpt>
      <trkpt lat="49.90593" lon="2.40086">
        <ele>60</ele>
        <time>2022-09-23T14:15:44Z</time>
      </trkpt>
      <trkpt lat="49.90593" lon="2.40084">
        <ele>60</ele>
        <time>2022-09-23T14:15:45Z</time>
      </trkpt>
      <trkpt lat="49.90593" lon="2.40083">
        <ele>60</ele>
        <time>2022-09-23T14:15:46Z</time>
      </trkpt>
      <trkpt lat="49.90594" lon="2.40081">
        <ele>60</ele>
        <time>2022-09-23T14:15:48Z</time>
      </trkpt>
      <trkpt lat="49.90594" lon="2.40079">
        <ele>60</ele>
        <time>2022-09-23T14:15:49Z</time>
      </trkpt>
      <trkpt lat="49.90594" lon="2.40077">
        <ele>59.9</ele>
        <time>2022-09-23T14:15:50Z</time>
      </trkpt>
      <trkpt lat="49.90594" lon="2.40076">
        <ele>59.9</ele>
        <time>2022-09-23T14:15:51Z</time>
      </trkpt>
      <trkpt lat="49.90594" lon="2.40073">
        <ele>59.9</ele>
        <time>2022-09-23T14:15:52Z</time>
      </trkpt>
      <trkpt lat="49.90594" lon="2.40072">
        <ele>59.9</ele>
        <time>2022-09-23T14:15:53Z</time>
      </trkpt>
      <trkpt lat="49.90594" lon="2.4007">
        <ele>59.9</ele>
        <time>2022-09-23T14:15:54Z</time>
      </trkpt>
      <trkpt lat="49.90594" lon="2.40069">
        <ele>59.9</ele>
        <time>2022-09-23T14:15:55Z</time>
      </trkpt>
      <trkpt lat="49.90593" lon="2.40067">
        <ele>59.9</ele>
        <time>2022-09-23T14:15:56Z</time>
      </trkpt>
      <trkpt lat="49.90593" lon="2.40066">
        <ele>59.9</ele>
        <time>2022-09-23T14:15:57Z</time>
      </trkpt>
      <trkpt lat="49.90593" lon="2.40062">
        <ele>59.9</ele>
        <time>2022-09-23T14:15:59Z</time>
      </trkpt>
      <trkpt lat="49.90593" lon="2.40061">
        <ele>59.9</ele>
        <time>2022-09-23T14:16:00Z</time>
      </trkpt>
      <trkpt lat="49.90593" lon="2.4006">
        <ele>59.9</ele>
        <time>2022-09-23T14:16:01Z</time>
      </trkpt>
      <trkpt lat="49.90592" lon="2.40057">
        <ele>59.9</ele>
        <time>2022-09-23T14:16:02Z</time>
      </trkpt>
      <trkpt lat="49.90592" lon="2.40056">
        <ele>59.9</ele>
        <time>2022-09-23T14:16:03Z</time>
      </trkpt>
      <trkpt lat="49.90592" lon="2.40054">
        <ele>59.9</ele>
        <time>2022-09-23T14:16:04Z</time>
      </trkpt>
      <trkpt lat="49.90592" lon="2.40051">
        <ele>59.9</ele>
        <time>2022-09-23T14:16:05Z</time>
      </trkpt>
      <trkpt lat="49.90592" lon="2.4005">
        <ele>59.9</ele>
        <time>2022-09-23T14:16:06Z</time>
      </trkpt>
      <trkpt lat="49.90592" lon="2.40049">
        <ele>59.9</ele>
        <time>2022-09-23T14:16:07Z</time>
      </trkpt>
      <trkpt lat="49.90593" lon="2.40045">
        <ele>59.9</ele>
        <time>2022-09-23T14:16:08Z</time>
      </trkpt>
      <trkpt lat="49.90593" lon="2.40043">
        <ele>59.9</ele>
        <time>2022-09-23T14:16:10Z</time>
      </trkpt>
      <trkpt lat="49.90593" lon="2.40042">
        <ele>59.9</ele>
        <time>2022-09-23T14:16:11Z</time>
      </trkpt>
      <trkpt lat="49.90593" lon="2.4004">
        <ele>59.9</ele>
        <time>2022-09-23T14:16:12Z</time>
      </trkpt>
      <trkpt lat="49.90593" lon="2.40038">
        <ele>59.9</ele>
        <time>2022-09-23T14:16:13Z</time>
      </trkpt>
      <trkpt lat="49.90593" lon="2.40037">
        <ele>59.9</ele>
        <time>2022-09-23T14:16:14Z</time>
      </trkpt>
      <trkpt lat="49.90593" lon="2.40034">
        <ele>59.9</ele>
        <time>2022-09-23T14:16:15Z</time>
      </trkpt>
      <trkpt lat="49.90593" lon="2.40033">
        <ele>59.9</ele>
        <time>2022-09-23T14:16:16Z</time>
      </trkpt>
      <trkpt lat="49.90593" lon="2.40029">
        <ele>59.9</ele>
        <time>2022-09-23T14:16:17Z</time>
      </trkpt>
      <trkpt lat="49.90593" lon="2.40028">
        <ele>59.9</ele>
        <time>2022-09-23T14:16:18Z</time>
      </trkpt>
      <trkpt lat="49.90593" lon="2.40027">
        <ele>59.9</ele>
        <time>2022-09-23T14:16:19Z</time>
      </trkpt>
      <trkpt lat="49.90593" lon="2.40025">
        <ele>59.9</ele>
        <time>2022-09-23T14:16:20Z</time>
      </trkpt>
      <trkpt lat="49.90593" lon="2.40023">
        <ele>59.9</ele>
        <time>2022-09-23T14:16:22Z</time>
      </trkpt>
      <trkpt lat="49.90593" lon="2.40021">
        <ele>59.9</ele>
        <time>2022-09-23T14:16:23Z</time>
      </trkpt>
      <trkpt lat="49.90593" lon="2.4002">
        <ele>59.9</ele>
        <time>2022-09-23T14:16:24Z</time>
      </trkpt>
      <trkpt lat="49.90593" lon="2.40018">
        <ele>59.9</ele>
        <time>2022-09-23T14:16:25Z</time>
      </trkpt>
      <trkpt lat="49.90593" lon="2.40017">
        <ele>59.9</ele>
        <time>2022-09-23T14:16:26Z</time>
      </trkpt>
      <trkpt lat="49.90593" lon="2.40013">
        <ele>59.9</ele>
        <time>2022-09-23T14:16:27Z</time>
      </trkpt>
      <trkpt lat="49.90593" lon="2.40012">
        <ele>59.9</ele>
        <time>2022-09-23T14:16:28Z</time>
      </trkpt>
      <trkpt lat="49.90593" lon="2.4001">
        <ele>59.9</ele>
        <time>2022-09-23T14:16:29Z</time>
      </trkpt>
      <trkpt lat="49.90593" lon="2.40008">
        <ele>59.9</ele>
        <time>2022-09-23T14:16:30Z</time>
      </trkpt>
      <trkpt lat="49.90593" lon="2.40007">
        <ele>59.9</ele>
        <time>2022-09-23T14:16:31Z</time>
      </trkpt>
      <trkpt lat="49.90594" lon="2.40005">
        <ele>59.9</ele>
        <time>2022-09-23T14:16:32Z</time>
      </trkpt>
      <trkpt lat="49.90594" lon="2.40002">
        <ele>59.9</ele>
        <time>2022-09-23T14:16:34Z</time>
      </trkpt>
      <trkpt lat="49.90594" lon="2.39999">
        <ele>60</ele>
        <time>2022-09-23T14:16:35Z</time>
      </trkpt>
      <trkpt lat="49.90595" lon="2.39997">
        <ele>60</ele>
        <time>2022-09-23T14:16:36Z</time>
      </trkpt>
      <trkpt lat="49.90595" lon="2.39995">
        <ele>60</ele>
        <time>2022-09-23T14:16:37Z</time>
      </trkpt>
      <trkpt lat="49.90595" lon="2.39994">
        <ele>60</ele>
        <time>2022-09-23T14:16:38Z</time>
      </trkpt>
      <trkpt lat="49.90595" lon="2.3999">
        <ele>60</ele>
        <time>2022-09-23T14:16:40Z</time>
      </trkpt>
      <trkpt lat="49.90595" lon="2.39989">
        <ele>60</ele>
        <time>2022-09-23T14:16:41Z</time>
      </trkpt>
      <trkpt lat="49.90595" lon="2.39988">
        <ele>60</ele>
        <time>2022-09-23T14:16:42Z</time>
      </trkpt>
      <trkpt lat="49.90595" lon="2.39985">
        <ele>60</ele>
        <time>2022-09-23T14:16:43Z</time>
      </trkpt>
      <trkpt lat="49.90595" lon="2.39984">
        <ele>60</ele>
        <time>2022-09-23T14:16:44Z</time>
      </trkpt>
      <trkpt lat="49.90595" lon="2.39982">
        <ele>60</ele>
        <time>2022-09-23T14:16:45Z</time>
      </trkpt>
      <trkpt lat="49.90596" lon="2.39981">
        <ele>60</ele>
        <time>2022-09-23T14:16:46Z</time>
      </trkpt>
      <trkpt lat="49.90596" lon="2.39979">
        <ele>60</ele>
        <time>2022-09-23T14:16:47Z</time>
      </trkpt>
      <trkpt lat="49.90597" lon="2.39978">
        <ele>60</ele>
        <time>2022-09-23T14:16:48Z</time>
      </trkpt>
      <trkpt lat="49.90597" lon="2.39976">
        <ele>60</ele>
        <time>2022-09-23T14:16:49Z</time>
      </trkpt>
      <trkpt lat="49.90597" lon="2.39974">
        <ele>60</ele>
        <time>2022-09-23T14:16:51Z</time>
      </trkpt>
      <trkpt lat="49.90597" lon="2.39973">
        <ele>60</ele>
        <time>2022-09-23T14:16:52Z</time>
      </trkpt>
      <trkpt lat="49.90598" lon="2.39971">
        <ele>60</ele>
        <time>2022-09-23T14:16:53Z</time>
      </trkpt>
      <trkpt lat="49.90599" lon="2.3997">
        <ele>60</ele>
        <time>2022-09-23T14:16:54Z</time>
      </trkpt>
      <trkpt lat="49.906" lon="2.3997">
        <ele>60</ele>
        <time>2022-09-23T14:16:55Z</time>
      </trkpt>
      <trkpt lat="49.90601" lon="2.39968">
        <ele>60</ele>
        <time>2022-09-23T14:16:56Z</time>
      </trkpt>
      <trkpt lat="49.90601" lon="2.39967">
        <ele>60</ele>
        <time>2022-09-23T14:16:57Z</time>
      </trkpt>
      <trkpt lat="49.90602" lon="2.39965">
        <ele>60</ele>
        <time>2022-09-23T14:16:58Z</time>
      </trkpt>
      <trkpt lat="49.90602" lon="2.39962">
        <ele>60</ele>
        <time>2022-09-23T14:17:00Z</time>
      </trkpt>
      <trkpt lat="49.90603" lon="2.3996">
        <ele>60</ele>
        <time>2022-09-23T14:17:01Z</time>
      </trkpt>
      <trkpt lat="49.90603" lon="2.39959">
        <ele>60</ele>
        <time>2022-09-23T14:17:02Z</time>
      </trkpt>
      <trkpt lat="49.90603" lon="2.39958">
        <ele>60</ele>
        <time>2022-09-23T14:17:03Z</time>
      </trkpt>
      <trkpt lat="49.90604" lon="2.39957">
        <ele>60</ele>
        <time>2022-09-23T14:17:04Z</time>
      </trkpt>
      <trkpt lat="49.90605" lon="2.39958">
        <ele>60.1</ele>
        <time>2022-09-23T14:17:05Z</time>
      </trkpt>
      <trkpt lat="49.90605" lon="2.39959">
        <ele>60.1</ele>
        <time>2022-09-23T14:17:06Z</time>
      </trkpt>
      <trkpt lat="49.90605" lon="2.39959">
        <ele>60.1</ele>
        <time>2022-09-23T14:17:07Z</time>
      </trkpt>
      <trkpt lat="49.90605" lon="2.3996">
        <ele>60.1</ele>
        <time>2022-09-23T14:17:08Z</time>
      </trkpt>
      <trkpt lat="49.90605" lon="2.3996">
        <ele>60.1</ele>
        <time>2022-09-23T14:17:10Z</time>
      </trkpt>
      <trkpt lat="49.90605" lon="2.3996">
        <ele>60.1</ele>
        <time>2022-09-23T14:17:11Z</time>
      </trkpt>
      <trkpt lat="49.90605" lon="2.39961">
        <ele>60.1</ele>
        <time>2022-09-23T14:17:12Z</time>
      </trkpt>
      <trkpt lat="49.90605" lon="2.39961">
        <ele>60.1</ele>
        <time>2022-09-23T14:17:13Z</time>
      </trkpt>
      <trkpt lat="49.90605" lon="2.39961">
        <ele>60.1</ele>
        <time>2022-09-23T14:17:14Z</time>
      </trkpt>
      <trkpt lat="49.90605" lon="2.39961">
        <ele>60.1</ele>
        <time>2022-09-23T14:17:15Z</time>
      </trkpt>
      <trkpt lat="49.90605" lon="2.39961">
        <ele>60.1</ele>
        <time>2022-09-23T14:17:16Z</time>
      </trkpt>
      <trkpt lat="49.90605" lon="2.39961">
        <ele>60.1</ele>
        <time>2022-09-23T14:17:17Z</time>
      </trkpt>
      <trkpt lat="49.90605" lon="2.39961">
        <ele>60.1</ele>
        <time>2022-09-23T14:17:18Z</time>
      </trkpt>
      <trkpt lat="49.90605" lon="2.39961">
        <ele>60.1</ele>
        <time>2022-09-23T14:17:19Z</time>
      </trkpt>
      <trkpt lat="49.90605" lon="2.39961">
        <ele>60.1</ele>
        <time>2022-09-23T14:17:20Z</time>
      </trkpt>
      <trkpt lat="49.90605" lon="2.39961">
        <ele>60.1</ele>
        <time>2022-09-23T14:17:21Z</time>
      </trkpt>
      <trkpt lat="49.90605" lon="2.39961">
        <ele>60.1</ele>
        <time>2022-09-23T14:17:22Z</time>
      </trkpt>
      <trkpt lat="49.90605" lon="2.3996">
        <ele>60.1</ele>
        <time>2022-09-23T14:17:23Z</time>
      </trkpt>
      <trkpt lat="49.90605" lon="2.3996">
        <ele>60.1</ele>
        <time>2022-09-23T14:17:24Z</time>
      </trkpt>
      <trkpt lat="49.90604" lon="2.3996">
        <ele>60.1</ele>
        <time>2022-09-23T14:17:25Z</time>
      </trkpt>
      <trkpt lat="49.90604" lon="2.3996">
        <ele>60.1</ele>
        <time>2022-09-23T14:17:26Z</time>
      </trkpt>
      <trkpt lat="49.90604" lon="2.3996">
        <ele>60.1</ele>
        <time>2022-09-23T14:17:27Z</time>
      </trkpt>
      <trkpt lat="49.90604" lon="2.3996">
        <ele>60.1</ele>
        <time>2022-09-23T14:17:28Z</time>
      </trkpt>
      <trkpt lat="49.90604" lon="2.3996">
        <ele>60.1</ele>
        <time>2022-09-23T14:17:29Z</time>
      </trkpt>
      <trkpt lat="49.90604" lon="2.3996">
        <ele>60.1</ele>
        <time>2022-09-23T14:17:30Z</time>
      </trkpt>
      <trkpt lat="49.90604" lon="2.3996">
        <ele>60.1</ele>
        <time>2022-09-23T14:17:31Z</time>
      </trkpt>
      <trkpt lat="49.90604" lon="2.3996">
        <ele>60.1</ele>
        <time>2022-09-23T14:17:32Z</time>
      </trkpt>
      <trkpt lat="49.90604" lon="2.3996">
        <ele>60.1</ele>
        <time>2022-09-23T14:17:33Z</time>
      </trkpt>
      <trkpt lat="49.90604" lon="2.3996">
        <ele>60.1</ele>
        <time>2022-09-23T14:17:34Z</time>
      </trkpt>
      <trkpt lat="49.90604" lon="2.3996">
        <ele>60.1</ele>
        <time>2022-09-23T14:17:35Z</time>
      </trkpt>
      <trkpt lat="49.90604" lon="2.3996">
        <ele>60.1</ele>
        <time>2022-09-23T14:17:36Z</time>
      </trkpt>
      <trkpt lat="49.90604" lon="2.3996">
        <ele>60.1</ele>
        <time>2022-09-23T14:17:37Z</time>
      </trkpt>
      <trkpt lat="49.90604" lon="2.3996">
        <ele>60.1</ele>
        <time>2022-09-23T14:17:38Z</time>
      </trkpt>
      <trkpt lat="49.90604" lon="2.3996">
        <ele>60.1</ele>
        <time>2022-09-23T14:17:39Z</time>
      </trkpt>
      <trkpt lat="49.90604" lon="2.3996">
        <ele>60.1</ele>
        <time>2022-09-23T14:17:40Z</time>
      </trkpt>
      <trkpt lat="49.90604" lon="2.3996">
        <ele>60.1</ele>
        <time>2022-09-23T14:17:41Z</time>
      </trkpt>
      <trkpt lat="49.90604" lon="2.3996">
        <ele>60.1</ele>
        <time>2022-09-23T14:17:42Z</time>
      </trkpt>
      <trkpt lat="49.90604" lon="2.3996">
        <ele>60.1</ele>
        <time>2022-09-23T14:17:43Z</time>
      </trkpt>
      <trkpt lat="49.90604" lon="2.3996">
        <ele>60.1</ele>
        <time>2022-09-23T14:17:44Z</time>
      </trkpt>
      <trkpt lat="49.90604" lon="2.3996">
        <ele>60.1</ele>
        <time>2022-09-23T14:17:45Z</time>
      </trkpt>
      <trkpt lat="49.90604" lon="2.3996">
        <ele>60.1</ele>
        <time>2022-09-23T14:17:46Z</time>
      </trkpt>
      <trkpt lat="49.90604" lon="2.3996">
        <ele>60.1</ele>
        <time>2022-09-23T14:17:47Z</time>
      </trkpt>
      <trkpt lat="49.90604" lon="2.3996">
        <ele>60.1</ele>
        <time>2022-09-23T14:17:48Z</time>
      </trkpt>
      <trkpt lat="49.90604" lon="2.3996">
        <ele>60.1</ele>
        <time>2022-09-23T14:17:49Z</time>
      </trkpt>
      <trkpt lat="49.90604" lon="2.3996">
        <ele>60.1</ele>
        <time>2022-09-23T14:17:50Z</time>
      </trkpt>
      <trkpt lat="49.90604" lon="2.3996">
        <ele>60.1</ele>
        <time>2022-09-23T14:17:51Z</time>
      </trkpt>
      <trkpt lat="49.90604" lon="2.3996">
        <ele>60.1</ele>
        <time>2022-09-23T14:17:52Z</time>
      </trkpt>
      <trkpt lat="49.90604" lon="2.3996">
        <ele>60.1</ele>
        <time>2022-09-23T14:17:53Z</time>
      </trkpt>
      <trkpt lat="49.90604" lon="2.3996">
        <ele>60.1</ele>
        <time>2022-09-23T14:17:54Z</time>
      </trkpt>
      <trkpt lat="49.90604" lon="2.3996">
        <ele>60.1</ele>
        <time>2022-09-23T14:17:55Z</time>
      </trkpt>
      <trkpt lat="49.90604" lon="2.3996">
        <ele>60.1</ele>
        <time>2022-09-23T14:17:56Z</time>
      </trkpt>
      <trkpt lat="49.90604" lon="2.3996">
        <ele>60.1</ele>
        <time>2022-09-23T14:17:57Z</time>
      </trkpt>
      <trkpt lat="49.90604" lon="2.3996">
        <ele>60.1</ele>
        <time>2022-09-23T14:17:58Z</time>
      </trkpt>
      <trkpt lat="49.90604" lon="2.3996">
        <ele>60.1</ele>
        <time>2022-09-23T14:17:59Z</time>
      </trkpt>
      <trkpt lat="49.90604" lon="2.3996">
        <ele>60.1</ele>
        <time>2022-09-23T14:18:00Z</time>
      </trkpt>
      <trkpt lat="49.90604" lon="2.3996">
        <ele>60.1</ele>
        <time>2022-09-23T14:18:01Z</time>
      </trkpt>
      <trkpt lat="49.90604" lon="2.3996">
        <ele>60.1</ele>
        <time>2022-09-23T14:18:02Z</time>
      </trkpt>
      <trkpt lat="49.90604" lon="2.3996">
        <ele>60.1</ele>
        <time>2022-09-23T14:18:03Z</time>
      </trkpt>
      <trkpt lat="49.90604" lon="2.3996">
        <ele>60.1</ele>
        <time>2022-09-23T14:18:04Z</time>
      </trkpt>
      <trkpt lat="49.90604" lon="2.3996">
        <ele>60.1</ele>
        <time>2022-09-23T14:18:05Z</time>
      </trkpt>
      <trkpt lat="49.90604" lon="2.3996">
        <ele>60.1</ele>
        <time>2022-09-23T14:18:06Z</time>
      </trkpt>
      <trkpt lat="49.90604" lon="2.3996">
        <ele>60.1</ele>
        <time>2022-09-23T14:18:07Z</time>
      </trkpt>
      <trkpt lat="49.90604" lon="2.3996">
        <ele>60.1</ele>
        <time>2022-09-23T14:18:08Z</time>
      </trkpt>
      <trkpt lat="49.90604" lon="2.3996">
        <ele>60.1</ele>
        <time>2022-09-23T14:18:09Z</time>
      </trkpt>
      <trkpt lat="49.90604" lon="2.3996">
        <ele>60.1</ele>
        <time>2022-09-23T14:18:10Z</time>
      </trkpt>
      <trkpt lat="49.90604" lon="2.3996">
        <ele>60.1</ele>
        <time>2022-09-23T14:18:11Z</time>
      </trkpt>
      <trkpt lat="49.90604" lon="2.3996">
        <ele>60.1</ele>
        <time>2022-09-23T14:18:12Z</time>
      </trkpt>
      <trkpt lat="49.90604" lon="2.3996">
        <ele>60.1</ele>
        <time>2022-09-23T14:18:13Z</time>
      </trkpt>
      <trkpt lat="49.90604" lon="2.3996">
        <ele>60.1</ele>
        <time>2022-09-23T14:18:14Z</time>
      </trkpt>
      <trkpt lat="49.90604" lon="2.3996">
        <ele>60.1</ele>
        <time>2022-09-23T14:18:15Z</time>
      </trkpt>
      <trkpt lat="49.90604" lon="2.3996">
        <ele>60.1</ele>
        <time>2022-09-23T14:18:16Z</time>
      </trkpt>
      <trkpt lat="49.90604" lon="2.3996">
        <ele>60.1</ele>
        <time>2022-09-23T14:18:17Z</time>
      </trkpt>
      <trkpt lat="49.90604" lon="2.3996">
        <ele>60.1</ele>
        <time>2022-09-23T14:18:18Z</time>
      </trkpt>
      <trkpt lat="49.90604" lon="2.3996">
        <ele>60.1</ele>
        <time>2022-09-23T14:18:19Z</time>
      </trkpt>
      <trkpt lat="49.90604" lon="2.3996">
        <ele>60.1</ele>
        <time>2022-09-23T14:18:20Z</time>
      </trkpt>
      <trkpt lat="49.90604" lon="2.3996">
        <ele>60.1</ele>
        <time>2022-09-23T14:18:21Z</time>
      </trkpt>
      <trkpt lat="49.90604" lon="2.3996">
        <ele>60.1</ele>
        <time>2022-09-23T14:18:22Z</time>
      </trkpt>
      <trkpt lat="49.90604" lon="2.3996">
        <ele>60.1</ele>
        <time>2022-09-23T14:18:23Z</time>
      </trkpt>
      <trkpt lat="49.90604" lon="2.3996">
        <ele>60.1</ele>
        <time>2022-09-23T14:18:24Z</time>
      </trkpt>
      <trkpt lat="49.90604" lon="2.3996">
        <ele>60.1</ele>
        <time>2022-09-23T14:18:25Z</time>
      </trkpt>
      <trkpt lat="49.90604" lon="2.3996">
        <ele>60.1</ele>
        <time>2022-09-23T14:18:26Z</time>
      </trkpt>
      <trkpt lat="49.90604" lon="2.3996">
        <ele>60.1</ele>
        <time>2022-09-23T14:18:27Z</time>
      </trkpt>
      <trkpt lat="49.90604" lon="2.3996">
        <ele>60.1</ele>
        <time>2022-09-23T14:18:28Z</time>
      </trkpt>
      <trkpt lat="49.90604" lon="2.3996">
        <ele>60.1</ele>
        <time>2022-09-23T14:18:29Z</time>
      </trkpt>
      <trkpt lat="49.90604" lon="2.3996">
        <ele>60.1</ele>
        <time>2022-09-23T14:18:30Z</time>
      </trkpt>
      <trkpt lat="49.90603" lon="2.39959">
        <ele>60.1</ele>
        <time>2022-09-23T14:18:31Z</time>
      </trkpt>
      <trkpt lat="49.90601" lon="2.39958">
        <ele>60.1</ele>
        <time>2022-09-23T14:18:32Z</time>
      </trkpt>
      <trkpt lat="49.90601" lon="2.39957">
        <ele>60.1</ele>
        <time>2022-09-23T14:18:33Z</time>
      </trkpt>
      <trkpt lat="49.90602" lon="2.39957">
        <ele>60.2</ele>
        <time>2022-09-23T14:18:34Z</time>
      </trkpt>
      <trkpt lat="49.90603" lon="2.39955">
        <ele>60.2</ele>
        <time>2022-09-23T14:18:36Z</time>
      </trkpt>
      <trkpt lat="49.90603" lon="2.39955">
        <ele>60.3</ele>
        <time>2022-09-23T14:18:37Z</time>
      </trkpt>
      <trkpt lat="49.90604" lon="2.39954">
        <ele>60.3</ele>
        <time>2022-09-23T14:18:38Z</time>
      </trkpt>
      <trkpt lat="49.90605" lon="2.39953">
        <ele>60.3</ele>
        <time>2022-09-23T14:18:39Z</time>
      </trkpt>
      <trkpt lat="49.90606" lon="2.39953">
        <ele>60.3</ele>
        <time>2022-09-23T14:18:41Z</time>
      </trkpt>
      <trkpt lat="49.90608" lon="2.39954">
        <ele>60.3</ele>
        <time>2022-09-23T14:18:42Z</time>
      </trkpt>
      <trkpt lat="49.90609" lon="2.39954">
        <ele>60.3</ele>
        <time>2022-09-23T14:18:43Z</time>
      </trkpt>
      <trkpt lat="49.9061" lon="2.39955">
        <ele>60.4</ele>
        <time>2022-09-23T14:18:44Z</time>
      </trkpt>
      <trkpt lat="49.90612" lon="2.39954">
        <ele>60.4</ele>
        <time>2022-09-23T14:18:45Z</time>
      </trkpt>
      <trkpt lat="49.90613" lon="2.39954">
        <ele>60.4</ele>
        <time>2022-09-23T14:18:46Z</time>
      </trkpt>
      <trkpt lat="49.90614" lon="2.39954">
        <ele>60.4</ele>
        <time>2022-09-23T14:18:48Z</time>
      </trkpt>
      <trkpt lat="49.90615" lon="2.39953">
        <ele>60.4</ele>
        <time>2022-09-23T14:18:49Z</time>
      </trkpt>
      <trkpt lat="49.90616" lon="2.39954">
        <ele>60.4</ele>
        <time>2022-09-23T14:18:50Z</time>
      </trkpt>
      <trkpt lat="49.90617" lon="2.39954">
        <ele>60.4</ele>
        <time>2022-09-23T14:18:51Z</time>
      </trkpt>
      <trkpt lat="49.90618" lon="2.39954">
        <ele>60.4</ele>
        <time>2022-09-23T14:18:52Z</time>
      </trkpt>
      <trkpt lat="49.90618" lon="2.39955">
        <ele>60.4</ele>
        <time>2022-09-23T14:18:53Z</time>
      </trkpt>
      <trkpt lat="49.9062" lon="2.39956">
        <ele>60.5</ele>
        <time>2022-09-23T14:18:54Z</time>
      </trkpt>
      <trkpt lat="49.90621" lon="2.39956">
        <ele>60.5</ele>
        <time>2022-09-23T14:18:55Z</time>
      </trkpt>
      <trkpt lat="49.90622" lon="2.39957">
        <ele>60.5</ele>
        <time>2022-09-23T14:18:56Z</time>
      </trkpt>
      <trkpt lat="49.90623" lon="2.39957">
        <ele>60.5</ele>
        <time>2022-09-23T14:18:57Z</time>
      </trkpt>
      <trkpt lat="49.90624" lon="2.39958">
        <ele>60.5</ele>
        <time>2022-09-23T14:18:58Z</time>
      </trkpt>
      <trkpt lat="49.90625" lon="2.39958">
        <ele>60.5</ele>
        <time>2022-09-23T14:18:59Z</time>
      </trkpt>
      <trkpt lat="49.90628" lon="2.3996">
        <ele>60.6</ele>
        <time>2022-09-23T14:19:01Z</time>
      </trkpt>
      <trkpt lat="49.90629" lon="2.3996">
        <ele>60.6</ele>
        <time>2022-09-23T14:19:02Z</time>
      </trkpt>
      <trkpt lat="49.90631" lon="2.39961">
        <ele>60.7</ele>
        <time>2022-09-23T14:19:03Z</time>
      </trkpt>
      <trkpt lat="49.90631" lon="2.39961">
        <ele>60.7</ele>
        <time>2022-09-23T14:19:04Z</time>
      </trkpt>
      <trkpt lat="49.90632" lon="2.39962">
        <ele>60.7</ele>
        <time>2022-09-23T14:19:05Z</time>
      </trkpt>
      <trkpt lat="49.90634" lon="2.39962">
        <ele>60.7</ele>
        <time>2022-09-23T14:19:06Z</time>
      </trkpt>
      <trkpt lat="49.90635" lon="2.39961">
        <ele>60.7</ele>
        <time>2022-09-23T14:19:08Z</time>
      </trkpt>
      <trkpt lat="49.90636" lon="2.39961">
        <ele>60.8</ele>
        <time>2022-09-23T14:19:09Z</time>
      </trkpt>
      <trkpt lat="49.90638" lon="2.39961">
        <ele>60.8</ele>
        <time>2022-09-23T14:19:10Z</time>
      </trkpt>
      <trkpt lat="49.90639" lon="2.39961">
        <ele>60.8</ele>
        <time>2022-09-23T14:19:11Z</time>
      </trkpt>
      <trkpt lat="49.9064" lon="2.39961">
        <ele>60.8</ele>
        <time>2022-09-23T14:19:12Z</time>
      </trkpt>
      <trkpt lat="49.90641" lon="2.39962">
        <ele>60.8</ele>
        <time>2022-09-23T14:19:13Z</time>
      </trkpt>
      <trkpt lat="49.90642" lon="2.39962">
        <ele>60.9</ele>
        <time>2022-09-23T14:19:15Z</time>
      </trkpt>
      <trkpt lat="49.90643" lon="2.39962">
        <ele>60.9</ele>
        <time>2022-09-23T14:19:16Z</time>
      </trkpt>
      <trkpt lat="49.90644" lon="2.39962">
        <ele>60.9</ele>
        <time>2022-09-23T14:19:17Z</time>
      </trkpt>
      <trkpt lat="49.90645" lon="2.39962">
        <ele>60.9</ele>
        <time>2022-09-23T14:19:18Z</time>
      </trkpt>
      <trkpt lat="49.90646" lon="2.39963">
        <ele>60.9</ele>
        <time>2022-09-23T14:19:19Z</time>
      </trkpt>
      <trkpt lat="49.90646" lon="2.39964">
        <ele>60.9</ele>
        <time>2022-09-23T14:19:20Z</time>
      </trkpt>
      <trkpt lat="49.90648" lon="2.39964">
        <ele>61</ele>
        <time>2022-09-23T14:19:21Z</time>
      </trkpt>
      <trkpt lat="49.90649" lon="2.39964">
        <ele>61</ele>
        <time>2022-09-23T14:19:23Z</time>
      </trkpt>
      <trkpt lat="49.9065" lon="2.39964">
        <ele>61</ele>
        <time>2022-09-23T14:19:24Z</time>
      </trkpt>
      <trkpt lat="49.90651" lon="2.39963">
        <ele>61</ele>
        <time>2022-09-23T14:19:25Z</time>
      </trkpt>
      <trkpt lat="49.90652" lon="2.39963">
        <ele>61</ele>
        <time>2022-09-23T14:19:26Z</time>
      </trkpt>
      <trkpt lat="49.90653" lon="2.39962">
        <ele>61</ele>
        <time>2022-09-23T14:19:27Z</time>
      </trkpt>
      <trkpt lat="49.90654" lon="2.39962">
        <ele>61.1</ele>
        <time>2022-09-23T14:19:28Z</time>
      </trkpt>
      <trkpt lat="49.90655" lon="2.39961">
        <ele>61.1</ele>
        <time>2022-09-23T14:19:29Z</time>
      </trkpt>
      <trkpt lat="49.90656" lon="2.39961">
        <ele>61.1</ele>
        <time>2022-09-23T14:19:30Z</time>
      </trkpt>
      <trkpt lat="49.90657" lon="2.39961">
        <ele>61.1</ele>
        <time>2022-09-23T14:19:31Z</time>
      </trkpt>
      <trkpt lat="49.90658" lon="2.39961">
        <ele>61.1</ele>
        <time>2022-09-23T14:19:32Z</time>
      </trkpt>
      <trkpt lat="49.90659" lon="2.3996">
        <ele>61.2</ele>
        <time>2022-09-23T14:19:34Z</time>
      </trkpt>
      <trkpt lat="49.90661" lon="2.3996">
        <ele>61.2</ele>
        <time>2022-09-23T14:19:35Z</time>
      </trkpt>
      <trkpt lat="49.90662" lon="2.3996">
        <ele>61.2</ele>
        <time>2022-09-23T14:19:36Z</time>
      </trkpt>
      <trkpt lat="49.90663" lon="2.39961">
        <ele>61.2</ele>
        <time>2022-09-23T14:19:37Z</time>
      </trkpt>
      <trkpt lat="49.90665" lon="2.39962">
        <ele>61.3</ele>
        <time>2022-09-23T14:19:38Z</time>
      </trkpt>
      <trkpt lat="49.90666" lon="2.39962">
        <ele>61.3</ele>
        <time>2022-09-23T14:19:39Z</time>
      </trkpt>
      <trkpt lat="49.90668" lon="2.39962">
        <ele>61.3</ele>
        <time>2022-09-23T14:19:41Z</time>
      </trkpt>
      <trkpt lat="49.90669" lon="2.39962">
        <ele>61.4</ele>
        <time>2022-09-23T14:19:42Z</time>
      </trkpt>
      <trkpt lat="49.90671" lon="2.39962">
        <ele>61.4</ele>
        <time>2022-09-23T14:19:44Z</time>
      </trkpt>
      <trkpt lat="49.90672" lon="2.39962">
        <ele>61.4</ele>
        <time>2022-09-23T14:19:45Z</time>
      </trkpt>
      <trkpt lat="49.90673" lon="2.39962">
        <ele>61.5</ele>
        <time>2022-09-23T14:19:46Z</time>
      </trkpt>
      <trkpt lat="49.90674" lon="2.39963">
        <ele>61.5</ele>
        <time>2022-09-23T14:19:47Z</time>
      </trkpt>
      <trkpt lat="49.90675" lon="2.39963">
        <ele>61.5</ele>
        <time>2022-09-23T14:19:48Z</time>
      </trkpt>
      <trkpt lat="49.90677" lon="2.39964">
        <ele>61.5</ele>
        <time>2022-09-23T14:19:49Z</time>
      </trkpt>
      <trkpt lat="49.90679" lon="2.39965">
        <ele>61.6</ele>
        <time>2022-09-23T14:19:50Z</time>
      </trkpt>
      <trkpt lat="49.9068" lon="2.39966">
        <ele>61.6</ele>
        <time>2022-09-23T14:19:52Z</time>
      </trkpt>
      <trkpt lat="49.90681" lon="2.39967">
        <ele>61.6</ele>
        <time>2022-09-23T14:19:53Z</time>
      </trkpt>
      <trkpt lat="49.90682" lon="2.39968">
        <ele>61.6</ele>
        <time>2022-09-23T14:19:54Z</time>
      </trkpt>
      <trkpt lat="49.90682" lon="2.39969">
        <ele>61.7</ele>
        <time>2022-09-23T14:19:55Z</time>
      </trkpt>
      <trkpt lat="49.90684" lon="2.3997">
        <ele>61.7</ele>
        <time>2022-09-23T14:19:56Z</time>
      </trkpt>
      <trkpt lat="49.90684" lon="2.39971">
        <ele>61.7</ele>
        <time>2022-09-23T14:19:57Z</time>
      </trkpt>
      <trkpt lat="49.90685" lon="2.39973">
        <ele>61.8</ele>
        <time>2022-09-23T14:19:59Z</time>
      </trkpt>
      <trkpt lat="49.90687" lon="2.39975">
        <ele>61.8</ele>
        <time>2022-09-23T14:20:00Z</time>
      </trkpt>
      <trkpt lat="49.90689" lon="2.39977">
        <ele>61.9</ele>
        <time>2022-09-23T14:20:01Z</time>
      </trkpt>
      <trkpt lat="49.9069" lon="2.39977">
        <ele>61.9</ele>
        <time>2022-09-23T14:20:03Z</time>
      </trkpt>
      <trkpt lat="49.90691" lon="2.39977">
        <ele>61.9</ele>
        <time>2022-09-23T14:20:04Z</time>
      </trkpt>
      <trkpt lat="49.90692" lon="2.39978">
        <ele>62</ele>
        <time>2022-09-23T14:20:05Z</time>
      </trkpt>
      <trkpt lat="49.90694" lon="2.39978">
        <ele>62</ele>
        <time>2022-09-23T14:20:06Z</time>
      </trkpt>
      <trkpt lat="49.90695" lon="2.39977">
        <ele>62</ele>
        <time>2022-09-23T14:20:07Z</time>
      </trkpt>
      <trkpt lat="49.90696" lon="2.39977">
        <ele>62.1</ele>
        <time>2022-09-23T14:20:08Z</time>
      </trkpt>
      <trkpt lat="49.90697" lon="2.39976">
        <ele>62.1</ele>
        <time>2022-09-23T14:20:10Z</time>
      </trkpt>
      <trkpt lat="49.90698" lon="2.39976">
        <ele>62.1</ele>
        <time>2022-09-23T14:20:11Z</time>
      </trkpt>
      <trkpt lat="49.907" lon="2.39975">
        <ele>62.2</ele>
        <time>2022-09-23T14:20:12Z</time>
      </trkpt>
      <trkpt lat="49.90702" lon="2.39974">
        <ele>62.2</ele>
        <time>2022-09-23T14:20:13Z</time>
      </trkpt>
      <trkpt lat="49.90703" lon="2.39973">
        <ele>62.3</ele>
        <time>2022-09-23T14:20:14Z</time>
      </trkpt>
      <trkpt lat="49.90703" lon="2.39973">
        <ele>62.3</ele>
        <time>2022-09-23T14:20:15Z</time>
      </trkpt>
      <trkpt lat="49.90706" lon="2.39972">
        <ele>62.4</ele>
        <time>2022-09-23T14:20:16Z</time>
      </trkpt>
      <trkpt lat="49.90706" lon="2.39972">
        <ele>62.4</ele>
        <time>2022-09-23T14:20:18Z</time>
      </trkpt>
      <trkpt lat="49.90707" lon="2.39971">
        <ele>62.4</ele>
        <time>2022-09-23T14:20:19Z</time>
      </trkpt>
      <trkpt lat="49.90708" lon="2.39971">
        <ele>62.4</ele>
        <time>2022-09-23T14:20:20Z</time>
      </trkpt>
      <trkpt lat="49.9071" lon="2.39971">
        <ele>62.5</ele>
        <time>2022-09-23T14:20:21Z</time>
      </trkpt>
      <trkpt lat="49.90711" lon="2.39971">
        <ele>62.5</ele>
        <time>2022-09-23T14:20:22Z</time>
      </trkpt>
      <trkpt lat="49.90712" lon="2.39972">
        <ele>62.6</ele>
        <time>2022-09-23T14:20:23Z</time>
      </trkpt>
      <trkpt lat="49.90713" lon="2.39972">
        <ele>62.6</ele>
        <time>2022-09-23T14:20:24Z</time>
      </trkpt>
      <trkpt lat="49.90715" lon="2.39972">
        <ele>62.6</ele>
        <time>2022-09-23T14:20:26Z</time>
      </trkpt>
      <trkpt lat="49.90716" lon="2.39972">
        <ele>62.7</ele>
        <time>2022-09-23T14:20:27Z</time>
      </trkpt>
      <trkpt lat="49.90717" lon="2.39972">
        <ele>62.7</ele>
        <time>2022-09-23T14:20:28Z</time>
      </trkpt>
      <trkpt lat="49.90719" lon="2.39972">
        <ele>62.8</ele>
        <time>2022-09-23T14:20:29Z</time>
      </trkpt>
      <trkpt lat="49.9072" lon="2.39972">
        <ele>62.8</ele>
        <time>2022-09-23T14:20:30Z</time>
      </trkpt>
      <trkpt lat="49.90721" lon="2.39972">
        <ele>62.8</ele>
        <time>2022-09-23T14:20:31Z</time>
      </trkpt>
      <trkpt lat="49.90722" lon="2.39971">
        <ele>62.8</ele>
        <time>2022-09-23T14:20:33Z</time>
      </trkpt>
      <trkpt lat="49.90723" lon="2.3997">
        <ele>62.9</ele>
        <time>2022-09-23T14:20:34Z</time>
      </trkpt>
      <trkpt lat="49.90724" lon="2.3997">
        <ele>62.9</ele>
        <time>2022-09-23T14:20:35Z</time>
      </trkpt>
      <trkpt lat="49.90726" lon="2.39968">
        <ele>62.9</ele>
        <time>2022-09-23T14:20:37Z</time>
      </trkpt>
      <trkpt lat="49.90727" lon="2.39968">
        <ele>63</ele>
        <time>2022-09-23T14:20:38Z</time>
      </trkpt>
      <trkpt lat="49.90728" lon="2.39968">
        <ele>63</ele>
        <time>2022-09-23T14:20:39Z</time>
      </trkpt>
      <trkpt lat="49.90729" lon="2.39967">
        <ele>63</ele>
        <time>2022-09-23T14:20:40Z</time>
      </trkpt>
      <trkpt lat="49.9073" lon="2.39967">
        <ele>63</ele>
        <time>2022-09-23T14:20:41Z</time>
      </trkpt>
      <trkpt lat="49.90731" lon="2.39968">
        <ele>63</ele>
        <time>2022-09-23T14:20:42Z</time>
      </trkpt>
      <trkpt lat="49.90731" lon="2.39968">
        <ele>63.1</ele>
        <time>2022-09-23T14:20:43Z</time>
      </trkpt>
      <trkpt lat="49.90732" lon="2.39969">
        <ele>63.1</ele>
        <time>2022-09-23T14:20:44Z</time>
      </trkpt>
      <trkpt lat="49.90732" lon="2.3997">
        <ele>63.1</ele>
        <time>2022-09-23T14:20:45Z</time>
      </trkpt>
      <trkpt lat="49.90733" lon="2.39972">
        <ele>63.1</ele>
        <time>2022-09-23T14:20:47Z</time>
      </trkpt>
      <trkpt lat="49.90734" lon="2.39973">
        <ele>63.2</ele>
        <time>2022-09-23T14:20:48Z</time>
      </trkpt>
      <trkpt lat="49.90735" lon="2.39974">
        <ele>63.2</ele>
        <time>2022-09-23T14:20:49Z</time>
      </trkpt>
      <trkpt lat="49.90736" lon="2.39975">
        <ele>63.2</ele>
        <time>2022-09-23T14:20:50Z</time>
      </trkpt>
      <trkpt lat="49.90737" lon="2.39977">
        <ele>63.2</ele>
        <time>2022-09-23T14:20:52Z</time>
      </trkpt>
      <trkpt lat="49.90738" lon="2.39978">
        <ele>63.3</ele>
        <time>2022-09-23T14:20:53Z</time>
      </trkpt>
      <trkpt lat="49.90739" lon="2.39978">
        <ele>63.3</ele>
        <time>2022-09-23T14:20:54Z</time>
      </trkpt>
      <trkpt lat="49.9074" lon="2.39978">
        <ele>63.3</ele>
        <time>2022-09-23T14:20:55Z</time>
      </trkpt>
      <trkpt lat="49.90742" lon="2.39979">
        <ele>63.4</ele>
        <time>2022-09-23T14:20:57Z</time>
      </trkpt>
      <trkpt lat="49.90743" lon="2.39979">
        <ele>63.4</ele>
        <time>2022-09-23T14:20:58Z</time>
      </trkpt>
      <trkpt lat="49.90744" lon="2.39979">
        <ele>63.4</ele>
        <time>2022-09-23T14:20:59Z</time>
      </trkpt>
      <trkpt lat="49.90745" lon="2.39979">
        <ele>63.4</ele>
        <time>2022-09-23T14:21:00Z</time>
      </trkpt>
      <trkpt lat="49.90746" lon="2.39978">
        <ele>63.4</ele>
        <time>2022-09-23T14:21:01Z</time>
      </trkpt>
      <trkpt lat="49.90749" lon="2.39977">
        <ele>63.5</ele>
        <time>2022-09-23T14:21:02Z</time>
      </trkpt>
      <trkpt lat="49.90749" lon="2.39977">
        <ele>63.5</ele>
        <time>2022-09-23T14:21:04Z</time>
      </trkpt>
      <trkpt lat="49.9075" lon="2.39976">
        <ele>63.5</ele>
        <time>2022-09-23T14:21:05Z</time>
      </trkpt>
      <trkpt lat="49.90751" lon="2.39976">
        <ele>63.6</ele>
        <time>2022-09-23T14:21:06Z</time>
      </trkpt>
      <trkpt lat="49.90753" lon="2.39975">
        <ele>63.6</ele>
        <time>2022-09-23T14:21:07Z</time>
      </trkpt>
      <trkpt lat="49.90754" lon="2.39974">
        <ele>63.6</ele>
        <time>2022-09-23T14:21:08Z</time>
      </trkpt>
      <trkpt lat="49.90755" lon="2.39974">
        <ele>63.6</ele>
        <time>2022-09-23T14:21:09Z</time>
      </trkpt>
      <trkpt lat="49.90756" lon="2.39973">
        <ele>63.7</ele>
        <time>2022-09-23T14:21:10Z</time>
      </trkpt>
      <trkpt lat="49.90758" lon="2.39972">
        <ele>63.7</ele>
        <time>2022-09-23T14:21:12Z</time>
      </trkpt>
      <trkpt lat="49.90759" lon="2.39972">
        <ele>63.7</ele>
        <time>2022-09-23T14:21:13Z</time>
      </trkpt>
      <trkpt lat="49.90761" lon="2.39971">
        <ele>63.8</ele>
        <time>2022-09-23T14:21:14Z</time>
      </trkpt>
      <trkpt lat="49.90762" lon="2.39971">
        <ele>63.8</ele>
        <time>2022-09-23T14:21:15Z</time>
      </trkpt>
      <trkpt lat="49.90763" lon="2.39971">
        <ele>63.8</ele>
        <time>2022-09-23T14:21:16Z</time>
      </trkpt>
      <trkpt lat="49.90765" lon="2.39972">
        <ele>63.8</ele>
        <time>2022-09-23T14:21:17Z</time>
      </trkpt>
      <trkpt lat="49.90766" lon="2.39972">
        <ele>63.8</ele>
        <time>2022-09-23T14:21:18Z</time>
      </trkpt>
      <trkpt lat="49.90768" lon="2.39972">
        <ele>63.9</ele>
        <time>2022-09-23T14:21:20Z</time>
      </trkpt>
      <trkpt lat="49.90769" lon="2.39972">
        <ele>63.9</ele>
        <time>2022-09-23T14:21:21Z</time>
      </trkpt>
      <trkpt lat="49.9077" lon="2.39972">
        <ele>63.9</ele>
        <time>2022-09-23T14:21:22Z</time>
      </trkpt>
      <trkpt lat="49.90771" lon="2.39971">
        <ele>63.9</ele>
        <time>2022-09-23T14:21:23Z</time>
      </trkpt>
      <trkpt lat="49.90772" lon="2.39971">
        <ele>63.9</ele>
        <time>2022-09-23T14:21:24Z</time>
      </trkpt>
      <trkpt lat="49.90773" lon="2.39971">
        <ele>63.9</ele>
        <time>2022-09-23T14:21:25Z</time>
      </trkpt>
      <trkpt lat="49.90774" lon="2.39971">
        <ele>64</ele>
        <time>2022-09-23T14:21:26Z</time>
      </trkpt>
      <trkpt lat="49.90775" lon="2.3997">
        <ele>64</ele>
        <time>2022-09-23T14:21:27Z</time>
      </trkpt>
      <trkpt lat="49.90776" lon="2.3997">
        <ele>64</ele>
        <time>2022-09-23T14:21:28Z</time>
      </trkpt>
      <trkpt lat="49.90777" lon="2.3997">
        <ele>64</ele>
        <time>2022-09-23T14:21:29Z</time>
      </trkpt>
      <trkpt lat="49.90778" lon="2.3997">
        <ele>64</ele>
        <time>2022-09-23T14:21:30Z</time>
      </trkpt>
      <trkpt lat="49.90779" lon="2.39971">
        <ele>64</ele>
        <time>2022-09-23T14:21:31Z</time>
      </trkpt>
      <trkpt lat="49.9078" lon="2.39971">
        <ele>64</ele>
        <time>2022-09-23T14:21:32Z</time>
      </trkpt>
      <trkpt lat="49.9078" lon="2.39971">
        <ele>64</ele>
        <time>2022-09-23T14:21:33Z</time>
      </trkpt>
      <trkpt lat="49.90781" lon="2.39972">
        <ele>64</ele>
        <time>2022-09-23T14:21:34Z</time>
      </trkpt>
      <trkpt lat="49.90782" lon="2.39972">
        <ele>64</ele>
        <time>2022-09-23T14:21:35Z</time>
      </trkpt>
      <trkpt lat="49.90783" lon="2.39973">
        <ele>64</ele>
        <time>2022-09-23T14:21:36Z</time>
      </trkpt>
      <trkpt lat="49.90784" lon="2.39974">
        <ele>64</ele>
        <time>2022-09-23T14:21:38Z</time>
      </trkpt>
      <trkpt lat="49.90785" lon="2.39974">
        <ele>64</ele>
        <time>2022-09-23T14:21:39Z</time>
      </trkpt>
      <trkpt lat="49.90787" lon="2.39975">
        <ele>64.1</ele>
        <time>2022-09-23T14:21:40Z</time>
      </trkpt>
      <trkpt lat="49.90788" lon="2.39975">
        <ele>64.1</ele>
        <time>2022-09-23T14:21:41Z</time>
      </trkpt>
      <trkpt lat="49.90789" lon="2.39976">
        <ele>64.1</ele>
        <time>2022-09-23T14:21:42Z</time>
      </trkpt>
      <trkpt lat="49.9079" lon="2.39975">
        <ele>64.1</ele>
        <time>2022-09-23T14:21:43Z</time>
      </trkpt>
      <trkpt lat="49.90791" lon="2.39975">
        <ele>64.1</ele>
        <time>2022-09-23T14:21:44Z</time>
      </trkpt>
      <trkpt lat="49.90792" lon="2.39975">
        <ele>64.1</ele>
        <time>2022-09-23T14:21:46Z</time>
      </trkpt>
      <trkpt lat="49.90794" lon="2.39975">
        <ele>64.1</ele>
        <time>2022-09-23T14:21:47Z</time>
      </trkpt>
      <trkpt lat="49.90795" lon="2.39975">
        <ele>64.1</ele>
        <time>2022-09-23T14:21:48Z</time>
      </trkpt>
      <trkpt lat="49.90797" lon="2.39974">
        <ele>64.1</ele>
        <time>2022-09-23T14:21:50Z</time>
      </trkpt>
      <trkpt lat="49.90798" lon="2.39974">
        <ele>64.1</ele>
        <time>2022-09-23T14:21:51Z</time>
      </trkpt>
      <trkpt lat="49.90799" lon="2.39974">
        <ele>64.1</ele>
        <time>2022-09-23T14:21:52Z</time>
      </trkpt>
      <trkpt lat="49.90799" lon="2.39974">
        <ele>64.1</ele>
        <time>2022-09-23T14:21:53Z</time>
      </trkpt>
      <trkpt lat="49.908" lon="2.39974">
        <ele>64.1</ele>
        <time>2022-09-23T14:21:54Z</time>
      </trkpt>
      <trkpt lat="49.90801" lon="2.39974">
        <ele>64.2</ele>
        <time>2022-09-23T14:21:55Z</time>
      </trkpt>
      <trkpt lat="49.90802" lon="2.39974">
        <ele>64.2</ele>
        <time>2022-09-23T14:21:57Z</time>
      </trkpt>
      <trkpt lat="49.90804" lon="2.39974">
        <ele>64.2</ele>
        <time>2022-09-23T14:21:58Z</time>
      </trkpt>
      <trkpt lat="49.90804" lon="2.39974">
        <ele>64.2</ele>
        <time>2022-09-23T14:21:59Z</time>
      </trkpt>
      <trkpt lat="49.90805" lon="2.39974">
        <ele>64.2</ele>
        <time>2022-09-23T14:22:00Z</time>
      </trkpt>
      <trkpt lat="49.90806" lon="2.39975">
        <ele>64.2</ele>
        <time>2022-09-23T14:22:01Z</time>
      </trkpt>
      <trkpt lat="49.90808" lon="2.39975">
        <ele>64.2</ele>
        <time>2022-09-23T14:22:02Z</time>
      </trkpt>
      <trkpt lat="49.90809" lon="2.39976">
        <ele>64.2</ele>
        <time>2022-09-23T14:22:03Z</time>
      </trkpt>
      <trkpt lat="49.90811" lon="2.39976">
        <ele>64.2</ele>
        <time>2022-09-23T14:22:04Z</time>
      </trkpt>
      <trkpt lat="49.90812" lon="2.39977">
        <ele>64.3</ele>
        <time>2022-09-23T14:22:06Z</time>
      </trkpt>
      <trkpt lat="49.90815" lon="2.39977">
        <ele>64.3</ele>
        <time>2022-09-23T14:22:07Z</time>
      </trkpt>
      <trkpt lat="49.90816" lon="2.39977">
        <ele>64.3</ele>
        <time>2022-09-23T14:22:08Z</time>
      </trkpt>
      <trkpt lat="49.90817" lon="2.39977">
        <ele>64.3</ele>
        <time>2022-09-23T14:22:10Z</time>
      </trkpt>
      <trkpt lat="49.90819" lon="2.39977">
        <ele>64.3</ele>
        <time>2022-09-23T14:22:11Z</time>
      </trkpt>
      <trkpt lat="49.90821" lon="2.39977">
        <ele>64.3</ele>
        <time>2022-09-23T14:22:12Z</time>
      </trkpt>
      <trkpt lat="49.90822" lon="2.39978">
        <ele>64.3</ele>
        <time>2022-09-23T14:22:13Z</time>
      </trkpt>
      <trkpt lat="49.90824" lon="2.39978">
        <ele>64.3</ele>
        <time>2022-09-23T14:22:14Z</time>
      </trkpt>
      <trkpt lat="49.90825" lon="2.39978">
        <ele>64.3</ele>
        <time>2022-09-23T14:22:15Z</time>
      </trkpt>
      <trkpt lat="49.90826" lon="2.39978">
        <ele>64.3</ele>
        <time>2022-09-23T14:22:16Z</time>
      </trkpt>
      <trkpt lat="49.90828" lon="2.39979">
        <ele>64.3</ele>
        <time>2022-09-23T14:22:18Z</time>
      </trkpt>
      <trkpt lat="49.90829" lon="2.39979">
        <ele>64.3</ele>
        <time>2022-09-23T14:22:19Z</time>
      </trkpt>
      <trkpt lat="49.90829" lon="2.39979">
        <ele>64.3</ele>
        <time>2022-09-23T14:22:20Z</time>
      </trkpt>
      <trkpt lat="49.90831" lon="2.3998">
        <ele>64.3</ele>
        <time>2022-09-23T14:22:21Z</time>
      </trkpt>
      <trkpt lat="49.90832" lon="2.3998">
        <ele>64.3</ele>
        <time>2022-09-23T14:22:22Z</time>
      </trkpt>
      <trkpt lat="49.90833" lon="2.3998">
        <ele>64.3</ele>
        <time>2022-09-23T14:22:23Z</time>
      </trkpt>
      <trkpt lat="49.90834" lon="2.39981">
        <ele>64.3</ele>
        <time>2022-09-23T14:22:24Z</time>
      </trkpt>
      <trkpt lat="49.90835" lon="2.39981">
        <ele>64.3</ele>
        <time>2022-09-23T14:22:25Z</time>
      </trkpt>
      <trkpt lat="49.90837" lon="2.39982">
        <ele>64.3</ele>
        <time>2022-09-23T14:22:27Z</time>
      </trkpt>
      <trkpt lat="49.90838" lon="2.39982">
        <ele>64.3</ele>
        <time>2022-09-23T14:22:28Z</time>
      </trkpt>
      <trkpt lat="49.90839" lon="2.39982">
        <ele>64.4</ele>
        <time>2022-09-23T14:22:29Z</time>
      </trkpt>
      <trkpt lat="49.90842" lon="2.39982">
        <ele>64.4</ele>
        <time>2022-09-23T14:22:30Z</time>
      </trkpt>
      <trkpt lat="49.90843" lon="2.39983">
        <ele>64.4</ele>
        <time>2022-09-23T14:22:31Z</time>
      </trkpt>
      <trkpt lat="49.90844" lon="2.39983">
        <ele>64.4</ele>
        <time>2022-09-23T14:22:32Z</time>
      </trkpt>
      <trkpt lat="49.90845" lon="2.39983">
        <ele>64.4</ele>
        <time>2022-09-23T14:22:33Z</time>
      </trkpt>
      <trkpt lat="49.90846" lon="2.39983">
        <ele>64.4</ele>
        <time>2022-09-23T14:22:34Z</time>
      </trkpt>
      <trkpt lat="49.90847" lon="2.39983">
        <ele>64.4</ele>
        <time>2022-09-23T14:22:36Z</time>
      </trkpt>
      <trkpt lat="49.90848" lon="2.39984">
        <ele>64.4</ele>
        <time>2022-09-23T14:22:37Z</time>
      </trkpt>
      <trkpt lat="49.9085" lon="2.39984">
        <ele>64.4</ele>
        <time>2022-09-23T14:22:38Z</time>
      </trkpt>
      <trkpt lat="49.90852" lon="2.39985">
        <ele>64.4</ele>
        <time>2022-09-23T14:22:39Z</time>
      </trkpt>
      <trkpt lat="49.90853" lon="2.39985">
        <ele>64.4</ele>
        <time>2022-09-23T14:22:40Z</time>
      </trkpt>
      <trkpt lat="49.90854" lon="2.39985">
        <ele>64.4</ele>
        <time>2022-09-23T14:22:41Z</time>
      </trkpt>
      <trkpt lat="49.90856" lon="2.39985">
        <ele>64.4</ele>
        <time>2022-09-23T14:22:42Z</time>
      </trkpt>
      <trkpt lat="49.90857" lon="2.39985">
        <ele>64.4</ele>
        <time>2022-09-23T14:22:43Z</time>
      </trkpt>
      <trkpt lat="49.90859" lon="2.39985">
        <ele>64.5</ele>
        <time>2022-09-23T14:22:45Z</time>
      </trkpt>
      <trkpt lat="49.90859" lon="2.39985">
        <ele>64.5</ele>
        <time>2022-09-23T14:22:46Z</time>
      </trkpt>
      <trkpt lat="49.9086" lon="2.39985">
        <ele>64.5</ele>
        <time>2022-09-23T14:22:47Z</time>
      </trkpt>
      <trkpt lat="49.90862" lon="2.39985">
        <ele>64.5</ele>
        <time>2022-09-23T14:22:48Z</time>
      </trkpt>
      <trkpt lat="49.90863" lon="2.39985">
        <ele>64.5</ele>
        <time>2022-09-23T14:22:49Z</time>
      </trkpt>
      <trkpt lat="49.90863" lon="2.39985">
        <ele>64.5</ele>
        <time>2022-09-23T14:22:50Z</time>
      </trkpt>
      <trkpt lat="49.90865" lon="2.39986">
        <ele>64.5</ele>
        <time>2022-09-23T14:22:51Z</time>
      </trkpt>
      <trkpt lat="49.90866" lon="2.39986">
        <ele>64.5</ele>
        <time>2022-09-23T14:22:52Z</time>
      </trkpt>
      <trkpt lat="49.90866" lon="2.39985">
        <ele>64.5</ele>
        <time>2022-09-23T14:22:53Z</time>
      </trkpt>
      <trkpt lat="49.90867" lon="2.39985">
        <ele>64.5</ele>
        <time>2022-09-23T14:22:54Z</time>
      </trkpt>
      <trkpt lat="49.90868" lon="2.39984">
        <ele>64.5</ele>
        <time>2022-09-23T14:22:56Z</time>
      </trkpt>
      <trkpt lat="49.90869" lon="2.39984">
        <ele>64.5</ele>
        <time>2022-09-23T14:22:57Z</time>
      </trkpt>
      <trkpt lat="49.9087" lon="2.39983">
        <ele>64.5</ele>
        <time>2022-09-23T14:22:58Z</time>
      </trkpt>
      <trkpt lat="49.9087" lon="2.39983">
        <ele>64.5</ele>
        <time>2022-09-23T14:22:59Z</time>
      </trkpt>
      <trkpt lat="49.90871" lon="2.39983">
        <ele>64.5</ele>
        <time>2022-09-23T14:23:00Z</time>
      </trkpt>
      <trkpt lat="49.90872" lon="2.39983">
        <ele>64.5</ele>
        <time>2022-09-23T14:23:01Z</time>
      </trkpt>
      <trkpt lat="49.90875" lon="2.39983">
        <ele>64.6</ele>
        <time>2022-09-23T14:23:02Z</time>
      </trkpt>
      <trkpt lat="49.90875" lon="2.39983">
        <ele>64.6</ele>
        <time>2022-09-23T14:23:03Z</time>
      </trkpt>
      <trkpt lat="49.90876" lon="2.39983">
        <ele>64.6</ele>
        <time>2022-09-23T14:23:04Z</time>
      </trkpt>
      <trkpt lat="49.90877" lon="2.39983">
        <ele>64.6</ele>
        <time>2022-09-23T14:23:06Z</time>
      </trkpt>
      <trkpt lat="49.90877" lon="2.39983">
        <ele>64.6</ele>
        <time>2022-09-23T14:23:07Z</time>
      </trkpt>
      <trkpt lat="49.90878" lon="2.39983">
        <ele>64.6</ele>
        <time>2022-09-23T14:23:08Z</time>
      </trkpt>
      <trkpt lat="49.90879" lon="2.39983">
        <ele>64.6</ele>
        <time>2022-09-23T14:23:09Z</time>
      </trkpt>
      <trkpt lat="49.90879" lon="2.39983">
        <ele>64.6</ele>
        <time>2022-09-23T14:23:10Z</time>
      </trkpt>
      <trkpt lat="49.9088" lon="2.39983">
        <ele>64.6</ele>
        <time>2022-09-23T14:23:11Z</time>
      </trkpt>
      <trkpt lat="49.90882" lon="2.39984">
        <ele>64.6</ele>
        <time>2022-09-23T14:23:13Z</time>
      </trkpt>
      <trkpt lat="49.90882" lon="2.39984">
        <ele>64.6</ele>
        <time>2022-09-23T14:23:14Z</time>
      </trkpt>
      <trkpt lat="49.90884" lon="2.39984">
        <ele>64.6</ele>
        <time>2022-09-23T14:23:15Z</time>
      </trkpt>
      <trkpt lat="49.90885" lon="2.39984">
        <ele>64.6</ele>
        <time>2022-09-23T14:23:16Z</time>
      </trkpt>
      <trkpt lat="49.90886" lon="2.39984">
        <ele>64.6</ele>
        <time>2022-09-23T14:23:17Z</time>
      </trkpt>
      <trkpt lat="49.90888" lon="2.39984">
        <ele>64.6</ele>
        <time>2022-09-23T14:23:18Z</time>
      </trkpt>
      <trkpt lat="49.90889" lon="2.39984">
        <ele>64.6</ele>
        <time>2022-09-23T14:23:19Z</time>
      </trkpt>
      <trkpt lat="49.90889" lon="2.39984">
        <ele>64.6</ele>
        <time>2022-09-23T14:23:20Z</time>
      </trkpt>
      <trkpt lat="49.9089" lon="2.39984">
        <ele>64.6</ele>
        <time>2022-09-23T14:23:21Z</time>
      </trkpt>
      <trkpt lat="49.90892" lon="2.39985">
        <ele>64.6</ele>
        <time>2022-09-23T14:23:23Z</time>
      </trkpt>
      <trkpt lat="49.90893" lon="2.39985">
        <ele>64.6</ele>
        <time>2022-09-23T14:23:24Z</time>
      </trkpt>
      <trkpt lat="49.90894" lon="2.39985">
        <ele>64.6</ele>
        <time>2022-09-23T14:23:25Z</time>
      </trkpt>
      <trkpt lat="49.90895" lon="2.39986">
        <ele>64.6</ele>
        <time>2022-09-23T14:23:26Z</time>
      </trkpt>
      <trkpt lat="49.90896" lon="2.39986">
        <ele>64.6</ele>
        <time>2022-09-23T14:23:27Z</time>
      </trkpt>
      <trkpt lat="49.90897" lon="2.39987">
        <ele>64.6</ele>
        <time>2022-09-23T14:23:28Z</time>
      </trkpt>
      <trkpt lat="49.90897" lon="2.39987">
        <ele>64.6</ele>
        <time>2022-09-23T14:23:29Z</time>
      </trkpt>
      <trkpt lat="49.90898" lon="2.39987">
        <ele>64.6</ele>
        <time>2022-09-23T14:23:31Z</time>
      </trkpt>
      <trkpt lat="49.90899" lon="2.39986">
        <ele>64.6</ele>
        <time>2022-09-23T14:23:32Z</time>
      </trkpt>
      <trkpt lat="49.90901" lon="2.39986">
        <ele>64.6</ele>
        <time>2022-09-23T14:23:33Z</time>
      </trkpt>
      <trkpt lat="49.90901" lon="2.39986">
        <ele>64.6</ele>
        <time>2022-09-23T14:23:34Z</time>
      </trkpt>
      <trkpt lat="49.90902" lon="2.39987">
        <ele>64.6</ele>
        <time>2022-09-23T14:23:35Z</time>
      </trkpt>
      <trkpt lat="49.90903" lon="2.39987">
        <ele>64.6</ele>
        <time>2022-09-23T14:23:36Z</time>
      </trkpt>
      <trkpt lat="49.90904" lon="2.39987">
        <ele>64.6</ele>
        <time>2022-09-23T14:23:37Z</time>
      </trkpt>
      <trkpt lat="49.90906" lon="2.39987">
        <ele>64.6</ele>
        <time>2022-09-23T14:23:38Z</time>
      </trkpt>
      <trkpt lat="49.90906" lon="2.39987">
        <ele>64.6</ele>
        <time>2022-09-23T14:23:40Z</time>
      </trkpt>
      <trkpt lat="49.90908" lon="2.39987">
        <ele>64.6</ele>
        <time>2022-09-23T14:23:41Z</time>
      </trkpt>
      <trkpt lat="49.90909" lon="2.39987">
        <ele>64.6</ele>
        <time>2022-09-23T14:23:42Z</time>
      </trkpt>
      <trkpt lat="49.9091" lon="2.39987">
        <ele>64.6</ele>
        <time>2022-09-23T14:23:43Z</time>
      </trkpt>
      <trkpt lat="49.90911" lon="2.39986">
        <ele>64.5</ele>
        <time>2022-09-23T14:23:44Z</time>
      </trkpt>
      <trkpt lat="49.90912" lon="2.39986">
        <ele>64.5</ele>
        <time>2022-09-23T14:23:45Z</time>
      </trkpt>
      <trkpt lat="49.90912" lon="2.39986">
        <ele>64.5</ele>
        <time>2022-09-23T14:23:46Z</time>
      </trkpt>
      <trkpt lat="49.90914" lon="2.39986">
        <ele>64.5</ele>
        <time>2022-09-23T14:23:47Z</time>
      </trkpt>
      <trkpt lat="49.90914" lon="2.39985">
        <ele>64.5</ele>
        <time>2022-09-23T14:23:49Z</time>
      </trkpt>
      <trkpt lat="49.90915" lon="2.39985">
        <ele>64.5</ele>
        <time>2022-09-23T14:23:50Z</time>
      </trkpt>
      <trkpt lat="49.90917" lon="2.39986">
        <ele>64.5</ele>
        <time>2022-09-23T14:23:51Z</time>
      </trkpt>
      <trkpt lat="49.90918" lon="2.39986">
        <ele>64.5</ele>
        <time>2022-09-23T14:23:52Z</time>
      </trkpt>
      <trkpt lat="49.90919" lon="2.39987">
        <ele>64.5</ele>
        <time>2022-09-23T14:23:53Z</time>
      </trkpt>
      <trkpt lat="49.9092" lon="2.39987">
        <ele>64.5</ele>
        <time>2022-09-23T14:23:54Z</time>
      </trkpt>
      <trkpt lat="49.90921" lon="2.39988">
        <ele>64.5</ele>
        <time>2022-09-23T14:23:55Z</time>
      </trkpt>
      <trkpt lat="49.90922" lon="2.39988">
        <ele>64.5</ele>
        <time>2022-09-23T14:23:56Z</time>
      </trkpt>
      <trkpt lat="49.90924" lon="2.39989">
        <ele>64.5</ele>
        <time>2022-09-23T14:23:58Z</time>
      </trkpt>
      <trkpt lat="49.90925" lon="2.39989">
        <ele>64.5</ele>
        <time>2022-09-23T14:23:59Z</time>
      </trkpt>
      <trkpt lat="49.90926" lon="2.39989">
        <ele>64.5</ele>
        <time>2022-09-23T14:24:00Z</time>
      </trkpt>
      <trkpt lat="49.90928" lon="2.39989">
        <ele>64.5</ele>
        <time>2022-09-23T14:24:01Z</time>
      </trkpt>
      <trkpt lat="49.90929" lon="2.39988">
        <ele>64.5</ele>
        <time>2022-09-23T14:24:02Z</time>
      </trkpt>
      <trkpt lat="49.9093" lon="2.39988">
        <ele>64.5</ele>
        <time>2022-09-23T14:24:03Z</time>
      </trkpt>
      <trkpt lat="49.90931" lon="2.39988">
        <ele>64.5</ele>
        <time>2022-09-23T14:24:04Z</time>
      </trkpt>
      <trkpt lat="49.90932" lon="2.39988">
        <ele>64.5</ele>
        <time>2022-09-23T14:24:05Z</time>
      </trkpt>
      <trkpt lat="49.90933" lon="2.39988">
        <ele>64.4</ele>
        <time>2022-09-23T14:24:06Z</time>
      </trkpt>
      <trkpt lat="49.90934" lon="2.39988">
        <ele>64.4</ele>
        <time>2022-09-23T14:24:08Z</time>
      </trkpt>
      <trkpt lat="49.90935" lon="2.39988">
        <ele>64.4</ele>
        <time>2022-09-23T14:24:09Z</time>
      </trkpt>
      <trkpt lat="49.90936" lon="2.39988">
        <ele>64.4</ele>
        <time>2022-09-23T14:24:10Z</time>
      </trkpt>
      <trkpt lat="49.90938" lon="2.39987">
        <ele>64.4</ele>
        <time>2022-09-23T14:24:11Z</time>
      </trkpt>
      <trkpt lat="49.90939" lon="2.39987">
        <ele>64.4</ele>
        <time>2022-09-23T14:24:12Z</time>
      </trkpt>
      <trkpt lat="49.9094" lon="2.39987">
        <ele>64.4</ele>
        <time>2022-09-23T14:24:13Z</time>
      </trkpt>
      <trkpt lat="49.9094" lon="2.39987">
        <ele>64.4</ele>
        <time>2022-09-23T14:24:14Z</time>
      </trkpt>
      <trkpt lat="49.90941" lon="2.39987">
        <ele>64.4</ele>
        <time>2022-09-23T14:24:15Z</time>
      </trkpt>
      <trkpt lat="49.90942" lon="2.39986">
        <ele>64.4</ele>
        <time>2022-09-23T14:24:16Z</time>
      </trkpt>
      <trkpt lat="49.90943" lon="2.39986">
        <ele>64.4</ele>
        <time>2022-09-23T14:24:18Z</time>
      </trkpt>
      <trkpt lat="49.90945" lon="2.39987">
        <ele>64.5</ele>
        <time>2022-09-23T14:24:19Z</time>
      </trkpt>
      <trkpt lat="49.90946" lon="2.39987">
        <ele>64.5</ele>
        <time>2022-09-23T14:24:20Z</time>
      </trkpt>
      <trkpt lat="49.90947" lon="2.39986">
        <ele>64.5</ele>
        <time>2022-09-23T14:24:21Z</time>
      </trkpt>
      <trkpt lat="49.90949" lon="2.39986">
        <ele>64.5</ele>
        <time>2022-09-23T14:24:22Z</time>
      </trkpt>
      <trkpt lat="49.90951" lon="2.39987">
        <ele>64.5</ele>
        <time>2022-09-23T14:24:23Z</time>
      </trkpt>
      <trkpt lat="49.90952" lon="2.39987">
        <ele>64.5</ele>
        <time>2022-09-23T14:24:24Z</time>
      </trkpt>
      <trkpt lat="49.90953" lon="2.39987">
        <ele>64.5</ele>
        <time>2022-09-23T14:24:25Z</time>
      </trkpt>
      <trkpt lat="49.90954" lon="2.39987">
        <ele>64.5</ele>
        <time>2022-09-23T14:24:26Z</time>
      </trkpt>
      <trkpt lat="49.90955" lon="2.39988">
        <ele>64.5</ele>
        <time>2022-09-23T14:24:28Z</time>
      </trkpt>
      <trkpt lat="49.90956" lon="2.3999">
        <ele>64.5</ele>
        <time>2022-09-23T14:24:29Z</time>
      </trkpt>
      <trkpt lat="49.90957" lon="2.39991">
        <ele>64.5</ele>
        <time>2022-09-23T14:24:30Z</time>
      </trkpt>
      <trkpt lat="49.90959" lon="2.39993">
        <ele>64.6</ele>
        <time>2022-09-23T14:24:31Z</time>
      </trkpt>
      <trkpt lat="49.9096" lon="2.39993">
        <ele>64.6</ele>
        <time>2022-09-23T14:24:32Z</time>
      </trkpt>
      <trkpt lat="49.9096" lon="2.39994">
        <ele>64.6</ele>
        <time>2022-09-23T14:24:33Z</time>
      </trkpt>
      <trkpt lat="49.90961" lon="2.39994">
        <ele>64.6</ele>
        <time>2022-09-23T14:24:34Z</time>
      </trkpt>
      <trkpt lat="49.90962" lon="2.39995">
        <ele>64.6</ele>
        <time>2022-09-23T14:24:36Z</time>
      </trkpt>
      <trkpt lat="49.90963" lon="2.39995">
        <ele>64.6</ele>
        <time>2022-09-23T14:24:37Z</time>
      </trkpt>
      <trkpt lat="49.90965" lon="2.39995">
        <ele>64.6</ele>
        <time>2022-09-23T14:24:38Z</time>
      </trkpt>
      <trkpt lat="49.90966" lon="2.39995">
        <ele>64.6</ele>
        <time>2022-09-23T14:24:39Z</time>
      </trkpt>
      <trkpt lat="49.90967" lon="2.39995">
        <ele>64.6</ele>
        <time>2022-09-23T14:24:40Z</time>
      </trkpt>
      <trkpt lat="49.90968" lon="2.39995">
        <ele>64.6</ele>
        <time>2022-09-23T14:24:41Z</time>
      </trkpt>
      <trkpt lat="49.90968" lon="2.39995">
        <ele>64.6</ele>
        <time>2022-09-23T14:24:42Z</time>
      </trkpt>
      <trkpt lat="49.90969" lon="2.39996">
        <ele>64.6</ele>
        <time>2022-09-23T14:24:44Z</time>
      </trkpt>
      <trkpt lat="49.9097" lon="2.39997">
        <ele>64.6</ele>
        <time>2022-09-23T14:24:45Z</time>
      </trkpt>
      <trkpt lat="49.90971" lon="2.39997">
        <ele>64.6</ele>
        <time>2022-09-23T14:24:46Z</time>
      </trkpt>
      <trkpt lat="49.90972" lon="2.39997">
        <ele>64.6</ele>
        <time>2022-09-23T14:24:47Z</time>
      </trkpt>
      <trkpt lat="49.90974" lon="2.39996">
        <ele>64.7</ele>
        <time>2022-09-23T14:24:48Z</time>
      </trkpt>
      <trkpt lat="49.90974" lon="2.39996">
        <ele>64.7</ele>
        <time>2022-09-23T14:24:49Z</time>
      </trkpt>
      <trkpt lat="49.90974" lon="2.39996">
        <ele>64.7</ele>
        <time>2022-09-23T14:24:51Z</time>
      </trkpt>
      <trkpt lat="49.90975" lon="2.39995">
        <ele>64.7</ele>
        <time>2022-09-23T14:24:52Z</time>
      </trkpt>
      <trkpt lat="49.90977" lon="2.39994">
        <ele>64.7</ele>
        <time>2022-09-23T14:24:53Z</time>
      </trkpt>
      <trkpt lat="49.90979" lon="2.39993">
        <ele>64.7</ele>
        <time>2022-09-23T14:24:54Z</time>
      </trkpt>
      <trkpt lat="49.90979" lon="2.39992">
        <ele>64.7</ele>
        <time>2022-09-23T14:24:55Z</time>
      </trkpt>
      <trkpt lat="49.9098" lon="2.39992">
        <ele>64.7</ele>
        <time>2022-09-23T14:24:56Z</time>
      </trkpt>
      <trkpt lat="49.90982" lon="2.39992">
        <ele>64.7</ele>
        <time>2022-09-23T14:24:57Z</time>
      </trkpt>
      <trkpt lat="49.90983" lon="2.39992">
        <ele>64.7</ele>
        <time>2022-09-23T14:24:59Z</time>
      </trkpt>
      <trkpt lat="49.90984" lon="2.39992">
        <ele>64.7</ele>
        <time>2022-09-23T14:25:00Z</time>
      </trkpt>
      <trkpt lat="49.90985" lon="2.39992">
        <ele>64.7</ele>
        <time>2022-09-23T14:25:01Z</time>
      </trkpt>
      <trkpt lat="49.90987" lon="2.39992">
        <ele>64.7</ele>
        <time>2022-09-23T14:25:02Z</time>
      </trkpt>
      <trkpt lat="49.90989" lon="2.39992">
        <ele>64.8</ele>
        <time>2022-09-23T14:25:03Z</time>
      </trkpt>
      <trkpt lat="49.9099" lon="2.39992">
        <ele>64.8</ele>
        <time>2022-09-23T14:25:04Z</time>
      </trkpt>
      <trkpt lat="49.90991" lon="2.39991">
        <ele>64.8</ele>
        <time>2022-09-23T14:25:05Z</time>
      </trkpt>
      <trkpt lat="49.90992" lon="2.39991">
        <ele>64.8</ele>
        <time>2022-09-23T14:25:07Z</time>
      </trkpt>
      <trkpt lat="49.90993" lon="2.3999">
        <ele>64.8</ele>
        <time>2022-09-23T14:25:08Z</time>
      </trkpt>
      <trkpt lat="49.90995" lon="2.3999">
        <ele>64.8</ele>
        <time>2022-09-23T14:25:09Z</time>
      </trkpt>
      <trkpt lat="49.90996" lon="2.3999">
        <ele>64.8</ele>
        <time>2022-09-23T14:25:10Z</time>
      </trkpt>
      <trkpt lat="49.90997" lon="2.3999">
        <ele>64.8</ele>
        <time>2022-09-23T14:25:11Z</time>
      </trkpt>
      <trkpt lat="49.90998" lon="2.3999">
        <ele>64.8</ele>
        <time>2022-09-23T14:25:12Z</time>
      </trkpt>
      <trkpt lat="49.90999" lon="2.39991">
        <ele>64.8</ele>
        <time>2022-09-23T14:25:13Z</time>
      </trkpt>
      <trkpt lat="49.91" lon="2.39991">
        <ele>64.8</ele>
        <time>2022-09-23T14:25:15Z</time>
      </trkpt>
      <trkpt lat="49.91001" lon="2.39991">
        <ele>64.8</ele>
        <time>2022-09-23T14:25:16Z</time>
      </trkpt>
      <trkpt lat="49.91003" lon="2.39992">
        <ele>64.8</ele>
        <time>2022-09-23T14:25:17Z</time>
      </trkpt>
      <trkpt lat="49.91004" lon="2.39992">
        <ele>64.8</ele>
        <time>2022-09-23T14:25:18Z</time>
      </trkpt>
      <trkpt lat="49.91005" lon="2.39991">
        <ele>64.8</ele>
        <time>2022-09-23T14:25:19Z</time>
      </trkpt>
      <trkpt lat="49.91006" lon="2.39991">
        <ele>64.8</ele>
        <time>2022-09-23T14:25:20Z</time>
      </trkpt>
      <trkpt lat="49.91007" lon="2.39991">
        <ele>64.9</ele>
        <time>2022-09-23T14:25:21Z</time>
      </trkpt>
      <trkpt lat="49.91009" lon="2.39991">
        <ele>64.9</ele>
        <time>2022-09-23T14:25:23Z</time>
      </trkpt>
      <trkpt lat="49.9101" lon="2.39991">
        <ele>64.9</ele>
        <time>2022-09-23T14:25:24Z</time>
      </trkpt>
      <trkpt lat="49.91011" lon="2.39991">
        <ele>64.9</ele>
        <time>2022-09-23T14:25:25Z</time>
      </trkpt>
      <trkpt lat="49.91012" lon="2.39991">
        <ele>64.9</ele>
        <time>2022-09-23T14:25:26Z</time>
      </trkpt>
      <trkpt lat="49.91013" lon="2.39991">
        <ele>64.9</ele>
        <time>2022-09-23T14:25:27Z</time>
      </trkpt>
      <trkpt lat="49.91014" lon="2.39991">
        <ele>64.9</ele>
        <time>2022-09-23T14:25:28Z</time>
      </trkpt>
      <trkpt lat="49.91015" lon="2.39991">
        <ele>64.9</ele>
        <time>2022-09-23T14:25:30Z</time>
      </trkpt>
      <trkpt lat="49.91016" lon="2.39991">
        <ele>64.9</ele>
        <time>2022-09-23T14:25:31Z</time>
      </trkpt>
      <trkpt lat="49.91019" lon="2.39991">
        <ele>65</ele>
        <time>2022-09-23T14:25:32Z</time>
      </trkpt>
      <trkpt lat="49.91019" lon="2.39991">
        <ele>65</ele>
        <time>2022-09-23T14:25:33Z</time>
      </trkpt>
      <trkpt lat="49.9102" lon="2.39991">
        <ele>65</ele>
        <time>2022-09-23T14:25:34Z</time>
      </trkpt>
      <trkpt lat="49.91021" lon="2.39991">
        <ele>65</ele>
        <time>2022-09-23T14:25:35Z</time>
      </trkpt>
      <trkpt lat="49.91022" lon="2.39991">
        <ele>65</ele>
        <time>2022-09-23T14:25:37Z</time>
      </trkpt>
      <trkpt lat="49.91024" lon="2.39991">
        <ele>65</ele>
        <time>2022-09-23T14:25:38Z</time>
      </trkpt>
      <trkpt lat="49.91025" lon="2.39992">
        <ele>65.1</ele>
        <time>2022-09-23T14:25:39Z</time>
      </trkpt>
      <trkpt lat="49.91026" lon="2.39993">
        <ele>65.1</ele>
        <time>2022-09-23T14:25:40Z</time>
      </trkpt>
      <trkpt lat="49.91028" lon="2.39993">
        <ele>65.1</ele>
        <time>2022-09-23T14:25:41Z</time>
      </trkpt>
      <trkpt lat="49.91029" lon="2.39993">
        <ele>65.1</ele>
        <time>2022-09-23T14:25:42Z</time>
      </trkpt>
      <trkpt lat="49.9103" lon="2.39994">
        <ele>65.2</ele>
        <time>2022-09-23T14:25:43Z</time>
      </trkpt>
      <trkpt lat="49.91031" lon="2.39994">
        <ele>65.2</ele>
        <time>2022-09-23T14:25:44Z</time>
      </trkpt>
      <trkpt lat="49.91032" lon="2.39994">
        <ele>65.2</ele>
        <time>2022-09-23T14:25:45Z</time>
      </trkpt>
      <trkpt lat="49.91033" lon="2.39994">
        <ele>65.2</ele>
        <time>2022-09-23T14:25:46Z</time>
      </trkpt>
      <trkpt lat="49.91034" lon="2.39995">
        <ele>65.2</ele>
        <time>2022-09-23T14:25:47Z</time>
      </trkpt>
      <trkpt lat="49.91035" lon="2.39995">
        <ele>65.2</ele>
        <time>2022-09-23T14:25:48Z</time>
      </trkpt>
      <trkpt lat="49.91035" lon="2.39996">
        <ele>65.3</ele>
        <time>2022-09-23T14:25:49Z</time>
      </trkpt>
      <trkpt lat="49.91036" lon="2.39997">
        <ele>65.3</ele>
        <time>2022-09-23T14:25:50Z</time>
      </trkpt>
      <trkpt lat="49.91036" lon="2.39997">
        <ele>65.3</ele>
        <time>2022-09-23T14:25:51Z</time>
      </trkpt>
      <trkpt lat="49.91036" lon="2.39997">
        <ele>65.3</ele>
        <time>2022-09-23T14:25:52Z</time>
      </trkpt>
      <trkpt lat="49.91036" lon="2.39997">
        <ele>65.3</ele>
        <time>2022-09-23T14:25:53Z</time>
      </trkpt>
      <trkpt lat="49.91037" lon="2.39997">
        <ele>65.3</ele>
        <time>2022-09-23T14:25:54Z</time>
      </trkpt>
      <trkpt lat="49.91037" lon="2.39998">
        <ele>65.3</ele>
        <time>2022-09-23T14:25:56Z</time>
      </trkpt>
      <trkpt lat="49.91037" lon="2.39998">
        <ele>65.3</ele>
        <time>2022-09-23T14:25:57Z</time>
      </trkpt>
      <trkpt lat="49.91038" lon="2.39999">
        <ele>65.3</ele>
        <time>2022-09-23T14:25:58Z</time>
      </trkpt>
      <trkpt lat="49.91038" lon="2.39999">
        <ele>65.3</ele>
        <time>2022-09-23T14:25:59Z</time>
      </trkpt>
      <trkpt lat="49.91037" lon="2.39999">
        <ele>65.3</ele>
        <time>2022-09-23T14:26:00Z</time>
      </trkpt>
      <trkpt lat="49.91037" lon="2.39999">
        <ele>65.3</ele>
        <time>2022-09-23T14:26:01Z</time>
      </trkpt>
      <trkpt lat="49.91037" lon="2.39999">
        <ele>65.3</ele>
        <time>2022-09-23T14:26:02Z</time>
      </trkpt>
      <trkpt lat="49.91037" lon="2.39999">
        <ele>65.3</ele>
        <time>2022-09-23T14:26:03Z</time>
      </trkpt>
      <trkpt lat="49.91037" lon="2.39999">
        <ele>65.3</ele>
        <time>2022-09-23T14:26:04Z</time>
      </trkpt>
      <trkpt lat="49.91037" lon="2.39999">
        <ele>65.3</ele>
        <time>2022-09-23T14:26:05Z</time>
      </trkpt>
      <trkpt lat="49.91037" lon="2.39999">
        <ele>65.3</ele>
        <time>2022-09-23T14:26:06Z</time>
      </trkpt>
      <trkpt lat="49.91037" lon="2.39999">
        <ele>65.3</ele>
        <time>2022-09-23T14:26:07Z</time>
      </trkpt>
      <trkpt lat="49.91037" lon="2.39999">
        <ele>65.3</ele>
        <time>2022-09-23T14:26:08Z</time>
      </trkpt>
      <trkpt lat="49.91036" lon="2.39999">
        <ele>65.3</ele>
        <time>2022-09-23T14:26:09Z</time>
      </trkpt>
      <trkpt lat="49.91036" lon="2.39999">
        <ele>65.3</ele>
        <time>2022-09-23T14:26:10Z</time>
      </trkpt>
      <trkpt lat="49.91036" lon="2.39999">
        <ele>65.3</ele>
        <time>2022-09-23T14:26:11Z</time>
      </trkpt>
      <trkpt lat="49.91036" lon="2.39998">
        <ele>65.3</ele>
        <time>2022-09-23T14:26:12Z</time>
      </trkpt>
      <trkpt lat="49.91036" lon="2.39998">
        <ele>65.3</ele>
        <time>2022-09-23T14:26:13Z</time>
      </trkpt>
      <trkpt lat="49.91036" lon="2.39998">
        <ele>65.3</ele>
        <time>2022-09-23T14:26:14Z</time>
      </trkpt>
      <trkpt lat="49.91036" lon="2.39998">
        <ele>65.3</ele>
        <time>2022-09-23T14:26:15Z</time>
      </trkpt>
      <trkpt lat="49.91036" lon="2.39998">
        <ele>65.3</ele>
        <time>2022-09-23T14:26:16Z</time>
      </trkpt>
      <trkpt lat="49.91036" lon="2.39998">
        <ele>65.3</ele>
        <time>2022-09-23T14:26:17Z</time>
      </trkpt>
      <trkpt lat="49.91036" lon="2.39998">
        <ele>65.3</ele>
        <time>2022-09-23T14:26:18Z</time>
      </trkpt>
      <trkpt lat="49.91036" lon="2.39998">
        <ele>65.3</ele>
        <time>2022-09-23T14:26:19Z</time>
      </trkpt>
      <trkpt lat="49.91036" lon="2.39998">
        <ele>65.3</ele>
        <time>2022-09-23T14:26:20Z</time>
      </trkpt>
      <trkpt lat="49.91036" lon="2.39998">
        <ele>65.3</ele>
        <time>2022-09-23T14:26:21Z</time>
      </trkpt>
      <trkpt lat="49.91036" lon="2.39998">
        <ele>65.3</ele>
        <time>2022-09-23T14:26:22Z</time>
      </trkpt>
      <trkpt lat="49.91036" lon="2.39998">
        <ele>65.3</ele>
        <time>2022-09-23T14:26:23Z</time>
      </trkpt>
      <trkpt lat="49.91036" lon="2.39998">
        <ele>65.3</ele>
        <time>2022-09-23T14:26:24Z</time>
      </trkpt>
      <trkpt lat="49.91036" lon="2.39998">
        <ele>65.3</ele>
        <time>2022-09-23T14:26:25Z</time>
      </trkpt>
      <trkpt lat="49.91036" lon="2.39998">
        <ele>65.3</ele>
        <time>2022-09-23T14:26:26Z</time>
      </trkpt>
      <trkpt lat="49.91036" lon="2.39998">
        <ele>65.3</ele>
        <time>2022-09-23T14:26:27Z</time>
      </trkpt>
      <trkpt lat="49.91036" lon="2.39998">
        <ele>65.3</ele>
        <time>2022-09-23T14:26:28Z</time>
      </trkpt>
      <trkpt lat="49.91036" lon="2.39998">
        <ele>65.3</ele>
        <time>2022-09-23T14:26:29Z</time>
      </trkpt>
      <trkpt lat="49.91036" lon="2.39998">
        <ele>65.3</ele>
        <time>2022-09-23T14:26:30Z</time>
      </trkpt>
      <trkpt lat="49.91036" lon="2.39998">
        <ele>65.3</ele>
        <time>2022-09-23T14:26:31Z</time>
      </trkpt>
      <trkpt lat="49.91036" lon="2.39998">
        <ele>65.3</ele>
        <time>2022-09-23T14:26:32Z</time>
      </trkpt>
      <trkpt lat="49.91036" lon="2.39998">
        <ele>65.3</ele>
        <time>2022-09-23T14:26:33Z</time>
      </trkpt>
      <trkpt lat="49.91036" lon="2.39998">
        <ele>65.3</ele>
        <time>2022-09-23T14:26:34Z</time>
      </trkpt>
      <trkpt lat="49.91036" lon="2.39998">
        <ele>65.3</ele>
        <time>2022-09-23T14:26:35Z</time>
      </trkpt>
      <trkpt lat="49.91036" lon="2.39998">
        <ele>65.3</ele>
        <time>2022-09-23T14:26:36Z</time>
      </trkpt>
      <trkpt lat="49.91036" lon="2.39998">
        <ele>65.3</ele>
        <time>2022-09-23T14:26:37Z</time>
      </trkpt>
      <trkpt lat="49.91036" lon="2.39998">
        <ele>65.3</ele>
        <time>2022-09-23T14:26:38Z</time>
      </trkpt>
      <trkpt lat="49.91036" lon="2.39998">
        <ele>65.3</ele>
        <time>2022-09-23T14:26:39Z</time>
      </trkpt>
      <trkpt lat="49.91036" lon="2.39998">
        <ele>65.3</ele>
        <time>2022-09-23T14:26:40Z</time>
      </trkpt>
      <trkpt lat="49.91036" lon="2.39998">
        <ele>65.3</ele>
        <time>2022-09-23T14:26:41Z</time>
      </trkpt>
      <trkpt lat="49.91036" lon="2.39998">
        <ele>65.3</ele>
        <time>2022-09-23T14:26:42Z</time>
      </trkpt>
      <trkpt lat="49.91036" lon="2.39998">
        <ele>65.3</ele>
        <time>2022-09-23T14:26:43Z</time>
      </trkpt>
      <trkpt lat="49.91036" lon="2.39998">
        <ele>65.3</ele>
        <time>2022-09-23T14:26:44Z</time>
      </trkpt>
      <trkpt lat="49.91036" lon="2.39998">
        <ele>65.3</ele>
        <time>2022-09-23T14:26:45Z</time>
      </trkpt>
      <trkpt lat="49.91036" lon="2.39998">
        <ele>65.3</ele>
        <time>2022-09-23T14:26:46Z</time>
      </trkpt>
      <trkpt lat="49.91036" lon="2.39998">
        <ele>65.3</ele>
        <time>2022-09-23T14:26:47Z</time>
      </trkpt>
      <trkpt lat="49.91036" lon="2.39998">
        <ele>65.3</ele>
        <time>2022-09-23T14:26:48Z</time>
      </trkpt>
      <trkpt lat="49.91036" lon="2.39998">
        <ele>65.3</ele>
        <time>2022-09-23T14:26:49Z</time>
      </trkpt>
      <trkpt lat="49.91036" lon="2.39998">
        <ele>65.3</ele>
        <time>2022-09-23T14:26:50Z</time>
      </trkpt>
      <trkpt lat="49.91036" lon="2.39998">
        <ele>65.3</ele>
        <time>2022-09-23T14:26:51Z</time>
      </trkpt>
      <trkpt lat="49.91036" lon="2.39998">
        <ele>65.3</ele>
        <time>2022-09-23T14:26:52Z</time>
      </trkpt>
      <trkpt lat="49.91036" lon="2.39998">
        <ele>65.3</ele>
        <time>2022-09-23T14:26:53Z</time>
      </trkpt>
      <trkpt lat="49.91036" lon="2.39998">
        <ele>65.3</ele>
        <time>2022-09-23T14:26:54Z</time>
      </trkpt>
      <trkpt lat="49.91036" lon="2.39998">
        <ele>65.3</ele>
        <time>2022-09-23T14:26:55Z</time>
      </trkpt>
      <trkpt lat="49.91036" lon="2.39998">
        <ele>65.3</ele>
        <time>2022-09-23T14:26:56Z</time>
      </trkpt>
      <trkpt lat="49.91036" lon="2.39998">
        <ele>65.3</ele>
        <time>2022-09-23T14:26:57Z</time>
      </trkpt>
      <trkpt lat="49.91036" lon="2.39998">
        <ele>65.3</ele>
        <time>2022-09-23T14:26:58Z</time>
      </trkpt>
      <trkpt lat="49.91036" lon="2.39998">
        <ele>65.3</ele>
        <time>2022-09-23T14:26:59Z</time>
      </trkpt>
      <trkpt lat="49.91036" lon="2.39998">
        <ele>65.3</ele>
        <time>2022-09-23T14:27:00Z</time>
      </trkpt>
      <trkpt lat="49.91036" lon="2.39998">
        <ele>65.3</ele>
        <time>2022-09-23T14:27:01Z</time>
      </trkpt>
      <trkpt lat="49.91036" lon="2.39998">
        <ele>65.3</ele>
        <time>2022-09-23T14:27:02Z</time>
      </trkpt>
      <trkpt lat="49.91036" lon="2.39998">
        <ele>65.3</ele>
        <time>2022-09-23T14:27:03Z</time>
      </trkpt>
      <trkpt lat="49.91036" lon="2.39998">
        <ele>65.3</ele>
        <time>2022-09-23T14:27:04Z</time>
      </trkpt>
      <trkpt lat="49.91036" lon="2.39998">
        <ele>65.3</ele>
        <time>2022-09-23T14:27:05Z</time>
      </trkpt>
      <trkpt lat="49.91036" lon="2.39998">
        <ele>65.3</ele>
        <time>2022-09-23T14:27:06Z</time>
      </trkpt>
      <trkpt lat="49.91036" lon="2.39998">
        <ele>65.3</ele>
        <time>2022-09-23T14:27:07Z</time>
      </trkpt>
      <trkpt lat="49.91036" lon="2.39998">
        <ele>65.3</ele>
        <time>2022-09-23T14:27:08Z</time>
      </trkpt>
      <trkpt lat="49.91036" lon="2.39998">
        <ele>65.3</ele>
        <time>2022-09-23T14:27:09Z</time>
      </trkpt>
      <trkpt lat="49.91036" lon="2.39998">
        <ele>65.3</ele>
        <time>2022-09-23T14:27:10Z</time>
      </trkpt>
      <trkpt lat="49.91036" lon="2.39998">
        <ele>65.3</ele>
        <time>2022-09-23T14:27:11Z</time>
      </trkpt>
      <trkpt lat="49.91036" lon="2.39998">
        <ele>65.3</ele>
        <time>2022-09-23T14:27:12Z</time>
      </trkpt>
      <trkpt lat="49.91036" lon="2.39998">
        <ele>65.3</ele>
        <time>2022-09-23T14:27:13Z</time>
      </trkpt>
      <trkpt lat="49.91036" lon="2.39998">
        <ele>65.3</ele>
        <time>2022-09-23T14:27:14Z</time>
      </trkpt>
      <trkpt lat="49.91036" lon="2.39998">
        <ele>65.3</ele>
        <time>2022-09-23T14:27:15Z</time>
      </trkpt>
      <trkpt lat="49.91036" lon="2.39998">
        <ele>65.3</ele>
        <time>2022-09-23T14:27:16Z</time>
      </trkpt>
      <trkpt lat="49.91036" lon="2.39998">
        <ele>65.3</ele>
        <time>2022-09-23T14:27:17Z</time>
      </trkpt>
      <trkpt lat="49.91036" lon="2.39998">
        <ele>65.3</ele>
        <time>2022-09-23T14:27:18Z</time>
      </trkpt>
      <trkpt lat="49.91036" lon="2.39998">
        <ele>65.3</ele>
        <time>2022-09-23T14:27:19Z</time>
      </trkpt>
      <trkpt lat="49.91036" lon="2.39998">
        <ele>65.3</ele>
        <time>2022-09-23T14:27:20Z</time>
      </trkpt>
      <trkpt lat="49.91036" lon="2.39998">
        <ele>65.3</ele>
        <time>2022-09-23T14:27:21Z</time>
      </trkpt>
      <trkpt lat="49.91036" lon="2.39998">
        <ele>65.3</ele>
        <time>2022-09-23T14:27:22Z</time>
      </trkpt>
      <trkpt lat="49.91036" lon="2.39998">
        <ele>65.3</ele>
        <time>2022-09-23T14:27:23Z</time>
      </trkpt>
      <trkpt lat="49.91036" lon="2.39998">
        <ele>65.3</ele>
        <time>2022-09-23T14:27:24Z</time>
      </trkpt>
      <trkpt lat="49.91036" lon="2.39998">
        <ele>65.3</ele>
        <time>2022-09-23T14:27:25Z</time>
      </trkpt>
      <trkpt lat="49.91036" lon="2.39998">
        <ele>65.3</ele>
        <time>2022-09-23T14:27:26Z</time>
      </trkpt>
      <trkpt lat="49.91034" lon="2.39996">
        <ele>65.3</ele>
        <time>2022-09-23T14:27:27Z</time>
      </trkpt>
      <trkpt lat="49.91033" lon="2.39995">
        <ele>65.3</ele>
        <time>2022-09-23T14:27:28Z</time>
      </trkpt>
      <trkpt lat="49.91033" lon="2.39993">
        <ele>65.3</ele>
        <time>2022-09-23T14:27:29Z</time>
      </trkpt>
      <trkpt lat="49.91034" lon="2.39993">
        <ele>65.3</ele>
        <time>2022-09-23T14:27:30Z</time>
      </trkpt>
      <trkpt lat="49.91034" lon="2.39995">
        <ele>65.3</ele>
        <time>2022-09-23T14:27:32Z</time>
      </trkpt>
      <trkpt lat="49.91033" lon="2.39994">
        <ele>65.3</ele>
        <time>2022-09-23T14:27:33Z</time>
      </trkpt>
      <trkpt lat="49.91033" lon="2.39991">
        <ele>65.3</ele>
        <time>2022-09-23T14:27:34Z</time>
      </trkpt>
      <trkpt lat="49.91034" lon="2.39986">
        <ele>65.2</ele>
        <time>2022-09-23T14:27:36Z</time>
      </trkpt>
      <trkpt lat="49.91034" lon="2.39983">
        <ele>65.2</ele>
        <time>2022-09-23T14:27:37Z</time>
      </trkpt>
      <trkpt lat="49.91035" lon="2.39981">
        <ele>65.2</ele>
        <time>2022-09-23T14:27:38Z</time>
      </trkpt>
      <trkpt lat="49.91036" lon="2.39979">
        <ele>65.2</ele>
        <time>2022-09-23T14:27:39Z</time>
      </trkpt>
      <trkpt lat="49.91037" lon="2.39979">
        <ele>65.2</ele>
        <time>2022-09-23T14:27:41Z</time>
      </trkpt>
      <trkpt lat="49.91037" lon="2.39977">
        <ele>65.2</ele>
        <time>2022-09-23T14:27:42Z</time>
      </trkpt>
      <trkpt lat="49.91037" lon="2.39976">
        <ele>65.2</ele>
        <time>2022-09-23T14:27:43Z</time>
      </trkpt>
      <trkpt lat="49.91037" lon="2.39975">
        <ele>65.2</ele>
        <time>2022-09-23T14:27:44Z</time>
      </trkpt>
      <trkpt lat="49.91037" lon="2.39972">
        <ele>65.2</ele>
        <time>2022-09-23T14:27:46Z</time>
      </trkpt>
      <trkpt lat="49.91037" lon="2.39971">
        <ele>65.2</ele>
        <time>2022-09-23T14:27:47Z</time>
      </trkpt>
      <trkpt lat="49.91038" lon="2.39969">
        <ele>65.1</ele>
        <time>2022-09-23T14:27:48Z</time>
      </trkpt>
      <trkpt lat="49.91038" lon="2.39966">
        <ele>65.1</ele>
        <time>2022-09-23T14:27:50Z</time>
      </trkpt>
      <trkpt lat="49.91038" lon="2.39965">
        <ele>65.1</ele>
        <time>2022-09-23T14:27:51Z</time>
      </trkpt>
      <trkpt lat="49.91038" lon="2.39964">
        <ele>65.1</ele>
        <time>2022-09-23T14:27:52Z</time>
      </trkpt>
      <trkpt lat="49.91038" lon="2.39963">
        <ele>65.1</ele>
        <time>2022-09-23T14:27:53Z</time>
      </trkpt>
      <trkpt lat="49.91038" lon="2.39961">
        <ele>65.1</ele>
        <time>2022-09-23T14:27:54Z</time>
      </trkpt>
      <trkpt lat="49.91038" lon="2.3996">
        <ele>65.1</ele>
        <time>2022-09-23T14:27:55Z</time>
      </trkpt>
      <trkpt lat="49.91038" lon="2.39959">
        <ele>65.1</ele>
        <time>2022-09-23T14:27:56Z</time>
      </trkpt>
      <trkpt lat="49.91038" lon="2.39957">
        <ele>65.1</ele>
        <time>2022-09-23T14:27:57Z</time>
      </trkpt>
      <trkpt lat="49.91038" lon="2.39956">
        <ele>65.1</ele>
        <time>2022-09-23T14:27:59Z</time>
      </trkpt>
      <trkpt lat="49.91038" lon="2.39953">
        <ele>65.1</ele>
        <time>2022-09-23T14:28:00Z</time>
      </trkpt>
      <trkpt lat="49.91038" lon="2.39952">
        <ele>65.1</ele>
        <time>2022-09-23T14:28:01Z</time>
      </trkpt>
      <trkpt lat="49.91038" lon="2.39951">
        <ele>65.1</ele>
        <time>2022-09-23T14:28:02Z</time>
      </trkpt>
      <trkpt lat="49.91038" lon="2.39949">
        <ele>65.1</ele>
        <time>2022-09-23T14:28:03Z</time>
      </trkpt>
      <trkpt lat="49.91038" lon="2.39947">
        <ele>65.1</ele>
        <time>2022-09-23T14:28:05Z</time>
      </trkpt>
      <trkpt lat="49.91038" lon="2.39946">
        <ele>65.1</ele>
        <time>2022-09-23T14:28:06Z</time>
      </trkpt>
      <trkpt lat="49.91038" lon="2.39944">
        <ele>65.1</ele>
        <time>2022-09-23T14:28:07Z</time>
      </trkpt>
      <trkpt lat="49.91039" lon="2.39942">
        <ele>65.1</ele>
        <time>2022-09-23T14:28:08Z</time>
      </trkpt>
      <trkpt lat="49.91039" lon="2.3994">
        <ele>65.1</ele>
        <time>2022-09-23T14:28:10Z</time>
      </trkpt>
      <trkpt lat="49.9104" lon="2.39939">
        <ele>65.1</ele>
        <time>2022-09-23T14:28:11Z</time>
      </trkpt>
      <trkpt lat="49.9104" lon="2.39937">
        <ele>65.1</ele>
        <time>2022-09-23T14:28:12Z</time>
      </trkpt>
      <trkpt lat="49.9104" lon="2.39935">
        <ele>65.1</ele>
        <time>2022-09-23T14:28:13Z</time>
      </trkpt>
      <trkpt lat="49.91041" lon="2.39934">
        <ele>65.1</ele>
        <time>2022-09-23T14:28:14Z</time>
      </trkpt>
      <trkpt lat="49.91041" lon="2.39932">
        <ele>65.1</ele>
        <time>2022-09-23T14:28:15Z</time>
      </trkpt>
      <trkpt lat="49.91041" lon="2.39931">
        <ele>65.1</ele>
        <time>2022-09-23T14:28:17Z</time>
      </trkpt>
      <trkpt lat="49.91042" lon="2.39929">
        <ele>65.1</ele>
        <time>2022-09-23T14:28:18Z</time>
      </trkpt>
      <trkpt lat="49.91042" lon="2.39927">
        <ele>65.1</ele>
        <time>2022-09-23T14:28:19Z</time>
      </trkpt>
      <trkpt lat="49.91042" lon="2.39925">
        <ele>65.1</ele>
        <time>2022-09-23T14:28:20Z</time>
      </trkpt>
      <trkpt lat="49.91042" lon="2.39924">
        <ele>65.1</ele>
        <time>2022-09-23T14:28:21Z</time>
      </trkpt>
      <trkpt lat="49.91041" lon="2.39922">
        <ele>65.1</ele>
        <time>2022-09-23T14:28:22Z</time>
      </trkpt>
      <trkpt lat="49.91042" lon="2.3992">
        <ele>65.1</ele>
        <time>2022-09-23T14:28:24Z</time>
      </trkpt>
      <trkpt lat="49.91042" lon="2.39917">
        <ele>65.2</ele>
        <time>2022-09-23T14:28:25Z</time>
      </trkpt>
      <trkpt lat="49.91042" lon="2.39916">
        <ele>65.2</ele>
        <time>2022-09-23T14:28:26Z</time>
      </trkpt>
      <trkpt lat="49.91041" lon="2.39913">
        <ele>65.2</ele>
        <time>2022-09-23T14:28:28Z</time>
      </trkpt>
      <trkpt lat="49.91041" lon="2.39911">
        <ele>65.2</ele>
        <time>2022-09-23T14:28:29Z</time>
      </trkpt>
      <trkpt lat="49.91041" lon="2.39909">
        <ele>65.2</ele>
        <time>2022-09-23T14:28:30Z</time>
      </trkpt>
      <trkpt lat="49.9104" lon="2.39908">
        <ele>65.2</ele>
        <time>2022-09-23T14:28:31Z</time>
      </trkpt>
      <trkpt lat="49.9104" lon="2.39906">
        <ele>65.2</ele>
        <time>2022-09-23T14:28:32Z</time>
      </trkpt>
      <trkpt lat="49.9104" lon="2.39905">
        <ele>65.2</ele>
        <time>2022-09-23T14:28:33Z</time>
      </trkpt>
      <trkpt lat="49.91039" lon="2.39903">
        <ele>65.2</ele>
        <time>2022-09-23T14:28:34Z</time>
      </trkpt>
      <trkpt lat="49.91039" lon="2.39901">
        <ele>65.2</ele>
        <time>2022-09-23T14:28:36Z</time>
      </trkpt>
      <trkpt lat="49.91039" lon="2.399">
        <ele>65.3</ele>
        <time>2022-09-23T14:28:37Z</time>
      </trkpt>
      <trkpt lat="49.91038" lon="2.39897">
        <ele>65.3</ele>
        <time>2022-09-23T14:28:38Z</time>
      </trkpt>
      <trkpt lat="49.91038" lon="2.39895">
        <ele>65.3</ele>
        <time>2022-09-23T14:28:39Z</time>
      </trkpt>
      <trkpt lat="49.91038" lon="2.39894">
        <ele>65.3</ele>
        <time>2022-09-23T14:28:40Z</time>
      </trkpt>
      <trkpt lat="49.91038" lon="2.39892">
        <ele>65.3</ele>
        <time>2022-09-23T14:28:41Z</time>
      </trkpt>
      <trkpt lat="49.91038" lon="2.3989">
        <ele>65.3</ele>
        <time>2022-09-23T14:28:43Z</time>
      </trkpt>
      <trkpt lat="49.91037" lon="2.39889">
        <ele>65.3</ele>
        <time>2022-09-23T14:28:44Z</time>
      </trkpt>
      <trkpt lat="49.91037" lon="2.39887">
        <ele>65.3</ele>
        <time>2022-09-23T14:28:45Z</time>
      </trkpt>
      <trkpt lat="49.91037" lon="2.39886">
        <ele>65.3</ele>
        <time>2022-09-23T14:28:46Z</time>
      </trkpt>
      <trkpt lat="49.91037" lon="2.39884">
        <ele>65.3</ele>
        <time>2022-09-23T14:28:47Z</time>
      </trkpt>
      <trkpt lat="49.91037" lon="2.39882">
        <ele>65.4</ele>
        <time>2022-09-23T14:28:48Z</time>
      </trkpt>
      <trkpt lat="49.91037" lon="2.39881">
        <ele>65.4</ele>
        <time>2022-09-23T14:28:49Z</time>
      </trkpt>
      <trkpt lat="49.91037" lon="2.39879">
        <ele>65.4</ele>
        <time>2022-09-23T14:28:51Z</time>
      </trkpt>
      <trkpt lat="49.91037" lon="2.39877">
        <ele>65.4</ele>
        <time>2022-09-23T14:28:52Z</time>
      </trkpt>
      <trkpt lat="49.91036" lon="2.39874">
        <ele>65.4</ele>
        <time>2022-09-23T14:28:53Z</time>
      </trkpt>
      <trkpt lat="49.91036" lon="2.39872">
        <ele>65.4</ele>
        <time>2022-09-23T14:28:54Z</time>
      </trkpt>
      <trkpt lat="49.91036" lon="2.39871">
        <ele>65.4</ele>
        <time>2022-09-23T14:28:55Z</time>
      </trkpt>
      <trkpt lat="49.91036" lon="2.3987">
        <ele>65.4</ele>
        <time>2022-09-23T14:28:56Z</time>
      </trkpt>
      <trkpt lat="49.91036" lon="2.39868">
        <ele>65.4</ele>
        <time>2022-09-23T14:28:57Z</time>
      </trkpt>
      <trkpt lat="49.91036" lon="2.39866">
        <ele>65.4</ele>
        <time>2022-09-23T14:28:59Z</time>
      </trkpt>
      <trkpt lat="49.91036" lon="2.39864">
        <ele>65.4</ele>
        <time>2022-09-23T14:29:00Z</time>
      </trkpt>
      <trkpt lat="49.91037" lon="2.39862">
        <ele>65.4</ele>
        <time>2022-09-23T14:29:01Z</time>
      </trkpt>
      <trkpt lat="49.91037" lon="2.39861">
        <ele>65.4</ele>
        <time>2022-09-23T14:29:02Z</time>
      </trkpt>
      <trkpt lat="49.91037" lon="2.39859">
        <ele>65.5</ele>
        <time>2022-09-23T14:29:03Z</time>
      </trkpt>
      <trkpt lat="49.91038" lon="2.39857">
        <ele>65.5</ele>
        <time>2022-09-23T14:29:04Z</time>
      </trkpt>
      <trkpt lat="49.91038" lon="2.39855">
        <ele>65.5</ele>
        <time>2022-09-23T14:29:05Z</time>
      </trkpt>
      <trkpt lat="49.91038" lon="2.39854">
        <ele>65.5</ele>
        <time>2022-09-23T14:29:07Z</time>
      </trkpt>
      <trkpt lat="49.91038" lon="2.39852">
        <ele>65.5</ele>
        <time>2022-09-23T14:29:08Z</time>
      </trkpt>
      <trkpt lat="49.91039" lon="2.3985">
        <ele>65.5</ele>
        <time>2022-09-23T14:29:09Z</time>
      </trkpt>
      <trkpt lat="49.9104" lon="2.39847">
        <ele>65.5</ele>
        <time>2022-09-23T14:29:10Z</time>
      </trkpt>
      <trkpt lat="49.9104" lon="2.39846">
        <ele>65.5</ele>
        <time>2022-09-23T14:29:11Z</time>
      </trkpt>
      <trkpt lat="49.9104" lon="2.39845">
        <ele>65.5</ele>
        <time>2022-09-23T14:29:12Z</time>
      </trkpt>
      <trkpt lat="49.9104" lon="2.39843">
        <ele>65.5</ele>
        <time>2022-09-23T14:29:13Z</time>
      </trkpt>
      <trkpt lat="49.9104" lon="2.39841">
        <ele>65.5</ele>
        <time>2022-09-23T14:29:14Z</time>
      </trkpt>
      <trkpt lat="49.9104" lon="2.39839">
        <ele>65.5</ele>
        <time>2022-09-23T14:29:16Z</time>
      </trkpt>
      <trkpt lat="49.9104" lon="2.39838">
        <ele>65.5</ele>
        <time>2022-09-23T14:29:17Z</time>
      </trkpt>
      <trkpt lat="49.9104" lon="2.39836">
        <ele>65.5</ele>
        <time>2022-09-23T14:29:18Z</time>
      </trkpt>
      <trkpt lat="49.9104" lon="2.39834">
        <ele>65.6</ele>
        <time>2022-09-23T14:29:19Z</time>
      </trkpt>
      <trkpt lat="49.9104" lon="2.39832">
        <ele>65.6</ele>
        <time>2022-09-23T14:29:20Z</time>
      </trkpt>
      <trkpt lat="49.9104" lon="2.3983">
        <ele>65.6</ele>
        <time>2022-09-23T14:29:21Z</time>
      </trkpt>
      <trkpt lat="49.9104" lon="2.39826">
        <ele>65.6</ele>
        <time>2022-09-23T14:29:22Z</time>
      </trkpt>
      <trkpt lat="49.9104" lon="2.39824">
        <ele>65.6</ele>
        <time>2022-09-23T14:29:23Z</time>
      </trkpt>
      <trkpt lat="49.9104" lon="2.39823">
        <ele>65.7</ele>
        <time>2022-09-23T14:29:25Z</time>
      </trkpt>
      <trkpt lat="49.9104" lon="2.39821">
        <ele>65.7</ele>
        <time>2022-09-23T14:29:26Z</time>
      </trkpt>
      <trkpt lat="49.9104" lon="2.3982">
        <ele>65.7</ele>
        <time>2022-09-23T14:29:27Z</time>
      </trkpt>
      <trkpt lat="49.9104" lon="2.39818">
        <ele>65.7</ele>
        <time>2022-09-23T14:29:28Z</time>
      </trkpt>
      <trkpt lat="49.9104" lon="2.39816">
        <ele>65.7</ele>
        <time>2022-09-23T14:29:29Z</time>
      </trkpt>
      <trkpt lat="49.9104" lon="2.39814">
        <ele>65.7</ele>
        <time>2022-09-23T14:29:30Z</time>
      </trkpt>
      <trkpt lat="49.9104" lon="2.39812">
        <ele>65.7</ele>
        <time>2022-09-23T14:29:31Z</time>
      </trkpt>
      <trkpt lat="49.9104" lon="2.39811">
        <ele>65.8</ele>
        <time>2022-09-23T14:29:32Z</time>
      </trkpt>
      <trkpt lat="49.9104" lon="2.39809">
        <ele>65.8</ele>
        <time>2022-09-23T14:29:33Z</time>
      </trkpt>
      <trkpt lat="49.9104" lon="2.39806">
        <ele>65.8</ele>
        <time>2022-09-23T14:29:35Z</time>
      </trkpt>
      <trkpt lat="49.9104" lon="2.39804">
        <ele>65.8</ele>
        <time>2022-09-23T14:29:36Z</time>
      </trkpt>
      <trkpt lat="49.9104" lon="2.39803">
        <ele>65.8</ele>
        <time>2022-09-23T14:29:37Z</time>
      </trkpt>
      <trkpt lat="49.9104" lon="2.398">
        <ele>65.9</ele>
        <time>2022-09-23T14:29:38Z</time>
      </trkpt>
      <trkpt lat="49.9104" lon="2.39799">
        <ele>65.9</ele>
        <time>2022-09-23T14:29:39Z</time>
      </trkpt>
      <trkpt lat="49.9104" lon="2.39797">
        <ele>65.9</ele>
        <time>2022-09-23T14:29:40Z</time>
      </trkpt>
      <trkpt lat="49.9104" lon="2.39796">
        <ele>65.9</ele>
        <time>2022-09-23T14:29:41Z</time>
      </trkpt>
      <trkpt lat="49.9104" lon="2.39794">
        <ele>65.9</ele>
        <time>2022-09-23T14:29:42Z</time>
      </trkpt>
      <trkpt lat="49.9104" lon="2.39792">
        <ele>65.9</ele>
        <time>2022-09-23T14:29:44Z</time>
      </trkpt>
      <trkpt lat="49.9104" lon="2.39791">
        <ele>65.9</ele>
        <time>2022-09-23T14:29:45Z</time>
      </trkpt>
      <trkpt lat="49.9104" lon="2.39789">
        <ele>65.9</ele>
        <time>2022-09-23T14:29:46Z</time>
      </trkpt>
      <trkpt lat="49.9104" lon="2.39787">
        <ele>65.9</ele>
        <time>2022-09-23T14:29:47Z</time>
      </trkpt>
      <trkpt lat="49.91039" lon="2.39784">
        <ele>65.9</ele>
        <time>2022-09-23T14:29:48Z</time>
      </trkpt>
      <trkpt lat="49.9104" lon="2.39782">
        <ele>66</ele>
        <time>2022-09-23T14:29:49Z</time>
      </trkpt>
      <trkpt lat="49.9104" lon="2.39781">
        <ele>66</ele>
        <time>2022-09-23T14:29:50Z</time>
      </trkpt>
      <trkpt lat="49.9104" lon="2.39779">
        <ele>66</ele>
        <time>2022-09-23T14:29:51Z</time>
      </trkpt>
      <trkpt lat="49.9104" lon="2.39778">
        <ele>66</ele>
        <time>2022-09-23T14:29:53Z</time>
      </trkpt>
      <trkpt lat="49.9104" lon="2.39776">
        <ele>66</ele>
        <time>2022-09-23T14:29:54Z</time>
      </trkpt>
      <trkpt lat="49.9104" lon="2.39774">
        <ele>66</ele>
        <time>2022-09-23T14:29:55Z</time>
      </trkpt>
      <trkpt lat="49.9104" lon="2.39773">
        <ele>66</ele>
        <time>2022-09-23T14:29:56Z</time>
      </trkpt>
      <trkpt lat="49.9104" lon="2.39771">
        <ele>66</ele>
        <time>2022-09-23T14:29:57Z</time>
      </trkpt>
      <trkpt lat="49.9104" lon="2.39769">
        <ele>66</ele>
        <time>2022-09-23T14:29:58Z</time>
      </trkpt>
      <trkpt lat="49.9104" lon="2.39767">
        <ele>66</ele>
        <time>2022-09-23T14:29:59Z</time>
      </trkpt>
      <trkpt lat="49.9104" lon="2.39766">
        <ele>66.1</ele>
        <time>2022-09-23T14:30:01Z</time>
      </trkpt>
      <trkpt lat="49.9104" lon="2.39764">
        <ele>66.1</ele>
        <time>2022-09-23T14:30:02Z</time>
      </trkpt>
      <trkpt lat="49.9104" lon="2.39762">
        <ele>66.1</ele>
        <time>2022-09-23T14:30:03Z</time>
      </trkpt>
      <trkpt lat="49.9104" lon="2.39761">
        <ele>66.1</ele>
        <time>2022-09-23T14:30:04Z</time>
      </trkpt>
      <trkpt lat="49.9104" lon="2.39759">
        <ele>66.1</ele>
        <time>2022-09-23T14:30:05Z</time>
      </trkpt>
      <trkpt lat="49.9104" lon="2.39758">
        <ele>66.1</ele>
        <time>2022-09-23T14:30:06Z</time>
      </trkpt>
      <trkpt lat="49.9104" lon="2.39756">
        <ele>66.1</ele>
        <time>2022-09-23T14:30:08Z</time>
      </trkpt>
      <trkpt lat="49.9104" lon="2.39755">
        <ele>66.1</ele>
        <time>2022-09-23T14:30:09Z</time>
      </trkpt>
      <trkpt lat="49.9104" lon="2.39753">
        <ele>66.2</ele>
        <time>2022-09-23T14:30:10Z</time>
      </trkpt>
      <trkpt lat="49.9104" lon="2.39752">
        <ele>66.2</ele>
        <time>2022-09-23T14:30:11Z</time>
      </trkpt>
      <trkpt lat="49.9104" lon="2.3975">
        <ele>66.2</ele>
        <time>2022-09-23T14:30:12Z</time>
      </trkpt>
      <trkpt lat="49.9104" lon="2.39748">
        <ele>66.2</ele>
        <time>2022-09-23T14:30:13Z</time>
      </trkpt>
      <trkpt lat="49.9104" lon="2.39746">
        <ele>66.2</ele>
        <time>2022-09-23T14:30:14Z</time>
      </trkpt>
      <trkpt lat="49.9104" lon="2.39743">
        <ele>66.2</ele>
        <time>2022-09-23T14:30:16Z</time>
      </trkpt>
      <trkpt lat="49.9104" lon="2.39742">
        <ele>66.2</ele>
        <time>2022-09-23T14:30:17Z</time>
      </trkpt>
      <trkpt lat="49.91041" lon="2.3974">
        <ele>66.3</ele>
        <time>2022-09-23T14:30:18Z</time>
      </trkpt>
      <trkpt lat="49.91041" lon="2.39738">
        <ele>66.3</ele>
        <time>2022-09-23T14:30:20Z</time>
      </trkpt>
      <trkpt lat="49.91041" lon="2.39736">
        <ele>66.3</ele>
        <time>2022-09-23T14:30:21Z</time>
      </trkpt>
      <trkpt lat="49.91041" lon="2.39734">
        <ele>66.3</ele>
        <time>2022-09-23T14:30:22Z</time>
      </trkpt>
      <trkpt lat="49.91041" lon="2.39733">
        <ele>66.3</ele>
        <time>2022-09-23T14:30:23Z</time>
      </trkpt>
      <trkpt lat="49.91041" lon="2.39731">
        <ele>66.3</ele>
        <time>2022-09-23T14:30:24Z</time>
      </trkpt>
      <trkpt lat="49.91041" lon="2.39729">
        <ele>66.4</ele>
        <time>2022-09-23T14:30:25Z</time>
      </trkpt>
      <trkpt lat="49.91041" lon="2.39727">
        <ele>66.4</ele>
        <time>2022-09-23T14:30:26Z</time>
      </trkpt>
      <trkpt lat="49.91041" lon="2.39725">
        <ele>66.4</ele>
        <time>2022-09-23T14:30:28Z</time>
      </trkpt>
      <trkpt lat="49.91041" lon="2.39722">
        <ele>66.4</ele>
        <time>2022-09-23T14:30:29Z</time>
      </trkpt>
      <trkpt lat="49.91042" lon="2.39721">
        <ele>66.4</ele>
        <time>2022-09-23T14:30:30Z</time>
      </trkpt>
      <trkpt lat="49.91042" lon="2.3972">
        <ele>66.4</ele>
        <time>2022-09-23T14:30:31Z</time>
      </trkpt>
      <trkpt lat="49.91042" lon="2.39716">
        <ele>66.4</ele>
        <time>2022-09-23T14:30:32Z</time>
      </trkpt>
      <trkpt lat="49.91042" lon="2.39715">
        <ele>66.4</ele>
        <time>2022-09-23T14:30:33Z</time>
      </trkpt>
      <trkpt lat="49.91042" lon="2.39714">
        <ele>66.4</ele>
        <time>2022-09-23T14:30:34Z</time>
      </trkpt>
      <trkpt lat="49.91042" lon="2.39712">
        <ele>66.4</ele>
        <time>2022-09-23T14:30:36Z</time>
      </trkpt>
      <trkpt lat="49.91042" lon="2.3971">
        <ele>66.5</ele>
        <time>2022-09-23T14:30:37Z</time>
      </trkpt>
      <trkpt lat="49.91042" lon="2.39708">
        <ele>66.5</ele>
        <time>2022-09-23T14:30:38Z</time>
      </trkpt>
      <trkpt lat="49.91042" lon="2.39707">
        <ele>66.5</ele>
        <time>2022-09-23T14:30:39Z</time>
      </trkpt>
      <trkpt lat="49.91042" lon="2.39705">
        <ele>66.5</ele>
        <time>2022-09-23T14:30:40Z</time>
      </trkpt>
      <trkpt lat="49.91041" lon="2.39703">
        <ele>66.5</ele>
        <time>2022-09-23T14:30:41Z</time>
      </trkpt>
      <trkpt lat="49.91041" lon="2.397">
        <ele>66.5</ele>
        <time>2022-09-23T14:30:42Z</time>
      </trkpt>
      <trkpt lat="49.91041" lon="2.39699">
        <ele>66.5</ele>
        <time>2022-09-23T14:30:44Z</time>
      </trkpt>
      <trkpt lat="49.91041" lon="2.39697">
        <ele>66.5</ele>
        <time>2022-09-23T14:30:45Z</time>
      </trkpt>
      <trkpt lat="49.91041" lon="2.39695">
        <ele>66.5</ele>
        <time>2022-09-23T14:30:46Z</time>
      </trkpt>
      <trkpt lat="49.91041" lon="2.39694">
        <ele>66.6</ele>
        <time>2022-09-23T14:30:47Z</time>
      </trkpt>
      <trkpt lat="49.91041" lon="2.39692">
        <ele>66.6</ele>
        <time>2022-09-23T14:30:48Z</time>
      </trkpt>
      <trkpt lat="49.91041" lon="2.39689">
        <ele>66.6</ele>
        <time>2022-09-23T14:30:49Z</time>
      </trkpt>
      <trkpt lat="49.91041" lon="2.39687">
        <ele>66.6</ele>
        <time>2022-09-23T14:30:50Z</time>
      </trkpt>
      <trkpt lat="49.91041" lon="2.39686">
        <ele>66.6</ele>
        <time>2022-09-23T14:30:51Z</time>
      </trkpt>
      <trkpt lat="49.91041" lon="2.39684">
        <ele>66.6</ele>
        <time>2022-09-23T14:30:53Z</time>
      </trkpt>
      <trkpt lat="49.91041" lon="2.39682">
        <ele>66.6</ele>
        <time>2022-09-23T14:30:54Z</time>
      </trkpt>
      <trkpt lat="49.91041" lon="2.39679">
        <ele>66.6</ele>
        <time>2022-09-23T14:30:55Z</time>
      </trkpt>
      <trkpt lat="49.91042" lon="2.39678">
        <ele>66.6</ele>
        <time>2022-09-23T14:30:56Z</time>
      </trkpt>
      <trkpt lat="49.91042" lon="2.39676">
        <ele>66.6</ele>
        <time>2022-09-23T14:30:57Z</time>
      </trkpt>
      <trkpt lat="49.91042" lon="2.39673">
        <ele>66.7</ele>
        <time>2022-09-23T14:30:58Z</time>
      </trkpt>
      <trkpt lat="49.91042" lon="2.39672">
        <ele>66.7</ele>
        <time>2022-09-23T14:30:59Z</time>
      </trkpt>
      <trkpt lat="49.91042" lon="2.39671">
        <ele>66.7</ele>
        <time>2022-09-23T14:31:00Z</time>
      </trkpt>
      <trkpt lat="49.91042" lon="2.39669">
        <ele>66.7</ele>
        <time>2022-09-23T14:31:01Z</time>
      </trkpt>
      <trkpt lat="49.91042" lon="2.39667">
        <ele>66.7</ele>
        <time>2022-09-23T14:31:02Z</time>
      </trkpt>
      <trkpt lat="49.91042" lon="2.39665">
        <ele>66.7</ele>
        <time>2022-09-23T14:31:04Z</time>
      </trkpt>
      <trkpt lat="49.91042" lon="2.39663">
        <ele>66.7</ele>
        <time>2022-09-23T14:31:05Z</time>
      </trkpt>
      <trkpt lat="49.91042" lon="2.39661">
        <ele>66.7</ele>
        <time>2022-09-23T14:31:06Z</time>
      </trkpt>
      <trkpt lat="49.91042" lon="2.39659">
        <ele>66.7</ele>
        <time>2022-09-23T14:31:07Z</time>
      </trkpt>
      <trkpt lat="49.91042" lon="2.39656">
        <ele>66.7</ele>
        <time>2022-09-23T14:31:08Z</time>
      </trkpt>
      <trkpt lat="49.91042" lon="2.39655">
        <ele>66.7</ele>
        <time>2022-09-23T14:31:09Z</time>
      </trkpt>
      <trkpt lat="49.91042" lon="2.39653">
        <ele>66.7</ele>
        <time>2022-09-23T14:31:10Z</time>
      </trkpt>
      <trkpt lat="49.91042" lon="2.39651">
        <ele>66.7</ele>
        <time>2022-09-23T14:31:12Z</time>
      </trkpt>
      <trkpt lat="49.91042" lon="2.39648">
        <ele>66.8</ele>
        <time>2022-09-23T14:31:13Z</time>
      </trkpt>
      <trkpt lat="49.91042" lon="2.39646">
        <ele>66.8</ele>
        <time>2022-09-23T14:31:14Z</time>
      </trkpt>
      <trkpt lat="49.91042" lon="2.39644">
        <ele>66.8</ele>
        <time>2022-09-23T14:31:15Z</time>
      </trkpt>
      <trkpt lat="49.91042" lon="2.39642">
        <ele>66.8</ele>
        <time>2022-09-23T14:31:16Z</time>
      </trkpt>
      <trkpt lat="49.91041" lon="2.39639">
        <ele>66.8</ele>
        <time>2022-09-23T14:31:17Z</time>
      </trkpt>
      <trkpt lat="49.91041" lon="2.39636">
        <ele>66.8</ele>
        <time>2022-09-23T14:31:18Z</time>
      </trkpt>
      <trkpt lat="49.91041" lon="2.39635">
        <ele>66.8</ele>
        <time>2022-09-23T14:31:19Z</time>
      </trkpt>
      <trkpt lat="49.9104" lon="2.39634">
        <ele>66.8</ele>
        <time>2022-09-23T14:31:20Z</time>
      </trkpt>
      <trkpt lat="49.9104" lon="2.39631">
        <ele>66.8</ele>
        <time>2022-09-23T14:31:22Z</time>
      </trkpt>
      <trkpt lat="49.91039" lon="2.39629">
        <ele>66.8</ele>
        <time>2022-09-23T14:31:23Z</time>
      </trkpt>
      <trkpt lat="49.91039" lon="2.39628">
        <ele>66.8</ele>
        <time>2022-09-23T14:31:24Z</time>
      </trkpt>
      <trkpt lat="49.91039" lon="2.39626">
        <ele>66.8</ele>
        <time>2022-09-23T14:31:25Z</time>
      </trkpt>
      <trkpt lat="49.91039" lon="2.39624">
        <ele>66.8</ele>
        <time>2022-09-23T14:31:26Z</time>
      </trkpt>
      <trkpt lat="49.91038" lon="2.3962">
        <ele>66.9</ele>
        <time>2022-09-23T14:31:27Z</time>
      </trkpt>
      <trkpt lat="49.91038" lon="2.39619">
        <ele>66.9</ele>
        <time>2022-09-23T14:31:29Z</time>
      </trkpt>
      <trkpt lat="49.91038" lon="2.39617">
        <ele>66.9</ele>
        <time>2022-09-23T14:31:30Z</time>
      </trkpt>
      <trkpt lat="49.91038" lon="2.39615">
        <ele>66.9</ele>
        <time>2022-09-23T14:31:31Z</time>
      </trkpt>
      <trkpt lat="49.91038" lon="2.39614">
        <ele>66.9</ele>
        <time>2022-09-23T14:31:32Z</time>
      </trkpt>
      <trkpt lat="49.91038" lon="2.39612">
        <ele>66.9</ele>
        <time>2022-09-23T14:31:33Z</time>
      </trkpt>
      <trkpt lat="49.91038" lon="2.3961">
        <ele>66.9</ele>
        <time>2022-09-23T14:31:34Z</time>
      </trkpt>
      <trkpt lat="49.91037" lon="2.39609">
        <ele>66.9</ele>
        <time>2022-09-23T14:31:35Z</time>
      </trkpt>
      <trkpt lat="49.91037" lon="2.39607">
        <ele>66.9</ele>
        <time>2022-09-23T14:31:36Z</time>
      </trkpt>
      <trkpt lat="49.91037" lon="2.39604">
        <ele>67</ele>
        <time>2022-09-23T14:31:38Z</time>
      </trkpt>
      <trkpt lat="49.91037" lon="2.39602">
        <ele>67</ele>
        <time>2022-09-23T14:31:39Z</time>
      </trkpt>
      <trkpt lat="49.91038" lon="2.39601">
        <ele>67</ele>
        <time>2022-09-23T14:31:40Z</time>
      </trkpt>
      <trkpt lat="49.91038" lon="2.396">
        <ele>67</ele>
        <time>2022-09-23T14:31:41Z</time>
      </trkpt>
      <trkpt lat="49.91038" lon="2.39598">
        <ele>67</ele>
        <time>2022-09-23T14:31:42Z</time>
      </trkpt>
      <trkpt lat="49.91038" lon="2.39596">
        <ele>67</ele>
        <time>2022-09-23T14:31:44Z</time>
      </trkpt>
      <trkpt lat="49.91038" lon="2.39594">
        <ele>67</ele>
        <time>2022-09-23T14:31:45Z</time>
      </trkpt>
      <trkpt lat="49.91038" lon="2.39593">
        <ele>67</ele>
        <time>2022-09-23T14:31:46Z</time>
      </trkpt>
      <trkpt lat="49.91038" lon="2.39591">
        <ele>67</ele>
        <time>2022-09-23T14:31:47Z</time>
      </trkpt>
      <trkpt lat="49.91038" lon="2.39589">
        <ele>67</ele>
        <time>2022-09-23T14:31:48Z</time>
      </trkpt>
      <trkpt lat="49.91037" lon="2.39586">
        <ele>67</ele>
        <time>2022-09-23T14:31:49Z</time>
      </trkpt>
      <trkpt lat="49.91037" lon="2.39585">
        <ele>67</ele>
        <time>2022-09-23T14:31:50Z</time>
      </trkpt>
      <trkpt lat="49.91037" lon="2.39584">
        <ele>67</ele>
        <time>2022-09-23T14:31:51Z</time>
      </trkpt>
      <trkpt lat="49.91037" lon="2.39582">
        <ele>67</ele>
        <time>2022-09-23T14:31:52Z</time>
      </trkpt>
      <trkpt lat="49.91036" lon="2.39581">
        <ele>67.1</ele>
        <time>2022-09-23T14:31:53Z</time>
      </trkpt>
      <trkpt lat="49.91036" lon="2.39579">
        <ele>67.1</ele>
        <time>2022-09-23T14:31:54Z</time>
      </trkpt>
      <trkpt lat="49.91036" lon="2.39578">
        <ele>67.1</ele>
        <time>2022-09-23T14:31:55Z</time>
      </trkpt>
      <trkpt lat="49.91036" lon="2.39576">
        <ele>67.1</ele>
        <time>2022-09-23T14:31:56Z</time>
      </trkpt>
      <trkpt lat="49.91035" lon="2.39574">
        <ele>67.1</ele>
        <time>2022-09-23T14:31:57Z</time>
      </trkpt>
      <trkpt lat="49.91035" lon="2.39573">
        <ele>67.1</ele>
        <time>2022-09-23T14:31:58Z</time>
      </trkpt>
      <trkpt lat="49.91035" lon="2.3957">
        <ele>67.1</ele>
        <time>2022-09-23T14:32:00Z</time>
      </trkpt>
      <trkpt lat="49.91035" lon="2.39568">
        <ele>67.1</ele>
        <time>2022-09-23T14:32:01Z</time>
      </trkpt>
      <trkpt lat="49.91035" lon="2.39566">
        <ele>67.1</ele>
        <time>2022-09-23T14:32:02Z</time>
      </trkpt>
      <trkpt lat="49.91035" lon="2.39565">
        <ele>67.1</ele>
        <time>2022-09-23T14:32:03Z</time>
      </trkpt>
      <trkpt lat="49.91035" lon="2.39563">
        <ele>67.1</ele>
        <time>2022-09-23T14:32:04Z</time>
      </trkpt>
      <trkpt lat="49.91035" lon="2.39561">
        <ele>67.1</ele>
        <time>2022-09-23T14:32:05Z</time>
      </trkpt>
      <trkpt lat="49.91035" lon="2.39559">
        <ele>67.1</ele>
        <time>2022-09-23T14:32:06Z</time>
      </trkpt>
      <trkpt lat="49.91035" lon="2.39557">
        <ele>67.1</ele>
        <time>2022-09-23T14:32:07Z</time>
      </trkpt>
      <trkpt lat="49.91035" lon="2.39555">
        <ele>67.1</ele>
        <time>2022-09-23T14:32:09Z</time>
      </trkpt>
      <trkpt lat="49.91035" lon="2.39553">
        <ele>67.1</ele>
        <time>2022-09-23T14:32:10Z</time>
      </trkpt>
      <trkpt lat="49.91035" lon="2.3955">
        <ele>67.1</ele>
        <time>2022-09-23T14:32:11Z</time>
      </trkpt>
      <trkpt lat="49.91035" lon="2.39548">
        <ele>67.1</ele>
        <time>2022-09-23T14:32:12Z</time>
      </trkpt>
      <trkpt lat="49.91034" lon="2.39547">
        <ele>67.1</ele>
        <time>2022-09-23T14:32:13Z</time>
      </trkpt>
      <trkpt lat="49.91033" lon="2.39543">
        <ele>67.1</ele>
        <time>2022-09-23T14:32:14Z</time>
      </trkpt>
      <trkpt lat="49.91033" lon="2.39542">
        <ele>67.1</ele>
        <time>2022-09-23T14:32:15Z</time>
      </trkpt>
      <trkpt lat="49.91033" lon="2.39541">
        <ele>67.1</ele>
        <time>2022-09-23T14:32:16Z</time>
      </trkpt>
      <trkpt lat="49.91032" lon="2.39539">
        <ele>67.1</ele>
        <time>2022-09-23T14:32:17Z</time>
      </trkpt>
      <trkpt lat="49.91032" lon="2.39538">
        <ele>67.1</ele>
        <time>2022-09-23T14:32:18Z</time>
      </trkpt>
      <trkpt lat="49.91031" lon="2.39537">
        <ele>67.1</ele>
        <time>2022-09-23T14:32:19Z</time>
      </trkpt>
      <trkpt lat="49.91031" lon="2.39536">
        <ele>67.1</ele>
        <time>2022-09-23T14:32:20Z</time>
      </trkpt>
      <trkpt lat="49.91031" lon="2.39535">
        <ele>67.1</ele>
        <time>2022-09-23T14:32:21Z</time>
      </trkpt>
      <trkpt lat="49.91031" lon="2.39533">
        <ele>67.1</ele>
        <time>2022-09-23T14:32:22Z</time>
      </trkpt>
      <trkpt lat="49.91031" lon="2.39531">
        <ele>67.1</ele>
        <time>2022-09-23T14:32:23Z</time>
      </trkpt>
      <trkpt lat="49.9103" lon="2.39529">
        <ele>67.1</ele>
        <time>2022-09-23T14:32:24Z</time>
      </trkpt>
      <trkpt lat="49.9103" lon="2.39526">
        <ele>67.1</ele>
        <time>2022-09-23T14:32:26Z</time>
      </trkpt>
      <trkpt lat="49.9103" lon="2.39524">
        <ele>67.1</ele>
        <time>2022-09-23T14:32:27Z</time>
      </trkpt>
      <trkpt lat="49.9103" lon="2.39522">
        <ele>67.2</ele>
        <time>2022-09-23T14:32:28Z</time>
      </trkpt>
      <trkpt lat="49.9103" lon="2.39519">
        <ele>67.2</ele>
        <time>2022-09-23T14:32:29Z</time>
      </trkpt>
      <trkpt lat="49.91029" lon="2.39517">
        <ele>67.2</ele>
        <time>2022-09-23T14:32:30Z</time>
      </trkpt>
      <trkpt lat="49.91029" lon="2.39514">
        <ele>67.2</ele>
        <time>2022-09-23T14:32:32Z</time>
      </trkpt>
      <trkpt lat="49.91029" lon="2.39513">
        <ele>67.2</ele>
        <time>2022-09-23T14:32:33Z</time>
      </trkpt>
      <trkpt lat="49.91029" lon="2.39511">
        <ele>67.2</ele>
        <time>2022-09-23T14:32:34Z</time>
      </trkpt>
      <trkpt lat="49.9103" lon="2.39508">
        <ele>67.2</ele>
        <time>2022-09-23T14:32:35Z</time>
      </trkpt>
      <trkpt lat="49.9103" lon="2.39507">
        <ele>67.2</ele>
        <time>2022-09-23T14:32:36Z</time>
      </trkpt>
      <trkpt lat="49.9103" lon="2.39505">
        <ele>67.2</ele>
        <time>2022-09-23T14:32:37Z</time>
      </trkpt>
      <trkpt lat="49.91029" lon="2.39503">
        <ele>67.2</ele>
        <time>2022-09-23T14:32:38Z</time>
      </trkpt>
      <trkpt lat="49.91029" lon="2.39501">
        <ele>67.2</ele>
        <time>2022-09-23T14:32:39Z</time>
      </trkpt>
      <trkpt lat="49.91029" lon="2.39499">
        <ele>67.2</ele>
        <time>2022-09-23T14:32:40Z</time>
      </trkpt>
      <trkpt lat="49.91029" lon="2.39497">
        <ele>67.2</ele>
        <time>2022-09-23T14:32:41Z</time>
      </trkpt>
      <trkpt lat="49.91028" lon="2.39496">
        <ele>67.2</ele>
        <time>2022-09-23T14:32:42Z</time>
      </trkpt>
      <trkpt lat="49.91028" lon="2.39493">
        <ele>67.2</ele>
        <time>2022-09-23T14:32:43Z</time>
      </trkpt>
      <trkpt lat="49.91028" lon="2.39492">
        <ele>67.2</ele>
        <time>2022-09-23T14:32:44Z</time>
      </trkpt>
      <trkpt lat="49.91028" lon="2.3949">
        <ele>67.2</ele>
        <time>2022-09-23T14:32:46Z</time>
      </trkpt>
      <trkpt lat="49.91028" lon="2.39488">
        <ele>67.2</ele>
        <time>2022-09-23T14:32:47Z</time>
      </trkpt>
      <trkpt lat="49.91028" lon="2.39487">
        <ele>67.2</ele>
        <time>2022-09-23T14:32:48Z</time>
      </trkpt>
      <trkpt lat="49.91028" lon="2.39485">
        <ele>67.2</ele>
        <time>2022-09-23T14:32:49Z</time>
      </trkpt>
      <trkpt lat="49.91027" lon="2.39483">
        <ele>67.2</ele>
        <time>2022-09-23T14:32:50Z</time>
      </trkpt>
      <trkpt lat="49.91027" lon="2.39481">
        <ele>67.2</ele>
        <time>2022-09-23T14:32:51Z</time>
      </trkpt>
      <trkpt lat="49.91027" lon="2.39479">
        <ele>67.2</ele>
        <time>2022-09-23T14:32:53Z</time>
      </trkpt>
      <trkpt lat="49.91026" lon="2.39476">
        <ele>67.2</ele>
        <time>2022-09-23T14:32:54Z</time>
      </trkpt>
      <trkpt lat="49.91026" lon="2.39475">
        <ele>67.2</ele>
        <time>2022-09-23T14:32:55Z</time>
      </trkpt>
      <trkpt lat="49.91026" lon="2.39473">
        <ele>67.2</ele>
        <time>2022-09-23T14:32:56Z</time>
      </trkpt>
      <trkpt lat="49.91025" lon="2.39472">
        <ele>67.2</ele>
        <time>2022-09-23T14:32:57Z</time>
      </trkpt>
      <trkpt lat="49.91025" lon="2.3947">
        <ele>67.2</ele>
        <time>2022-09-23T14:32:58Z</time>
      </trkpt>
      <trkpt lat="49.91025" lon="2.39469">
        <ele>67.2</ele>
        <time>2022-09-23T14:32:59Z</time>
      </trkpt>
      <trkpt lat="49.91024" lon="2.39466">
        <ele>67.2</ele>
        <time>2022-09-23T14:33:01Z</time>
      </trkpt>
      <trkpt lat="49.91024" lon="2.39464">
        <ele>67.2</ele>
        <time>2022-09-23T14:33:02Z</time>
      </trkpt>
      <trkpt lat="49.91023" lon="2.3946">
        <ele>67.2</ele>
        <time>2022-09-23T14:33:03Z</time>
      </trkpt>
      <trkpt lat="49.91023" lon="2.39459">
        <ele>67.2</ele>
        <time>2022-09-23T14:33:04Z</time>
      </trkpt>
      <trkpt lat="49.91023" lon="2.39458">
        <ele>67.2</ele>
        <time>2022-09-23T14:33:05Z</time>
      </trkpt>
      <trkpt lat="49.91023" lon="2.39456">
        <ele>67.2</ele>
        <time>2022-09-23T14:33:06Z</time>
      </trkpt>
      <trkpt lat="49.91023" lon="2.39455">
        <ele>67.2</ele>
        <time>2022-09-23T14:33:07Z</time>
      </trkpt>
      <trkpt lat="49.91023" lon="2.39453">
        <ele>67.2</ele>
        <time>2022-09-23T14:33:08Z</time>
      </trkpt>
      <trkpt lat="49.91023" lon="2.39451">
        <ele>67.2</ele>
        <time>2022-09-23T14:33:09Z</time>
      </trkpt>
      <trkpt lat="49.91023" lon="2.39449">
        <ele>67.2</ele>
        <time>2022-09-23T14:33:11Z</time>
      </trkpt>
      <trkpt lat="49.91023" lon="2.39448">
        <ele>67.2</ele>
        <time>2022-09-23T14:33:12Z</time>
      </trkpt>
      <trkpt lat="49.91024" lon="2.39444">
        <ele>67.2</ele>
        <time>2022-09-23T14:33:13Z</time>
      </trkpt>
      <trkpt lat="49.91024" lon="2.39443">
        <ele>67.2</ele>
        <time>2022-09-23T14:33:14Z</time>
      </trkpt>
      <trkpt lat="49.91024" lon="2.39442">
        <ele>67.2</ele>
        <time>2022-09-23T14:33:15Z</time>
      </trkpt>
      <trkpt lat="49.91024" lon="2.39439">
        <ele>67.2</ele>
        <time>2022-09-23T14:33:16Z</time>
      </trkpt>
      <trkpt lat="49.91024" lon="2.39436">
        <ele>67.2</ele>
        <time>2022-09-23T14:33:18Z</time>
      </trkpt>
      <trkpt lat="49.91024" lon="2.39434">
        <ele>67.2</ele>
        <time>2022-09-23T14:33:19Z</time>
      </trkpt>
      <trkpt lat="49.91024" lon="2.39432">
        <ele>67.2</ele>
        <time>2022-09-23T14:33:20Z</time>
      </trkpt>
      <trkpt lat="49.91024" lon="2.39428">
        <ele>67.2</ele>
        <time>2022-09-23T14:33:21Z</time>
      </trkpt>
      <trkpt lat="49.91024" lon="2.39427">
        <ele>67.2</ele>
        <time>2022-09-23T14:33:22Z</time>
      </trkpt>
      <trkpt lat="49.91024" lon="2.39426">
        <ele>67.1</ele>
        <time>2022-09-23T14:33:23Z</time>
      </trkpt>
      <trkpt lat="49.91024" lon="2.39423">
        <ele>67.1</ele>
        <time>2022-09-23T14:33:24Z</time>
      </trkpt>
      <trkpt lat="49.91023" lon="2.39421">
        <ele>67.1</ele>
        <time>2022-09-23T14:33:25Z</time>
      </trkpt>
      <trkpt lat="49.91023" lon="2.3942">
        <ele>67.1</ele>
        <time>2022-09-23T14:33:26Z</time>
      </trkpt>
      <trkpt lat="49.91023" lon="2.39418">
        <ele>67.1</ele>
        <time>2022-09-23T14:33:27Z</time>
      </trkpt>
      <trkpt lat="49.91022" lon="2.39416">
        <ele>67.1</ele>
        <time>2022-09-23T14:33:28Z</time>
      </trkpt>
      <trkpt lat="49.91022" lon="2.39414">
        <ele>67.1</ele>
        <time>2022-09-23T14:33:30Z</time>
      </trkpt>
      <trkpt lat="49.91022" lon="2.39412">
        <ele>67.1</ele>
        <time>2022-09-23T14:33:31Z</time>
      </trkpt>
      <trkpt lat="49.91021" lon="2.3941">
        <ele>67.1</ele>
        <time>2022-09-23T14:33:32Z</time>
      </trkpt>
      <trkpt lat="49.91021" lon="2.39409">
        <ele>67.1</ele>
        <time>2022-09-23T14:33:33Z</time>
      </trkpt>
      <trkpt lat="49.9102" lon="2.39407">
        <ele>67.1</ele>
        <time>2022-09-23T14:33:34Z</time>
      </trkpt>
      <trkpt lat="49.9102" lon="2.39406">
        <ele>67.1</ele>
        <time>2022-09-23T14:33:35Z</time>
      </trkpt>
      <trkpt lat="49.9102" lon="2.39404">
        <ele>67.1</ele>
        <time>2022-09-23T14:33:36Z</time>
      </trkpt>
      <trkpt lat="49.91019" lon="2.39401">
        <ele>67.1</ele>
        <time>2022-09-23T14:33:37Z</time>
      </trkpt>
      <trkpt lat="49.91019" lon="2.394">
        <ele>67.1</ele>
        <time>2022-09-23T14:33:38Z</time>
      </trkpt>
      <trkpt lat="49.91019" lon="2.39398">
        <ele>67.1</ele>
        <time>2022-09-23T14:33:39Z</time>
      </trkpt>
      <trkpt lat="49.91019" lon="2.39397">
        <ele>67.1</ele>
        <time>2022-09-23T14:33:40Z</time>
      </trkpt>
      <trkpt lat="49.91018" lon="2.39395">
        <ele>67</ele>
        <time>2022-09-23T14:33:41Z</time>
      </trkpt>
      <trkpt lat="49.91018" lon="2.39393">
        <ele>67</ele>
        <time>2022-09-23T14:33:43Z</time>
      </trkpt>
      <trkpt lat="49.91018" lon="2.39391">
        <ele>67</ele>
        <time>2022-09-23T14:33:44Z</time>
      </trkpt>
      <trkpt lat="49.91017" lon="2.39389">
        <ele>67</ele>
        <time>2022-09-23T14:33:45Z</time>
      </trkpt>
      <trkpt lat="49.91017" lon="2.39388">
        <ele>67</ele>
        <time>2022-09-23T14:33:46Z</time>
      </trkpt>
      <trkpt lat="49.91017" lon="2.39387">
        <ele>67</ele>
        <time>2022-09-23T14:33:47Z</time>
      </trkpt>
      <trkpt lat="49.91016" lon="2.39384">
        <ele>67</ele>
        <time>2022-09-23T14:33:48Z</time>
      </trkpt>
      <trkpt lat="49.91016" lon="2.39383">
        <ele>67</ele>
        <time>2022-09-23T14:33:49Z</time>
      </trkpt>
      <trkpt lat="49.91016" lon="2.39381">
        <ele>67</ele>
        <time>2022-09-23T14:33:50Z</time>
      </trkpt>
      <trkpt lat="49.91016" lon="2.3938">
        <ele>66.9</ele>
        <time>2022-09-23T14:33:51Z</time>
      </trkpt>
      <trkpt lat="49.91016" lon="2.39378">
        <ele>66.9</ele>
        <time>2022-09-23T14:33:52Z</time>
      </trkpt>
      <trkpt lat="49.91016" lon="2.39376">
        <ele>66.9</ele>
        <time>2022-09-23T14:33:53Z</time>
      </trkpt>
      <trkpt lat="49.91015" lon="2.39374">
        <ele>66.9</ele>
        <time>2022-09-23T14:33:54Z</time>
      </trkpt>
      <trkpt lat="49.91015" lon="2.39372">
        <ele>66.9</ele>
        <time>2022-09-23T14:33:56Z</time>
      </trkpt>
      <trkpt lat="49.91014" lon="2.39371">
        <ele>66.9</ele>
        <time>2022-09-23T14:33:57Z</time>
      </trkpt>
      <trkpt lat="49.91014" lon="2.39369">
        <ele>66.8</ele>
        <time>2022-09-23T14:33:58Z</time>
      </trkpt>
      <trkpt lat="49.91014" lon="2.39367">
        <ele>66.8</ele>
        <time>2022-09-23T14:33:59Z</time>
      </trkpt>
      <trkpt lat="49.91013" lon="2.39366">
        <ele>66.8</ele>
        <time>2022-09-23T14:34:00Z</time>
      </trkpt>
      <trkpt lat="49.91013" lon="2.39364">
        <ele>66.8</ele>
        <time>2022-09-23T14:34:01Z</time>
      </trkpt>
      <trkpt lat="49.91012" lon="2.39362">
        <ele>66.8</ele>
        <time>2022-09-23T14:34:02Z</time>
      </trkpt>
      <trkpt lat="49.91012" lon="2.39359">
        <ele>66.7</ele>
        <time>2022-09-23T14:34:03Z</time>
      </trkpt>
      <trkpt lat="49.91011" lon="2.39358">
        <ele>66.7</ele>
        <time>2022-09-23T14:34:04Z</time>
      </trkpt>
      <trkpt lat="49.91011" lon="2.39357">
        <ele>66.7</ele>
        <time>2022-09-23T14:34:05Z</time>
      </trkpt>
      <trkpt lat="49.9101" lon="2.39354">
        <ele>66.7</ele>
        <time>2022-09-23T14:34:06Z</time>
      </trkpt>
      <trkpt lat="49.9101" lon="2.39352">
        <ele>66.7</ele>
        <time>2022-09-23T14:34:08Z</time>
      </trkpt>
      <trkpt lat="49.91009" lon="2.39351">
        <ele>66.7</ele>
        <time>2022-09-23T14:34:09Z</time>
      </trkpt>
      <trkpt lat="49.91009" lon="2.39349">
        <ele>66.6</ele>
        <time>2022-09-23T14:34:10Z</time>
      </trkpt>
      <trkpt lat="49.91009" lon="2.39348">
        <ele>66.6</ele>
        <time>2022-09-23T14:34:11Z</time>
      </trkpt>
      <trkpt lat="49.91008" lon="2.39346">
        <ele>66.6</ele>
        <time>2022-09-23T14:34:12Z</time>
      </trkpt>
      <trkpt lat="49.91008" lon="2.39343">
        <ele>66.6</ele>
        <time>2022-09-23T14:34:13Z</time>
      </trkpt>
      <trkpt lat="49.91007" lon="2.39342">
        <ele>66.6</ele>
        <time>2022-09-23T14:34:14Z</time>
      </trkpt>
      <trkpt lat="49.91007" lon="2.39341">
        <ele>66.6</ele>
        <time>2022-09-23T14:34:15Z</time>
      </trkpt>
      <trkpt lat="49.91006" lon="2.39339">
        <ele>66.5</ele>
        <time>2022-09-23T14:34:16Z</time>
      </trkpt>
      <trkpt lat="49.91006" lon="2.39338">
        <ele>66.5</ele>
        <time>2022-09-23T14:34:17Z</time>
      </trkpt>
      <trkpt lat="49.91005" lon="2.39335">
        <ele>66.5</ele>
        <time>2022-09-23T14:34:19Z</time>
      </trkpt>
      <trkpt lat="49.91005" lon="2.39333">
        <ele>66.5</ele>
        <time>2022-09-23T14:34:20Z</time>
      </trkpt>
      <trkpt lat="49.91004" lon="2.39331">
        <ele>66.5</ele>
        <time>2022-09-23T14:34:21Z</time>
      </trkpt>
      <trkpt lat="49.91004" lon="2.3933">
        <ele>66.5</ele>
        <time>2022-09-23T14:34:22Z</time>
      </trkpt>
      <trkpt lat="49.91003" lon="2.39327">
        <ele>66.4</ele>
        <time>2022-09-23T14:34:23Z</time>
      </trkpt>
      <trkpt lat="49.91003" lon="2.39326">
        <ele>66.4</ele>
        <time>2022-09-23T14:34:24Z</time>
      </trkpt>
      <trkpt lat="49.91002" lon="2.39325">
        <ele>66.4</ele>
        <time>2022-09-23T14:34:26Z</time>
      </trkpt>
      <trkpt lat="49.91002" lon="2.39323">
        <ele>66.4</ele>
        <time>2022-09-23T14:34:27Z</time>
      </trkpt>
      <trkpt lat="49.91001" lon="2.39322">
        <ele>66.4</ele>
        <time>2022-09-23T14:34:28Z</time>
      </trkpt>
      <trkpt lat="49.91001" lon="2.3932">
        <ele>66.4</ele>
        <time>2022-09-23T14:34:29Z</time>
      </trkpt>
      <trkpt lat="49.91" lon="2.39318">
        <ele>66.3</ele>
        <time>2022-09-23T14:34:30Z</time>
      </trkpt>
      <trkpt lat="49.91" lon="2.39317">
        <ele>66.3</ele>
        <time>2022-09-23T14:34:31Z</time>
      </trkpt>
      <trkpt lat="49.90999" lon="2.39315">
        <ele>66.3</ele>
        <time>2022-09-23T14:34:32Z</time>
      </trkpt>
      <trkpt lat="49.90999" lon="2.39313">
        <ele>66.3</ele>
        <time>2022-09-23T14:34:33Z</time>
      </trkpt>
      <trkpt lat="49.90998" lon="2.39312">
        <ele>66.3</ele>
        <time>2022-09-23T14:34:34Z</time>
      </trkpt>
      <trkpt lat="49.90998" lon="2.39311">
        <ele>66.3</ele>
        <time>2022-09-23T14:34:35Z</time>
      </trkpt>
      <trkpt lat="49.90998" lon="2.39309">
        <ele>66.3</ele>
        <time>2022-09-23T14:34:36Z</time>
      </trkpt>
      <trkpt lat="49.90997" lon="2.39308">
        <ele>66.3</ele>
        <time>2022-09-23T14:34:38Z</time>
      </trkpt>
      <trkpt lat="49.90996" lon="2.39305">
        <ele>66.2</ele>
        <time>2022-09-23T14:34:39Z</time>
      </trkpt>
      <trkpt lat="49.90996" lon="2.39304">
        <ele>66.2</ele>
        <time>2022-09-23T14:34:40Z</time>
      </trkpt>
      <trkpt lat="49.90996" lon="2.39302">
        <ele>66.2</ele>
        <time>2022-09-23T14:34:41Z</time>
      </trkpt>
      <trkpt lat="49.90995" lon="2.39301">
        <ele>66.2</ele>
        <time>2022-09-23T14:34:42Z</time>
      </trkpt>
      <trkpt lat="49.90994" lon="2.39299">
        <ele>66.2</ele>
        <time>2022-09-23T14:34:43Z</time>
      </trkpt>
      <trkpt lat="49.90994" lon="2.39298">
        <ele>66.2</ele>
        <time>2022-09-23T14:34:44Z</time>
      </trkpt>
      <trkpt lat="49.90993" lon="2.39296">
        <ele>66.1</ele>
        <time>2022-09-23T14:34:45Z</time>
      </trkpt>
      <trkpt lat="49.90993" lon="2.39295">
        <ele>66.1</ele>
        <time>2022-09-23T14:34:46Z</time>
      </trkpt>
      <trkpt lat="49.90993" lon="2.39294">
        <ele>66.1</ele>
        <time>2022-09-23T14:34:47Z</time>
      </trkpt>
      <trkpt lat="49.90992" lon="2.39292">
        <ele>66.1</ele>
        <time>2022-09-23T14:34:48Z</time>
      </trkpt>
      <trkpt lat="49.90992" lon="2.39291">
        <ele>66.1</ele>
        <time>2022-09-23T14:34:50Z</time>
      </trkpt>
      <trkpt lat="49.90991" lon="2.39289">
        <ele>66.1</ele>
        <time>2022-09-23T14:34:51Z</time>
      </trkpt>
      <trkpt lat="49.90991" lon="2.39288">
        <ele>66.1</ele>
        <time>2022-09-23T14:34:52Z</time>
      </trkpt>
      <trkpt lat="49.9099" lon="2.39286">
        <ele>66</ele>
        <time>2022-09-23T14:34:53Z</time>
      </trkpt>
      <trkpt lat="49.90989" lon="2.39285">
        <ele>66</ele>
        <time>2022-09-23T14:34:54Z</time>
      </trkpt>
      <trkpt lat="49.90988" lon="2.39282">
        <ele>66</ele>
        <time>2022-09-23T14:34:55Z</time>
      </trkpt>
      <trkpt lat="49.90988" lon="2.39281">
        <ele>66</ele>
        <time>2022-09-23T14:34:56Z</time>
      </trkpt>
      <trkpt lat="49.90987" lon="2.3928">
        <ele>66</ele>
        <time>2022-09-23T14:34:57Z</time>
      </trkpt>
      <trkpt lat="49.90987" lon="2.39278">
        <ele>65.9</ele>
        <time>2022-09-23T14:34:58Z</time>
      </trkpt>
      <trkpt lat="49.90986" lon="2.39277">
        <ele>65.9</ele>
        <time>2022-09-23T14:34:59Z</time>
      </trkpt>
      <trkpt lat="49.90986" lon="2.39275">
        <ele>65.9</ele>
        <time>2022-09-23T14:35:00Z</time>
      </trkpt>
      <trkpt lat="49.90985" lon="2.39272">
        <ele>65.9</ele>
        <time>2022-09-23T14:35:02Z</time>
      </trkpt>
      <trkpt lat="49.90984" lon="2.39271">
        <ele>65.9</ele>
        <time>2022-09-23T14:35:03Z</time>
      </trkpt>
      <trkpt lat="49.90984" lon="2.3927">
        <ele>65.8</ele>
        <time>2022-09-23T14:35:04Z</time>
      </trkpt>
      <trkpt lat="49.90983" lon="2.39268">
        <ele>65.8</ele>
        <time>2022-09-23T14:35:05Z</time>
      </trkpt>
      <trkpt lat="49.90983" lon="2.39266">
        <ele>65.8</ele>
        <time>2022-09-23T14:35:06Z</time>
      </trkpt>
      <trkpt lat="49.90982" lon="2.39264">
        <ele>65.8</ele>
        <time>2022-09-23T14:35:07Z</time>
      </trkpt>
      <trkpt lat="49.90982" lon="2.39262">
        <ele>65.8</ele>
        <time>2022-09-23T14:35:08Z</time>
      </trkpt>
      <trkpt lat="49.90981" lon="2.39259">
        <ele>65.8</ele>
        <time>2022-09-23T14:35:09Z</time>
      </trkpt>
      <trkpt lat="49.90981" lon="2.39257">
        <ele>65.8</ele>
        <time>2022-09-23T14:35:10Z</time>
      </trkpt>
      <trkpt lat="49.90981" lon="2.39256">
        <ele>65.7</ele>
        <time>2022-09-23T14:35:11Z</time>
      </trkpt>
      <trkpt lat="49.9098" lon="2.39253">
        <ele>65.7</ele>
        <time>2022-09-23T14:35:12Z</time>
      </trkpt>
      <trkpt lat="49.9098" lon="2.39252">
        <ele>65.7</ele>
        <time>2022-09-23T14:35:14Z</time>
      </trkpt>
      <trkpt lat="49.9098" lon="2.39251">
        <ele>65.7</ele>
        <time>2022-09-23T14:35:15Z</time>
      </trkpt>
      <trkpt lat="49.90979" lon="2.39248">
        <ele>65.7</ele>
        <time>2022-09-23T14:35:16Z</time>
      </trkpt>
      <trkpt lat="49.90978" lon="2.39247">
        <ele>65.7</ele>
        <time>2022-09-23T14:35:17Z</time>
      </trkpt>
      <trkpt lat="49.90978" lon="2.39245">
        <ele>65.7</ele>
        <time>2022-09-23T14:35:18Z</time>
      </trkpt>
      <trkpt lat="49.90977" lon="2.39245">
        <ele>65.7</ele>
        <time>2022-09-23T14:35:19Z</time>
      </trkpt>
      <trkpt lat="49.90976" lon="2.39243">
        <ele>65.7</ele>
        <time>2022-09-23T14:35:20Z</time>
      </trkpt>
      <trkpt lat="49.90975" lon="2.39242">
        <ele>65.7</ele>
        <time>2022-09-23T14:35:21Z</time>
      </trkpt>
      <trkpt lat="49.90974" lon="2.3924">
        <ele>65.7</ele>
        <time>2022-09-23T14:35:22Z</time>
      </trkpt>
      <trkpt lat="49.90974" lon="2.39238">
        <ele>65.7</ele>
        <time>2022-09-23T14:35:23Z</time>
      </trkpt>
      <trkpt lat="49.90973" lon="2.39237">
        <ele>65.7</ele>
        <time>2022-09-23T14:35:25Z</time>
      </trkpt>
      <trkpt lat="49.90973" lon="2.39236">
        <ele>65.7</ele>
        <time>2022-09-23T14:35:26Z</time>
      </trkpt>
      <trkpt lat="49.90973" lon="2.39234">
        <ele>65.7</ele>
        <time>2022-09-23T14:35:27Z</time>
      </trkpt>
      <trkpt lat="49.90972" lon="2.39233">
        <ele>65.7</ele>
        <time>2022-09-23T14:35:28Z</time>
      </trkpt>
      <trkpt lat="49.90972" lon="2.3923">
        <ele>65.7</ele>
        <time>2022-09-23T14:35:29Z</time>
      </trkpt>
      <trkpt lat="49.90971" lon="2.39228">
        <ele>65.7</ele>
        <time>2022-09-23T14:35:30Z</time>
      </trkpt>
      <trkpt lat="49.90971" lon="2.39227">
        <ele>65.7</ele>
        <time>2022-09-23T14:35:31Z</time>
      </trkpt>
      <trkpt lat="49.90971" lon="2.39225">
        <ele>65.7</ele>
        <time>2022-09-23T14:35:32Z</time>
      </trkpt>
      <trkpt lat="49.9097" lon="2.39223">
        <ele>65.7</ele>
        <time>2022-09-23T14:35:33Z</time>
      </trkpt>
      <trkpt lat="49.9097" lon="2.39221">
        <ele>65.7</ele>
        <time>2022-09-23T14:35:34Z</time>
      </trkpt>
      <trkpt lat="49.9097" lon="2.39219">
        <ele>65.7</ele>
        <time>2022-09-23T14:35:35Z</time>
      </trkpt>
      <trkpt lat="49.9097" lon="2.39218">
        <ele>65.7</ele>
        <time>2022-09-23T14:35:37Z</time>
      </trkpt>
      <trkpt lat="49.90969" lon="2.39216">
        <ele>65.7</ele>
        <time>2022-09-23T14:35:38Z</time>
      </trkpt>
      <trkpt lat="49.90969" lon="2.39214">
        <ele>65.7</ele>
        <time>2022-09-23T14:35:39Z</time>
      </trkpt>
      <trkpt lat="49.90969" lon="2.39212">
        <ele>65.7</ele>
        <time>2022-09-23T14:35:40Z</time>
      </trkpt>
      <trkpt lat="49.90968" lon="2.39211">
        <ele>65.7</ele>
        <time>2022-09-23T14:35:41Z</time>
      </trkpt>
      <trkpt lat="49.90968" lon="2.39209">
        <ele>65.7</ele>
        <time>2022-09-23T14:35:42Z</time>
      </trkpt>
      <trkpt lat="49.90967" lon="2.39207">
        <ele>65.7</ele>
        <time>2022-09-23T14:35:43Z</time>
      </trkpt>
      <trkpt lat="49.90967" lon="2.39206">
        <ele>65.7</ele>
        <time>2022-09-23T14:35:44Z</time>
      </trkpt>
      <trkpt lat="49.90967" lon="2.39204">
        <ele>65.7</ele>
        <time>2022-09-23T14:35:45Z</time>
      </trkpt>
      <trkpt lat="49.90966" lon="2.39203">
        <ele>65.7</ele>
        <time>2022-09-23T14:35:46Z</time>
      </trkpt>
      <trkpt lat="49.90966" lon="2.39202">
        <ele>65.7</ele>
        <time>2022-09-23T14:35:48Z</time>
      </trkpt>
      <trkpt lat="49.90965" lon="2.39201">
        <ele>65.7</ele>
        <time>2022-09-23T14:35:49Z</time>
      </trkpt>
      <trkpt lat="49.90965" lon="2.39199">
        <ele>65.7</ele>
        <time>2022-09-23T14:35:50Z</time>
      </trkpt>
      <trkpt lat="49.90964" lon="2.39197">
        <ele>65.7</ele>
        <time>2022-09-23T14:35:51Z</time>
      </trkpt>
      <trkpt lat="49.90963" lon="2.39196">
        <ele>65.7</ele>
        <time>2022-09-23T14:35:52Z</time>
      </trkpt>
      <trkpt lat="49.90963" lon="2.39194">
        <ele>65.7</ele>
        <time>2022-09-23T14:35:53Z</time>
      </trkpt>
      <trkpt lat="49.90962" lon="2.39192">
        <ele>65.7</ele>
        <time>2022-09-23T14:35:54Z</time>
      </trkpt>
      <trkpt lat="49.90962" lon="2.3919">
        <ele>65.7</ele>
        <time>2022-09-23T14:35:55Z</time>
      </trkpt>
      <trkpt lat="49.90962" lon="2.39189">
        <ele>65.7</ele>
        <time>2022-09-23T14:35:56Z</time>
      </trkpt>
      <trkpt lat="49.90962" lon="2.39187">
        <ele>65.7</ele>
        <time>2022-09-23T14:35:57Z</time>
      </trkpt>
      <trkpt lat="49.90962" lon="2.39186">
        <ele>65.7</ele>
        <time>2022-09-23T14:35:59Z</time>
      </trkpt>
      <trkpt lat="49.90961" lon="2.39184">
        <ele>65.7</ele>
        <time>2022-09-23T14:36:00Z</time>
      </trkpt>
      <trkpt lat="49.90961" lon="2.39183">
        <ele>65.7</ele>
        <time>2022-09-23T14:36:01Z</time>
      </trkpt>
      <trkpt lat="49.9096" lon="2.39181">
        <ele>65.8</ele>
        <time>2022-09-23T14:36:02Z</time>
      </trkpt>
      <trkpt lat="49.9096" lon="2.3918">
        <ele>65.8</ele>
        <time>2022-09-23T14:36:03Z</time>
      </trkpt>
      <trkpt lat="49.90959" lon="2.39177">
        <ele>65.8</ele>
        <time>2022-09-23T14:36:04Z</time>
      </trkpt>
      <trkpt lat="49.90958" lon="2.39176">
        <ele>65.8</ele>
        <time>2022-09-23T14:36:05Z</time>
      </trkpt>
      <trkpt lat="49.90958" lon="2.39175">
        <ele>65.8</ele>
        <time>2022-09-23T14:36:06Z</time>
      </trkpt>
      <trkpt lat="49.90957" lon="2.39173">
        <ele>65.8</ele>
        <time>2022-09-23T14:36:07Z</time>
      </trkpt>
      <trkpt lat="49.90957" lon="2.39172">
        <ele>65.8</ele>
        <time>2022-09-23T14:36:08Z</time>
      </trkpt>
      <trkpt lat="49.90956" lon="2.39171">
        <ele>65.8</ele>
        <time>2022-09-23T14:36:10Z</time>
      </trkpt>
      <trkpt lat="49.90956" lon="2.39169">
        <ele>65.8</ele>
        <time>2022-09-23T14:36:11Z</time>
      </trkpt>
      <trkpt lat="49.90956" lon="2.39167">
        <ele>65.8</ele>
        <time>2022-09-23T14:36:12Z</time>
      </trkpt>
      <trkpt lat="49.90957" lon="2.39165">
        <ele>65.9</ele>
        <time>2022-09-23T14:36:13Z</time>
      </trkpt>
      <trkpt lat="49.90957" lon="2.39162">
        <ele>65.9</ele>
        <time>2022-09-23T14:36:14Z</time>
      </trkpt>
      <trkpt lat="49.90958" lon="2.39161">
        <ele>66.1</ele>
        <time>2022-09-23T14:36:15Z</time>
      </trkpt>
      <trkpt lat="49.90958" lon="2.3916">
        <ele>66.1</ele>
        <time>2022-09-23T14:36:16Z</time>
      </trkpt>
      <trkpt lat="49.9096" lon="2.39159">
        <ele>66.1</ele>
        <time>2022-09-23T14:36:17Z</time>
      </trkpt>
      <trkpt lat="49.90961" lon="2.39158">
        <ele>66.1</ele>
        <time>2022-09-23T14:36:19Z</time>
      </trkpt>
      <trkpt lat="49.90962" lon="2.39158">
        <ele>66.1</ele>
        <time>2022-09-23T14:36:20Z</time>
      </trkpt>
      <trkpt lat="49.90964" lon="2.39158">
        <ele>66.2</ele>
        <time>2022-09-23T14:36:21Z</time>
      </trkpt>
      <trkpt lat="49.90965" lon="2.39159">
        <ele>66.2</ele>
        <time>2022-09-23T14:36:22Z</time>
      </trkpt>
      <trkpt lat="49.90967" lon="2.39159">
        <ele>66.2</ele>
        <time>2022-09-23T14:36:23Z</time>
      </trkpt>
      <trkpt lat="49.90968" lon="2.39159">
        <ele>66.2</ele>
        <time>2022-09-23T14:36:24Z</time>
      </trkpt>
      <trkpt lat="49.9097" lon="2.39159">
        <ele>66.2</ele>
        <time>2022-09-23T14:36:25Z</time>
      </trkpt>
      <trkpt lat="49.90971" lon="2.39159">
        <ele>66.2</ele>
        <time>2022-09-23T14:36:27Z</time>
      </trkpt>
      <trkpt lat="49.90972" lon="2.39159">
        <ele>66.2</ele>
        <time>2022-09-23T14:36:28Z</time>
      </trkpt>
      <trkpt lat="49.90974" lon="2.39159">
        <ele>66.2</ele>
        <time>2022-09-23T14:36:29Z</time>
      </trkpt>
      <trkpt lat="49.90975" lon="2.3916">
        <ele>66.2</ele>
        <time>2022-09-23T14:36:30Z</time>
      </trkpt>
      <trkpt lat="49.90976" lon="2.3916">
        <ele>66.2</ele>
        <time>2022-09-23T14:36:31Z</time>
      </trkpt>
      <trkpt lat="49.90978" lon="2.39161">
        <ele>66.2</ele>
        <time>2022-09-23T14:36:32Z</time>
      </trkpt>
      <trkpt lat="49.9098" lon="2.39161">
        <ele>66.2</ele>
        <time>2022-09-23T14:36:34Z</time>
      </trkpt>
      <trkpt lat="49.90981" lon="2.39161">
        <ele>66.2</ele>
        <time>2022-09-23T14:36:35Z</time>
      </trkpt>
      <trkpt lat="49.90982" lon="2.39161">
        <ele>66.2</ele>
        <time>2022-09-23T14:36:36Z</time>
      </trkpt>
      <trkpt lat="49.90984" lon="2.39161">
        <ele>66.3</ele>
        <time>2022-09-23T14:36:37Z</time>
      </trkpt>
      <trkpt lat="49.90984" lon="2.39162">
        <ele>66.3</ele>
        <time>2022-09-23T14:36:38Z</time>
      </trkpt>
      <trkpt lat="49.90985" lon="2.39162">
        <ele>66.3</ele>
        <time>2022-09-23T14:36:39Z</time>
      </trkpt>
      <trkpt lat="49.90987" lon="2.39164">
        <ele>66.3</ele>
        <time>2022-09-23T14:36:41Z</time>
      </trkpt>
      <trkpt lat="49.90988" lon="2.39165">
        <ele>66.3</ele>
        <time>2022-09-23T14:36:42Z</time>
      </trkpt>
      <trkpt lat="49.90988" lon="2.39166">
        <ele>66.3</ele>
        <time>2022-09-23T14:36:43Z</time>
      </trkpt>
      <trkpt lat="49.90989" lon="2.39167">
        <ele>66.3</ele>
        <time>2022-09-23T14:36:44Z</time>
      </trkpt>
      <trkpt lat="49.9099" lon="2.39168">
        <ele>66.3</ele>
        <time>2022-09-23T14:36:45Z</time>
      </trkpt>
      <trkpt lat="49.90991" lon="2.39169">
        <ele>66.3</ele>
        <time>2022-09-23T14:36:46Z</time>
      </trkpt>
      <trkpt lat="49.90991" lon="2.39169">
        <ele>66.3</ele>
        <time>2022-09-23T14:36:47Z</time>
      </trkpt>
      <trkpt lat="49.90991" lon="2.39169">
        <ele>66.3</ele>
        <time>2022-09-23T14:36:48Z</time>
      </trkpt>
      <trkpt lat="49.90991" lon="2.3917">
        <ele>66.3</ele>
        <time>2022-09-23T14:36:49Z</time>
      </trkpt>
      <trkpt lat="49.90991" lon="2.3917">
        <ele>66.3</ele>
        <time>2022-09-23T14:36:50Z</time>
      </trkpt>
      <trkpt lat="49.90991" lon="2.3917">
        <ele>66.3</ele>
        <time>2022-09-23T14:36:51Z</time>
      </trkpt>
      <trkpt lat="49.90992" lon="2.39171">
        <ele>66.3</ele>
        <time>2022-09-23T14:36:53Z</time>
      </trkpt>
      <trkpt lat="49.90992" lon="2.39171">
        <ele>66.3</ele>
        <time>2022-09-23T14:36:54Z</time>
      </trkpt>
      <trkpt lat="49.90993" lon="2.39172">
        <ele>66.3</ele>
        <time>2022-09-23T14:36:55Z</time>
      </trkpt>
      <trkpt lat="49.90994" lon="2.39172">
        <ele>66.3</ele>
        <time>2022-09-23T14:36:57Z</time>
      </trkpt>
      <trkpt lat="49.90995" lon="2.39173">
        <ele>66.3</ele>
        <time>2022-09-23T14:36:58Z</time>
      </trkpt>
      <trkpt lat="49.90995" lon="2.39173">
        <ele>66.3</ele>
        <time>2022-09-23T14:36:59Z</time>
      </trkpt>
      <trkpt lat="49.90996" lon="2.39172">
        <ele>66.3</ele>
        <time>2022-09-23T14:37:00Z</time>
      </trkpt>
      <trkpt lat="49.90996" lon="2.39171">
        <ele>66.3</ele>
        <time>2022-09-23T14:37:01Z</time>
      </trkpt>
      <trkpt lat="49.90997" lon="2.3917">
        <ele>66.3</ele>
        <time>2022-09-23T14:37:02Z</time>
      </trkpt>
      <trkpt lat="49.90997" lon="2.39169">
        <ele>66.3</ele>
        <time>2022-09-23T14:37:03Z</time>
      </trkpt>
      <trkpt lat="49.90998" lon="2.39168">
        <ele>66.3</ele>
        <time>2022-09-23T14:37:04Z</time>
      </trkpt>
      <trkpt lat="49.90998" lon="2.39167">
        <ele>66.3</ele>
        <time>2022-09-23T14:37:06Z</time>
      </trkpt>
      <trkpt lat="49.90999" lon="2.39167">
        <ele>66.4</ele>
        <time>2022-09-23T14:37:07Z</time>
      </trkpt>
      <trkpt lat="49.91" lon="2.39166">
        <ele>66.4</ele>
        <time>2022-09-23T14:37:08Z</time>
      </trkpt>
      <trkpt lat="49.91001" lon="2.39165">
        <ele>66.4</ele>
        <time>2022-09-23T14:37:09Z</time>
      </trkpt>
      <trkpt lat="49.91002" lon="2.39164">
        <ele>66.4</ele>
        <time>2022-09-23T14:37:10Z</time>
      </trkpt>
      <trkpt lat="49.91003" lon="2.39164">
        <ele>66.4</ele>
        <time>2022-09-23T14:37:11Z</time>
      </trkpt>
      <trkpt lat="49.91004" lon="2.39164">
        <ele>66.4</ele>
        <time>2022-09-23T14:37:12Z</time>
      </trkpt>
      <trkpt lat="49.91005" lon="2.39164">
        <ele>66.4</ele>
        <time>2022-09-23T14:37:13Z</time>
      </trkpt>
      <trkpt lat="49.91006" lon="2.39165">
        <ele>66.4</ele>
        <time>2022-09-23T14:37:14Z</time>
      </trkpt>
      <trkpt lat="49.91008" lon="2.39166">
        <ele>66.4</ele>
        <time>2022-09-23T14:37:15Z</time>
      </trkpt>
      <trkpt lat="49.91008" lon="2.39166">
        <ele>66.4</ele>
        <time>2022-09-23T14:37:17Z</time>
      </trkpt>
      <trkpt lat="49.91009" lon="2.39167">
        <ele>66.4</ele>
        <time>2022-09-23T14:37:18Z</time>
      </trkpt>
      <trkpt lat="49.9101" lon="2.39167">
        <ele>66.4</ele>
        <time>2022-09-23T14:37:19Z</time>
      </trkpt>
      <trkpt lat="49.91011" lon="2.39168">
        <ele>66.4</ele>
        <time>2022-09-23T14:37:20Z</time>
      </trkpt>
      <trkpt lat="49.91012" lon="2.39169">
        <ele>66.4</ele>
        <time>2022-09-23T14:37:21Z</time>
      </trkpt>
      <trkpt lat="49.91013" lon="2.39169">
        <ele>66.4</ele>
        <time>2022-09-23T14:37:22Z</time>
      </trkpt>
      <trkpt lat="49.91014" lon="2.3917">
        <ele>66.4</ele>
        <time>2022-09-23T14:37:23Z</time>
      </trkpt>
      <trkpt lat="49.91014" lon="2.39171">
        <ele>66.4</ele>
        <time>2022-09-23T14:37:24Z</time>
      </trkpt>
      <trkpt lat="49.91015" lon="2.39171">
        <ele>66.4</ele>
        <time>2022-09-23T14:37:26Z</time>
      </trkpt>
      <trkpt lat="49.91016" lon="2.39171">
        <ele>66.4</ele>
        <time>2022-09-23T14:37:27Z</time>
      </trkpt>
      <trkpt lat="49.91016" lon="2.39171">
        <ele>66.4</ele>
        <time>2022-09-23T14:37:28Z</time>
      </trkpt>
      <trkpt lat="49.91016" lon="2.3917">
        <ele>66.5</ele>
        <time>2022-09-23T14:37:29Z</time>
      </trkpt>
      <trkpt lat="49.91017" lon="2.3917">
        <ele>66.5</ele>
        <time>2022-09-23T14:37:30Z</time>
      </trkpt>
      <trkpt lat="49.91017" lon="2.39169">
        <ele>66.5</ele>
        <time>2022-09-23T14:37:31Z</time>
      </trkpt>
      <trkpt lat="49.91019" lon="2.39168">
        <ele>66.5</ele>
        <time>2022-09-23T14:37:32Z</time>
      </trkpt>
      <trkpt lat="49.91019" lon="2.39168">
        <ele>66.5</ele>
        <time>2022-09-23T14:37:33Z</time>
      </trkpt>
      <trkpt lat="49.9102" lon="2.39167">
        <ele>66.5</ele>
        <time>2022-09-23T14:37:35Z</time>
      </trkpt>
      <trkpt lat="49.91021" lon="2.39167">
        <ele>66.5</ele>
        <time>2022-09-23T14:37:36Z</time>
      </trkpt>
      <trkpt lat="49.91022" lon="2.39167">
        <ele>66.5</ele>
        <time>2022-09-23T14:37:37Z</time>
      </trkpt>
      <trkpt lat="49.91022" lon="2.39168">
        <ele>66.5</ele>
        <time>2022-09-23T14:37:38Z</time>
      </trkpt>
      <trkpt lat="49.91023" lon="2.39168">
        <ele>66.5</ele>
        <time>2022-09-23T14:37:39Z</time>
      </trkpt>
      <trkpt lat="49.91024" lon="2.39168">
        <ele>66.5</ele>
        <time>2022-09-23T14:37:40Z</time>
      </trkpt>
      <trkpt lat="49.91026" lon="2.39168">
        <ele>66.5</ele>
        <time>2022-09-23T14:37:42Z</time>
      </trkpt>
      <trkpt lat="49.91027" lon="2.39168">
        <ele>66.5</ele>
        <time>2022-09-23T14:37:43Z</time>
      </trkpt>
      <trkpt lat="49.91028" lon="2.39168">
        <ele>66.5</ele>
        <time>2022-09-23T14:37:44Z</time>
      </trkpt>
      <trkpt lat="49.91029" lon="2.39168">
        <ele>66.5</ele>
        <time>2022-09-23T14:37:45Z</time>
      </trkpt>
      <trkpt lat="49.9103" lon="2.39169">
        <ele>66.5</ele>
        <time>2022-09-23T14:37:46Z</time>
      </trkpt>
      <trkpt lat="49.91032" lon="2.39171">
        <ele>66.5</ele>
        <time>2022-09-23T14:37:48Z</time>
      </trkpt>
      <trkpt lat="49.91032" lon="2.39172">
        <ele>66.5</ele>
        <time>2022-09-23T14:37:49Z</time>
      </trkpt>
      <trkpt lat="49.91032" lon="2.39173">
        <ele>66.5</ele>
        <time>2022-09-23T14:37:50Z</time>
      </trkpt>
      <trkpt lat="49.91032" lon="2.39174">
        <ele>66.5</ele>
        <time>2022-09-23T14:37:52Z</time>
      </trkpt>
      <trkpt lat="49.91033" lon="2.39176">
        <ele>66.6</ele>
        <time>2022-09-23T14:37:53Z</time>
      </trkpt>
      <trkpt lat="49.91034" lon="2.39177">
        <ele>66.6</ele>
        <time>2022-09-23T14:37:54Z</time>
      </trkpt>
      <trkpt lat="49.91034" lon="2.39178">
        <ele>66.6</ele>
        <time>2022-09-23T14:37:55Z</time>
      </trkpt>
      <trkpt lat="49.91034" lon="2.3918">
        <ele>66.6</ele>
        <time>2022-09-23T14:37:56Z</time>
      </trkpt>
      <trkpt lat="49.91035" lon="2.39182">
        <ele>66.6</ele>
        <time>2022-09-23T14:37:58Z</time>
      </trkpt>
      <trkpt lat="49.91035" lon="2.39183">
        <ele>66.6</ele>
        <time>2022-09-23T14:37:59Z</time>
      </trkpt>
      <trkpt lat="49.91035" lon="2.39185">
        <ele>66.6</ele>
        <time>2022-09-23T14:38:00Z</time>
      </trkpt>
      <trkpt lat="49.91034" lon="2.39186">
        <ele>66.6</ele>
        <time>2022-09-23T14:38:02Z</time>
      </trkpt>
      <trkpt lat="49.91034" lon="2.39188">
        <ele>66.6</ele>
        <time>2022-09-23T14:38:03Z</time>
      </trkpt>
      <trkpt lat="49.91033" lon="2.39189">
        <ele>66.6</ele>
        <time>2022-09-23T14:38:04Z</time>
      </trkpt>
      <trkpt lat="49.91032" lon="2.3919">
        <ele>66.6</ele>
        <time>2022-09-23T14:38:06Z</time>
      </trkpt>
      <trkpt lat="49.91031" lon="2.39191">
        <ele>66.6</ele>
        <time>2022-09-23T14:38:07Z</time>
      </trkpt>
      <trkpt lat="49.91031" lon="2.39192">
        <ele>66.6</ele>
        <time>2022-09-23T14:38:08Z</time>
      </trkpt>
      <trkpt lat="49.9103" lon="2.39192">
        <ele>66.6</ele>
        <time>2022-09-23T14:38:09Z</time>
      </trkpt>
      <trkpt lat="49.9103" lon="2.39193">
        <ele>66.6</ele>
        <time>2022-09-23T14:38:10Z</time>
      </trkpt>
      <trkpt lat="49.91029" lon="2.39193">
        <ele>66.6</ele>
        <time>2022-09-23T14:38:12Z</time>
      </trkpt>
      <trkpt lat="49.91028" lon="2.39193">
        <ele>66.6</ele>
        <time>2022-09-23T14:38:13Z</time>
      </trkpt>
      <trkpt lat="49.91027" lon="2.39193">
        <ele>66.6</ele>
        <time>2022-09-23T14:38:15Z</time>
      </trkpt>
      <trkpt lat="49.91026" lon="2.39193">
        <ele>66.6</ele>
        <time>2022-09-23T14:38:16Z</time>
      </trkpt>
      <trkpt lat="49.91026" lon="2.39193">
        <ele>66.6</ele>
        <time>2022-09-23T14:38:18Z</time>
      </trkpt>
      <trkpt lat="49.91025" lon="2.39193">
        <ele>66.6</ele>
        <time>2022-09-23T14:38:19Z</time>
      </trkpt>
      <trkpt lat="49.91025" lon="2.39193">
        <ele>66.6</ele>
        <time>2022-09-23T14:38:20Z</time>
      </trkpt>
      <trkpt lat="49.91024" lon="2.39193">
        <ele>66.7</ele>
        <time>2022-09-23T14:38:21Z</time>
      </trkpt>
      <trkpt lat="49.91023" lon="2.39193">
        <ele>66.7</ele>
        <time>2022-09-23T14:38:23Z</time>
      </trkpt>
      <trkpt lat="49.91022" lon="2.39193">
        <ele>66.7</ele>
        <time>2022-09-23T14:38:24Z</time>
      </trkpt>
      <trkpt lat="49.91022" lon="2.39192">
        <ele>66.7</ele>
        <time>2022-09-23T14:38:25Z</time>
      </trkpt>
      <trkpt lat="49.91021" lon="2.39191">
        <ele>66.7</ele>
        <time>2022-09-23T14:38:27Z</time>
      </trkpt>
      <trkpt lat="49.9102" lon="2.3919">
        <ele>66.7</ele>
        <time>2022-09-23T14:38:28Z</time>
      </trkpt>
      <trkpt lat="49.91019" lon="2.39189">
        <ele>66.7</ele>
        <time>2022-09-23T14:38:29Z</time>
      </trkpt>
      <trkpt lat="49.91018" lon="2.39189">
        <ele>66.7</ele>
        <time>2022-09-23T14:38:30Z</time>
      </trkpt>
      <trkpt lat="49.91018" lon="2.39189">
        <ele>66.7</ele>
        <time>2022-09-23T14:38:31Z</time>
      </trkpt>
      <trkpt lat="49.91017" lon="2.3919">
        <ele>66.7</ele>
        <time>2022-09-23T14:38:32Z</time>
      </trkpt>
      <trkpt lat="49.91017" lon="2.3919">
        <ele>66.7</ele>
        <time>2022-09-23T14:38:33Z</time>
      </trkpt>
      <trkpt lat="49.91017" lon="2.3919">
        <ele>66.7</ele>
        <time>2022-09-23T14:38:34Z</time>
      </trkpt>
      <trkpt lat="49.91017" lon="2.3919">
        <ele>66.7</ele>
        <time>2022-09-23T14:38:35Z</time>
      </trkpt>
      <trkpt lat="49.91017" lon="2.3919">
        <ele>66.7</ele>
        <time>2022-09-23T14:38:36Z</time>
      </trkpt>
      <trkpt lat="49.91017" lon="2.3919">
        <ele>66.7</ele>
        <time>2022-09-23T14:38:37Z</time>
      </trkpt>
      <trkpt lat="49.91017" lon="2.3919">
        <ele>66.7</ele>
        <time>2022-09-23T14:38:38Z</time>
      </trkpt>
      <trkpt lat="49.91017" lon="2.3919">
        <ele>66.7</ele>
        <time>2022-09-23T14:38:39Z</time>
      </trkpt>
      <trkpt lat="49.91017" lon="2.3919">
        <ele>66.7</ele>
        <time>2022-09-23T14:38:40Z</time>
      </trkpt>
      <trkpt lat="49.91017" lon="2.3919">
        <ele>66.7</ele>
        <time>2022-09-23T14:38:41Z</time>
      </trkpt>
      <trkpt lat="49.91018" lon="2.3919">
        <ele>66.7</ele>
        <time>2022-09-23T14:38:42Z</time>
      </trkpt>
      <trkpt lat="49.91018" lon="2.3919">
        <ele>66.7</ele>
        <time>2022-09-23T14:38:43Z</time>
      </trkpt>
      <trkpt lat="49.91018" lon="2.3919">
        <ele>66.7</ele>
        <time>2022-09-23T14:38:44Z</time>
      </trkpt>
      <trkpt lat="49.91018" lon="2.39191">
        <ele>66.7</ele>
        <time>2022-09-23T14:38:45Z</time>
      </trkpt>
      <trkpt lat="49.91018" lon="2.39191">
        <ele>66.7</ele>
        <time>2022-09-23T14:38:46Z</time>
      </trkpt>
      <trkpt lat="49.91018" lon="2.39191">
        <ele>66.7</ele>
        <time>2022-09-23T14:38:47Z</time>
      </trkpt>
      <trkpt lat="49.91018" lon="2.3919">
        <ele>66.7</ele>
        <time>2022-09-23T14:38:48Z</time>
      </trkpt>
      <trkpt lat="49.91018" lon="2.3919">
        <ele>66.7</ele>
        <time>2022-09-23T14:38:49Z</time>
      </trkpt>
      <trkpt lat="49.91019" lon="2.3919">
        <ele>66.7</ele>
        <time>2022-09-23T14:38:50Z</time>
      </trkpt>
      <trkpt lat="49.91019" lon="2.3919">
        <ele>66.7</ele>
        <time>2022-09-23T14:38:51Z</time>
      </trkpt>
      <trkpt lat="49.91019" lon="2.3919">
        <ele>66.7</ele>
        <time>2022-09-23T14:38:52Z</time>
      </trkpt>
      <trkpt lat="49.91019" lon="2.3919">
        <ele>66.7</ele>
        <time>2022-09-23T14:38:53Z</time>
      </trkpt>
      <trkpt lat="49.9102" lon="2.39189">
        <ele>66.7</ele>
        <time>2022-09-23T14:38:54Z</time>
      </trkpt>
      <trkpt lat="49.91021" lon="2.39187">
        <ele>66.7</ele>
        <time>2022-09-23T14:38:55Z</time>
      </trkpt>
      <trkpt lat="49.91022" lon="2.39186">
        <ele>66.7</ele>
        <time>2022-09-23T14:38:56Z</time>
      </trkpt>
      <trkpt lat="49.91022" lon="2.39185">
        <ele>66.7</ele>
        <time>2022-09-23T14:38:57Z</time>
      </trkpt>
      <trkpt lat="49.91022" lon="2.39184">
        <ele>66.7</ele>
        <time>2022-09-23T14:38:58Z</time>
      </trkpt>
      <trkpt lat="49.91022" lon="2.39183">
        <ele>66.7</ele>
        <time>2022-09-23T14:38:59Z</time>
      </trkpt>
      <trkpt lat="49.91021" lon="2.39182">
        <ele>66.7</ele>
        <time>2022-09-23T14:39:00Z</time>
      </trkpt>
      <trkpt lat="49.91021" lon="2.39181">
        <ele>66.7</ele>
        <time>2022-09-23T14:39:01Z</time>
      </trkpt>
      <trkpt lat="49.9102" lon="2.39181">
        <ele>66.7</ele>
        <time>2022-09-23T14:39:02Z</time>
      </trkpt>
      <trkpt lat="49.9102" lon="2.39181">
        <ele>66.7</ele>
        <time>2022-09-23T14:39:03Z</time>
      </trkpt>
      <trkpt lat="49.9102" lon="2.39181">
        <ele>66.7</ele>
        <time>2022-09-23T14:39:04Z</time>
      </trkpt>
      <trkpt lat="49.9102" lon="2.39181">
        <ele>66.7</ele>
        <time>2022-09-23T14:39:05Z</time>
      </trkpt>
      <trkpt lat="49.9102" lon="2.39182">
        <ele>66.7</ele>
        <time>2022-09-23T14:39:06Z</time>
      </trkpt>
      <trkpt lat="49.9102" lon="2.39182">
        <ele>66.8</ele>
        <time>2022-09-23T14:39:07Z</time>
      </trkpt>
      <trkpt lat="49.9102" lon="2.39183">
        <ele>66.8</ele>
        <time>2022-09-23T14:39:08Z</time>
      </trkpt>
      <trkpt lat="49.9102" lon="2.39183">
        <ele>66.8</ele>
        <time>2022-09-23T14:39:09Z</time>
      </trkpt>
      <trkpt lat="49.9102" lon="2.39183">
        <ele>66.8</ele>
        <time>2022-09-23T14:39:10Z</time>
      </trkpt>
      <trkpt lat="49.9102" lon="2.39182">
        <ele>66.8</ele>
        <time>2022-09-23T14:39:11Z</time>
      </trkpt>
      <trkpt lat="49.9102" lon="2.39182">
        <ele>66.8</ele>
        <time>2022-09-23T14:39:13Z</time>
      </trkpt>
      <trkpt lat="49.91019" lon="2.39182">
        <ele>66.8</ele>
        <time>2022-09-23T14:39:14Z</time>
      </trkpt>
      <trkpt lat="49.91019" lon="2.39182">
        <ele>66.8</ele>
        <time>2022-09-23T14:39:15Z</time>
      </trkpt>
      <trkpt lat="49.91019" lon="2.39182">
        <ele>66.8</ele>
        <time>2022-09-23T14:39:16Z</time>
      </trkpt>
      <trkpt lat="49.91019" lon="2.39182">
        <ele>66.8</ele>
        <time>2022-09-23T14:39:17Z</time>
      </trkpt>
      <trkpt lat="49.91021" lon="2.39183">
        <ele>66.8</ele>
        <time>2022-09-23T14:39:18Z</time>
      </trkpt>
      <trkpt lat="49.91022" lon="2.39183">
        <ele>66.8</ele>
        <time>2022-09-23T14:39:19Z</time>
      </trkpt>
      <trkpt lat="49.91023" lon="2.39183">
        <ele>66.8</ele>
        <time>2022-09-23T14:39:20Z</time>
      </trkpt>
      <trkpt lat="49.91023" lon="2.39184">
        <ele>66.8</ele>
        <time>2022-09-23T14:39:21Z</time>
      </trkpt>
      <trkpt lat="49.91023" lon="2.39184">
        <ele>66.8</ele>
        <time>2022-09-23T14:39:22Z</time>
      </trkpt>
      <trkpt lat="49.91024" lon="2.39184">
        <ele>66.8</ele>
        <time>2022-09-23T14:39:23Z</time>
      </trkpt>
      <trkpt lat="49.91024" lon="2.39184">
        <ele>66.8</ele>
        <time>2022-09-23T14:39:24Z</time>
      </trkpt>
      <trkpt lat="49.91024" lon="2.39184">
        <ele>66.8</ele>
        <time>2022-09-23T14:39:25Z</time>
      </trkpt>
      <trkpt lat="49.91024" lon="2.39183">
        <ele>66.8</ele>
        <time>2022-09-23T14:39:26Z</time>
      </trkpt>
      <trkpt lat="49.91024" lon="2.39183">
        <ele>66.8</ele>
        <time>2022-09-23T14:39:27Z</time>
      </trkpt>
      <trkpt lat="49.91024" lon="2.39183">
        <ele>66.8</ele>
        <time>2022-09-23T14:39:28Z</time>
      </trkpt>
      <trkpt lat="49.91023" lon="2.39183">
        <ele>66.8</ele>
        <time>2022-09-23T14:39:29Z</time>
      </trkpt>
      <trkpt lat="49.91023" lon="2.39183">
        <ele>66.8</ele>
        <time>2022-09-23T14:39:30Z</time>
      </trkpt>
      <trkpt lat="49.91023" lon="2.39183">
        <ele>66.8</ele>
        <time>2022-09-23T14:39:31Z</time>
      </trkpt>
      <trkpt lat="49.91023" lon="2.39182">
        <ele>66.8</ele>
        <time>2022-09-23T14:39:32Z</time>
      </trkpt>
      <trkpt lat="49.91023" lon="2.39183">
        <ele>66.8</ele>
        <time>2022-09-23T14:39:33Z</time>
      </trkpt>
      <trkpt lat="49.91024" lon="2.39183">
        <ele>66.8</ele>
        <time>2022-09-23T14:39:34Z</time>
      </trkpt>
      <trkpt lat="49.91024" lon="2.39183">
        <ele>66.8</ele>
        <time>2022-09-23T14:39:35Z</time>
      </trkpt>
      <trkpt lat="49.91024" lon="2.39183">
        <ele>66.8</ele>
        <time>2022-09-23T14:39:36Z</time>
      </trkpt>
      <trkpt lat="49.91023" lon="2.39182">
        <ele>66.8</ele>
        <time>2022-09-23T14:39:37Z</time>
      </trkpt>
      <trkpt lat="49.91023" lon="2.39181">
        <ele>66.8</ele>
        <time>2022-09-23T14:39:38Z</time>
      </trkpt>
      <trkpt lat="49.91023" lon="2.39181">
        <ele>66.8</ele>
        <time>2022-09-23T14:39:39Z</time>
      </trkpt>
      <trkpt lat="49.91023" lon="2.39181">
        <ele>66.8</ele>
        <time>2022-09-23T14:39:40Z</time>
      </trkpt>
      <trkpt lat="49.91024" lon="2.3918">
        <ele>66.8</ele>
        <time>2022-09-23T14:39:42Z</time>
      </trkpt>
      <trkpt lat="49.91024" lon="2.3918">
        <ele>66.8</ele>
        <time>2022-09-23T14:39:43Z</time>
      </trkpt>
      <trkpt lat="49.91024" lon="2.3918">
        <ele>66.8</ele>
        <time>2022-09-23T14:39:44Z</time>
      </trkpt>
      <trkpt lat="49.91024" lon="2.3918">
        <ele>66.8</ele>
        <time>2022-09-23T14:39:45Z</time>
      </trkpt>
      <trkpt lat="49.91023" lon="2.39181">
        <ele>66.8</ele>
        <time>2022-09-23T14:39:46Z</time>
      </trkpt>
      <trkpt lat="49.91023" lon="2.39181">
        <ele>66.8</ele>
        <time>2022-09-23T14:39:47Z</time>
      </trkpt>
      <trkpt lat="49.91023" lon="2.39182">
        <ele>66.8</ele>
        <time>2022-09-23T14:39:48Z</time>
      </trkpt>
      <trkpt lat="49.91022" lon="2.39182">
        <ele>66.8</ele>
        <time>2022-09-23T14:39:49Z</time>
      </trkpt>
      <trkpt lat="49.91022" lon="2.39182">
        <ele>66.8</ele>
        <time>2022-09-23T14:39:50Z</time>
      </trkpt>
      <trkpt lat="49.91022" lon="2.39183">
        <ele>66.8</ele>
        <time>2022-09-23T14:39:51Z</time>
      </trkpt>
      <trkpt lat="49.91022" lon="2.39183">
        <ele>66.8</ele>
        <time>2022-09-23T14:39:52Z</time>
      </trkpt>
      <trkpt lat="49.91022" lon="2.39183">
        <ele>66.8</ele>
        <time>2022-09-23T14:39:53Z</time>
      </trkpt>
      <trkpt lat="49.91022" lon="2.39183">
        <ele>66.8</ele>
        <time>2022-09-23T14:39:54Z</time>
      </trkpt>
      <trkpt lat="49.91022" lon="2.39183">
        <ele>66.8</ele>
        <time>2022-09-23T14:39:55Z</time>
      </trkpt>
      <trkpt lat="49.91021" lon="2.39184">
        <ele>66.8</ele>
        <time>2022-09-23T14:39:56Z</time>
      </trkpt>
      <trkpt lat="49.91021" lon="2.39184">
        <ele>66.8</ele>
        <time>2022-09-23T14:39:57Z</time>
      </trkpt>
      <trkpt lat="49.91021" lon="2.39184">
        <ele>66.8</ele>
        <time>2022-09-23T14:39:58Z</time>
      </trkpt>
      <trkpt lat="49.91021" lon="2.39184">
        <ele>66.8</ele>
        <time>2022-09-23T14:40:00Z</time>
      </trkpt>
      <trkpt lat="49.91021" lon="2.39186">
        <ele>66.8</ele>
        <time>2022-09-23T14:40:01Z</time>
      </trkpt>
      <trkpt lat="49.91021" lon="2.39186">
        <ele>66.8</ele>
        <time>2022-09-23T14:40:02Z</time>
      </trkpt>
      <trkpt lat="49.9102" lon="2.39187">
        <ele>66.8</ele>
        <time>2022-09-23T14:40:03Z</time>
      </trkpt>
      <trkpt lat="49.9102" lon="2.39188">
        <ele>66.8</ele>
        <time>2022-09-23T14:40:05Z</time>
      </trkpt>
      <trkpt lat="49.9102" lon="2.39189">
        <ele>66.8</ele>
        <time>2022-09-23T14:40:06Z</time>
      </trkpt>
      <trkpt lat="49.9102" lon="2.39189">
        <ele>66.8</ele>
        <time>2022-09-23T14:40:08Z</time>
      </trkpt>
      <trkpt lat="49.9102" lon="2.39189">
        <ele>66.8</ele>
        <time>2022-09-23T14:40:09Z</time>
      </trkpt>
      <trkpt lat="49.9102" lon="2.39189">
        <ele>66.8</ele>
        <time>2022-09-23T14:40:10Z</time>
      </trkpt>
      <trkpt lat="49.9102" lon="2.39189">
        <ele>66.8</ele>
        <time>2022-09-23T14:40:11Z</time>
      </trkpt>
      <trkpt lat="49.9102" lon="2.39189">
        <ele>66.8</ele>
        <time>2022-09-23T14:40:12Z</time>
      </trkpt>
      <trkpt lat="49.9102" lon="2.39189">
        <ele>66.8</ele>
        <time>2022-09-23T14:40:13Z</time>
      </trkpt>
      <trkpt lat="49.91021" lon="2.39189">
        <ele>66.8</ele>
        <time>2022-09-23T14:40:14Z</time>
      </trkpt>
      <trkpt lat="49.91021" lon="2.39189">
        <ele>66.9</ele>
        <time>2022-09-23T14:40:15Z</time>
      </trkpt>
      <trkpt lat="49.91021" lon="2.39189">
        <ele>66.9</ele>
        <time>2022-09-23T14:40:16Z</time>
      </trkpt>
      <trkpt lat="49.91021" lon="2.39189">
        <ele>66.9</ele>
        <time>2022-09-23T14:40:17Z</time>
      </trkpt>
      <trkpt lat="49.91021" lon="2.39189">
        <ele>66.9</ele>
        <time>2022-09-23T14:40:18Z</time>
      </trkpt>
      <trkpt lat="49.91021" lon="2.39189">
        <ele>66.9</ele>
        <time>2022-09-23T14:40:19Z</time>
      </trkpt>
      <trkpt lat="49.91021" lon="2.39189">
        <ele>66.9</ele>
        <time>2022-09-23T14:40:20Z</time>
      </trkpt>
      <trkpt lat="49.91021" lon="2.39188">
        <ele>66.9</ele>
        <time>2022-09-23T14:40:21Z</time>
      </trkpt>
      <trkpt lat="49.91021" lon="2.39188">
        <ele>66.9</ele>
        <time>2022-09-23T14:40:22Z</time>
      </trkpt>
      <trkpt lat="49.91021" lon="2.39188">
        <ele>66.9</ele>
        <time>2022-09-23T14:40:23Z</time>
      </trkpt>
      <trkpt lat="49.91021" lon="2.39188">
        <ele>66.9</ele>
        <time>2022-09-23T14:40:24Z</time>
      </trkpt>
      <trkpt lat="49.91021" lon="2.39188">
        <ele>66.9</ele>
        <time>2022-09-23T14:40:25Z</time>
      </trkpt>
      <trkpt lat="49.91021" lon="2.39188">
        <ele>66.9</ele>
        <time>2022-09-23T14:40:26Z</time>
      </trkpt>
      <trkpt lat="49.9102" lon="2.39188">
        <ele>66.9</ele>
        <time>2022-09-23T14:40:27Z</time>
      </trkpt>
      <trkpt lat="49.91021" lon="2.39187">
        <ele>66.9</ele>
        <time>2022-09-23T14:40:28Z</time>
      </trkpt>
      <trkpt lat="49.91021" lon="2.39187">
        <ele>66.9</ele>
        <time>2022-09-23T14:40:29Z</time>
      </trkpt>
      <trkpt lat="49.91021" lon="2.39187">
        <ele>66.9</ele>
        <time>2022-09-23T14:40:30Z</time>
      </trkpt>
      <trkpt lat="49.9102" lon="2.39187">
        <ele>66.9</ele>
        <time>2022-09-23T14:40:31Z</time>
      </trkpt>
      <trkpt lat="49.9102" lon="2.39188">
        <ele>66.9</ele>
        <time>2022-09-23T14:40:32Z</time>
      </trkpt>
      <trkpt lat="49.9102" lon="2.39188">
        <ele>66.9</ele>
        <time>2022-09-23T14:40:33Z</time>
      </trkpt>
      <trkpt lat="49.9102" lon="2.39188">
        <ele>66.9</ele>
        <time>2022-09-23T14:40:34Z</time>
      </trkpt>
      <trkpt lat="49.9102" lon="2.39188">
        <ele>66.9</ele>
        <time>2022-09-23T14:40:35Z</time>
      </trkpt>
      <trkpt lat="49.9102" lon="2.39188">
        <ele>66.9</ele>
        <time>2022-09-23T14:40:36Z</time>
      </trkpt>
      <trkpt lat="49.91019" lon="2.39188">
        <ele>66.9</ele>
        <time>2022-09-23T14:40:37Z</time>
      </trkpt>
      <trkpt lat="49.91019" lon="2.39188">
        <ele>66.9</ele>
        <time>2022-09-23T14:40:38Z</time>
      </trkpt>
      <trkpt lat="49.91019" lon="2.39189">
        <ele>66.9</ele>
        <time>2022-09-23T14:40:39Z</time>
      </trkpt>
      <trkpt lat="49.91019" lon="2.39189">
        <ele>66.9</ele>
        <time>2022-09-23T14:40:40Z</time>
      </trkpt>
      <trkpt lat="49.91019" lon="2.39189">
        <ele>66.9</ele>
        <time>2022-09-23T14:40:42Z</time>
      </trkpt>
      <trkpt lat="49.91019" lon="2.39189">
        <ele>66.9</ele>
        <time>2022-09-23T14:40:43Z</time>
      </trkpt>
      <trkpt lat="49.91018" lon="2.39189">
        <ele>66.9</ele>
        <time>2022-09-23T14:40:44Z</time>
      </trkpt>
      <trkpt lat="49.91018" lon="2.3919">
        <ele>66.9</ele>
        <time>2022-09-23T14:40:45Z</time>
      </trkpt>
      <trkpt lat="49.91018" lon="2.39189">
        <ele>66.9</ele>
        <time>2022-09-23T14:40:46Z</time>
      </trkpt>
      <trkpt lat="49.91018" lon="2.39189">
        <ele>66.9</ele>
        <time>2022-09-23T14:40:47Z</time>
      </trkpt>
      <trkpt lat="49.91019" lon="2.39188">
        <ele>66.9</ele>
        <time>2022-09-23T14:40:48Z</time>
      </trkpt>
      <trkpt lat="49.91019" lon="2.39188">
        <ele>66.9</ele>
        <time>2022-09-23T14:40:49Z</time>
      </trkpt>
      <trkpt lat="49.91019" lon="2.39188">
        <ele>66.9</ele>
        <time>2022-09-23T14:40:50Z</time>
      </trkpt>
      <trkpt lat="49.91019" lon="2.39188">
        <ele>66.9</ele>
        <time>2022-09-23T14:40:51Z</time>
      </trkpt>
      <trkpt lat="49.91019" lon="2.39188">
        <ele>66.9</ele>
        <time>2022-09-23T14:40:52Z</time>
      </trkpt>
      <trkpt lat="49.91019" lon="2.39189">
        <ele>66.9</ele>
        <time>2022-09-23T14:40:53Z</time>
      </trkpt>
      <trkpt lat="49.91019" lon="2.39189">
        <ele>66.9</ele>
        <time>2022-09-23T14:40:54Z</time>
      </trkpt>
      <trkpt lat="49.91019" lon="2.39189">
        <ele>66.9</ele>
        <time>2022-09-23T14:40:55Z</time>
      </trkpt>
      <trkpt lat="49.91019" lon="2.39189">
        <ele>66.9</ele>
        <time>2022-09-23T14:40:56Z</time>
      </trkpt>
      <trkpt lat="49.91019" lon="2.39189">
        <ele>66.9</ele>
        <time>2022-09-23T14:40:57Z</time>
      </trkpt>
      <trkpt lat="49.91019" lon="2.39189">
        <ele>66.9</ele>
        <time>2022-09-23T14:40:58Z</time>
      </trkpt>
      <trkpt lat="49.91019" lon="2.39189">
        <ele>66.9</ele>
        <time>2022-09-23T14:40:59Z</time>
      </trkpt>
      <trkpt lat="49.91019" lon="2.39189">
        <ele>66.9</ele>
        <time>2022-09-23T14:41:00Z</time>
      </trkpt>
      <trkpt lat="49.91019" lon="2.39189">
        <ele>66.9</ele>
        <time>2022-09-23T14:41:01Z</time>
      </trkpt>
      <trkpt lat="49.9102" lon="2.39189">
        <ele>66.9</ele>
        <time>2022-09-23T14:41:02Z</time>
      </trkpt>
      <trkpt lat="49.91019" lon="2.39189">
        <ele>66.9</ele>
        <time>2022-09-23T14:41:03Z</time>
      </trkpt>
      <trkpt lat="49.91019" lon="2.39189">
        <ele>66.9</ele>
        <time>2022-09-23T14:41:04Z</time>
      </trkpt>
      <trkpt lat="49.91019" lon="2.39189">
        <ele>66.9</ele>
        <time>2022-09-23T14:41:05Z</time>
      </trkpt>
      <trkpt lat="49.91019" lon="2.39189">
        <ele>66.9</ele>
        <time>2022-09-23T14:41:06Z</time>
      </trkpt>
      <trkpt lat="49.91019" lon="2.39189">
        <ele>66.9</ele>
        <time>2022-09-23T14:41:07Z</time>
      </trkpt>
      <trkpt lat="49.91019" lon="2.39189">
        <ele>66.9</ele>
        <time>2022-09-23T14:41:08Z</time>
      </trkpt>
      <trkpt lat="49.91019" lon="2.39189">
        <ele>66.9</ele>
        <time>2022-09-23T14:41:09Z</time>
      </trkpt>
      <trkpt lat="49.91019" lon="2.39189">
        <ele>66.9</ele>
        <time>2022-09-23T14:41:10Z</time>
      </trkpt>
      <trkpt lat="49.91019" lon="2.39189">
        <ele>66.9</ele>
        <time>2022-09-23T14:41:11Z</time>
      </trkpt>
      <trkpt lat="49.91019" lon="2.39189">
        <ele>66.9</ele>
        <time>2022-09-23T14:41:12Z</time>
      </trkpt>
      <trkpt lat="49.91019" lon="2.39189">
        <ele>66.9</ele>
        <time>2022-09-23T14:41:13Z</time>
      </trkpt>
      <trkpt lat="49.91019" lon="2.39189">
        <ele>66.9</ele>
        <time>2022-09-23T14:41:14Z</time>
      </trkpt>
      <trkpt lat="49.91019" lon="2.39189">
        <ele>66.9</ele>
        <time>2022-09-23T14:41:15Z</time>
      </trkpt>
      <trkpt lat="49.91019" lon="2.39189">
        <ele>66.9</ele>
        <time>2022-09-23T14:41:16Z</time>
      </trkpt>
      <trkpt lat="49.91019" lon="2.39189">
        <ele>66.9</ele>
        <time>2022-09-23T14:41:17Z</time>
      </trkpt>
      <trkpt lat="49.91019" lon="2.39189">
        <ele>66.9</ele>
        <time>2022-09-23T14:41:18Z</time>
      </trkpt>
      <trkpt lat="49.91019" lon="2.39189">
        <ele>66.9</ele>
        <time>2022-09-23T14:41:19Z</time>
      </trkpt>
      <trkpt lat="49.91019" lon="2.39189">
        <ele>66.9</ele>
        <time>2022-09-23T14:41:20Z</time>
      </trkpt>
      <trkpt lat="49.91019" lon="2.39189">
        <ele>66.9</ele>
        <time>2022-09-23T14:41:21Z</time>
      </trkpt>
      <trkpt lat="49.91019" lon="2.39189">
        <ele>66.9</ele>
        <time>2022-09-23T14:41:22Z</time>
      </trkpt>
      <trkpt lat="49.91019" lon="2.39189">
        <ele>66.9</ele>
        <time>2022-09-23T14:41:23Z</time>
      </trkpt>
      <trkpt lat="49.91019" lon="2.39189">
        <ele>66.9</ele>
        <time>2022-09-23T14:41:24Z</time>
      </trkpt>
      <trkpt lat="49.91019" lon="2.39189">
        <ele>66.9</ele>
        <time>2022-09-23T14:41:25Z</time>
      </trkpt>
      <trkpt lat="49.91019" lon="2.39189">
        <ele>66.9</ele>
        <time>2022-09-23T14:41:26Z</time>
      </trkpt>
      <trkpt lat="49.91019" lon="2.39189">
        <ele>66.9</ele>
        <time>2022-09-23T14:41:27Z</time>
      </trkpt>
      <trkpt lat="49.91019" lon="2.39189">
        <ele>66.9</ele>
        <time>2022-09-23T14:41:29Z</time>
      </trkpt>
      <trkpt lat="49.91019" lon="2.39189">
        <ele>66.9</ele>
        <time>2022-09-23T14:41:30Z</time>
      </trkpt>
      <trkpt lat="49.91019" lon="2.39189">
        <ele>66.9</ele>
        <time>2022-09-23T14:41:31Z</time>
      </trkpt>
      <trkpt lat="49.91019" lon="2.39189">
        <ele>66.9</ele>
        <time>2022-09-23T14:41:32Z</time>
      </trkpt>
      <trkpt lat="49.91019" lon="2.39189">
        <ele>66.9</ele>
        <time>2022-09-23T14:41:33Z</time>
      </trkpt>
    </trkseg>
  </trk>
</gpx>